# Wetter Temperatur Luftdruck Luftfeuchtigkeit Sichtweite Windgeschwindigkeit Windrichtung Zeit
1 Clear 16 1008 59 10000 1.67 258 07:21 16.05.2021
2 Clear 14 1008 63 10000 1.21 248 05:32 16.05.2021
3 Clear 18 1008 34 10000 1.12 240 00:50 16.05.2021
4 Clear 18 1008 39 10000 0.94 242 23:57 15.05.2021
5 Rain 18 1008 39 10000 0.4 164 23:22 15.05.2021
6 Clear 18 1008 42 10000 0.4 164 22:49 15.05.2021
7 Clear 18 1008 42 10000 1.48 91 22:26 15.05.2021
8 Rain 20 1008 35 10000 1.48 91 21:42 15.05.2021
9 Clear 20 1008 35 10000 2.15 90 21:21 15.05.2021
10 Rain 22 1008 28 10000 2.45 75 20:44 15.05.2021
11 Clear 22 1008 28 10000 2.72 61 20:21 15.05.2021
12 Clear 24 1008 22 10000 2.72 61 19:40 15.05.2021
13 Clear 27 1009 20 10000 2.76 25 18:47 15.05.2021
14 Clear 27 1009 20 10000 2.66 316 18:20 15.05.2021
15 Clear 29 1009 18 10000 2.66 316 17:30 15.05.2021
16 Clouds 29 1010 19 10000 0.51 0 16:49 15.05.2021
17 Clouds 30 1010 19 10000 0.51 0 16:26 15.05.2021
18 Clouds 29 1011 23 10000 2.57 280 15:58 15.05.2021
19 Clouds 29 1011 23 10000 2.57 280 15:20 15.05.2021
20 Clear 28 1011 24 10000 1.03 0 14:30 15.05.2021
21 Clear 27 1013 26 10000 3.59 229 13:56 15.05.2021
22 Clear 27 1013 26 10000 3.59 229 13:31 15.05.2021
23 Clear 26 1014 25 10000 0.51 0 12:40 15.05.2021
24 Clear 24 1015 27 10000 2.95 230 11:50 15.05.2021
25 Clear 23 1015 28 10000 2.16 228 10:58 15.05.2021
26 Clear 23 1015 28 10000 1.6 217 10:25 15.05.2021
27 Clear 21 1015 46 10000 1.6 217 09:30 15.05.2021
28 Clear 19 1016 52 10000 1.11 237 08:33 15.05.2021
29 Clear 16 1016 59 10000 0.51 0 07:40 15.05.2021
30 Clear 15 1016 59 10000 0.51 0 07:21 15.05.2021
31 Clear 13 1016 62 10000 1.03 130 06:48 15.05.2021
32 Clear 10 1015 71 10000 0.51 90 04:50 15.05.2021
33 Clear 13 1015 58 10000 0.51 240 02:24 15.05.2021
34 Clear 16 1015 41 10000 1.63 265 23:59 14.05.2021
35 Clear 16 1015 41 10000 2.02 255 23:26 14.05.2021
36 Clear 18 1014 27 10000 2.05 238 22:26 14.05.2021
37 Clear 20 1014 24 10000 2.05 238 21:49 14.05.2021
38 Clear 20 1014 24 10000 2.09 223 21:27 14.05.2021
39 Clear 22 1013 20 10000 2.05 229 20:47 14.05.2021
40 Clear 22 1013 20 10000 2.21 239 20:25 14.05.2021
41 Clear 24 1012 16 10000 2.21 239 19:42 14.05.2021
42 Clear 25 1012 16 10000 2.69 268 19:22 14.05.2021
43 Clear 27 1011 15 10000 5.14 260 18:44 14.05.2021
44 Clear 28 1011 15 10000 5.14 260 18:20 14.05.2021
45 Clear 28 1011 15 10000 3.6 261 17:38 14.05.2021
46 Clear 29 1011 15 10000 4.28 238 17:19 14.05.2021
47 Clear 29 1011 14 10000 4.28 238 16:43 14.05.2021
48 Clear 29 1011 14 10000 6.07 251 16:24 14.05.2021
49 Clear 29 1011 14 10000 5.14 240 15:23 14.05.2021
50 Clear 30 1012 13 10000 6.69 230 14:41 14.05.2021
51 Clear 29 1012 15 10000 7.61 233 13:53 14.05.2021
52 Clear 29 1012 15 10000 6.67 219 13:27 14.05.2021
53 Clear 27 1013 21 10000 2.06 250 12:46 14.05.2021
54 Clear 27 1013 21 10000 2.06 250 12:24 14.05.2021
55 Clear 26 1014 21 10000 4.9 204 11:29 14.05.2021
56 Clear 24 1014 20 10000 4.9 204 10:56 14.05.2021
57 Clear 24 1014 20 10000 4.9 204 10:32 14.05.2021
58 Clear 23 1014 25 10000 1.54 290 09:45 14.05.2021
59 Clear 22 1014 25 10000 1.54 290 09:26 14.05.2021
60 Clear 21 1015 28 10000 2.58 220 08:39 14.05.2021
61 Clear 17 1015 39 10000 2.28 219 07:44 14.05.2021
62 Clear 13 1014 50 10000 1.6 190 06:45 14.05.2021
63 Clear 13 1013 44 10000 1.25 201 02:50 14.05.2021
64 Clear 13 1013 41 10000 1.64 204 01:35 14.05.2021
65 Clear 15 1012 39 10000 2.2 226 00:25 14.05.2021
66 Clear 15 1012 39 10000 0.51 0 23:43 13.05.2021
67 Clear 17 1012 39 10000 0.51 0 23:19 13.05.2021
68 Clear 18 1011 26 10000 2.66 230 22:42 13.05.2021
69 Clear 19 1011 26 10000 2.89 230 22:24 13.05.2021
70 Clear 31 1011 32 10000 0 0 21:43 13.05.2021
71 Clear 31 1011 32 10000 0 0 21:24 13.05.2021
72 Clear 34 1010 24 10000 3.09 220 20:48 13.05.2021
73 Clear 34 1010 24 10000 3.09 220 20:27 13.05.2021
74 Clear 38 1009 19 10000 3.09 240 19:40 13.05.2021
75 Clear 38 1009 19 10000 3.09 240 19:20 13.05.2021
76 Clear 41 1007 35 10000 3.09 206 18:50 13.05.2021
77 Clear 40 1009 18 10000 4.63 240 18:25 13.05.2021
78 Clear 43 1007 33 10000 3.46 219 17:52 13.05.2021
79 Clouds 40 1009 17 10000 6.17 240 17:32 13.05.2021
80 Clear 43 1006 25 10000 4.6 222 16:58 13.05.2021
81 Clouds 41 1009 15 10000 5.14 220 16:20 13.05.2021
82 Clear 43 1006 22 10000 6.46 223 15:56 13.05.2021
83 Clouds 42 1009 17 10000 5.14 240 15:37 13.05.2021
84 Clouds 42 1009 17 10000 5.14 240 15:18 13.05.2021
85 Clouds 41 1010 20 10000 0 0 14:41 13.05.2021
86 Clouds 41 1010 20 10000 0 0 14:22 13.05.2021
87 Clouds 39 1011 23 10000 5.14 240 13:44 13.05.2021
88 Clouds 39 1011 23 10000 5.14 240 13:25 13.05.2021
89 Clear 38 1011 24 10000 2.57 260 12:45 13.05.2021
90 Clear 38 1011 24 10000 2.57 260 12:22 13.05.2021
91 Clear 36 1011 25 10000 3.6 290 11:43 13.05.2021
92 Clear 25 1009 25 10000 5.05 225 10:59 13.05.2021
93 Clear 17 1008 28 10000 0.45 324 10:39 13.05.2021
94 Clear 17 1005 31 10000 0.89 296 09:57 13.05.2021
95 Clear 16 1008 30 10000 1.03 0 09:30 13.05.2021
96 Clear 14 1008 33 10000 0.89 201 08:43 13.05.2021
97 Clear 14 1009 35 10000 0 0 08:20 13.05.2021
98 Clear 11 1009 42 10000 0 0 07:38 13.05.2021
99 Clouds 10 1005 41 10000 1.37 204 05:57 13.05.2021
100 Clouds 1 1008 41 10000 1.13 226 02:57 13.05.2021
101 Clear 5 1010 54 10000 0 0 02:32 13.05.2021
102 Clear 6 1007 39 10000 0.24 213 23:52 12.05.2021
103 Clear 5 1008 38 10000 0.78 105 22:57 12.05.2021
104 Clear 8 1009 47 10000 0 0 22:25 12.05.2021
105 Clear 8 1008 37 10000 1.13 97 21:56 12.05.2021
106 Clear 11 1009 36 10000 0 0 21:20 12.05.2021
107 Clear 14 1009 28 10000 0 0 20:51 12.05.2021
108 Clear 14 1009 28 10000 0 0 20:18 12.05.2021
109 Clear 17 1008 20 10000 0 0 19:37 12.05.2021
110 Clear 19 1008 19 10000 0 0 18:32 12.05.2021
111 Clouds 18 1006 35 10000 1.13 8 17:56 12.05.2021
112 Clear 20 1008 15 10000 0 0 17:36 12.05.2021
113 Clear 20 1006 17 10000 0.89 221 17:18 12.05.2021
114 Clear 20 1006 16 10000 1.34 236 16:36 12.05.2021
115 Clear 26 1009 18 10000 4.69 260 15:49 12.05.2021
116 Clear 25 1009 18 10000 4.69 260 15:30 12.05.2021
117 Clear 26 1009 17 10000 6.08 255 14:40 12.05.2021
118 Clear 26 1009 17 10000 5.64 250 14:20 12.05.2021
119 Clear 25 1010 18 10000 5.64 250 13:42 12.05.2021
120 Clear 24 1010 22 10000 4.86 243 12:49 12.05.2021
121 Clear 24 1010 22 10000 4.26 231 12:26 12.05.2021
122 Clear 23 1010 23 10000 0.51 0 11:40 12.05.2021
123 Clear 21 1011 28 10000 3.72 219 11:00 12.05.2021
124 Clear 21 1011 28 10000 3.72 219 10:41 12.05.2021
125 Clear 19 1012 29 10000 2.82 214 09:50 12.05.2021
126 Clear 18 1012 29 10000 1.76 179 09:29 12.05.2021
127 Clear 16 1012 33 10000 1.76 179 08:57 12.05.2021
128 Clear 16 1012 33 10000 1.75 181 08:36 12.05.2021
129 Clear 16 1012 33 10000 1.26 118 08:18 12.05.2021
130 Clear 10 1012 61 10000 1.5 87 06:32 12.05.2021
131 Clear 10 1012 49 10000 1.75 73 02:39 12.05.2021
132 Clear 11 1013 50 10000 1.73 70 00:39 12.05.2021
133 Clear 13 1013 33 10000 1.96 62 23:50 11.05.2021
134 Clear 13 1013 33 10000 2.27 53 23:29 11.05.2021
135 Clear 13 1013 35 10000 2.27 53 22:59 11.05.2021
136 Clear 13 1013 35 10000 2.27 53 22:41 11.05.2021
137 Clear 13 1013 35 10000 2.47 44 22:18 11.05.2021
138 Clear 15 1013 31 10000 2.47 44 21:47 11.05.2021
139 Clear 15 1013 31 10000 2.47 44 21:47 11.05.2021
140 Clear 15 1013 31 10000 2.37 31 21:28 11.05.2021
141 Clear 16 1013 27 10000 2.62 29 20:46 11.05.2021
142 Clear 16 1013 27 10000 2.26 22 20:26 11.05.2021
143 Clear 19 1012 24 10000 2.26 22 19:45 11.05.2021
144 Clear 20 1012 24 10000 1.93 335 19:23 11.05.2021
145 Clear 21 1012 18 10000 1.93 335 18:50 11.05.2021
146 Clear 22 1012 18 10000 2.33 282 18:28 11.05.2021
147 Clear 23 1012 17 10000 2.33 282 17:44 11.05.2021
148 Clear 22 1012 17 10000 2.81 272 17:23 11.05.2021
149 Clear 22 1013 17 10000 2.81 272 16:52 11.05.2021
150 Clear 22 1013 17 10000 2.74 267 16:27 11.05.2021
151 Clear 22 1013 17 10000 2.74 267 15:45 11.05.2021
152 Clear 22 1013 17 10000 2.48 274 15:20 11.05.2021
153 Clear 21 1014 14 10000 2.22 278 14:44 11.05.2021
154 Clear 21 1014 14 10000 2.26 289 14:24 11.05.2021
155 Clear 21 1015 13 10000 2.26 289 13:58 11.05.2021
156 Clear 20 1015 13 10000 2.37 297 13:24 11.05.2021
157 Clear 20 1015 24 10000 1.54 0 12:58 11.05.2021
158 Clear 19 1015 24 10000 1.54 0 12:39 11.05.2021
159 Clear 18 1016 22 10000 2.13 298 11:50 11.05.2021
160 Clear 18 1016 22 10000 2.13 298 11:32 11.05.2021
161 Clear 17 1016 25 10000 1.77 300 10:58 11.05.2021
162 Clear 17 1016 25 10000 1.77 300 10:39 11.05.2021
163 Clear 15 1016 31 10000 1.32 300 09:59 11.05.2021
164 Clear 15 1016 31 10000 1.32 300 09:40 11.05.2021
165 Clear 14 1016 31 10000 0.4 268 09:22 11.05.2021
166 Clear 14 1017 38 10000 0.4 268 08:49 11.05.2021
167 Clear 13 1017 38 10000 0.37 133 08:30 11.05.2021
168 Clear 11 1017 43 10000 0.37 133 07:54 11.05.2021
169 Clear 11 1017 43 10000 0.93 94 07:26 11.05.2021
170 Clear 6 1017 60 10000 1.32 80 05:56 11.05.2021
171 Clear 8 1018 40 10000 1.24 76 00:56 11.05.2021
172 Clear 8 1018 40 10000 1.24 76 00:37 11.05.2021
173 Clear 9 1018 32 10000 1.35 71 23:47 10.05.2021
174 Clear 9 1018 32 10000 1.53 72 23:21 10.05.2021
175 Clear 9 1018 37 10000 1.53 72 22:49 10.05.2021
176 Clear 10 1018 37 10000 1.53 82 22:20 10.05.2021
177 Clear 10 1018 37 10000 1.53 82 22:20 10.05.2021
178 Clear 11 1018 26 10000 1.53 82 21:50 10.05.2021
179 Clear 11 1018 26 10000 1.98 84 21:27 10.05.2021
180 Clear 14 1018 18 10000 1.98 84 20:45 10.05.2021
181 Clear 14 1018 18 10000 2.42 89 20:21 10.05.2021
182 Clear 16 1018 16 10000 2.42 89 19:48 10.05.2021
183 Clear 16 1018 16 10000 2.79 93 19:24 10.05.2021
184 Clear 18 1018 17 10000 2.79 93 18:57 10.05.2021
185 Clear 16 1018 21 10000 2.57 50 18:28 10.05.2021
186 Clear 16 1018 20 10000 3.09 60 17:58 10.05.2021
187 Clear 16 1018 20 10000 3.09 60 17:36 10.05.2021
188 Clear 18 1018 15 10000 2.83 70 16:55 10.05.2021
189 Clear 18 1018 15 10000 2.99 58 16:28 10.05.2021
190 Clear 18 1019 17 10000 2.99 58 15:47 10.05.2021
191 Clear 17 1019 17 10000 3.54 55 15:29 10.05.2021
192 Clear 17 1020 22 10000 3.54 55 14:54 10.05.2021
193 Clear 17 1020 22 10000 3.68 51 14:28 10.05.2021
194 Clear 16 1021 27 10000 3.68 51 13:51 10.05.2021
195 Clear 14 1022 33 10000 3.28 52 12:55 10.05.2021
196 Clear 14 1022 33 10000 3.28 52 12:33 10.05.2021
197 Clear 13 1022 38 10000 2.72 60 11:55 10.05.2021
198 Clear 13 1022 38 10000 2.72 60 11:37 10.05.2021
199 Clear 13 1022 38 10000 2.46 70 11:18 10.05.2021
200 Clear 12 1023 40 10000 2.46 70 10:44 10.05.2021
201 Clouds 11 1023 46 10000 2.41 75 09:58 10.05.2021
202 Clouds 10 1023 46 10000 2.41 75 09:36 10.05.2021
203 Clear 10 1023 50 10000 5.14 80 08:43 10.05.2021
204 Clear 9 1023 50 10000 5.14 80 08:19 10.05.2021
205 Clear 8 1024 57 10000 6.17 70 07:48 10.05.2021
206 Clear 8 1024 57 10000 6.17 70 07:27 10.05.2021
207 Clear 6 1023 57 10000 2.57 75 06:47 10.05.2021
208 Clear 4 1023 69 10000 2.29 61 03:54 10.05.2021
209 Clear 6 1024 42 10000 2.58 43 00:37 10.05.2021
210 Clear 8 1024 40 10000 2.8 27 22:55 09.05.2021
211 Clear 8 1024 40 10000 2.8 27 22:37 09.05.2021
212 Clear 8 1024 40 10000 3.17 22 22:18 09.05.2021
213 Clear 9 1024 40 10000 3.17 22 21:41 09.05.2021
214 Clear 10 1023 37 10000 7.72 50 20:55 09.05.2021
215 Clear 10 1023 37 10000 7.72 50 20:35 09.05.2021
216 Clear 12 1022 30 10000 4.84 24 19:52 09.05.2021
217 Clear 12 1022 30 10000 5.35 17 19:28 09.05.2021
218 Clear 13 1022 29 10000 5.35 17 18:51 09.05.2021
219 Clear 14 1022 29 10000 6.16 4 18:29 09.05.2021
220 Clear 15 1021 27 10000 6.16 4 17:47 09.05.2021
221 Clear 15 1021 27 10000 6.17 355 16:45 09.05.2021
222 Clear 15 1021 27 10000 6.2 353 16:24 09.05.2021
223 Clear 15 1021 27 10000 1.03 20 15:47 09.05.2021
224 Clear 16 1021 27 10000 1.03 20 15:18 09.05.2021
225 Clouds 15 1022 25 10000 6.34 351 14:36 09.05.2021
226 Clouds 16 1022 25 10000 3.09 350 13:46 09.05.2021
227 Clouds 15 1021 23 10000 7.72 320 12:57 09.05.2021
228 Clouds 15 1021 23 10000 7.72 320 12:29 09.05.2021
229 Clouds 15 1021 27 10000 4.63 340 11:41 09.05.2021
230 Clouds 15 1021 27 10000 4.63 340 11:20 09.05.2021
231 Clouds 14 1021 29 10000 6.17 360 10:41 09.05.2021
232 Clouds 14 1020 50 10000 4.12 310 09:49 09.05.2021
233 Clouds 13 1020 50 10000 4.12 310 09:29 09.05.2021
234 Clouds 13 1019 50 10000 3.6 360 08:54 09.05.2021
235 Clouds 13 1019 50 10000 3.6 360 08:31 09.05.2021
236 Clouds 11 1019 54 10000 3.09 350 07:52 09.05.2021
237 Clouds 12 1018 50 10000 4.12 360 06:53 09.05.2021
238 Clouds 12 1017 58 10000 4.63 350 05:34 09.05.2021
239 Clouds 16 1014 55 10000 2.42 298 00:52 09.05.2021
240 Clouds 16 1014 51 10000 1.89 280 23:38 08.05.2021
241 Clouds 16 1014 51 10000 1.64 268 23:19 08.05.2021
242 Clouds 17 1014 55 10000 1.64 268 22:39 08.05.2021
243 Clouds 17 1014 55 10000 1.17 294 22:19 08.05.2021
244 Clouds 17 1014 45 10000 1.17 294 21:44 08.05.2021
245 Clouds 19 1013 42 10000 0.46 348 21:18 08.05.2021
246 Clouds 19 1013 42 10000 0.37 341 20:43 08.05.2021
247 Clouds 19 1013 42 10000 1.11 254 20:19 08.05.2021
248 Clouds 20 1014 40 10000 0.51 0 19:23 08.05.2021
249 Clouds 21 1014 40 10000 0.75 249 18:51 08.05.2021
250 Clouds 21 1014 40 10000 0.75 249 18:33 08.05.2021
251 Clouds 22 1014 38 10000 1.36 205 17:51 08.05.2021
252 Clouds 21 1014 35 10000 1.2 226 16:57 08.05.2021
253 Clouds 21 1015 40 10000 3.49 259 16:30 08.05.2021
254 Rain 22 1015 31 10000 3.09 290 15:49 08.05.2021
255 Rain 24 1014 29 10000 0.51 0 15:31 08.05.2021
256 Rain 26 1014 22 10000 5.61 291 14:49 08.05.2021
257 Clouds 27 1014 22 10000 4.92 297 14:20 08.05.2021
258 Clouds 26 1015 22 10000 4.92 297 13:46 08.05.2021
259 Clouds 26 1015 22 10000 5.54 279 13:20 08.05.2021
260 Clouds 25 1015 31 10000 5.54 279 12:30 08.05.2021
261 Clouds 24 1015 33 10000 6.79 269 11:42 08.05.2021
262 Clouds 23 1016 35 10000 4.77 257 10:59 08.05.2021
263 Clouds 23 1016 35 10000 4.77 257 10:41 08.05.2021
264 Clouds 23 1016 35 10000 2.81 240 10:20 08.05.2021
265 Clear 21 1016 40 10000 2.81 240 09:47 08.05.2021
266 Clear 20 1016 40 10000 2.46 232 09:27 08.05.2021
267 Clear 17 1017 59 10000 1.69 220 08:25 08.05.2021
268 Clear 15 1016 62 10000 1.69 220 07:41 08.05.2021
269 Clear 13 1016 76 10000 1.03 0 06:52 08.05.2021
270 Clear 12 1015 76 10000 1.27 131 05:21 08.05.2021
271 Clear 15 1016 62 10000 0.51 10 01:51 08.05.2021
272 Clear 15 1016 62 10000 1.44 152 00:50 08.05.2021
273 Clear 15 1016 62 10000 1.77 140 00:27 08.05.2021
274 Clear 16 1017 63 10000 1.72 128 23:29 07.05.2021
275 Clear 16 1017 55 10000 1.72 128 22:48 07.05.2021
276 Clear 15 1017 55 10000 1.68 124 22:19 07.05.2021
277 Clear 16 1017 55 10000 1.68 124 21:38 07.05.2021
278 Clear 16 1017 55 10000 1.54 118 21:19 07.05.2021
279 Clear 17 1017 51 10000 1.54 118 20:41 07.05.2021
280 Clear 17 1017 51 10000 0.59 166 20:21 07.05.2021
281 Clear 19 1017 42 10000 0.59 166 19:43 07.05.2021
282 Clear 20 1017 42 10000 1.66 261 19:24 07.05.2021
283 Clear 23 1016 33 10000 1.66 261 18:43 07.05.2021
284 Clear 23 1016 33 10000 2.57 269 18:24 07.05.2021
285 Clear 24 1016 31 10000 3.42 262 17:25 07.05.2021
286 Clear 24 1016 31 10000 3.42 262 16:59 07.05.2021
287 Clear 24 1016 31 10000 3.42 262 16:37 07.05.2021
288 Clear 24 1017 31 10000 3.43 266 15:52 07.05.2021
289 Clear 24 1017 31 10000 3.43 266 15:33 07.05.2021
290 Clear 24 1017 29 10000 3.07 267 14:59 07.05.2021
291 Clear 24 1017 29 10000 2.74 270 14:32 07.05.2021
292 Clear 23 1018 33 10000 2.53 274 13:54 07.05.2021
293 Clear 23 1018 33 10000 2.42 267 13:21 07.05.2021
294 Clouds 22 1018 33 10000 2.42 267 12:44 07.05.2021
295 Clouds 22 1018 33 10000 2.01 250 12:25 07.05.2021
296 Clouds 21 1020 40 10000 2.57 90 11:51 07.05.2021
297 Clear 20 1019 45 10000 1.76 241 11:26 07.05.2021
298 Clear 20 1019 45 10000 1.76 241 10:42 07.05.2021
299 Clear 19 1019 45 10000 1.35 229 10:22 07.05.2021
300 Clear 19 1019 45 10000 1.35 229 10:22 07.05.2021
301 Clear 18 1020 45 10000 1.35 229 09:46 07.05.2021
302 Clear 17 1020 55 10000 0.59 208 08:55 07.05.2021
303 Clear 15 1020 55 10000 0.69 122 08:32 07.05.2021
304 Clear 14 1020 67 10000 0.62 70 07:18 07.05.2021
305 Clear 11 1020 81 10000 0.62 70 06:45 07.05.2021
306 Clear 9 1018 87 10000 0.93 41 03:38 07.05.2021
307 Clear 12 1018 71 10000 1.45 325 23:49 06.05.2021
308 Clear 13 1017 67 10000 1.06 322 22:51 06.05.2021
309 Clear 11 1017 67 10000 0.84 304 22:22 06.05.2021
310 Clear 13 1017 62 10000 0.84 304 21:39 06.05.2021
311 Clear 14 1016 58 10000 1.6 289 20:44 06.05.2021
312 Clear 14 1016 58 10000 1.59 285 20:21 06.05.2021
313 Clear 16 1015 51 10000 1.6 285 19:48 06.05.2021
314 Clear 16 1015 51 10000 1.8 303 19:23 06.05.2021
315 Clouds 17 1015 45 10000 1.8 303 18:56 06.05.2021
316 Clouds 17 1015 45 10000 1.8 303 18:34 06.05.2021
317 Clouds 17 1015 45 10000 2.62 315 17:50 06.05.2021
318 Clouds 17 1015 45 10000 2.94 325 17:23 06.05.2021
319 Clouds 17 1015 48 10000 1.03 330 16:56 06.05.2021
320 Clouds 17 1015 48 10000 1.03 330 16:34 06.05.2021
321 Clouds 17 1015 45 10000 4.12 290 15:56 06.05.2021
322 Clouds 17 1015 45 10000 4.12 290 15:38 06.05.2021
323 Clouds 18 1015 45 10000 4.12 300 14:59 06.05.2021
324 Clouds 18 1015 45 10000 4.12 300 14:23 06.05.2021
325 Clouds 17 1014 55 10000 4.12 310 13:51 06.05.2021
326 Clouds 18 1014 55 10000 4.12 310 13:21 06.05.2021
327 Clouds 17 1014 55 10000 4.12 330 12:37 06.05.2021
328 Clouds 17 1014 55 10000 4.12 330 12:19 06.05.2021
329 Clouds 17 1014 59 10000 4.12 290 11:43 06.05.2021
330 Clouds 16 1014 59 10000 4.12 290 11:20 06.05.2021
331 Clouds 15 1014 72 10000 4.12 250 10:44 06.05.2021
332 Rain 15 1014 72 10000 4.12 250 10:23 06.05.2021
333 Rain 16 1014 59 10000 4.33 250 09:42 06.05.2021
334 Rain 16 1014 59 10000 5.15 250 09:22 06.05.2021
335 Clouds 16 1013 59 10000 0.51 280 08:37 06.05.2021
336 Clouds 16 1013 59 10000 0.51 280 08:37 06.05.2021
337 Clouds 16 1013 59 10000 0.51 280 08:18 06.05.2021
338 Clouds 15 1013 67 10000 2.61 274 07:43 06.05.2021
339 Clouds 12 1012 71 10000 1.65 269 06:44 06.05.2021
340 Clouds 12 1012 71 10000 1.54 242 06:25 06.05.2021
341 Clouds 12 1012 71 10000 1.54 242 06:25 06.05.2021
342 Clear 12 1012 76 10000 0.51 0 05:42 06.05.2021
343 Clear 12 1012 71 10000 0.51 250 04:29 06.05.2021
344 Clear 14 1012 55 10000 1.66 255 01:55 06.05.2021
345 Clear 13 1012 66 10000 0.74 196 23:28 05.05.2021
346 Clear 14 1011 58 10000 0.74 196 22:31 05.05.2021
347 Clear 15 1011 55 10000 1.33 126 21:57 05.05.2021
348 Clear 15 1011 55 10000 1.33 126 21:35 05.05.2021
349 Clear 17 1011 45 10000 1.08 177 20:57 05.05.2021
350 Clear 17 1011 45 10000 1.15 240 20:28 05.05.2021
351 Clouds 20 1011 35 10000 1.15 240 19:42 05.05.2021
352 Clouds 20 1011 35 10000 1.64 264 19:23 05.05.2021
353 Clouds 22 1011 33 10000 1.54 300 18:38 05.05.2021
354 Clouds 22 1011 33 10000 1.54 300 18:18 05.05.2021
355 Clouds 22 1011 31 10000 1.03 0 17:43 05.05.2021
356 Clouds 22 1011 31 10000 1.03 0 17:24 05.05.2021
357 Clouds 22 1012 31 10000 2.93 238 16:48 05.05.2021
358 Clouds 23 1012 31 10000 2.38 216 16:28 05.05.2021
359 Clouds 23 1012 28 10000 2.38 216 15:46 05.05.2021
360 Clouds 23 1012 28 10000 2.14 209 15:20 05.05.2021
361 Clouds 23 1012 28 10000 2.13 205 14:42 05.05.2021
362 Clouds 23 1012 28 10000 1.71 191 14:23 05.05.2021
363 Clouds 22 1013 33 10000 1.71 191 13:32 05.05.2021
364 Clouds 21 1014 37 10000 2.57 70 12:51 05.05.2021
365 Clouds 21 1014 37 10000 2.57 70 12:26 05.05.2021
366 Clouds 20 1014 42 10000 1.54 20 11:49 05.05.2021
367 Clouds 19 1014 42 10000 1.54 20 11:26 05.05.2021
368 Clear 18 1015 45 10000 1.54 40 10:51 05.05.2021
369 Clear 18 1015 45 10000 1.54 40 10:26 05.05.2021
370 Clear 17 1015 48 10000 2.57 80 09:45 05.05.2021
371 Clear 15 1016 51 10000 4.12 60 08:51 05.05.2021
372 Clear 15 1016 51 10000 4.12 60 08:32 05.05.2021
373 Clear 13 1016 58 10000 3.6 70 07:57 05.05.2021
374 Clear 13 1016 58 10000 3.6 70 07:38 05.05.2021
375 Clear 11 1016 76 10000 1.76 87 06:53 05.05.2021
376 Clear 11 1015 66 10000 2.06 90 04:56 05.05.2021
377 Clear 12 1015 71 10000 3.6 80 01:41 05.05.2021
378 Clear 13 1016 67 10000 3.6 60 23:46 04.05.2021
379 Clear 13 1016 67 10000 3.6 60 23:22 04.05.2021
380 Clouds 14 1016 63 10000 4.63 60 22:42 04.05.2021
381 Clouds 14 1016 63 10000 4.63 60 22:19 04.05.2021
382 Clouds 15 1015 63 10000 5.66 70 21:50 04.05.2021
383 Clouds 15 1015 63 10000 5.66 70 21:28 04.05.2021
384 Clouds 16 1015 55 10000 5.66 70 20:48 04.05.2021
385 Clouds 16 1015 55 10000 5.66 70 20:27 04.05.2021
386 Clouds 16 1015 55 10000 5.66 70 20:27 04.05.2021
387 Clouds 17 1015 48 10000 5.66 50 19:57 04.05.2021
388 Clouds 17 1015 48 10000 5.66 50 19:57 04.05.2021
389 Clouds 17 1015 48 10000 5.66 50 19:38 04.05.2021
390 Clouds 17 1015 48 10000 5.66 50 19:19 04.05.2021
391 Clouds 18 1015 42 10000 4.63 40 18:40 04.05.2021
392 Clouds 19 1015 45 10000 4.12 310 17:59 04.05.2021
393 Clouds 19 1015 45 10000 4.12 310 17:38 04.05.2021
394 Clouds 20 1015 45 10000 4.12 310 17:18 04.05.2021
395 Clouds 20 1015 45 10000 1.54 20 16:37 04.05.2021
396 Clouds 20 1015 45 10000 1.54 20 16:19 04.05.2021
397 Clouds 20 1015 45 10000 1.54 20 16:19 04.05.2021
398 Clouds 20 1015 45 10000 1.03 0 15:23 04.05.2021
399 Clouds 20 1015 45 10000 3.6 320 14:37 04.05.2021
400 Clouds 19 1015 49 10000 4.63 310 13:43 04.05.2021
401 Clouds 20 1015 49 10000 4.63 310 13:22 04.05.2021
402 Clouds 20 1016 45 10000 4.63 310 12:57 04.05.2021
403 Rain 20 1016 45 10000 4.63 310 12:30 04.05.2021
404 Clouds 20 1016 45 10000 2.57 20 11:47 04.05.2021
405 Rain 19 1016 45 10000 2.57 20 11:28 04.05.2021
406 Clouds 20 1016 48 10000 7 305 10:47 04.05.2021
407 Clouds 19 1016 48 10000 6.53 294 10:27 04.05.2021
408 Clouds 19 1016 55 10000 0.51 0 09:45 04.05.2021
409 Rain 18 1016 55 10000 0.51 0 09:22 04.05.2021
410 Rain 18 1016 55 10000 0.51 20 08:50 04.05.2021
411 Rain 18 1016 55 10000 0.51 20 08:25 04.05.2021
412 Clouds 17 1016 59 10000 2.45 302 07:48 04.05.2021
413 Clouds 17 1016 59 10000 1.94 312 07:29 04.05.2021
414 Clear 16 1015 63 10000 1.28 327 06:27 04.05.2021
415 Clear 15 1015 72 10000 1.39 300 04:54 04.05.2021
416 Clear 16 1015 67 10000 1.03 311 02:36 04.05.2021
417 Clear 18 1016 52 10000 1.26 295 00:36 04.05.2021
418 Clear 19 1015 49 10000 0.51 0 23:38 03.05.2021
419 Clear 19 1015 49 10000 0.51 0 23:38 03.05.2021
420 Clear 21 1015 40 10000 1.92 349 22:49 03.05.2021
421 Clear 21 1015 40 10000 1.92 349 22:31 03.05.2021
422 Clear 22 1014 38 10000 2.24 344 21:52 03.05.2021
423 Clear 22 1014 38 10000 2.28 339 21:31 03.05.2021
424 Clear 22 1014 38 10000 2.24 344 21:31 03.05.2021
425 Clear 24 1013 33 10000 1.72 349 20:57 03.05.2021
426 Clear 24 1013 33 10000 1.72 349 20:39 03.05.2021
427 Clear 25 1012 28 10000 2.06 310 19:57 03.05.2021
428 Clear 25 1012 28 10000 2.06 310 19:35 03.05.2021
429 Clear 27 1012 26 10000 2.96 326 18:47 03.05.2021
430 Clear 28 1012 26 10000 4.04 316 18:26 03.05.2021
431 Clear 28 1012 24 10000 4.04 316 17:35 03.05.2021
432 Clear 29 1012 23 10000 2.57 280 16:56 03.05.2021
433 Clear 29 1012 23 10000 2.57 280 16:38 03.05.2021
434 Clear 29 1012 23 10000 2.06 260 15:55 03.05.2021
435 Clear 29 1012 23 10000 2.06 260 15:34 03.05.2021
436 Clear 28 1013 28 10000 4.12 240 14:42 03.05.2021
437 Clear 29 1013 28 10000 4.12 240 14:19 03.05.2021
438 Clear 29 1014 26 10000 3.09 250 13:47 03.05.2021
439 Clear 29 1014 26 10000 3.09 250 13:28 03.05.2021
440 Clear 28 1014 29 10000 1.03 280 12:43 03.05.2021
441 Clear 28 1014 29 10000 1.03 280 12:20 03.05.2021
442 Clear 27 1015 31 10000 7.14 281 11:39 03.05.2021
443 Clear 26 1015 31 10000 5.02 277 11:20 03.05.2021
444 Clear 27 1015 36 10000 5.02 277 10:44 03.05.2021
445 Clear 25 1015 36 10000 4.38 269 10:21 03.05.2021
446 Clear 25 1016 40 10000 4.38 269 09:42 03.05.2021
447 Clear 22 1016 49 10000 2.75 270 08:53 03.05.2021
448 Clear 21 1016 49 10000 2.45 278 08:25 03.05.2021
449 Clear 18 1016 72 10000 2.45 278 07:56 03.05.2021
450 Clear 17 1016 77 10000 1.56 253 06:42 03.05.2021
451 Clear 17 1016 77 10000 1.16 219 06:20 03.05.2021
452 Clear 15 1015 71 10000 1.03 0 05:43 03.05.2021
453 Clear 17 1015 63 10000 0.46 236 01:24 03.05.2021
454 Clear 17 1015 55 10000 0.47 165 00:18 03.05.2021
455 Clear 20 1015 46 10000 0.77 154 23:22 02.05.2021
456 Clear 21 1014 49 10000 0.77 154 22:41 02.05.2021
457 Clear 21 1014 49 10000 1.21 113 22:19 02.05.2021
458 Clear 22 1014 35 10000 1.21 113 21:44 02.05.2021
459 Clear 23 1014 35 10000 1.36 57 21:24 02.05.2021
460 Clear 25 1014 33 10000 1.35 89 20:27 02.05.2021
461 Clear 25 1013 36 10000 1.35 89 19:52 02.05.2021
462 Clear 25 1013 36 10000 1 79 19:24 02.05.2021
463 Clear 27 1013 24 10000 1 79 18:57 02.05.2021
464 Clear 27 1013 24 10000 1 79 18:38 02.05.2021
465 Clear 27 1013 24 10000 1.19 104 18:19 02.05.2021
466 Clear 28 1014 26 10000 1.19 104 17:44 02.05.2021
467 Clear 28 1014 26 10000 1.19 347 17:25 02.05.2021
468 Clear 29 1014 23 10000 1.19 347 16:47 02.05.2021
469 Clear 29 1014 23 10000 4.13 303 16:28 02.05.2021
470 Clouds 28 1015 24 10000 4.13 303 15:45 02.05.2021
471 Clouds 28 1015 24 10000 5.18 277 15:24 02.05.2021
472 Clouds 27 1016 26 10000 4.95 291 14:47 02.05.2021
473 Clouds 27 1016 26 10000 3.85 288 14:28 02.05.2021
474 Clouds 27 1017 24 10000 3.85 288 13:46 02.05.2021
475 Clouds 27 1017 24 10000 3.02 293 13:23 02.05.2021
476 Clear 27 1017 29 10000 3.02 293 12:55 02.05.2021
477 Clear 27 1017 29 10000 3.02 293 12:37 02.05.2021
478 Clear 27 1017 29 10000 2.41 307 12:19 02.05.2021
479 Clouds 25 1018 33 10000 2.41 307 11:39 02.05.2021
480 Clouds 25 1018 33 10000 2.88 299 11:21 02.05.2021
481 Clouds 23 1018 40 10000 2.64 307 10:22 02.05.2021
482 Clouds 21 1019 45 10000 2.64 307 09:50 02.05.2021
483 Clouds 20 1019 45 10000 2.1 337 09:30 02.05.2021
484 Clouds 18 1020 55 10000 1.81 332 08:58 02.05.2021
485 Clouds 17 1020 55 10000 1.81 332 08:34 02.05.2021
486 Clouds 17 1020 55 10000 1.81 332 08:34 02.05.2021
487 Clouds 14 1020 67 10000 1.95 303 07:56 02.05.2021
488 Rain 16 1020 67 10000 1.59 233 07:24 02.05.2021
489 Clear 13 1019 76 10000 1.14 204 05:32 02.05.2021
490 Clear 14 1019 76 10000 0.51 0 03:32 02.05.2021
491 Clear 14 1019 62 10000 0.92 68 00:26 02.05.2021
492 Clear 15 1019 51 10000 0.92 68 23:37 01.05.2021
493 Clear 15 1019 51 10000 1.2 60 23:19 01.05.2021
494 Clear 17 1019 51 10000 1.2 60 22:38 01.05.2021
495 Clear 17 1019 51 10000 1.58 59 22:18 01.05.2021
496 Clear 19 1019 48 10000 1.58 59 21:40 01.05.2021
497 Clear 19 1019 48 10000 1.79 39 21:21 01.05.2021
498 Clear 20 1018 37 10000 1.73 32 20:50 01.05.2021
499 Clear 20 1018 37 10000 2.14 13 20:28 01.05.2021
500 Clear 22 1018 29 10000 2.14 13 19:53 01.05.2021
501 Clear 23 1018 29 10000 2.14 13 19:31 01.05.2021
502 Clouds 25 1017 27 10000 3.09 280 18:53 01.05.2021
503 Clouds 25 1017 27 10000 3.09 280 18:33 01.05.2021
504 Clouds 26 1017 24 10000 3.09 270 17:51 01.05.2021
505 Clouds 26 1017 24 10000 3.09 270 17:28 01.05.2021
506 Clouds 26 1018 24 10000 3.09 280 16:45 01.05.2021
507 Clouds 26 1018 24 10000 3.09 280 16:25 01.05.2021
508 Clouds 26 1018 22 10000 6.17 280 15:42 01.05.2021
509 Clouds 26 1018 25 10000 6.17 270 14:33 01.05.2021
510 Clouds 26 1019 24 10000 5.14 290 13:37 01.05.2021
511 Clouds 26 1019 24 10000 5.14 290 13:19 01.05.2021
512 Clouds 25 1020 29 10000 2.06 270 12:37 01.05.2021
513 Clouds 25 1020 29 10000 2.06 270 12:18 01.05.2021
514 Clear 24 1020 31 10000 4.48 286 11:41 01.05.2021
515 Clear 24 1020 31 10000 3.52 264 11:22 01.05.2021
516 Clear 23 1020 35 10000 3.52 264 10:42 01.05.2021
517 Clear 21 1020 40 10000 2.19 246 09:56 01.05.2021
518 Clear 20 1020 40 10000 1.27 257 09:27 01.05.2021
519 Clear 19 1021 45 10000 1.31 262 08:51 01.05.2021
520 Clear 16 1021 55 10000 0.88 260 07:46 01.05.2021
521 Clear 12 1021 76 10000 0.49 233 06:48 01.05.2021
522 Clear 8 1020 76 10000 0.51 240 05:30 01.05.2021
523 Clear 13 1020 58 10000 0.75 335 00:40 01.05.2021
524 Clear 13 1020 58 10000 1.23 335 00:19 01.05.2021
525 Clear 14 1020 47 10000 1.23 335 23:35 30.04.2021
526 Clear 15 1019 47 10000 1.1 357 22:43 30.04.2021
527 Clear 15 1019 47 10000 1.29 358 22:19 30.04.2021
528 Clear 17 1019 34 10000 1.29 358 21:45 30.04.2021
529 Clear 17 1019 34 10000 0.36 318 21:24 30.04.2021
530 Clear 19 1018 28 10000 0.36 318 20:47 30.04.2021
531 Clear 19 1018 28 10000 1.39 322 20:22 30.04.2021
532 Clouds 21 1017 26 10000 1.39 322 19:39 30.04.2021
533 Clouds 23 1017 27 10000 2.65 321 18:48 30.04.2021
534 Clouds 23 1017 27 10000 4.48 310 18:28 30.04.2021
535 Clouds 24 1017 29 10000 7.72 280 17:53 30.04.2021
536 Clouds 24 1017 29 10000 7.72 280 17:29 30.04.2021
537 Clouds 24 1017 27 10000 2.57 270 16:53 30.04.2021
538 Clouds 24 1017 27 10000 2.57 270 16:32 30.04.2021
539 Clouds 25 1017 22 10000 7.2 280 15:43 30.04.2021
540 Clouds 25 1017 22 10000 7.2 280 15:23 30.04.2021
541 Clouds 25 1017 23 10000 8.23 270 14:53 30.04.2021
542 Clouds 25 1017 23 10000 8.23 270 14:34 30.04.2021
543 Clouds 24 1018 33 10000 8.75 260 13:55 30.04.2021
544 Clouds 24 1018 33 10000 8.75 260 13:37 30.04.2021
545 Clouds 23 1018 43 10000 5.66 250 12:53 30.04.2021
546 Clouds 23 1018 43 10000 5.66 250 12:35 30.04.2021
547 Clouds 23 1019 38 10000 3.6 280 11:47 30.04.2021
548 Clouds 23 1019 38 10000 3.6 280 11:47 30.04.2021
549 Clouds 23 1019 38 10000 3.6 280 11:22 30.04.2021
550 Clouds 23 1019 37 10000 1.54 300 10:48 30.04.2021
551 Clouds 21 1019 37 10000 1.54 300 10:28 30.04.2021
552 Clouds 20 1019 49 10000 0.51 0 09:42 30.04.2021
553 Clouds 18 1018 52 10000 0.51 0 08:57 30.04.2021
554 Clouds 18 1018 52 10000 0.51 0 08:28 30.04.2021
555 Clouds 17 1018 55 10000 3.58 270 07:35 30.04.2021
556 Clouds 16 1017 63 10000 3.24 267 06:55 30.04.2021
557 Clouds 16 1017 63 10000 2.32 252 06:26 30.04.2021
558 Clouds 15 1017 72 10000 1.03 0 05:44 30.04.2021
559 Clear 16 1017 55 10000 0.51 260 02:58 30.04.2021
560 Clear 18 1017 45 10000 2.06 280 01:47 30.04.2021
561 Clear 18 1017 51 10000 2.06 240 00:47 30.04.2021
562 Clear 19 1017 42 10000 1.54 230 23:29 29.04.2021
563 Clear 19 1016 45 10000 3.09 220 22:46 29.04.2021
564 Clear 19 1016 45 10000 3.09 220 22:25 29.04.2021
565 Clear 20 1016 37 10000 1.81 201 21:57 29.04.2021
566 Clear 20 1016 37 10000 1.81 201 21:38 29.04.2021
567 Clear 19 1016 37 10000 1.35 210 21:18 29.04.2021
568 Clear 20 1015 37 10000 1.59 222 20:42 29.04.2021
569 Clear 21 1015 37 10000 2.12 252 20:24 29.04.2021
570 Clouds 23 1014 33 10000 2.12 252 19:47 29.04.2021
571 Clouds 23 1014 33 10000 2.38 278 19:26 29.04.2021
572 Clouds 25 1014 29 10000 3.09 260 18:53 29.04.2021
573 Clouds 25 1014 29 10000 3.09 260 18:35 29.04.2021
574 Clouds 27 1014 24 10000 7.72 260 17:47 29.04.2021
575 Clouds 27 1014 24 10000 7.72 260 17:21 29.04.2021
576 Clouds 27 1014 23 10000 9.77 260 16:50 29.04.2021
577 Clouds 28 1014 23 10000 9.77 260 16:25 29.04.2021
578 Clouds 28 1014 21 10000 10.8 260 15:53 29.04.2021
579 Clouds 28 1014 21 10000 10.8 260 15:27 29.04.2021
580 Clouds 28 1015 21 10000 10.8 250 14:47 29.04.2021
581 Clouds 28 1015 21 10000 10.8 250 14:26 29.04.2021
582 Clouds 27 1015 24 10000 9.26 260 13:50 29.04.2021
583 Clouds 27 1015 24 10000 9.26 260 13:28 29.04.2021
584 Clouds 27 1016 29 10000 6.17 280 12:47 29.04.2021
585 Clouds 27 1016 29 10000 6.17 280 12:28 29.04.2021
586 Clouds 26 1016 34 10000 7.2 280 11:49 29.04.2021
587 Clouds 26 1016 34 10000 7.2 280 11:27 29.04.2021
588 Clouds 25 1017 43 10000 2.57 280 10:52 29.04.2021
589 Clouds 24 1017 43 10000 2.57 280 10:32 29.04.2021
590 Clouds 23 1017 46 10000 2.57 280 09:47 29.04.2021
591 Clouds 22 1017 46 10000 2.57 280 09:28 29.04.2021
592 Clouds 21 1016 52 10000 2.06 310 08:55 29.04.2021
593 Clouds 20 1016 52 10000 2.06 310 08:33 29.04.2021
594 Clouds 18 1017 72 10000 1.54 230 07:48 29.04.2021
595 Clouds 18 1017 72 10000 1.54 230 07:18 29.04.2021
596 Clouds 15 1017 82 10000 1.03 0 05:32 29.04.2021
597 Rain 19 1018 42 10000 5.14 270 01:53 29.04.2021
598 Clear 20 1017 37 10000 5.66 240 23:53 28.04.2021
599 Clear 20 1017 37 10000 5.66 240 23:19 28.04.2021
600 Clear 20 1017 32 10000 4.63 230 22:39 28.04.2021
601 Clear 21 1017 32 10000 4.63 230 22:20 28.04.2021
602 Clear 21 1017 28 10000 7.2 240 21:38 28.04.2021
603 Clear 21 1017 28 10000 7.2 240 21:20 28.04.2021
604 Clear 19 1016 39 10000 0.51 0 20:42 28.04.2021
605 Clear 20 1016 39 10000 0.51 0 20:24 28.04.2021
606 Clear 20 1015 37 10000 0.51 0 19:47 28.04.2021
607 Clear 21 1015 37 10000 0.51 0 19:25 28.04.2021
608 Clear 23 1015 27 10000 1.03 0 18:51 28.04.2021
609 Clear 23 1015 27 10000 1.03 0 18:31 28.04.2021
610 Clear 24 1015 23 10000 0.51 0 17:49 28.04.2021
611 Clear 25 1015 23 10000 2.06 250 17:26 28.04.2021
612 Clear 25 1015 23 10000 2.06 250 16:45 28.04.2021
613 Clear 25 1015 23 10000 2.06 250 16:18 28.04.2021
614 Clear 24 1016 22 10000 3.09 300 15:46 28.04.2021
615 Clear 24 1016 25 10000 4.63 280 14:57 28.04.2021
616 Clear 24 1016 25 10000 4.63 280 14:39 28.04.2021
617 Clear 24 1016 25 10000 4.63 280 14:19 28.04.2021
618 Clear 23 1016 25 10000 6.69 260 13:36 28.04.2021
619 Clear 24 1016 25 10000 5.14 260 12:57 28.04.2021
620 Clear 23 1016 25 10000 5.14 260 12:39 28.04.2021
621 Clear 23 1016 35 10000 3.09 290 11:54 28.04.2021
622 Clear 23 1016 35 10000 3.09 290 11:32 28.04.2021
623 Clear 21 1016 37 10000 2.57 270 10:56 28.04.2021
624 Clear 21 1016 37 10000 2.57 270 10:37 28.04.2021
625 Clear 21 1016 37 10000 2.57 270 10:19 28.04.2021
626 Clear 20 1016 48 10000 1.03 0 09:40 28.04.2021
627 Clear 18 1016 48 10000 1.03 0 09:21 28.04.2021
628 Clear 18 1016 58 10000 1.03 0 08:37 28.04.2021
629 Clear 18 1016 58 10000 1.03 0 08:37 28.04.2021
630 Clear 13 1016 71 10000 1.03 0 07:29 28.04.2021
631 Clear 9 1016 81 10000 1.12 141 06:36 28.04.2021
632 Clear 9 1016 81 10000 1.03 0 05:24 28.04.2021
633 Clear 11 1015 71 10000 1.26 146 02:40 28.04.2021
634 Clear 11 1015 71 10000 1.03 0 01:23 28.04.2021
635 Clear 12 1015 62 10000 0.51 0 23:58 27.04.2021
636 Clear 12 1015 62 10000 0.51 0 23:40 27.04.2021
637 Clear 13 1015 62 10000 1.33 136 22:52 27.04.2021
638 Clear 13 1015 62 10000 1.32 135 22:33 27.04.2021
639 Clear 13 1015 58 10000 1.03 0 21:57 27.04.2021
640 Clear 13 1015 58 10000 1.03 0 21:38 27.04.2021
641 Clear 13 1015 58 10000 1.03 0 21:18 27.04.2021
642 Clear 13 1015 41 10000 1.03 0 20:42 27.04.2021
643 Clear 14 1015 41 10000 1.03 0 20:18 27.04.2021
644 Clear 16 1015 31 10000 2.57 240 19:40 27.04.2021
645 Clear 16 1015 31 10000 2.57 240 19:21 27.04.2021
646 Clear 16 1015 31 10000 2.57 240 19:21 27.04.2021
647 Clear 18 1014 39 10000 4.12 270 18:42 27.04.2021
648 Clear 19 1014 39 10000 4.12 270 18:22 27.04.2021
649 Clear 20 1014 34 10000 3.6 260 17:33 27.04.2021
650 Clear 20 1014 34 10000 3.6 260 16:58 27.04.2021
651 Clear 20 1014 34 10000 3.6 260 16:37 27.04.2021
652 Clear 20 1014 34 10000 3.6 260 16:19 27.04.2021
653 Clear 19 1015 32 10000 3.6 250 15:40 27.04.2021
654 Clear 19 1015 32 10000 3.6 250 15:20 27.04.2021
655 Clouds 19 1015 39 10000 2.57 220 14:49 27.04.2021
656 Clouds 19 1015 39 10000 2.57 220 14:27 27.04.2021
657 Clouds 18 1016 45 10000 2.57 270 13:56 27.04.2021
658 Clouds 18 1016 45 10000 2.57 270 13:28 27.04.2021
659 Clouds 17 1016 48 10000 3.09 270 12:42 27.04.2021
660 Clouds 15 1017 51 10000 2.06 260 11:58 27.04.2021
661 Clouds 15 1017 51 10000 2.06 260 11:29 27.04.2021
662 Clouds 14 1018 58 10000 2.06 260 10:52 27.04.2021
663 Clouds 14 1018 58 10000 2.06 260 10:26 27.04.2021
664 Clouds 13 1018 62 10000 1.54 30 09:55 27.04.2021
665 Clouds 10 1018 62 10000 1.54 60 08:57 27.04.2021
666 Clouds 10 1018 62 10000 1.54 60 08:35 27.04.2021
667 Clouds 9 1018 76 10000 0.51 0 07:49 27.04.2021
668 Clouds 7 1017 76 10000 1.03 0 06:58 27.04.2021
669 Clouds 7 1017 76 10000 1.03 0 06:30 27.04.2021
670 Clouds 6 1017 81 10000 1.54 240 05:33 27.04.2021
671 Clouds 6 1017 81 10000 1.03 0 01:57 27.04.2021
672 Clouds 6 1017 75 10000 1.03 260 00:29 27.04.2021
673 Clouds 7 1017 81 10000 1.03 0 23:48 26.04.2021
674 Clouds 7 1017 81 10000 1.03 0 23:21 26.04.2021
675 Clouds 7 1017 66 10000 2.06 220 22:52 26.04.2021
676 Clouds 7 1017 66 10000 2.06 220 22:27 26.04.2021
677 Clouds 8 1016 61 10000 3.09 350 21:42 26.04.2021
678 Clouds 8 1016 61 10000 3.09 350 21:23 26.04.2021
679 Clouds 8 1016 61 10000 3.09 350 21:23 26.04.2021
680 Clouds 9 1016 57 10000 4.63 20 20:47 26.04.2021
681 Clouds 9 1016 57 10000 4.63 20 20:29 26.04.2021
682 Clouds 10 1015 58 10000 3.6 20 19:49 26.04.2021
683 Clouds 11 1015 58 10000 3.6 20 19:26 26.04.2021
684 Clouds 12 1013 54 10000 5.14 310 18:47 26.04.2021
685 Clouds 13 1013 54 10000 5.14 310 18:28 26.04.2021
686 Clouds 14 1013 51 10000 6.69 310 17:51 26.04.2021
687 Clouds 14 1013 51 10000 6.69 310 17:30 26.04.2021
688 Clouds 15 1013 51 10000 7.2 300 16:48 26.04.2021
689 Clouds 15 1013 51 10000 7.2 300 16:28 26.04.2021
690 Clouds 15 1012 55 10000 5.14 310 15:57 26.04.2021
691 Clouds 15 1012 55 10000 5.14 310 15:37 26.04.2021
692 Clouds 15 1012 55 10000 5.14 310 15:19 26.04.2021
693 Clouds 15 1012 55 10000 5.14 300 14:35 26.04.2021
694 Clouds 15 1012 59 10000 5.14 300 13:55 26.04.2021
695 Clouds 15 1012 59 10000 5.14 300 13:37 26.04.2021
696 Clouds 15 1012 59 10000 5.14 300 13:18 26.04.2021
697 Clouds 14 1012 67 10000 5.66 280 11:57 26.04.2021
698 Clouds 14 1012 67 10000 5.66 280 11:39 26.04.2021
699 Clouds 14 1011 67 10000 5.66 280 10:53 26.04.2021
700 Clouds 14 1011 67 10000 5.66 280 10:53 26.04.2021
701 Clouds 14 1011 67 10000 5.66 280 10:32 26.04.2021
702 Clouds 14 1011 67 10000 5.66 280 10:32 26.04.2021
703 Clouds 14 1010 72 10000 3.6 300 09:57 26.04.2021
704 Clouds 14 1010 72 10000 3.6 300 09:39 26.04.2021
705 Clouds 14 1010 72 10000 3.6 300 09:19 26.04.2021
706 Clouds 13 1010 76 10000 3.6 280 08:22 26.04.2021
707 Clouds 12 1010 82 10000 1.54 250 07:54 26.04.2021
708 Clouds 12 1010 82 10000 1.54 250 07:28 26.04.2021
709 Clouds 10 1010 93 10000 1.03 0 06:39 26.04.2021
710 Clouds 10 1009 87 10000 1.54 150 05:38 26.04.2021
711 Clouds 10 1010 87 10000 3.09 280 04:38 26.04.2021
712 Clouds 11 1010 93 10000 3.09 250 03:23 26.04.2021
713 Clouds 11 1010 93 10000 0.51 0 01:26 26.04.2021
714 Clouds 11 1010 93 10000 1.03 0 00:46 26.04.2021
715 Clouds 12 1010 94 10000 1.3 17 23:48 25.04.2021
716 Rain 12 1010 94 10000 0.87 13 23:27 25.04.2021
717 Clouds 12 1011 94 10000 0.51 0 22:56 25.04.2021
718 Rain 12 1011 94 10000 0.51 0 22:36 25.04.2021
719 Rain 12 1011 94 10000 0.51 0 22:18 25.04.2021
720 Clouds 13 1012 82 10000 1.03 0 21:41 25.04.2021
721 Clouds 13 1012 82 10000 1.03 0 21:23 25.04.2021
722 Clouds 13 1012 77 10000 0.51 0 20:48 25.04.2021
723 Clouds 13 1012 77 10000 0.51 0 20:26 25.04.2021
724 Rain 13 1011 77 10000 0.51 0 19:48 25.04.2021
725 Rain 14 1011 77 10000 0.51 0 19:28 25.04.2021
726 Rain 15 1011 67 10000 2.06 140 18:53 25.04.2021
727 Rain 15 1011 67 10000 2.06 140 18:29 25.04.2021
728 Rain 15 1011 59 10000 2.57 330 17:57 25.04.2021
729 Rain 15 1011 59 10000 2.57 330 17:39 25.04.2021
730 Rain 16 1011 59 10000 2.57 330 17:20 25.04.2021
731 Rain 16 1012 55 10000 3.09 280 16:41 25.04.2021
732 Clouds 17 1012 55 10000 3.09 280 16:22 25.04.2021
733 Clouds 18 1012 52 10000 1.54 0 15:27 25.04.2021
734 Clouds 16 1012 55 10000 2.06 20 14:55 25.04.2021
735 Clouds 16 1012 55 10000 2.06 20 14:55 25.04.2021
736 Rain 18 1012 55 10000 2.06 20 14:21 25.04.2021
737 Rain 16 1013 67 10000 2.57 350 13:50 25.04.2021
738 Rain 16 1013 67 10000 2.57 350 13:21 25.04.2021
739 Rain 15 1014 72 10000 3.09 290 12:49 25.04.2021
740 Clouds 15 1014 72 10000 3.09 290 12:26 25.04.2021
741 Clouds 15 1015 71 10000 1.54 240 11:47 25.04.2021
742 Clouds 14 1015 71 10000 1.54 240 11:25 25.04.2021
743 Clouds 14 1014 62 10000 2.57 110 10:46 25.04.2021
744 Rain 14 1014 62 10000 2.57 110 10:20 25.04.2021
745 Clouds 12 1014 71 10000 3.09 100 09:46 25.04.2021
746 Clouds 12 1014 71 10000 3.09 100 09:25 25.04.2021
747 Clouds 11 1015 82 10000 3.6 110 08:21 25.04.2021
748 Rain 11 1015 76 10000 2.06 110 07:45 25.04.2021
749 Rain 11 1015 76 10000 2.06 110 07:19 25.04.2021
750 Rain 11 1015 76 10000 1.03 0 06:30 25.04.2021
751 Rain 12 1014 71 10000 3.6 270 04:55 25.04.2021
752 Rain 12 1014 71 10000 3.6 270 04:37 25.04.2021
753 Clear 11 1015 71 10000 2.67 56 01:44 25.04.2021
754 Clear 11 1015 71 10000 2.58 57 00:58 25.04.2021
755 Clear 12 1016 76 10000 1.54 270 23:53 24.04.2021
756 Clear 12 1016 76 10000 1.54 270 23:35 24.04.2021
757 Clear 13 1015 62 10000 0.51 0 22:58 24.04.2021
758 Clear 13 1015 62 10000 0.51 0 22:36 24.04.2021
759 Clear 14 1016 58 10000 1.03 0 21:55 24.04.2021
760 Clear 15 1016 58 10000 1.03 0 21:28 24.04.2021
761 Clear 15 1015 51 10000 0.51 0 20:50 24.04.2021
762 Clear 16 1015 51 10000 0.51 0 20:30 24.04.2021
763 Clear 17 1015 42 10000 1.91 353 19:54 24.04.2021
764 Clear 17 1015 42 10000 1.38 354 19:25 24.04.2021
765 Clouds 18 1015 42 10000 1.03 290 18:58 24.04.2021
766 Clouds 18 1015 42 10000 1.03 290 18:32 24.04.2021
767 Rain 19 1016 37 10000 1.54 310 17:54 24.04.2021
768 Clouds 19 1016 37 10000 1.54 310 17:26 24.04.2021
769 Clouds 19 1016 37 10000 2.57 300 16:49 24.04.2021
770 Clouds 19 1016 37 10000 2.57 300 16:30 24.04.2021
771 Clouds 19 1017 37 10000 1.54 290 15:35 24.04.2021
772 Clear 20 1018 40 10000 2.57 0 14:54 24.04.2021
773 Clear 20 1018 40 10000 2.57 0 14:29 24.04.2021
774 Clear 19 1018 34 10000 1.03 0 13:49 24.04.2021
775 Clear 19 1018 34 10000 1.03 0 13:25 24.04.2021
776 Clouds 19 1019 39 10000 2.06 110 12:38 24.04.2021
777 Clouds 19 1019 39 10000 2.06 110 12:18 24.04.2021
778 Clouds 18 1020 39 10000 1.54 0 11:40 24.04.2021
779 Clouds 17 1020 42 10000 2.06 0 10:52 24.04.2021
780 Clouds 17 1020 42 10000 2.06 0 10:27 24.04.2021
781 Clouds 16 1021 48 10000 1.54 0 09:53 24.04.2021
782 Clouds 16 1021 48 10000 1.54 0 09:26 24.04.2021
783 Clear 13 1021 58 10000 0.51 0 07:44 24.04.2021
784 Clear 10 1020 76 10000 1.54 290 06:28 24.04.2021
785 Clear 11 1020 62 10000 1.03 20 03:24 24.04.2021
786 Clear 11 1020 54 10000 2.06 0 00:35 24.04.2021
787 Clear 13 1020 47 10000 3.6 250 23:25 23.04.2021
788 Clear 12 1020 50 10000 3.09 230 22:46 23.04.2021
789 Clear 13 1020 47 10000 1.54 270 22:20 23.04.2021
790 Clear 13 1020 47 10000 1.54 270 21:44 23.04.2021
791 Clear 13 1020 47 10000 1.54 270 21:25 23.04.2021
792 Clear 15 1019 38 10000 1.03 0 20:41 23.04.2021
793 Clear 15 1019 38 10000 1.03 0 20:41 23.04.2021
794 Clear 15 1019 38 10000 1.03 0 20:20 23.04.2021
795 Clear 17 1018 29 10000 3.09 260 19:49 23.04.2021
796 Clear 17 1018 29 10000 3.09 260 19:27 23.04.2021
797 Clear 19 1018 26 10000 4.12 270 18:48 23.04.2021
798 Clear 20 1018 26 10000 4.12 270 18:28 23.04.2021
799 Clear 21 1018 21 10000 5.14 270 17:51 23.04.2021
800 Clear 21 1018 21 10000 5.14 270 17:28 23.04.2021
801 Clear 22 1018 20 10000 4.63 250 16:58 23.04.2021
802 Clear 22 1018 20 10000 4.63 250 16:32 23.04.2021
803 Clear 22 1019 20 10000 5.66 240 15:48 23.04.2021
804 Clear 22 1019 20 10000 5.66 240 15:28 23.04.2021
805 Clouds 22 1020 18 10000 5.66 250 14:32 23.04.2021
806 Clouds 21 1020 21 10000 3.09 200 13:39 23.04.2021
807 Clouds 20 1021 26 10000 3.6 170 12:48 23.04.2021
808 Clouds 20 1021 26 10000 3.6 170 12:48 23.04.2021
809 Clouds 20 1021 26 10000 3.6 170 12:22 23.04.2021
810 Clouds 19 1022 26 10000 3.6 190 11:46 23.04.2021
811 Clouds 19 1022 26 10000 3.6 190 11:24 23.04.2021
812 Clouds 17 1022 34 10000 2.06 120 10:43 23.04.2021
813 Clouds 17 1022 34 10000 2.06 120 10:22 23.04.2021
814 Clear 15 1023 41 10000 1.54 70 09:39 23.04.2021
815 Clear 12 1023 50 10000 3.6 80 08:48 23.04.2021
816 Clear 12 1023 50 10000 3.6 80 08:26 23.04.2021
817 Clear 9 1023 76 10000 1.03 0 07:34 23.04.2021
818 Clear 6 1023 70 10000 1.57 101 06:46 23.04.2021
819 Clear 4 1023 81 10000 1.65 97 05:24 23.04.2021
820 Clear 6 1023 70 10000 0.51 0 02:58 23.04.2021
821 Clear 6 1023 65 10000 0.51 0 00:40 23.04.2021
822 Clear 9 1023 61 10000 1.03 0 23:49 22.04.2021
823 Clear 7 1023 65 10000 2.06 270 22:44 22.04.2021
824 Clear 8 1023 65 10000 2.06 270 22:21 22.04.2021
825 Clear 8 1023 65 10000 2.06 270 22:21 22.04.2021
826 Clear 10 1023 46 10000 0.51 0 21:47 22.04.2021
827 Clear 10 1023 46 10000 0.51 0 21:29 22.04.2021
828 Clear 12 1022 41 10000 0.51 0 20:58 22.04.2021
829 Clear 12 1022 41 10000 0.51 0 20:40 22.04.2021
830 Clear 12 1022 41 10000 0.51 0 20:20 22.04.2021
831 Clear 13 1021 38 10000 3.09 230 19:43 22.04.2021
832 Clear 14 1021 38 10000 3.09 230 19:23 22.04.2021
833 Clouds 16 1021 33 10000 5.66 250 18:41 22.04.2021
834 Clouds 16 1021 33 10000 5.66 250 18:19 22.04.2021
835 Clouds 17 1021 27 10000 5.14 260 17:38 22.04.2021
836 Clouds 17 1021 27 10000 5.14 260 17:18 22.04.2021
837 Clouds 17 1021 27 10000 5.66 270 16:44 22.04.2021
838 Clouds 17 1021 27 10000 5.66 270 16:24 22.04.2021
839 Clouds 17 1021 20 10000 6.17 250 15:47 22.04.2021
840 Clouds 17 1021 20 10000 6.17 250 15:22 22.04.2021
841 Clouds 17 1021 29 10000 4.63 290 14:43 22.04.2021
842 Clouds 16 1021 29 10000 4.63 290 14:25 22.04.2021
843 Clouds 16 1021 29 10000 4.63 290 13:41 22.04.2021
844 Clouds 16 1021 29 10000 4.63 290 13:22 22.04.2021
845 Clouds 15 1021 38 10000 3.6 260 12:51 22.04.2021
846 Clouds 15 1021 38 10000 3.6 260 12:30 22.04.2021
847 Clouds 15 1022 44 10000 4.12 300 11:49 22.04.2021
848 Clouds 15 1022 44 10000 4.12 300 11:25 22.04.2021
849 Clouds 13 1022 51 10000 3.09 290 10:47 22.04.2021
850 Clouds 13 1022 51 10000 3.09 290 10:29 22.04.2021
851 Clouds 12 1022 54 10000 3.09 260 09:58 22.04.2021
852 Clouds 12 1022 54 10000 3.09 260 09:33 22.04.2021
853 Clear 11 1022 58 10000 2.57 270 08:47 22.04.2021
854 Clear 11 1022 58 10000 2.57 270 08:23 22.04.2021
855 Clear 9 1021 66 10000 1.03 0 07:47 22.04.2021
856 Clear 9 1021 66 10000 1.03 0 07:29 22.04.2021
857 Clear 6 1021 75 10000 1.03 0 06:41 22.04.2021
858 Clear 6 1020 81 10000 1.25 259 05:54 22.04.2021
859 Clear 6 1020 81 10000 0.95 267 05:20 22.04.2021
860 Clear 8 1019 70 10000 0.51 0 01:58 22.04.2021
861 Clear 10 1019 53 10000 1.54 200 23:55 21.04.2021
862 Clear 10 1019 53 10000 1.54 200 23:37 21.04.2021
863 Clear 11 1018 43 10000 1.54 0 22:48 21.04.2021
864 Clear 11 1018 43 10000 1.54 0 22:25 21.04.2021
865 Clear 11 1018 50 10000 2.06 230 21:59 21.04.2021
866 Clear 11 1018 50 10000 2.06 230 21:40 21.04.2021
867 Clear 11 1018 50 10000 2.06 230 21:19 21.04.2021
868 Clear 12 1017 40 10000 1.03 0 20:24 21.04.2021
869 Clear 14 1016 35 10000 3.6 330 19:46 21.04.2021
870 Clear 14 1016 35 10000 3.6 330 19:27 21.04.2021
871 Clouds 15 1016 29 10000 3.6 240 18:50 21.04.2021
872 Clouds 16 1016 29 10000 3.6 240 18:32 21.04.2021
873 Clouds 16 1016 21 10000 4.63 240 17:57 21.04.2021
874 Clouds 16 1016 21 10000 4.63 240 17:39 21.04.2021
875 Clouds 16 1016 21 10000 4.63 240 17:19 21.04.2021
876 Clouds 16 1016 27 10000 5.14 250 16:32 21.04.2021
877 Clouds 16 1016 31 10000 5.66 270 15:43 21.04.2021
878 Clouds 17 1016 31 10000 5.66 270 15:18 21.04.2021
879 Clouds 16 1017 36 10000 6.17 260 14:44 21.04.2021
880 Clouds 16 1017 36 10000 6.17 260 14:23 21.04.2021
881 Clouds 16 1017 36 10000 3.6 250 13:48 21.04.2021
882 Clouds 16 1017 36 10000 3.6 250 13:21 21.04.2021
883 Clouds 15 1017 36 10000 2.06 0 12:40 21.04.2021
884 Clouds 14 1018 38 10000 3.09 0 11:59 21.04.2021
885 Clouds 14 1018 38 10000 3.09 0 11:41 21.04.2021
886 Clouds 14 1018 38 10000 3.09 0 11:22 21.04.2021
887 Clouds 13 1018 41 10000 2.57 240 10:38 21.04.2021
888 Clouds 12 1018 50 10000 1.54 0 09:56 21.04.2021
889 Clouds 12 1018 50 10000 1.54 0 09:20 21.04.2021
890 Clear 10 1018 62 10000 2.06 240 08:42 21.04.2021
891 Clear 10 1018 62 10000 2.06 240 08:23 21.04.2021
892 Clear 9 1018 66 10000 1.03 0 07:43 21.04.2021
893 Clear 9 1018 66 10000 1.03 0 07:21 21.04.2021
894 Clear 7 1016 76 10000 1.54 250 05:53 21.04.2021
895 Clear 9 1015 66 10000 1.54 220 01:50 21.04.2021
896 Clear 9 1015 66 10000 1.03 0 00:19 21.04.2021
897 Clear 10 1015 58 10000 1.54 240 23:38 20.04.2021
898 Clear 11 1014 54 10000 1.54 360 22:45 20.04.2021
899 Clear 11 1014 54 10000 1.54 360 22:23 20.04.2021
900 Clear 12 1014 50 10000 4.12 300 21:49 20.04.2021
901 Clear 12 1014 50 10000 4.12 300 21:28 20.04.2021
902 Clear 13 1013 44 10000 4.12 260 20:59 20.04.2021
903 Clear 13 1013 44 10000 4.12 260 20:38 20.04.2021
904 Clear 13 1013 44 10000 4.12 260 20:18 20.04.2021
905 Clear 13 1012 44 10000 3.09 270 19:44 20.04.2021
906 Clear 13 1012 44 10000 3.09 270 19:26 20.04.2021
907 Clouds 15 1012 36 10000 5.66 270 18:41 20.04.2021
908 Clouds 16 1012 36 10000 5.66 270 18:22 20.04.2021
909 Clouds 16 1011 34 10000 4.63 310 17:40 20.04.2021
910 Clouds 17 1011 34 10000 5.14 320 16:50 20.04.2021
911 Clouds 17 1011 34 10000 5.14 320 16:50 20.04.2021
912 Clouds 17 1011 34 10000 5.14 320 16:18 20.04.2021
913 Clouds 17 1011 36 10000 6.17 290 15:30 20.04.2021
914 Clouds 17 1011 36 10000 6.17 290 15:30 20.04.2021
915 Clouds 17 1011 36 10000 6.17 270 14:59 20.04.2021
916 Clouds 17 1011 36 10000 6.17 270 14:35 20.04.2021
917 Clouds 16 1011 44 10000 6.69 290 13:54 20.04.2021
918 Clouds 16 1011 44 10000 6.69 290 13:24 20.04.2021
919 Clouds 16 1012 36 10000 6.69 260 12:48 20.04.2021
920 Clouds 16 1012 36 10000 6.69 260 12:22 20.04.2021
921 Clouds 15 1012 41 10000 8.23 260 11:46 20.04.2021
922 Clouds 15 1012 41 10000 8.23 260 11:24 20.04.2021
923 Clouds 14 1012 51 10000 6.69 250 10:45 20.04.2021
924 Clouds 14 1012 51 10000 6.69 250 10:23 20.04.2021
925 Clouds 13 1012 47 10000 5.14 240 09:44 20.04.2021
926 Clouds 12 1012 54 10000 3.6 230 08:56 20.04.2021
927 Clouds 12 1012 54 10000 3.6 230 08:33 20.04.2021
928 Clouds 11 1012 66 10000 3.6 260 07:50 20.04.2021
929 Clouds 10 1011 76 10000 2.57 240 06:54 20.04.2021
930 Clouds 9 1010 87 10000 1.54 230 05:40 20.04.2021
931 Clouds 9 1010 87 10000 1.54 230 04:42 20.04.2021
932 Clear 10 1010 87 10000 0.51 0 02:47 20.04.2021
933 Clouds 12 1010 87 10000 6.17 270 00:49 20.04.2021
934 Clouds 13 1009 88 10000 4.63 250 23:39 19.04.2021
935 Clouds 14 1009 88 10000 3.6 260 22:58 19.04.2021
936 Clouds 14 1009 88 10000 3.6 260 22:36 19.04.2021
937 Clouds 13 1010 88 10000 1.54 250 21:52 19.04.2021
938 Clouds 13 1010 88 10000 1.54 250 21:34 19.04.2021
939 Clouds 14 1010 88 10000 1.03 0 20:56 19.04.2021
940 Clouds 14 1010 88 10000 1.03 0 20:38 19.04.2021
941 Clouds 15 1011 88 10000 1.03 0 20:19 19.04.2021
942 Clouds 16 1011 88 10000 1.03 0 19:42 19.04.2021
943 Clouds 16 1011 88 10000 1.03 0 19:24 19.04.2021
944 Clouds 17 1011 82 10000 0.51 0 18:47 19.04.2021
945 Clouds 17 1011 82 10000 0.51 0 18:22 19.04.2021
946 Rain 17 1012 72 10000 2.06 240 17:54 19.04.2021
947 Clouds 18 1013 63 10000 1.03 0 17:29 19.04.2021
948 Rain 18 1013 63 10000 1.03 0 16:57 19.04.2021
949 Rain 18 1013 63 10000 1.03 0 16:38 19.04.2021
950 Clouds 18 1013 63 10000 1.03 0 16:20 19.04.2021
951 Clouds 17 1014 59 10000 1.54 0 15:33 19.04.2021
952 Rain 17 1015 63 10000 2.06 300 14:56 19.04.2021
953 Rain 18 1015 55 10000 1.03 0 14:37 19.04.2021
954 Rain 18 1015 55 10000 1.03 0 14:18 19.04.2021
955 Clouds 17 1016 55 10000 1.54 270 13:36 19.04.2021
956 Clouds 17 1016 55 10000 1.54 270 13:18 19.04.2021
957 Rain 17 1017 55 10000 1.54 260 12:40 19.04.2021
958 Rain 17 1017 55 10000 1.54 260 12:20 19.04.2021
959 Rain 17 1017 55 10000 2.57 300 11:52 19.04.2021
960 Clouds 17 1017 55 10000 2.57 300 11:21 19.04.2021
961 Clouds 17 1018 59 10000 4.63 280 10:45 19.04.2021
962 Clouds 17 1018 59 10000 4.63 280 10:20 19.04.2021
963 Clouds 17 1019 63 10000 2.57 250 09:48 19.04.2021
964 Clouds 17 1019 63 10000 2.57 250 09:27 19.04.2021
965 Clouds 15 1018 77 10000 1.03 0 08:55 19.04.2021
966 Clouds 15 1018 77 10000 1.03 0 08:24 19.04.2021
967 Clouds 14 1018 88 10000 1.54 40 07:45 19.04.2021
968 Clouds 14 1018 88 10000 1.54 40 07:18 19.04.2021
969 Clouds 12 1019 87 10000 2.06 110 05:44 19.04.2021
970 Clouds 13 1020 87 10000 1.54 250 02:34 19.04.2021
971 Clouds 13 1020 94 10000 0.51 250 00:45 19.04.2021
972 Clouds 13 1020 82 10000 1.54 60 23:38 18.04.2021
973 Clouds 13 1020 82 10000 1.54 60 23:18 18.04.2021
974 Clouds 14 1020 77 10000 1.54 150 22:43 18.04.2021
975 Clouds 14 1020 77 10000 1.54 150 22:23 18.04.2021
976 Clouds 14 1020 77 10000 3.09 260 21:29 18.04.2021
977 Rain 14 1020 82 10000 1.03 250 20:56 18.04.2021
978 Rain 14 1020 82 10000 1.03 250 20:37 18.04.2021
979 Rain 14 1020 82 10000 1.03 250 20:19 18.04.2021
980 Rain 14 1021 88 10000 2.06 320 19:44 18.04.2021
981 Rain 14 1021 88 10000 2.06 320 19:22 18.04.2021
982 Rain 15 1021 67 10000 6.17 230 18:46 18.04.2021
983 Rain 15 1021 67 10000 6.17 230 18:27 18.04.2021
984 Rain 16 1020 63 10000 5.66 230 17:49 18.04.2021
985 Rain 16 1020 63 10000 5.66 210 17:29 18.04.2021
986 Rain 17 1019 59 10000 7.2 210 16:53 18.04.2021
987 Rain 17 1019 59 10000 7.2 210 16:35 18.04.2021
988 Rain 18 1019 63 10000 4.12 210 15:51 18.04.2021
989 Rain 19 1019 63 10000 4.12 210 15:30 18.04.2021
990 Rain 19 1018 63 10000 2.57 210 14:58 18.04.2021
991 Clouds 19 1018 63 10000 2.57 210 14:39 18.04.2021
992 Clouds 19 1018 63 10000 2.57 210 14:18 18.04.2021
993 Rain 18 1018 63 10000 2.57 210 13:44 18.04.2021
994 Clouds 18 1018 63 10000 2.57 210 13:24 18.04.2021
995 Clouds 17 1019 72 10000 2.57 200 12:35 18.04.2021
996 Clouds 16 1020 82 10000 2.06 210 11:51 18.04.2021
997 Clouds 15 1020 82 10000 2.06 210 11:26 18.04.2021
998 Rain 15 1020 82 10000 1.03 0 10:51 18.04.2021
999 Clouds 15 1020 82 10000 1.03 0 10:32 18.04.2021
1000 Clouds 14 1021 88 10000 0.51 150 09:57 18.04.2021
1001 Rain 14 1021 88 10000 0.51 150 09:38 18.04.2021
1002 Rain 14 1021 88 10000 0.51 150 09:19 18.04.2021
1003 Rain 14 1019 88 10000 2.57 20 08:39 18.04.2021
1004 Clouds 14 1019 88 10000 2.57 20 08:18 18.04.2021
1005 Clouds 13 1019 94 10000 2.06 100 07:39 18.04.2021
1006 Rain 15 1019 72 10000 6.69 240 05:45 18.04.2021
1007 Rain 15 1019 72 10000 6.69 240 05:45 18.04.2021
1008 Rain 15 1019 72 10000 6.69 240 05:24 18.04.2021
1009 Clouds 15 1017 42 10000 1.03 0 03:26 18.04.2021
1010 Clouds 15 1016 34 10000 1.54 0 02:22 18.04.2021
1011 Clouds 16 1016 32 10000 3.09 310 00:40 18.04.2021
1012 Clouds 17 1015 32 10000 3.09 140 23:39 17.04.2021
1013 Clouds 19 1015 26 10000 4.63 220 22:55 17.04.2021
1014 Clouds 19 1015 26 10000 4.63 220 22:31 17.04.2021
1015 Clouds 19 1015 26 10000 4.63 220 22:31 17.04.2021
1016 Clouds 17 1015 34 10000 3.09 190 21:51 17.04.2021
1017 Clouds 17 1015 34 10000 3.09 190 21:31 17.04.2021
1018 Clouds 18 1015 40 10000 5.14 190 20:59 17.04.2021
1019 Clouds 19 1015 40 10000 5.14 190 20:28 17.04.2021
1020 Clouds 19 1014 37 10000 4.63 160 19:46 17.04.2021
1021 Clouds 19 1014 37 10000 4.63 160 19:22 17.04.2021
1022 Clouds 20 1015 43 10000 2.57 80 18:57 17.04.2021
1023 Clouds 20 1015 43 10000 2.57 80 18:37 17.04.2021
1024 Clouds 21 1015 40 10000 3.09 150 17:59 17.04.2021
1025 Clouds 21 1015 40 10000 3.09 150 17:40 17.04.2021
1026 Clouds 21 1015 37 10000 4.12 160 16:55 17.04.2021
1027 Clouds 21 1015 37 10000 4.12 160 16:28 17.04.2021
1028 Clouds 21 1016 43 10000 3.09 170 15:53 17.04.2021
1029 Clouds 19 1017 49 10000 2.57 220 14:51 17.04.2021
1030 Clouds 19 1017 49 10000 2.57 220 14:32 17.04.2021
1031 Clouds 18 1018 59 10000 2.06 250 13:49 17.04.2021
1032 Clouds 17 1018 59 10000 2.06 250 13:25 17.04.2021
1033 Rain 18 1018 52 10000 2.06 280 12:42 17.04.2021
1034 Rain 18 1018 52 10000 2.06 280 12:18 17.04.2021
1035 Rain 18 1018 45 10000 1.03 0 11:41 17.04.2021
1036 Rain 19 1018 45 10000 1.03 0 11:22 17.04.2021
1037 Clouds 17 1018 51 10000 1.54 320 10:44 17.04.2021
1038 Clouds 17 1018 51 10000 1.54 320 10:25 17.04.2021
1039 Clouds 15 1019 62 10000 3.6 60 09:27 17.04.2021
1040 Clouds 13 1019 71 10000 2.57 90 08:40 17.04.2021
1041 Clouds 12 1019 71 10000 2.57 90 08:21 17.04.2021
1042 Clouds 11 1018 76 10000 0.51 250 06:44 17.04.2021
1043 Clouds 11 1018 76 10000 2.68 286 03:53 17.04.2021
1044 Clouds 12 1018 71 10000 1.84 255 02:58 17.04.2021
1045 Clouds 12 1018 62 10000 2.15 235 00:46 17.04.2021
1046 Clouds 12 1018 62 10000 2.08 204 00:24 17.04.2021
1047 Clouds 12 1018 62 10000 1.03 80 23:46 16.04.2021
1048 Clouds 13 1018 62 10000 1.03 80 23:24 16.04.2021
1049 Clouds 13 1017 66 10000 2.74 219 22:44 16.04.2021
1050 Clouds 13 1017 66 10000 2.3 191 22:20 16.04.2021
1051 Clouds 13 1017 58 10000 1.03 0 21:50 16.04.2021
1052 Clouds 13 1017 58 10000 1.03 0 21:50 16.04.2021
1053 Clouds 13 1017 58 10000 1.03 0 21:29 16.04.2021
1054 Clouds 14 1017 54 10000 0.51 0 20:48 16.04.2021
1055 Clouds 14 1017 54 10000 0.51 0 20:24 16.04.2021
1056 Clouds 15 1016 47 10000 0.51 0 19:50 16.04.2021
1057 Clouds 15 1016 47 10000 0.51 0 19:27 16.04.2021
1058 Clouds 16 1016 41 10000 1.54 260 18:28 16.04.2021
1059 Clouds 16 1016 41 10000 1.54 260 18:28 16.04.2021
1060 Clouds 16 1016 39 10000 3.09 290 17:55 16.04.2021
1061 Clouds 16 1016 39 10000 3.09 290 17:21 16.04.2021
1062 Clouds 16 1016 42 10000 3.6 280 16:59 16.04.2021
1063 Clouds 16 1016 42 10000 3.6 280 16:41 16.04.2021
1064 Clouds 17 1016 42 10000 3.6 280 16:21 16.04.2021
1065 Clouds 17 1017 42 10000 6.17 280 15:42 16.04.2021
1066 Clouds 17 1017 45 10000 3.6 270 14:59 16.04.2021
1067 Clouds 17 1017 45 10000 3.6 270 14:40 16.04.2021
1068 Clouds 16 1017 44 10000 2.57 280 13:59 16.04.2021
1069 Clouds 16 1017 44 10000 2.57 280 13:38 16.04.2021
1070 Clouds 16 1017 44 10000 2.57 280 13:18 16.04.2021
1071 Clouds 15 1017 47 10000 3.09 280 12:44 16.04.2021
1072 Clouds 15 1017 47 10000 3.09 280 12:25 16.04.2021
1073 Clouds 14 1017 47 10000 2.06 270 11:43 16.04.2021
1074 Clouds 14 1017 47 10000 2.06 270 11:23 16.04.2021
1075 Clouds 13 1017 50 10000 1.03 0 10:43 16.04.2021
1076 Clouds 13 1017 50 10000 1.03 0 10:24 16.04.2021
1077 Clouds 12 1017 58 10000 1.54 240 09:49 16.04.2021
1078 Clouds 12 1017 58 10000 1.54 240 09:23 16.04.2021
1079 Clouds 9 1017 66 10000 3.82 249 08:45 16.04.2021
1080 Clouds 10 1017 66 10000 2.46 245 08:27 16.04.2021
1081 Clouds 10 1016 66 10000 0.51 0 07:47 16.04.2021
1082 Clouds 10 1016 66 10000 0.51 0 07:27 16.04.2021
1083 Clear 9 1016 66 10000 0.51 0 06:46 16.04.2021
1084 Clear 9 1016 65 10000 1.03 270 05:32 16.04.2021
1085 Clear 9 1015 66 10000 1.03 0 03:59 16.04.2021
1086 Clear 11 1015 50 10000 0.51 0 00:48 16.04.2021
1087 Clear 11 1015 50 10000 0.51 0 00:22 16.04.2021
1088 Clear 10 1015 43 10000 1.54 260 23:58 15.04.2021
1089 Clear 10 1015 43 10000 1.54 260 23:34 15.04.2021
1090 Clouds 10 1015 47 10000 2.06 280 22:51 15.04.2021
1091 Clouds 12 1015 47 10000 2.06 280 22:26 15.04.2021
1092 Clouds 13 1015 44 10000 0.51 280 21:48 15.04.2021
1093 Clouds 13 1015 44 10000 0.51 280 21:29 15.04.2021
1094 Clouds 14 1015 41 10000 1.03 0 20:58 15.04.2021
1095 Clouds 14 1015 41 10000 1.03 0 20:38 15.04.2021
1096 Clouds 13 1015 41 10000 1.03 0 20:18 15.04.2021
1097 Clouds 15 1014 33 10000 0.51 0 19:41 15.04.2021
1098 Clouds 16 1014 33 10000 0.51 0 19:21 15.04.2021
1099 Clouds 17 1014 27 10000 3.09 230 18:41 15.04.2021
1100 Clouds 17 1014 27 10000 3.09 230 18:41 15.04.2021
1101 Clouds 17 1014 27 10000 3.09 230 18:20 15.04.2021
1102 Clouds 18 1015 27 10000 1.54 250 17:54 15.04.2021
1103 Clouds 18 1015 27 10000 1.54 250 17:33 15.04.2021
1104 Clouds 18 1015 25 10000 5.14 240 16:45 15.04.2021
1105 Clouds 18 1015 25 10000 5.14 240 16:25 15.04.2021
1106 Clouds 18 1016 25 10000 5.14 250 15:51 15.04.2021
1107 Clouds 18 1016 25 10000 5.14 250 15:28 15.04.2021
1108 Clouds 17 1016 27 10000 3.09 230 14:47 15.04.2021
1109 Clouds 17 1016 27 10000 3.09 230 14:28 15.04.2021
1110 Clouds 17 1017 29 10000 5.14 250 13:58 15.04.2021
1111 Clouds 17 1017 29 10000 5.14 250 13:40 15.04.2021
1112 Clouds 16 1017 33 10000 4.63 210 12:55 15.04.2021
1113 Clouds 16 1017 33 10000 4.63 210 12:28 15.04.2021
1114 Clouds 16 1018 36 10000 3.6 240 11:59 15.04.2021
1115 Clouds 16 1018 36 10000 3.6 240 11:40 15.04.2021
1116 Clouds 15 1018 36 10000 3.6 240 11:21 15.04.2021
1117 Clouds 14 1018 47 10000 3.09 290 10:46 15.04.2021
1118 Clouds 14 1018 47 10000 3.09 290 10:26 15.04.2021
1119 Clouds 13 1018 47 10000 1.54 0 09:35 15.04.2021
1120 Clouds 13 1018 50 10000 1.03 0 08:54 15.04.2021
1121 Clouds 13 1018 50 10000 1.03 0 08:36 15.04.2021
1122 Clouds 10 1018 66 10000 1.03 0 07:48 15.04.2021
1123 Clouds 9 1018 66 10000 1.03 0 07:22 15.04.2021
1124 Clouds 8 1017 61 10000 2.08 226 06:37 15.04.2021
1125 Clouds 8 1017 61 10000 1.83 216 06:19 15.04.2021
1126 Clouds 9 1016 61 10000 2.21 229 04:23 15.04.2021
1127 Clouds 11 1015 50 10000 3.6 250 00:23 15.04.2021
1128 Clouds 11 1015 50 10000 3.6 260 23:36 14.04.2021
1129 Clouds 13 1015 41 10000 3.6 230 22:59 14.04.2021
1130 Clouds 13 1015 41 10000 3.6 230 22:41 14.04.2021
1131 Clouds 14 1015 41 10000 3.6 230 22:21 14.04.2021
1132 Clouds 13 1015 41 10000 3.09 240 21:42 14.04.2021
1133 Clouds 13 1015 41 10000 3.09 240 21:22 14.04.2021
1134 Clouds 13 1014 47 10000 2.06 250 20:54 14.04.2021
1135 Clouds 14 1014 47 10000 2.06 250 20:31 14.04.2021
1136 Clouds 14 1014 47 10000 2.06 250 20:31 14.04.2021
1137 Clouds 15 1014 34 10000 3.09 210 19:48 14.04.2021
1138 Clouds 16 1014 34 10000 3.09 210 19:19 14.04.2021
1139 Clouds 17 1014 32 10000 3.09 210 18:55 14.04.2021
1140 Clouds 17 1014 32 10000 3.09 210 18:21 14.04.2021
1141 Clouds 17 1014 34 10000 3.09 230 17:58 14.04.2021
1142 Clouds 17 1014 34 10000 3.09 230 17:25 14.04.2021
1143 Clouds 18 1014 34 10000 5.14 240 16:53 14.04.2021
1144 Clouds 18 1014 34 10000 5.14 240 16:25 14.04.2021
1145 Clouds 17 1015 39 10000 2.57 270 15:42 14.04.2021
1146 Clouds 18 1015 39 10000 2.57 270 15:23 14.04.2021
1147 Clouds 17 1016 39 10000 4.12 250 14:48 14.04.2021
1148 Clouds 17 1016 39 10000 4.12 250 14:24 14.04.2021
1149 Clouds 17 1016 41 10000 4.12 250 13:54 14.04.2021
1150 Clouds 17 1016 41 10000 4.12 250 13:36 14.04.2021
1151 Clouds 16 1017 41 10000 4.63 240 12:38 14.04.2021
1152 Clouds 15 1017 51 10000 1.54 0 11:43 14.04.2021
1153 Clouds 15 1017 51 10000 1.54 0 11:25 14.04.2021
1154 Clouds 13 1018 62 10000 1.54 30 10:50 14.04.2021
1155 Clouds 13 1018 62 10000 1.54 30 10:31 14.04.2021
1156 Clouds 11 1019 71 10000 1.03 0 09:42 14.04.2021
1157 Clouds 10 1019 71 10000 1.03 0 09:21 14.04.2021
1158 Clouds 9 1019 71 10000 1.03 0 08:45 14.04.2021
1159 Clouds 8 1019 71 10000 1.03 0 08:21 14.04.2021
1160 Rain 7 1018 87 10000 0.51 0 07:20 14.04.2021
1161 Rain 6 1018 87 10000 1.03 0 06:25 14.04.2021
1162 Rain 7 1018 61 10000 1.09 134 04:45 14.04.2021
1163 Clouds 7 1018 61 10000 1.54 310 01:52 14.04.2021
1164 Clear 8 1019 61 10000 1.03 0 00:40 14.04.2021
1165 Clear 8 1019 53 10000 1.03 0 23:55 13.04.2021
1166 Clear 8 1019 53 10000 1.03 0 23:30 13.04.2021
1167 Clear 7 1019 61 10000 0.51 0 22:43 13.04.2021
1168 Clear 8 1019 61 10000 0.51 0 22:19 13.04.2021
1169 Clear 8 1019 57 10000 1.03 0 21:46 13.04.2021
1170 Clear 8 1019 57 10000 1.03 0 21:28 13.04.2021
1171 Clouds 8 1019 57 10000 0.51 0 20:43 13.04.2021
1172 Clouds 8 1019 57 10000 0.51 0 20:23 13.04.2021
1173 Clouds 10 1019 46 10000 2.06 220 19:48 13.04.2021
1174 Clouds 10 1019 46 10000 2.06 220 19:24 13.04.2021
1175 Clouds 11 1019 40 10000 4.63 260 18:44 13.04.2021
1176 Clouds 12 1019 40 10000 4.63 260 18:23 13.04.2021
1177 Clouds 12 1019 44 10000 3.6 260 17:37 13.04.2021
1178 Clouds 12 1019 44 10000 3.6 260 17:18 13.04.2021
1179 Clouds 12 1018 44 10000 4.63 270 16:44 13.04.2021
1180 Clouds 12 1018 44 10000 4.63 270 16:21 13.04.2021
1181 Clouds 12 1019 47 10000 2.57 320 15:50 13.04.2021
1182 Clouds 12 1019 47 10000 2.57 320 15:30 13.04.2021
1183 Clouds 12 1019 40 10000 1.54 0 14:47 13.04.2021
1184 Clouds 12 1019 40 10000 1.54 0 14:20 13.04.2021
1185 Clouds 11 1020 43 10000 1.03 0 13:45 13.04.2021
1186 Clouds 11 1020 43 10000 1.03 0 13:24 13.04.2021
1187 Clouds 10 1020 50 10000 2.57 0 12:56 13.04.2021
1188 Clouds 10 1020 50 10000 2.57 0 12:28 13.04.2021
1189 Clouds 10 1021 57 10000 1.03 0 11:56 13.04.2021
1190 Clouds 9 1021 57 10000 1.03 0 11:30 13.04.2021
1191 Clouds 9 1021 57 10000 1.03 0 11:30 13.04.2021
1192 Clouds 8 1021 61 10000 3.09 0 10:53 13.04.2021
1193 Clouds 8 1021 61 10000 3.09 0 10:21 13.04.2021
1194 Clouds 8 1021 61 10000 3.09 0 10:21 13.04.2021
1195 Clouds 7 1021 61 10000 1.54 280 09:57 13.04.2021
1196 Clouds 8 1021 61 10000 1.54 280 09:36 13.04.2021
1197 Clouds 6 1020 70 10000 1.54 0 08:57 13.04.2021
1198 Clouds 6 1020 70 10000 1.54 0 08:38 13.04.2021
1199 Clouds 6 1020 70 10000 1.54 0 08:20 13.04.2021
1200 Clouds 5 1020 81 10000 1.54 240 07:36 13.04.2021
1201 Clouds 2 1020 93 10000 0.77 144 06:31 13.04.2021
1202 Clouds 4 1020 81 10000 0.65 115 04:49 13.04.2021
1203 Clouds 4 1020 75 10000 1.54 240 02:37 13.04.2021
1204 Clouds 5 1020 70 10000 2.06 280 00:26 13.04.2021
1205 Clouds 5 1020 70 10000 1.54 240 23:48 12.04.2021
1206 Clouds 5 1020 70 10000 1.54 240 23:25 12.04.2021
1207 Clouds 6 1021 70 10000 2.06 230 22:39 12.04.2021
1208 Clouds 6 1021 70 10000 2.06 230 22:18 12.04.2021
1209 Clouds 6 1021 70 10000 2.06 220 21:45 12.04.2021
1210 Clouds 6 1021 70 10000 2.06 220 21:19 12.04.2021
1211 Clouds 6 1021 65 10000 2.06 260 20:38 12.04.2021
1212 Clouds 6 1021 65 10000 2.06 260 20:20 12.04.2021
1213 Clouds 6 1020 61 10000 3.09 250 19:55 12.04.2021
1214 Clouds 6 1020 61 10000 3.09 250 19:36 12.04.2021
1215 Clouds 6 1020 61 10000 3.09 250 19:18 12.04.2021
1216 Clouds 6 1020 57 10000 3.6 260 18:42 12.04.2021
1217 Clouds 6 1020 57 10000 3.6 260 18:24 12.04.2021
1218 Clouds 7 1020 57 10000 4.63 260 17:43 12.04.2021
1219 Clouds 7 1020 57 10000 4.63 260 17:23 12.04.2021
1220 Clouds 7 1020 53 10000 2.57 190 16:46 12.04.2021
1221 Clouds 8 1020 53 10000 2.57 190 16:27 12.04.2021
1222 Clouds 8 1020 53 10000 2.06 260 15:48 12.04.2021
1223 Clouds 8 1020 53 10000 2.06 260 15:27 12.04.2021
1224 Clouds 8 1020 53 10000 3.09 260 14:50 12.04.2021
1225 Clouds 7 1020 53 10000 3.09 260 14:30 12.04.2021
1226 Clouds 7 1020 53 10000 3.09 260 14:30 12.04.2021
1227 Clouds 7 1020 57 10000 2.06 0 13:46 12.04.2021
1228 Clouds 7 1020 57 10000 2.06 0 13:27 12.04.2021
1229 Clouds 6 1020 57 10000 3.09 280 12:48 12.04.2021
1230 Clouds 6 1020 57 10000 3.09 280 12:26 12.04.2021
1231 Clouds 6 1021 61 10000 3.6 250 11:59 12.04.2021
1232 Clouds 6 1021 61 10000 3.6 250 11:20 12.04.2021
1233 Clouds 5 1021 65 10000 3.6 260 10:43 12.04.2021
1234 Clouds 5 1021 65 10000 3.6 260 10:23 12.04.2021
1235 Clouds 4 1021 70 10000 2.06 290 09:46 12.04.2021
1236 Clouds 4 1021 70 10000 2.06 290 09:18 12.04.2021
1237 Clouds 3 1020 75 10000 2.57 260 08:36 12.04.2021
1238 Clouds 2 1020 80 10000 1.54 250 07:40 12.04.2021
1239 Clouds 2 1020 80 10000 1.54 250 07:20 12.04.2021
1240 Clouds 2 1020 80 10000 1.54 250 07:20 12.04.2021
1241 Clouds 0 1020 86 10000 0.58 284 05:52 12.04.2021
1242 Clouds 0 1020 80 10000 1.54 0 04:31 12.04.2021
1243 Clouds 1 1020 80 10000 2.57 250 01:23 12.04.2021
1244 Clouds 2 1020 80 10000 2.57 240 00:24 12.04.2021
1245 Clouds 2 1020 65 10000 4.12 300 23:46 11.04.2021
1246 Clouds 2 1020 65 10000 4.12 300 23:46 11.04.2021
1247 Clouds 2 1020 65 10000 4.12 300 23:46 11.04.2021
1248 Clouds 2 1020 65 10000 4.12 300 23:27 11.04.2021
1249 Clouds 3 1020 70 10000 3.09 290 22:46 11.04.2021
1250 Clouds 3 1020 70 10000 3.09 290 22:23 11.04.2021
1251 Clouds 3 1019 70 10000 2.57 250 21:46 11.04.2021
1252 Clouds 3 1019 70 10000 2.57 250 21:27 11.04.2021
1253 Rain 2 1019 75 10000 4.12 310 20:55 11.04.2021
1254 Rain 2 1019 75 10000 4.12 310 20:30 11.04.2021
1255 Rain 3 1018 70 10000 2.06 270 19:54 11.04.2021
1256 Rain 3 1018 70 10000 2.06 270 19:36 11.04.2021
1257 Rain 4 1018 70 10000 2.06 270 19:18 11.04.2021
1258 Rain 4 1018 65 10000 4.63 340 18:42 11.04.2021
1259 Rain 4 1018 65 10000 4.63 340 18:24 11.04.2021
1260 Clouds 4 1018 70 10000 2.06 330 17:46 11.04.2021
1261 Clouds 4 1018 70 10000 2.06 330 17:27 11.04.2021
1262 Rain 4 1018 70 10000 5.14 340 16:51 11.04.2021
1263 Rain 4 1018 70 10000 5.14 340 16:23 11.04.2021
1264 Rain 4 1018 70 10000 5.14 40 15:54 11.04.2021
1265 Rain 4 1018 70 10000 5.14 40 15:27 11.04.2021
1266 Rain 5 1017 45 10000 5.14 330 14:59 11.04.2021
1267 Rain 5 1017 45 10000 5.14 330 14:41 11.04.2021
1268 Rain 6 1017 49 10000 6.17 330 13:53 11.04.2021
1269 Rain 6 1017 49 10000 6.17 330 13:31 11.04.2021
1270 Rain 6 1018 61 10000 5.66 290 12:54 11.04.2021
1271 Rain 6 1018 61 10000 5.66 290 12:54 11.04.2021
1272 Rain 5 1018 61 10000 5.66 290 12:22 11.04.2021
1273 Rain 4 1018 52 10000 5.14 300 11:52 11.04.2021
1274 Rain 5 1018 52 10000 5.14 300 11:27 11.04.2021
1275 Rain 4 1018 56 10000 5.66 340 10:50 11.04.2021
1276 Rain 4 1018 56 10000 5.66 340 10:31 11.04.2021
1277 Rain 4 1018 56 10000 3.09 310 09:58 11.04.2021
1278 Rain 4 1018 56 10000 3.09 310 09:35 11.04.2021
1279 Rain 3 1018 60 10000 4.75 341 08:59 11.04.2021
1280 Rain 3 1018 60 10000 5.49 344 08:26 11.04.2021
1281 Rain 2 1017 55 10000 1.03 0 07:24 11.04.2021
1282 Snow 1 1017 55 10000 2.57 360 06:54 11.04.2021
1283 Snow 1 1017 55 10000 1.03 0 05:43 11.04.2021
1284 Clouds 1 1017 55 10000 5.14 360 05:21 11.04.2021
1285 Snow 1 1017 55 10000 5.14 360 04:34 11.04.2021
1286 Clouds 2 1018 60 10000 3.6 280 01:56 11.04.2021
1287 Clouds 2 1018 55 10000 2.06 300 00:39 11.04.2021
1288 Clouds 1 1018 55 10000 2.57 360 23:48 10.04.2021
1289 Clouds 1 1018 55 10000 2.57 360 23:26 10.04.2021
1290 Clouds 2 1018 51 10000 1.54 340 22:43 10.04.2021
1291 Clouds 1 1018 51 10000 1.54 340 22:21 10.04.2021
1292 Clouds 1 1018 55 10000 4.12 360 21:41 10.04.2021
1293 Clouds 2 1018 52 10000 4.12 360 21:21 10.04.2021
1294 Clouds 2 1018 52 10000 4.12 360 20:46 10.04.2021
1295 Clouds 2 1018 52 10000 4.12 360 20:24 10.04.2021
1296 Clouds 2 1017 56 10000 4.63 360 19:45 10.04.2021
1297 Clouds 2 1017 56 10000 4.63 360 19:26 10.04.2021
1298 Clouds 4 1017 45 10000 7.2 360 18:52 10.04.2021
1299 Clouds 4 1017 45 10000 7.2 360 18:31 10.04.2021
1300 Clouds 4 1017 45 10000 7.2 360 18:30 10.04.2021
1301 Clouds 5 1017 42 10000 7.72 350 17:40 10.04.2021
1302 Clouds 5 1017 42 10000 7.72 350 17:20 10.04.2021
1303 Clouds 5 1017 39 10000 7.72 360 16:30 10.04.2021
1304 Clouds 6 1017 39 10000 7.2 20 15:55 10.04.2021
1305 Clouds 6 1017 39 10000 7.2 20 15:29 10.04.2021
1306 Clouds 6 1017 36 10000 7.72 40 14:45 10.04.2021
1307 Clouds 6 1017 36 10000 7.72 40 14:19 10.04.2021
1308 Clouds 5 1017 33 10000 8.23 10 13:43 10.04.2021
1309 Clouds 5 1018 36 10000 8.23 20 12:54 10.04.2021
1310 Clouds 5 1018 36 10000 8.23 20 12:29 10.04.2021
1311 Clouds 5 1018 38 10000 6.69 40 11:50 10.04.2021
1312 Clouds 5 1018 38 10000 6.69 40 11:26 10.04.2021
1313 Clouds 4 1018 41 10000 7.72 30 10:52 10.04.2021
1314 Clouds 4 1018 41 10000 7.72 30 10:31 10.04.2021
1315 Clouds 3 1019 45 10000 7.2 20 09:50 10.04.2021
1316 Clouds 3 1019 45 10000 7.2 20 09:23 10.04.2021
1317 Clouds 2 1019 51 10000 3.6 40 08:49 10.04.2021
1318 Clouds 1 1019 51 10000 3.6 40 08:29 10.04.2021
1319 Clouds 1 1019 60 10000 8.7 17 07:40 10.04.2021
1320 Clouds 0 1019 60 10000 7.87 12 07:21 10.04.2021
1321 Clouds 0 1019 64 10000 1.54 330 06:24 10.04.2021
1322 Clouds 0 1018 64 10000 2.57 300 04:26 10.04.2021
1323 Clouds 0 1019 51 10000 4.12 30 02:53 10.04.2021
1324 Clouds 0 1019 51 10000 4.12 30 02:34 10.04.2021
1325 Clouds 1 1020 48 10000 3.6 20 00:45 10.04.2021
1326 Clouds 1 1020 48 10000 3.6 20 00:26 10.04.2021
1327 Clouds 1 1020 48 10000 5.14 30 23:42 09.04.2021
1328 Clouds 1 1020 51 10000 6.17 40 22:59 09.04.2021
1329 Clouds 1 1020 51 10000 6.17 40 22:38 09.04.2021
1330 Clouds 1 1020 51 10000 6.17 40 22:38 09.04.2021
1331 Clouds 1 1019 55 10000 4.12 350 21:59 09.04.2021
1332 Clouds 1 1019 55 10000 4.12 350 21:38 09.04.2021
1333 Clouds 1 1019 55 10000 4.12 350 21:19 09.04.2021
1334 Clouds 1 1019 55 10000 4.12 350 21:19 09.04.2021
1335 Clouds 2 1019 52 10000 5.66 20 20:43 09.04.2021
1336 Clouds 2 1019 52 10000 5.66 20 20:23 09.04.2021
1337 Snow 2 1018 64 10000 6.17 340 19:54 09.04.2021
1338 Snow 2 1018 64 10000 6.17 340 19:36 09.04.2021
1339 Snow 2 1018 64 10000 6.17 340 19:18 09.04.2021
1340 Snow 2 1018 75 10000 6.17 340 18:41 09.04.2021
1341 Rain 3 1018 56 10000 6.17 30 18:19 09.04.2021
1342 Rain 4 1017 56 10000 5.14 30 17:37 09.04.2021
1343 Rain 4 1017 60 10000 6.69 40 16:56 09.04.2021
1344 Rain 4 1017 60 10000 6.69 40 16:35 09.04.2021
1345 Rain 4 1017 56 10000 6.69 60 15:52 09.04.2021
1346 Rain 4 1017 56 10000 6.69 60 15:34 09.04.2021
1347 Rain 4 1017 56 10000 7.2 50 14:58 09.04.2021
1348 Rain 4 1017 56 10000 7.2 50 14:39 09.04.2021
1349 Rain 4 1018 60 10000 6.17 60 13:52 09.04.2021
1350 Rain 4 1018 60 10000 6.17 60 13:25 09.04.2021
1351 Snow 4 1018 75 10000 5.14 60 12:51 09.04.2021
1352 Snow 3 1018 75 10000 5.14 60 12:32 09.04.2021
1353 Snow 3 1018 70 10000 5.14 70 11:46 09.04.2021
1354 Snow 3 1018 70 10000 5.14 70 11:22 09.04.2021
1355 Snow 3 1017 60 10000 4.12 30 10:46 09.04.2021
1356 Snow 3 1017 60 10000 4.12 30 10:20 09.04.2021
1357 Rain 3 1017 65 10000 3.09 360 09:39 09.04.2021
1358 Rain 3 1017 65 10000 3.09 360 09:20 09.04.2021
1359 Snow 2 1017 60 10000 3.09 360 08:51 09.04.2021
1360 Snow 2 1017 65 10000 3.09 340 07:36 09.04.2021
1361 Snow 1 1016 80 10000 2.57 280 06:34 09.04.2021
1362 Snow 1 1015 80 10000 3.6 320 05:53 09.04.2021
1363 Rain 2 1014 81 10000 3.09 260 03:52 09.04.2021
1364 Rain 5 1013 70 10000 4.12 310 01:32 09.04.2021
1365 Clouds 6 1013 75 10000 5.14 310 00:37 09.04.2021
1366 Clouds 6 1013 75 10000 5.14 310 00:18 09.04.2021
1367 Clouds 7 1012 87 10000 2.57 240 23:18 08.04.2021
1368 Clouds 8 1012 81 10000 2.06 230 22:42 08.04.2021
1369 Clouds 8 1012 81 10000 2.06 230 22:21 08.04.2021
1370 Clouds 8 1012 76 10000 2.57 260 21:55 08.04.2021
1371 Clouds 8 1012 76 10000 2.57 260 21:36 08.04.2021
1372 Rain 9 1012 76 10000 5.14 270 21:18 08.04.2021
1373 Rain 9 1012 71 10000 7.2 290 20:47 08.04.2021
1374 Clouds 9 1012 71 10000 7.2 290 20:25 08.04.2021
1375 Clouds 10 1011 62 10000 8.75 280 19:42 08.04.2021
1376 Clouds 11 1011 62 10000 8.75 280 19:19 08.04.2021
1377 Clouds 12 1010 51 10000 6.17 290 18:45 08.04.2021
1378 Clouds 13 1010 51 10000 6.17 290 18:20 08.04.2021
1379 Clouds 16 1009 33 10000 5.66 240 17:49 08.04.2021
1380 Clouds 16 1009 33 10000 5.66 240 17:24 08.04.2021
1381 Clouds 17 1009 31 10000 5.14 230 16:49 08.04.2021
1382 Clouds 16 1009 31 10000 5.14 230 16:28 08.04.2021
1383 Clouds 17 1009 33 10000 6.17 260 15:47 08.04.2021
1384 Clouds 17 1009 33 10000 6.17 260 15:28 08.04.2021
1385 Clouds 17 1010 27 10000 8.23 250 14:45 08.04.2021
1386 Clouds 17 1010 27 10000 8.23 250 14:25 08.04.2021
1387 Clouds 17 1011 36 10000 8.23 250 13:56 08.04.2021
1388 Clouds 16 1011 36 10000 8.23 250 13:38 08.04.2021
1389 Clouds 16 1011 36 10000 8.23 250 13:19 08.04.2021
1390 Clouds 16 1011 33 10000 8.23 260 12:38 08.04.2021
1391 Clouds 16 1011 33 10000 8.23 260 12:18 08.04.2021
1392 Clouds 16 1011 47 10000 6.17 270 11:42 08.04.2021
1393 Clouds 15 1011 44 10000 4.63 270 10:58 08.04.2021
1394 Clouds 15 1011 44 10000 4.63 270 10:32 08.04.2021
1395 Clear 15 1011 44 10000 3.6 290 09:59 08.04.2021
1396 Clear 15 1011 44 10000 3.6 290 09:40 08.04.2021
1397 Clear 14 1012 47 10000 1.03 280 08:45 08.04.2021
1398 Clear 14 1012 47 10000 1.03 280 08:27 08.04.2021
1399 Clear 12 1012 58 10000 1.44 204 07:57 08.04.2021
1400 Clear 11 1012 58 10000 1.28 185 07:27 08.04.2021
1401 Clear 8 1011 57 10000 0.51 0 03:31 08.04.2021
1402 Clear 12 1011 37 10000 2.06 330 00:44 08.04.2021
1403 Clear 11 1011 40 10000 0.51 0 23:57 07.04.2021
1404 Clear 11 1011 40 10000 0.51 0 23:38 07.04.2021
1405 Clear 11 1011 40 10000 0.51 0 23:19 07.04.2021
1406 Clear 13 1011 37 10000 0.51 0 22:43 07.04.2021
1407 Clear 13 1011 37 10000 0.51 0 22:25 07.04.2021
1408 Clear 13 1010 31 10000 4.12 230 21:44 07.04.2021
1409 Clear 14 1010 31 10000 4.12 230 21:22 07.04.2021
1410 Clear 14 1010 31 10000 1.54 200 20:43 07.04.2021
1411 Clear 14 1010 31 10000 1.54 200 20:21 07.04.2021
1412 Clear 18 1009 22 10000 2.06 220 19:43 07.04.2021
1413 Clear 18 1009 22 10000 2.06 220 19:24 07.04.2021
1414 Clear 20 1009 21 10000 5.66 240 18:47 07.04.2021
1415 Clear 20 1009 21 10000 5.66 240 18:19 07.04.2021
1416 Clear 21 1009 18 10000 7.72 240 17:54 07.04.2021
1417 Clear 21 1009 18 10000 7.72 240 17:36 07.04.2021
1418 Clouds 22 1008 20 10000 8.23 260 16:49 07.04.2021
1419 Clouds 22 1008 20 10000 8.23 260 16:23 07.04.2021
1420 Clouds 22 1008 18 10000 6.69 230 15:57 07.04.2021
1421 Clouds 22 1008 18 10000 6.69 230 15:38 07.04.2021
1422 Clouds 21 1009 21 10000 8.23 240 14:56 07.04.2021
1423 Clouds 21 1009 21 10000 8.23 240 14:29 07.04.2021
1424 Rain 21 1009 23 10000 8.23 240 13:49 07.04.2021
1425 Clouds 21 1009 23 10000 8.23 240 13:23 07.04.2021
1426 Clouds 20 1010 28 10000 7.72 240 12:50 07.04.2021
1427 Clouds 20 1010 28 10000 7.72 240 12:24 07.04.2021
1428 Clouds 19 1010 32 10000 6.69 250 11:48 07.04.2021
1429 Clouds 19 1010 32 10000 6.69 250 11:25 07.04.2021
1430 Clear 18 1010 34 10000 6.17 250 10:52 07.04.2021
1431 Clear 17 1010 39 10000 3.09 240 09:57 07.04.2021
1432 Clear 17 1010 39 10000 3.09 240 09:38 07.04.2021
1433 Clear 16 1010 39 10000 3.09 240 09:19 07.04.2021
1434 Clear 15 1010 44 10000 2.57 230 08:34 07.04.2021
1435 Clear 14 1010 44 10000 3.09 210 07:58 07.04.2021
1436 Clear 13 1010 44 10000 3.09 210 07:30 07.04.2021
1437 Clear 10 1009 57 10000 1.03 0 06:59 07.04.2021
1438 Clear 10 1009 57 10000 1.03 0 06:22 07.04.2021
1439 Clear 11 1008 57 10000 2.06 30 04:22 07.04.2021
1440 Clear 16 1008 36 10000 3.6 190 00:19 07.04.2021
1441 Clouds 15 1008 36 10000 4.12 160 23:42 06.04.2021
1442 Clouds 15 1008 36 10000 4.12 160 23:18 06.04.2021
1443 Clouds 15 1009 41 10000 1.54 200 22:38 06.04.2021
1444 Clouds 15 1009 41 10000 1.54 200 22:18 06.04.2021
1445 Rain 14 1009 47 10000 0.51 0 21:40 06.04.2021
1446 Clouds 14 1009 47 10000 0.51 0 21:21 06.04.2021
1447 Rain 16 1009 33 10000 2.57 100 20:52 06.04.2021
1448 Rain 16 1009 33 10000 2.57 100 20:22 06.04.2021
1449 Rain 16 1009 38 10000 2.57 100 19:52 06.04.2021
1450 Rain 15 1009 38 10000 2.57 100 19:33 06.04.2021
1451 Clouds 16 1010 33 10000 1.03 0 18:51 06.04.2021
1452 Rain 16 1010 33 10000 1.03 0 18:32 06.04.2021
1453 Clouds 17 1010 29 10000 3.09 70 17:54 06.04.2021
1454 Clouds 16 1010 29 10000 3.09 70 17:36 06.04.2021
1455 Clouds 17 1010 29 10000 3.09 70 17:18 06.04.2021
1456 Clouds 17 1011 31 10000 2.57 180 16:40 06.04.2021
1457 Clouds 17 1012 29 10000 2.57 130 15:46 06.04.2021
1458 Clouds 17 1012 29 10000 2.57 130 15:22 06.04.2021
1459 Clouds 17 1013 36 10000 1.54 170 14:40 06.04.2021
1460 Clouds 17 1013 36 10000 1.54 170 14:20 06.04.2021
1461 Rain 17 1014 34 10000 3.09 0 13:46 06.04.2021
1462 Clouds 17 1014 34 10000 3.09 0 13:25 06.04.2021
1463 Rain 17 1015 48 10000 1.03 0 12:42 06.04.2021
1464 Rain 17 1014 48 10000 2.57 270 12:22 06.04.2021
1465 Clouds 17 1014 48 10000 2.57 270 11:52 06.04.2021
1466 Clouds 17 1014 48 10000 2.57 270 11:22 06.04.2021
1467 Clouds 16 1015 47 10000 1.54 300 10:51 06.04.2021
1468 Clouds 16 1015 47 10000 1.54 300 10:32 06.04.2021
1469 Clouds 15 1015 51 10000 0.51 0 09:58 06.04.2021
1470 Clouds 14 1015 51 10000 0.51 0 09:38 06.04.2021
1471 Rain 12 1015 66 10000 1.03 0 08:45 06.04.2021
1472 Clouds 12 1015 66 10000 1.03 0 08:19 06.04.2021
1473 Clouds 8 1014 93 10000 1.54 110 06:56 06.04.2021
1474 Clouds 8 1014 93 10000 1.54 110 06:20 06.04.2021
1475 Clouds 9 1014 87 10000 3.83 207 02:59 06.04.2021
1476 Clouds 9 1015 93 10000 2.06 80 00:46 06.04.2021
1477 Clouds 9 1015 93 10000 3.09 90 00:21 06.04.2021
1478 Clouds 10 1016 81 10000 1.03 0 23:44 05.04.2021
1479 Rain 10 1015 81 10000 1.54 210 23:22 05.04.2021
1480 Rain 10 1015 81 10000 1.54 210 22:48 05.04.2021
1481 Rain 10 1015 81 10000 1.54 210 22:27 05.04.2021
1482 Clouds 10 1015 81 10000 2.06 270 21:45 05.04.2021
1483 Clouds 10 1015 81 10000 2.06 270 21:22 05.04.2021
1484 Clouds 11 1015 71 10000 2.57 210 20:45 05.04.2021
1485 Clouds 11 1015 71 10000 2.57 210 20:27 05.04.2021
1486 Clouds 11 1015 82 10000 2.06 240 19:44 05.04.2021
1487 Clouds 11 1015 82 10000 2.06 240 19:24 05.04.2021
1488 Clouds 12 1014 76 10000 6.17 270 18:55 05.04.2021
1489 Clouds 12 1014 76 10000 6.17 270 18:36 05.04.2021
1490 Clouds 12 1014 76 10000 6.17 270 18:18 05.04.2021
1491 Rain 12 1012 67 10000 8.23 260 17:43 05.04.2021
1492 Rain 13 1012 67 10000 8.23 260 17:20 05.04.2021
1493 Rain 13 1012 71 10000 7.2 250 16:44 05.04.2021
1494 Clouds 14 1012 71 10000 7.2 250 16:21 05.04.2021
1495 Clouds 13 1012 71 10000 7.2 260 15:52 05.04.2021
1496 Clouds 13 1012 71 10000 7.2 260 15:52 05.04.2021
1497 Clouds 13 1012 71 10000 7.2 260 15:29 05.04.2021
1498 Clouds 13 1012 71 10000 5.14 270 14:50 05.04.2021
1499 Rain 13 1012 71 10000 5.14 270 14:28 05.04.2021
1500 Rain 13 1012 67 10000 5.14 280 13:31 05.04.2021
1501 Rain 13 1012 67 10000 7.2 300 12:50 05.04.2021
1502 Rain 13 1012 67 10000 7.2 300 12:27 05.04.2021
1503 Clouds 15 1012 58 10000 9.26 280 11:56 05.04.2021
1504 Rain 16 1011 41 10000 9.77 250 11:36 05.04.2021
1505 Rain 16 1011 41 10000 9.77 250 11:18 05.04.2021
1506 Rain 16 1011 44 10000 9.26 240 10:41 05.04.2021
1507 Clouds 16 1011 44 10000 9.26 240 10:22 05.04.2021
1508 Clouds 15 1011 51 10000 2.06 280 09:47 05.04.2021
1509 Clouds 14 1011 51 10000 2.06 280 09:22 05.04.2021
1510 Clouds 13 1011 62 10000 1.54 120 08:42 05.04.2021
1511 Clouds 13 1011 62 10000 1.54 120 08:24 05.04.2021
1512 Clouds 11 1011 66 10000 1.54 90 07:36 05.04.2021
1513 Clouds 10 1012 81 10000 1.03 0 05:23 05.04.2021
1514 Rain 12 1013 50 10000 4.12 210 01:35 05.04.2021
1515 Clouds 12 1014 54 10000 2.57 200 00:38 05.04.2021
1516 Clouds 13 1014 54 10000 2.57 210 23:47 04.04.2021
1517 Clouds 13 1014 54 10000 2.57 210 23:23 04.04.2021
1518 Clouds 12 1014 54 10000 4.12 210 22:50 04.04.2021
1519 Clouds 12 1014 54 10000 4.12 210 22:29 04.04.2021
1520 Clouds 13 1015 62 10000 3.09 200 21:27 04.04.2021
1521 Clouds 13 1015 51 10000 2.57 230 20:56 04.04.2021
1522 Rain 13 1015 51 10000 2.57 230 20:29 04.04.2021
1523 Clouds 14 1015 54 10000 4.12 250 19:54 04.04.2021
1524 Clouds 14 1015 54 10000 4.12 250 19:36 04.04.2021
1525 Clouds 14 1015 54 10000 4.12 250 19:18 04.04.2021
1526 Clouds 15 1015 47 10000 5.14 240 18:41 04.04.2021
1527 Clouds 15 1015 47 10000 5.14 240 18:20 04.04.2021
1528 Clouds 15 1015 44 10000 6.69 250 17:41 04.04.2021
1529 Rain 16 1015 44 10000 6.69 250 17:22 04.04.2021
1530 Clouds 16 1015 41 10000 7.2 250 16:43 04.04.2021
1531 Clouds 16 1015 41 10000 7.2 250 16:18 04.04.2021
1532 Clouds 16 1015 44 10000 6.69 250 15:34 04.04.2021
1533 Clouds 16 1015 44 10000 6.69 230 14:46 04.04.2021
1534 Clouds 16 1015 44 10000 6.69 230 14:27 04.04.2021
1535 Clouds 16 1016 41 10000 6.17 250 13:47 04.04.2021
1536 Clouds 16 1016 41 10000 6.17 250 13:23 04.04.2021
1537 Clouds 15 1016 38 10000 7.2 250 12:41 04.04.2021
1538 Clouds 15 1016 38 10000 7.2 250 12:23 04.04.2021
1539 Clouds 15 1017 44 10000 8.23 250 11:42 04.04.2021
1540 Clouds 15 1017 44 10000 8.23 250 11:23 04.04.2021
1541 Clouds 13 1017 50 10000 4.12 220 10:43 04.04.2021
1542 Clouds 12 1017 66 10000 2.57 260 09:55 04.04.2021
1543 Clouds 12 1017 66 10000 2.57 260 09:26 04.04.2021
1544 Clouds 9 1017 76 10000 3.51 213 08:53 04.04.2021
1545 Clouds 9 1017 76 10000 3.51 213 08:35 04.04.2021
1546 Clear 5 1017 87 10000 1.03 90 07:55 04.04.2021
1547 Clear 3 1017 93 10000 0.51 350 06:38 04.04.2021
1548 Clear 3 1017 93 10000 1.84 203 05:33 04.04.2021
1549 Clear 7 1016 87 10000 1.87 190 01:29 04.04.2021
1550 Clouds 9 1016 76 10000 1.03 290 00:22 04.04.2021
1551 Clouds 11 1016 66 10000 2.06 110 23:50 03.04.2021
1552 Clouds 11 1016 66 10000 2.06 110 23:31 03.04.2021
1553 Clouds 11 1016 62 10000 2.06 290 22:52 03.04.2021
1554 Rain 11 1016 62 10000 2.06 290 22:22 03.04.2021
1555 Rain 12 1016 54 10000 5.14 240 21:54 03.04.2021
1556 Clouds 12 1016 54 10000 5.14 240 21:25 03.04.2021
1557 Clouds 12 1015 54 10000 0.51 0 20:54 03.04.2021
1558 Clouds 12 1015 54 10000 0.51 0 20:28 03.04.2021
1559 Clouds 12 1015 44 10000 1.03 0 19:51 03.04.2021
1560 Clouds 12 1015 44 10000 1.03 0 19:29 03.04.2021
1561 Clouds 14 1015 44 10000 2.57 240 18:54 03.04.2021
1562 Clouds 14 1015 44 10000 2.57 240 18:34 03.04.2021
1563 Clouds 15 1015 39 10000 3.6 220 17:56 03.04.2021
1564 Clouds 16 1015 39 10000 3.6 220 17:27 03.04.2021
1565 Clouds 15 1015 41 10000 4.12 230 16:55 03.04.2021
1566 Clouds 15 1015 41 10000 4.12 230 16:31 03.04.2021
1567 Clouds 15 1015 41 10000 6.17 250 15:52 03.04.2021
1568 Clouds 16 1015 41 10000 6.17 250 15:32 03.04.2021
1569 Clouds 14 1016 44 10000 5.66 250 14:52 03.04.2021
1570 Clouds 14 1016 44 10000 5.66 250 14:27 03.04.2021
1571 Clouds 13 1016 50 10000 5.66 250 13:58 03.04.2021
1572 Clouds 15 1016 50 10000 5.66 250 13:35 03.04.2021
1573 Clouds 14 1016 50 10000 5.66 270 12:59 03.04.2021
1574 Clouds 14 1016 50 10000 5.66 270 12:35 03.04.2021
1575 Clouds 12 1016 54 10000 4.12 250 11:57 03.04.2021
1576 Clouds 11 1016 54 10000 4.12 250 11:32 03.04.2021
1577 Clouds 10 1016 66 10000 2.57 280 10:49 03.04.2021
1578 Clouds 9 1016 66 10000 2.57 280 10:28 03.04.2021
1579 Clouds 9 1016 66 10000 2.06 300 09:47 03.04.2021
1580 Clouds 8 1016 66 10000 2.06 300 09:25 03.04.2021
1581 Clouds 6 1016 70 10000 3.53 252 08:38 03.04.2021
1582 Clouds 3 1016 86 7000 0.51 0 07:48 03.04.2021
1583 Clouds 2 1016 86 7000 0.51 0 07:27 03.04.2021
1584 Clear 1 1015 86 10000 1.03 0 04:26 03.04.2021
1585 Clear 2 1015 93 10000 1.54 220 02:57 03.04.2021
1586 Clear 2 1015 93 10000 1.38 220 02:34 03.04.2021
1587 Clear 3 1015 87 10000 0.51 60 00:51 03.04.2021
1588 Clear 3 1015 87 10000 0.51 60 00:18 03.04.2021
1589 Clear 3 1015 87 10000 1.91 236 23:44 02.04.2021
1590 Clear 4 1015 87 10000 1.79 234 23:19 02.04.2021
1591 Clear 4 1015 81 10000 0.51 0 22:45 02.04.2021
1592 Clear 4 1015 81 10000 0.51 0 22:25 02.04.2021
1593 Clear 5 1014 75 10000 1.9 234 21:42 02.04.2021
1594 Clear 5 1014 75 10000 1.84 245 21:19 02.04.2021
1595 Clear 6 1014 70 10000 1.54 240 20:45 02.04.2021
1596 Clear 6 1014 70 10000 1.54 240 20:25 02.04.2021
1597 Clouds 7 1014 61 10000 4.12 250 19:42 02.04.2021
1598 Clouds 7 1014 61 10000 4.12 250 19:23 02.04.2021
1599 Clouds 8 1013 57 10000 3.6 250 18:50 02.04.2021
1600 Clouds 8 1013 57 10000 3.6 250 18:30 02.04.2021
1601 Clouds 8 1013 57 10000 4.12 250 17:59 02.04.2021
1602 Clouds 8 1013 57 10000 4.12 250 17:34 02.04.2021
1603 Clouds 9 1013 57 10000 4.63 240 16:43 02.04.2021
1604 Clouds 9 1013 61 10000 5.14 260 15:50 02.04.2021
1605 Clouds 9 1013 61 10000 5.14 260 15:28 02.04.2021
1606 Clouds 9 1013 57 10000 4.12 250 14:42 02.04.2021
1607 Clouds 10 1013 57 10000 4.12 250 14:21 02.04.2021
1608 Clouds 8 1013 53 10000 3.09 270 13:39 02.04.2021
1609 Clouds 8 1013 53 10000 3.09 270 13:19 02.04.2021
1610 Clouds 8 1014 66 10000 3.6 250 12:39 02.04.2021
1611 Clouds 8 1014 66 10000 3.6 250 12:19 02.04.2021
1612 Clouds 7 1014 70 10000 4.63 250 11:48 02.04.2021
1613 Clouds 7 1014 70 10000 4.63 250 11:19 02.04.2021
1614 Clouds 7 1014 70 10000 3.6 270 10:44 02.04.2021
1615 Clouds 7 1014 70 10000 3.6 270 10:24 02.04.2021
1616 Clouds 6 1014 75 10000 4.12 260 09:52 02.04.2021
1617 Clouds 6 1014 75 10000 4.12 260 09:26 02.04.2021
1618 Clouds 5 1014 81 10000 4.12 260 08:46 02.04.2021
1619 Clouds 5 1014 81 10000 4.12 260 08:27 02.04.2021
1620 Clouds 5 1013 87 10000 3.6 260 07:22 02.04.2021
1621 Clouds 5 1013 87 10000 4.12 260 06:34 02.04.2021
1622 Clouds 5 1013 87 10000 2.57 230 03:46 02.04.2021
1623 Clouds 6 1013 81 10000 2.57 230 01:49 02.04.2021
1624 Clouds 6 1013 81 10000 2.57 280 00:44 02.04.2021
1625 Clouds 6 1013 87 10000 2.06 240 23:48 01.04.2021
1626 Clouds 6 1013 87 10000 2.06 240 23:27 01.04.2021
1627 Clouds 6 1013 87 10000 1.03 0 22:50 01.04.2021
1628 Clouds 5 1013 87 10000 1.03 0 22:18 01.04.2021
1629 Clouds 6 1013 87 10000 1.03 0 21:44 01.04.2021
1630 Clouds 6 1013 87 10000 1.54 90 21:23 01.04.2021
1631 Clouds 6 1013 81 10000 2.57 80 20:41 01.04.2021
1632 Clouds 6 1013 81 10000 2.57 80 20:41 01.04.2021
1633 Clouds 6 1013 81 10000 2.57 80 20:22 01.04.2021
1634 Clouds 6 1013 81 10000 3.09 90 19:43 01.04.2021
1635 Clouds 6 1013 81 10000 3.09 90 19:24 01.04.2021
1636 Rain 7 1012 71 10000 3.6 300 18:45 01.04.2021
1637 Rain 7 1012 71 10000 3.6 300 18:18 01.04.2021
1638 Clouds 7 1012 71 10000 5.66 250 17:45 01.04.2021
1639 Rain 7 1012 71 10000 5.66 250 17:24 01.04.2021
1640 Rain 7 1012 71 10000 5.66 250 17:24 01.04.2021
1641 Clouds 8 1011 71 10000 6.17 250 16:50 01.04.2021
1642 Clouds 9 1011 71 10000 6.17 250 16:18 01.04.2021
1643 Clouds 9 1011 71 10000 6.17 250 16:18 01.04.2021
1644 Clouds 9 1011 71 10000 5.14 270 15:40 01.04.2021
1645 Clouds 9 1011 71 10000 5.14 270 15:19 01.04.2021
1646 Clouds 9 1012 71 10000 5.66 260 14:40 01.04.2021
1647 Clouds 9 1012 71 10000 5.66 260 14:40 01.04.2021
1648 Clouds 9 1012 71 10000 5.66 260 14:40 01.04.2021
1649 Clouds 9 1012 71 10000 5.66 260 14:40 01.04.2021
1650 Clouds 9 1012 71 10000 5.66 260 14:21 01.04.2021
1651 Clouds 9 1012 71 10000 4.63 270 13:50 01.04.2021
1652 Clouds 8 1012 81 10000 4.63 260 13:30 01.04.2021
1653 Clouds 9 1012 81 10000 4.63 260 12:47 01.04.2021
1654 Clouds 9 1012 81 10000 4.63 260 12:29 01.04.2021
1655 Clouds 9 1012 66 10000 1.54 350 11:45 01.04.2021
1656 Clouds 9 1012 66 10000 1.54 350 11:24 01.04.2021
1657 Clouds 8 1012 71 10000 1.54 0 10:53 01.04.2021
1658 Clouds 8 1012 71 10000 1.54 0 10:53 01.04.2021
1659 Clouds 8 1012 71 10000 1.54 0 10:33 01.04.2021
1660 Clouds 7 1012 76 10000 3.09 80 09:53 01.04.2021
1661 Clouds 7 1012 76 10000 3.09 80 09:24 01.04.2021
1662 Clouds 6 1012 81 10000 3.09 80 08:33 01.04.2021
1663 Clouds 5 1012 87 10000 1.03 250 07:52 01.04.2021
1664 Clouds 5 1012 87 10000 1.03 250 07:18 01.04.2021
1665 Clouds 4 1011 87 10000 1.54 190 06:31 01.04.2021
1666 Clouds 4 1012 93 10000 1.54 250 03:30 01.04.2021
1667 Rain 5 1014 87 10000 2.06 110 00:38 01.04.2021
1668 Rain 6 1013 70 10000 2.57 60 23:44 31.03.2021
1669 Rain 6 1013 70 10000 2.57 60 23:18 31.03.2021
1670 Clouds 6 1014 70 10000 2.57 70 22:41 31.03.2021
1671 Rain 6 1014 70 10000 2.57 70 22:20 31.03.2021
1672 Clouds 6 1014 70 10000 3.6 60 21:45 31.03.2021
1673 Clouds 6 1014 70 10000 3.6 60 21:23 31.03.2021
1674 Clouds 6 1014 65 10000 5.14 70 20:44 31.03.2021
1675 Clouds 7 1014 65 10000 5.14 70 20:24 31.03.2021
1676 Clouds 7 1014 66 10000 4.12 70 19:59 31.03.2021
1677 Clouds 7 1014 66 10000 4.12 70 19:36 31.03.2021
1678 Clouds 8 1014 61 10000 5.66 50 19:18 31.03.2021
1679 Clouds 8 1014 61 10000 5.66 50 18:43 31.03.2021
1680 Clouds 9 1014 61 10000 5.14 50 17:57 31.03.2021
1681 Clouds 9 1014 61 10000 5.14 50 17:36 31.03.2021
1682 Clouds 9 1015 57 10000 5.66 70 16:58 31.03.2021
1683 Clouds 9 1015 57 10000 5.66 70 16:38 31.03.2021
1684 Clouds 9 1015 57 10000 5.66 70 16:19 31.03.2021
1685 Clouds 9 1015 57 10000 5.66 70 16:19 31.03.2021
1686 Rain 9 1015 57 10000 5.66 50 15:50 31.03.2021
1687 Rain 9 1015 57 10000 5.66 50 15:19 31.03.2021
1688 Clouds 9 1016 57 10000 6.17 50 14:44 31.03.2021
1689 Clouds 9 1016 57 10000 6.17 50 14:22 31.03.2021
1690 Clouds 10 1016 53 10000 6.17 60 13:41 31.03.2021
1691 Clouds 10 1017 53 10000 5.14 40 12:42 31.03.2021
1692 Clouds 9 1017 53 10000 5.14 40 12:21 31.03.2021
1693 Clouds 9 1017 53 10000 5.14 40 12:21 31.03.2021
1694 Clouds 9 1018 57 10000 6.69 50 11:56 31.03.2021
1695 Clouds 9 1017 57 10000 6.17 60 11:21 31.03.2021
1696 Clouds 8 1017 57 10000 6.17 60 10:47 31.03.2021
1697 Clouds 7 1017 57 10000 6.17 60 10:26 31.03.2021
1698 Clouds 6 1018 61 10000 8.23 60 09:43 31.03.2021
1699 Clouds 5 1018 65 10000 8.75 60 08:59 31.03.2021
1700 Clouds 5 1018 65 10000 8.75 60 08:38 31.03.2021
1701 Clouds 4 1017 65 10000 7.72 60 07:53 31.03.2021
1702 Clouds 3 1017 75 10000 7.2 60 06:49 31.03.2021
1703 Clouds 4 1017 70 10000 7.72 60 03:52 31.03.2021
1704 Rain 4 1017 70 10000 8.23 60 01:43 31.03.2021
1705 Clouds 3 1018 70 10000 7.2 70 00:53 31.03.2021
1706 Clouds 3 1018 70 10000 7.2 70 00:21 31.03.2021
1707 Clouds 4 1018 65 10000 7.2 60 23:46 30.03.2021
1708 Clouds 4 1018 65 10000 7.2 60 23:19 30.03.2021
1709 Clouds 4 1018 70 10000 7.2 60 22:41 30.03.2021
1710 Clouds 4 1018 70 10000 7.2 60 22:23 30.03.2021
1711 Clouds 4 1019 65 10000 5.14 80 21:51 30.03.2021
1712 Clouds 5 1019 65 10000 5.14 80 21:21 30.03.2021
1713 Clouds 5 1019 56 10000 5.14 60 20:55 30.03.2021
1714 Clouds 5 1019 56 10000 5.14 60 20:28 30.03.2021
1715 Clouds 6 1018 53 10000 4.12 40 19:51 30.03.2021
1716 Clouds 6 1018 53 10000 4.12 40 19:28 30.03.2021
1717 Clouds 6 1018 53 10000 4.12 40 19:28 30.03.2021
1718 Clouds 7 1018 53 10000 4.12 80 18:47 30.03.2021
1719 Clouds 7 1018 53 10000 4.12 80 18:24 30.03.2021
1720 Clouds 7 1018 49 10000 4.63 90 17:42 30.03.2021
1721 Clouds 7 1018 49 10000 4.63 90 17:24 30.03.2021
1722 Clouds 8 1018 40 10000 3.6 60 16:46 30.03.2021
1723 Clouds 9 1018 40 10000 3.6 60 16:25 30.03.2021
1724 Clouds 8 1019 29 10000 1.54 230 15:21 30.03.2021
1725 Clouds 8 1019 34 10000 1.03 120 14:58 30.03.2021
1726 Clouds 9 1019 34 10000 1.03 120 14:39 30.03.2021
1727 Clouds 9 1019 34 10000 1.03 120 14:18 30.03.2021
1728 Clouds 7 1019 49 10000 4.12 30 13:38 30.03.2021
1729 Clouds 6 1020 52 10000 3.6 360 12:49 30.03.2021
1730 Clouds 6 1020 52 10000 2.06 70 12:29 30.03.2021
1731 Clouds 5 1020 60 10000 2.57 20 11:59 30.03.2021
1732 Clouds 5 1021 60 10000 2.57 50 11:24 30.03.2021
1733 Clouds 5 1021 65 10000 1.54 0 10:59 30.03.2021
1734 Clouds 5 1021 65 10000 1.54 0 10:37 30.03.2021
1735 Clouds 4 1021 65 10000 1.54 0 10:18 30.03.2021
1736 Clouds 4 1021 69 10000 1.54 0 09:38 30.03.2021
1737 Clouds 1 1021 80 10000 1.54 260 09:20 30.03.2021
1738 Clouds 1 1021 80 10000 1.03 0 08:39 30.03.2021
1739 Clouds 0 1022 86 10000 1.54 280 07:53 30.03.2021
1740 Clouds 0 1023 93 10000 0.51 0 07:22 30.03.2021
1741 Snow 0 1023 93 10000 0.51 0 05:53 30.03.2021
1742 Snow 0 1023 93 10000 0.51 0 05:19 30.03.2021
1743 Snow 1 1024 87 10000 2.06 80 01:29 30.03.2021
1744 Rain 2 1025 93 10000 3.09 30 23:51 29.03.2021
1745 Rain 4 1024 65 10000 3.09 330 22:55 29.03.2021
1746 Rain 4 1024 65 10000 3.09 330 22:33 29.03.2021
1747 Rain 6 1024 61 10000 2.06 280 21:52 29.03.2021
1748 Rain 6 1024 61 10000 2.06 280 21:31 29.03.2021
1749 Clouds 7 1024 57 10000 3.09 320 20:50 29.03.2021
1750 Clouds 7 1024 57 10000 3.09 320 20:28 29.03.2021
1751 Clouds 8 1023 57 10000 3.6 340 19:50 29.03.2021
1752 Clouds 8 1023 57 10000 3.6 340 19:27 29.03.2021
1753 Clouds 8 1023 61 10000 3.6 350 18:51 29.03.2021
1754 Clouds 8 1023 61 10000 3.6 350 18:27 29.03.2021
1755 Clouds 9 1023 57 10000 4.12 350 17:52 29.03.2021
1756 Clouds 9 1023 57 10000 4.12 350 17:32 29.03.2021
1757 Clouds 9 1023 57 10000 7.2 340 16:50 29.03.2021
1758 Rain 10 1023 57 10000 7.2 340 16:24 29.03.2021
1759 Clouds 12 1023 38 10000 4.63 290 15:40 29.03.2021
1760 Clouds 13 1023 38 10000 4.63 290 15:22 29.03.2021
1761 Clouds 13 1024 38 10000 4.12 260 14:46 29.03.2021
1762 Clouds 13 1025 35 10000 2.06 0 13:56 29.03.2021
1763 Clouds 12 1025 35 10000 2.06 0 13:36 29.03.2021
1764 Clear 12 1026 37 10000 2.57 280 12:59 29.03.2021
1765 Clear 12 1026 37 10000 2.57 280 12:40 29.03.2021
1766 Clouds 11 1026 43 10000 2.06 0 11:45 29.03.2021
1767 Clouds 10 1026 43 10000 2.06 0 11:27 29.03.2021
1768 Clouds 10 1026 43 10000 2.06 0 11:27 29.03.2021
1769 Clouds 9 1027 53 10000 1.54 0 10:45 29.03.2021
1770 Clouds 9 1027 53 10000 1.54 0 10:19 29.03.2021
1771 Clear 7 1027 61 10000 1.54 270 09:32 29.03.2021
1772 Clear 5 1027 75 10000 1.54 300 08:35 29.03.2021
1773 Clear 3 1027 86 10000 1.22 277 07:54 29.03.2021
1774 Clear 3 1027 86 10000 0.8 270 07:19 29.03.2021
1775 Clear 0 1027 93 10000 0.8 284 06:23 29.03.2021
1776 Clear 2 1027 86 10000 0.89 285 02:34 29.03.2021
1777 Clear 1 1027 80 10000 0.88 285 00:30 29.03.2021
1778 Clear 2 1027 75 10000 0.88 285 23:59 28.03.2021
1779 Clear 2 1027 75 10000 0.83 281 23:25 28.03.2021
1780 Clear 3 1027 70 10000 0.51 0 22:48 28.03.2021
1781 Clear 4 1027 70 10000 0.51 0 22:29 28.03.2021
1782 Clear 5 1027 60 10000 1.03 0 21:47 28.03.2021
1783 Clear 5 1027 60 10000 1.03 0 21:25 28.03.2021
1784 Clear 6 1027 56 10000 1.18 264 20:56 28.03.2021
1785 Clear 6 1027 56 10000 1.15 272 20:38 28.03.2021
1786 Clear 6 1027 56 10000 1.55 279 20:18 28.03.2021
1787 Clouds 8 1026 46 10000 2.06 230 19:41 28.03.2021
1788 Clouds 8 1026 46 10000 2.06 230 19:21 28.03.2021
1789 Clouds 9 1026 43 10000 3.09 260 18:49 28.03.2021
1790 Clouds 9 1026 43 10000 3.09 260 18:22 28.03.2021
1791 Clouds 11 1026 37 10000 3.09 240 17:41 28.03.2021
1792 Clouds 11 1026 37 10000 3.09 240 17:18 28.03.2021
1793 Clouds 11 1027 35 10000 2.06 260 16:39 28.03.2021
1794 Clouds 11 1027 35 10000 2.06 260 16:21 28.03.2021
1795 Clouds 11 1027 40 10000 2.06 0 15:24 28.03.2021
1796 Clouds 11 1027 40 10000 2.06 0 14:49 28.03.2021
1797 Clouds 11 1027 40 10000 2.06 0 14:25 28.03.2021
1798 Clouds 10 1028 46 10000 3.09 0 13:36 28.03.2021
1799 Clear 9 1028 49 10000 2.57 0 12:58 28.03.2021
1800 Clear 9 1028 49 10000 2.57 0 12:35 28.03.2021
1801 Clear 8 1029 46 10000 3.09 300 11:59 28.03.2021
1802 Clear 8 1029 46 10000 3.09 300 11:37 28.03.2021
1803 Clear 7 1029 53 10000 1.54 0 10:54 28.03.2021
1804 Clear 7 1029 53 10000 1.54 0 10:31 28.03.2021
1805 Clear 5 1029 60 10000 1.03 0 09:53 28.03.2021
1806 Clear 5 1029 60 10000 1.03 0 09:28 28.03.2021
1807 Clear 3 1029 80 10000 0.51 0 08:52 28.03.2021
1808 Clear 2 1029 80 10000 0.51 0 08:34 28.03.2021
1809 Clear 0 1029 86 10000 0.51 0 07:42 28.03.2021
1810 Clear -1 1028 93 8000 0.51 0 06:22 28.03.2021
1811 Clear -2 1028 93 10000 0.4 320 03:50 28.03.2021
1812 Clear -1 1029 93 10000 0.53 31 00:45 28.03.2021
1813 Clear 0 1029 80 10000 0.89 41 23:59 27.03.2021
1814 Clear 0 1029 80 10000 0.89 41 23:35 27.03.2021
1815 Clear 0 1028 80 10000 1.15 33 22:49 27.03.2021
1816 Clear 1 1028 80 10000 1.23 24 22:30 27.03.2021
1817 Clear 0 1028 80 10000 1.23 24 21:45 27.03.2021
1818 Clear 0 1028 80 10000 1.21 17 21:21 27.03.2021
1819 Clear 1 1028 69 10000 1.21 17 20:59 27.03.2021
1820 Clear 1 1028 69 10000 1.21 17 20:37 27.03.2021
1821 Clear 3 1028 60 10000 2.57 230 19:57 27.03.2021
1822 Clear 3 1028 60 10000 2.57 230 19:38 27.03.2021
1823 Clear 3 1028 60 10000 2.57 230 19:20 27.03.2021
1824 Clear 4 1027 56 10000 3.09 290 18:46 27.03.2021
1825 Clear 4 1027 56 10000 3.09 290 18:22 27.03.2021
1826 Clouds 6 1026 49 10000 4.12 280 17:36 27.03.2021
1827 Clouds 6 1026 49 10000 4.12 280 17:18 27.03.2021
1828 Clouds 7 1026 46 10000 4.12 260 16:43 27.03.2021
1829 Clouds 7 1026 46 10000 4.12 260 16:23 27.03.2021
1830 Clouds 7 1026 45 10000 4.12 280 15:45 27.03.2021
1831 Clouds 7 1026 45 10000 4.12 280 15:18 27.03.2021
1832 Clouds 7 1026 49 10000 3.09 310 14:39 27.03.2021
1833 Clouds 7 1026 49 10000 3.09 310 13:39 27.03.2021
1834 Clouds 6 1026 49 10000 3.09 310 13:19 27.03.2021
1835 Clouds 6 1026 49 10000 5.14 340 12:43 27.03.2021
1836 Clouds 5 1026 56 10000 4.12 290 11:51 27.03.2021
1837 Clouds 5 1026 56 10000 4.12 290 11:32 27.03.2021
1838 Clouds 5 1026 52 10000 4.12 320 10:57 27.03.2021
1839 Clouds 5 1026 52 10000 4.12 320 10:38 27.03.2021
1840 Clouds 4 1026 56 10000 5.66 310 09:50 27.03.2021
1841 Clouds 4 1026 56 10000 5.66 310 09:20 27.03.2021
1842 Clouds 2 1025 70 10000 3.09 270 08:40 27.03.2021
1843 Clouds 1 1024 75 10000 3.09 280 07:52 27.03.2021
1844 Clouds 0 1024 80 10000 3.09 240 06:59 27.03.2021
1845 Clouds 0 1024 80 10000 3.09 240 06:39 27.03.2021
1846 Clouds 0 1022 80 10000 3.09 240 04:42 27.03.2021
1847 Clouds 0 1021 80 10000 2.06 230 02:45 27.03.2021
1848 Snow -1 1021 80 10000 5.66 270 00:44 27.03.2021
1849 Clouds -1 1021 80 10000 5.66 270 00:25 27.03.2021
1850 Clouds -1 1021 86 10000 5.14 260 23:27 26.03.2021
1851 Clouds -1 1021 86 10000 6.17 260 22:40 26.03.2021
1852 Clouds -1 1021 86 10000 6.17 260 22:40 26.03.2021
1853 Snow -1 1021 86 7000 5.14 250 21:45 26.03.2021
1854 Snow -1 1021 86 10000 5.14 250 21:23 26.03.2021
1855 Snow -1 1021 80 10000 5.66 260 20:57 26.03.2021
1856 Snow -1 1021 80 10000 5.66 260 20:31 26.03.2021
1857 Snow 0 1020 80 10000 6.69 260 19:52 26.03.2021
1858 Clouds 0 1020 80 10000 6.69 260 19:33 26.03.2021
1859 Clouds 0 1019 69 10000 5.66 270 18:51 26.03.2021
1860 Clouds 0 1019 69 10000 5.66 270 18:31 26.03.2021
1861 Snow 1 1019 64 10000 6.17 260 17:58 26.03.2021
1862 Snow 1 1019 64 10000 6.17 260 17:35 26.03.2021
1863 Snow 1 1018 64 10000 6.69 260 16:49 26.03.2021
1864 Snow 1 1018 64 10000 6.69 260 16:22 26.03.2021
1865 Snow 2 1018 65 10000 7.2 260 15:42 26.03.2021
1866 Snow 2 1018 69 10000 5.14 270 14:50 26.03.2021
1867 Rain 2 1018 80 10000 5.14 260 13:52 26.03.2021
1868 Rain 2 1018 80 10000 5.14 260 13:52 26.03.2021
1869 Snow 1 1018 80 10000 5.14 260 13:33 26.03.2021
1870 Snow 1 1019 93 6000 6.17 250 12:40 26.03.2021
1871 Snow 1 1019 80 4000 6.17 250 11:50 26.03.2021
1872 Snow 1 1019 75 10000 6.17 250 11:31 26.03.2021
1873 Clouds 1 1018 64 10000 5.14 240 10:44 26.03.2021
1874 Clouds 1 1018 64 10000 5.14 240 10:23 26.03.2021
1875 Clouds 1 1018 64 10000 3.6 250 09:41 26.03.2021
1876 Clouds -1 1018 74 10000 3.09 240 08:49 26.03.2021
1877 Clouds -1 1018 74 10000 3.09 240 08:31 26.03.2021
1878 Clouds -1 1018 74 10000 2.57 240 07:57 26.03.2021
1879 Clouds -2 1018 74 10000 2.57 240 07:22 26.03.2021
1880 Clouds -4 1017 93 10000 1.03 0 06:57 26.03.2021
1881 Clouds -4 1017 86 10000 1.03 290 05:32 26.03.2021
1882 Clear -4 1016 86 10000 2.06 250 04:23 26.03.2021
1883 Clouds -3 1016 80 10000 2.57 270 01:18 26.03.2021
1884 Clouds -3 1016 80 10000 1.54 240 00:18 26.03.2021
1885 Clouds -2 1016 93 10000 1.54 270 23:42 25.03.2021
1886 Clouds -2 1015 86 10000 1.54 240 22:50 25.03.2021
1887 Clouds -2 1015 86 10000 1.54 240 22:27 25.03.2021
1888 Clouds -2 1015 86 10000 2.06 250 21:49 25.03.2021
1889 Clouds -2 1015 86 10000 2.06 250 21:29 25.03.2021
1890 Clouds -1 1015 93 10000 2.06 250 20:41 25.03.2021
1891 Clouds -1 1015 93 10000 2.06 250 20:23 25.03.2021
1892 Clouds -1 1015 80 10000 1.54 230 19:43 25.03.2021
1893 Snow -1 1015 80 10000 1.54 230 19:24 25.03.2021
1894 Snow -1 1014 86 10000 2.06 260 18:46 25.03.2021
1895 Snow -1 1014 86 10000 2.06 260 18:26 25.03.2021
1896 Snow -1 1013 80 10000 2.57 120 17:43 25.03.2021
1897 Snow -1 1013 80 10000 2.57 120 17:23 25.03.2021
1898 Snow 0 1013 80 6000 1.54 0 16:47 25.03.2021
1899 Snow 0 1013 80 6000 1.54 0 16:28 25.03.2021
1900 Snow -1 1013 93 1400 2.06 320 15:43 25.03.2021
1901 Snow 1 1013 86 3200 2.57 270 15:19 25.03.2021
1902 Snow 0 1013 93 2200 1.54 260 14:43 25.03.2021
1903 Snow 0 1012 86 2800 1.03 0 13:48 25.03.2021
1904 Snow 0 1012 86 2800 1.03 0 13:23 25.03.2021
1905 Snow 0 1012 86 2500 3.6 230 12:42 25.03.2021
1906 Snow 0 1012 86 2500 3.6 230 12:20 25.03.2021
1907 Snow 0 1012 60 8000 1.03 0 11:52 25.03.2021
1908 Snow 0 1012 60 8000 1.03 0 11:30 25.03.2021
1909 Snow 1 1011 55 6000 2.57 30 10:54 25.03.2021
1910 Snow 1 1011 60 10000 3.09 40 10:25 25.03.2021
1911 Snow 0 1011 55 10000 3.6 50 09:56 25.03.2021
1912 Snow 1 1011 55 10000 3.6 50 09:38 25.03.2021
1913 Snow 0 1010 55 10000 2.57 10 08:54 25.03.2021
1914 Clouds 0 1010 55 10000 2.57 10 08:28 25.03.2021
1915 Snow -1 1009 51 10000 2.57 40 07:19 25.03.2021
1916 Clouds -1 1008 64 10000 3.6 360 06:26 25.03.2021
1917 Clouds -2 1008 64 10000 3.6 360 05:49 25.03.2021
1918 Snow -2 1006 69 10000 4.12 350 03:55 25.03.2021
1919 Clouds -2 1005 69 10000 3.6 360 00:34 25.03.2021
1920 Clouds -1 1005 69 10000 3.6 20 23:53 24.03.2021
1921 Clouds -1 1005 69 10000 3.6 20 23:30 24.03.2021
1922 Snow -2 1005 69 10000 4.12 360 22:50 24.03.2021
1923 Snow -2 1005 69 10000 4.12 360 22:28 24.03.2021
1924 Snow -3 1004 93 4000 6.17 10 21:46 24.03.2021
1925 Snow -3 1004 93 3100 7.2 10 21:24 24.03.2021
1926 Snow -2 1005 93 10000 4.63 360 20:45 24.03.2021
1927 Snow -1 1004 86 7000 3.6 20 20:20 24.03.2021
1928 Snow -1 1004 86 7000 3.6 20 19:49 24.03.2021
1929 Snow -1 1004 86 7000 3.6 20 19:29 24.03.2021
1930 Snow -1 1004 86 7000 3.6 20 19:29 24.03.2021
1931 Snow -1 1003 80 6000 5.66 20 18:51 24.03.2021
1932 Snow -1 1003 80 6000 5.66 20 18:23 24.03.2021
1933 Snow 0 1003 93 4000 2.06 230 17:52 24.03.2021
1934 Snow 0 1003 93 4000 2.06 230 17:32 24.03.2021
1935 Snow 1 1002 80 4000 3.6 0 16:53 24.03.2021
1936 Snow 1 1002 80 4000 3.6 0 16:31 24.03.2021
1937 Rain 2 1002 60 10000 4.12 70 15:50 24.03.2021
1938 Clouds 3 1002 60 10000 4.12 70 15:32 24.03.2021
1939 Clouds 3 1002 56 10000 3.09 80 14:48 24.03.2021
1940 Clouds 3 1002 56 10000 3.09 80 14:26 24.03.2021
1941 Clouds 3 1002 60 10000 3.6 80 13:55 24.03.2021
1942 Clouds 2 1002 60 10000 3.6 80 13:28 24.03.2021
1943 Clouds 3 1002 70 8000 2.57 140 12:44 24.03.2021
1944 Clouds 2 1002 65 10000 2.06 0 12:23 24.03.2021
1945 Clouds 2 1002 65 10000 2.06 0 11:49 24.03.2021
1946 Snow 1 1003 80 4000 1.03 0 10:59 24.03.2021
1947 Snow 1 1003 80 4000 1.03 0 10:40 24.03.2021
1948 Snow 1 1003 80 4000 1.03 0 10:21 24.03.2021
1949 Snow 1 1003 93 2200 1.54 250 09:52 24.03.2021
1950 Snow 1 1003 93 2200 1.54 250 09:22 24.03.2021
1951 Snow 0 1003 93 2100 1.03 0 08:51 24.03.2021
1952 Snow 1 1003 93 2100 1.03 0 08:26 24.03.2021
1953 Snow 0 1002 93 3100 1.54 260 07:40 24.03.2021
1954 Snow -1 1002 100 3100 1.54 270 06:54 24.03.2021
1955 Snow -1 1001 93 7000 2.06 260 05:30 24.03.2021
1956 Snow 0 999 93 3200 1.03 0 00:51 24.03.2021
1957 Snow 0 999 93 3200 1.03 0 23:59 23.03.2021
1958 Snow 0 1000 93 3200 3.09 280 23:22 23.03.2021
1959 Snow 0 1000 93 3200 3.09 280 22:55 23.03.2021
1960 Snow 0 1000 93 3200 3.09 280 22:36 23.03.2021
1961 Snow 0 1000 86 4000 6.17 300 21:54 23.03.2021
1962 Snow 0 1000 86 4000 6.17 300 21:34 23.03.2021
1963 Snow 1 999 80 10000 5.14 10 20:56 23.03.2021
1964 Snow 1 999 80 10000 5.14 10 20:38 23.03.2021
1965 Snow 1 999 80 10000 5.14 10 20:38 23.03.2021
1966 Snow 1 999 80 10000 5.14 10 20:19 23.03.2021
1967 Snow 2 999 81 10000 5.66 340 19:41 23.03.2021
1968 Snow 2 999 81 10000 5.66 340 19:22 23.03.2021
1969 Rain 3 998 81 10000 4.12 350 18:38 23.03.2021
1970 Rain 3 998 81 10000 4.12 350 18:19 23.03.2021
1971 Rain 4 998 87 10000 3.09 310 17:44 23.03.2021
1972 Clouds 4 998 87 10000 3.09 310 17:21 23.03.2021
1973 Rain 5 997 81 10000 3.09 30 16:26 23.03.2021
1974 Rain 5 998 87 10000 1.03 0 15:52 23.03.2021
1975 Rain 5 998 87 10000 1.03 0 15:25 23.03.2021
1976 Rain 6 997 81 10000 3.09 320 14:49 23.03.2021
1977 Rain 6 997 81 10000 3.09 320 14:20 23.03.2021
1978 Rain 6 997 93 10000 3.6 270 13:49 23.03.2021
1979 Rain 7 997 93 10000 3.6 270 13:25 23.03.2021
1980 Rain 8 998 81 10000 4.63 30 12:46 23.03.2021
1981 Rain 8 998 81 10000 4.63 30 12:26 23.03.2021
1982 Rain 8 998 81 10000 2.57 290 11:49 23.03.2021
1983 Rain 9 998 81 10000 4.12 30 11:30 23.03.2021
1984 Clouds 9 1001 93 10000 2.06 280 10:43 23.03.2021
1985 Clouds 9 1001 76 10000 0.51 0 10:21 23.03.2021
1986 Clouds 9 1001 76 10000 0.51 0 09:54 23.03.2021
1987 Clouds 9 1001 76 10000 0.51 0 09:25 23.03.2021
1988 Clouds 9 1002 87 10000 0.51 0 08:56 23.03.2021
1989 Clouds 9 1002 87 10000 0.51 0 08:38 23.03.2021
1990 Clouds 9 1002 87 10000 0.51 0 08:20 23.03.2021
1991 Rain 9 1002 81 10000 1.03 0 07:28 23.03.2021
1992 Clouds 9 1002 87 10000 0.51 0 06:54 23.03.2021
1993 Clouds 9 1002 81 10000 2.57 280 05:48 23.03.2021
1994 Clouds 10 1003 71 10000 1.54 190 03:20 23.03.2021
1995 Clouds 11 1004 62 10000 2.57 240 00:22 23.03.2021
1996 Clouds 10 1004 57 10000 2.75 207 23:24 22.03.2021
1997 Clouds 10 1004 61 10000 1.54 260 22:46 22.03.2021
1998 Clouds 10 1004 61 10000 1.54 260 22:22 22.03.2021
1999 Clouds 12 1003 47 10000 4.12 230 21:52 22.03.2021
2000 Clouds 12 1003 47 10000 4.12 230 21:52 22.03.2021
2001 Clouds 12 1003 47 10000 4.12 230 21:29 22.03.2021
2002 Clouds 12 1002 44 10000 6.17 280 20:54 22.03.2021
2003 Clouds 13 1002 44 10000 6.17 280 20:30 22.03.2021
2004 Clouds 13 1001 44 10000 4.12 230 19:59 22.03.2021
2005 Clouds 13 1001 44 10000 4.12 230 19:59 22.03.2021
2006 Clouds 14 1001 44 10000 4.12 230 19:40 22.03.2021
2007 Clouds 14 1001 44 10000 4.12 230 19:21 22.03.2021
2008 Clouds 14 1001 44 10000 4.12 230 19:21 22.03.2021
2009 Clouds 12 1000 93 10000 1.03 0 18:42 22.03.2021
2010 Clouds 12 1000 93 10000 1.03 0 18:23 22.03.2021
2011 Clouds 13 1000 82 10000 3.09 290 17:51 22.03.2021
2012 Clouds 14 1000 82 10000 3.09 290 17:23 22.03.2021
2013 Clouds 14 1000 77 10000 3.09 260 16:58 22.03.2021
2014 Clouds 14 1000 77 10000 3.09 260 16:39 22.03.2021
2015 Clouds 14 1000 77 10000 3.09 240 15:55 22.03.2021
2016 Clouds 14 1000 77 10000 3.09 240 15:37 22.03.2021
2017 Rain 13 1000 77 10000 3.09 240 15:18 22.03.2021
2018 Clouds 13 1000 77 10000 3.09 240 15:18 22.03.2021
2019 Rain 15 1000 67 10000 3.09 190 14:44 22.03.2021
2020 Clouds 15 1000 67 10000 3.09 190 14:24 22.03.2021
2021 Clouds 13 1001 82 10000 3.09 290 13:38 22.03.2021
2022 Clouds 11 1001 82 10000 3.09 290 13:18 22.03.2021
2023 Rain 12 1002 71 10000 2.57 20 12:41 22.03.2021
2024 Rain 12 1002 71 10000 2.57 20 12:19 22.03.2021
2025 Clouds 9 1003 76 10000 1.54 0 11:44 22.03.2021
2026 Clouds 9 1003 76 10000 1.54 0 11:21 22.03.2021
2027 Clouds 9 1004 76 10000 3.6 70 10:43 22.03.2021
2028 Clouds 9 1004 76 10000 3.6 70 10:24 22.03.2021
2029 Rain 8 1004 81 10000 2.06 100 09:39 22.03.2021
2030 Rain 8 1004 81 10000 2.06 100 09:21 22.03.2021
2031 Rain 8 1005 76 10000 2.06 320 08:42 22.03.2021
2032 Rain 8 1004 76 10000 2.06 50 08:24 22.03.2021
2033 Rain 8 1004 76 10000 4.12 100 07:44 22.03.2021
2034 Clouds 6 1005 81 10000 3.6 90 06:52 22.03.2021
2035 Clouds 6 1005 81 10000 3.6 90 06:27 22.03.2021
2036 Clouds 7 1006 76 10000 3.6 100 02:32 22.03.2021
2037 Clouds 7 1009 93 10000 1.03 340 00:29 22.03.2021
2038 Clouds 8 1009 87 10000 1.54 250 23:53 21.03.2021
2039 Clouds 8 1009 87 10000 1.54 250 23:53 21.03.2021
2040 Clouds 8 1009 87 10000 1.54 250 23:19 21.03.2021
2041 Clouds 8 1009 93 10000 1.53 90 22:55 21.03.2021
2042 Clouds 8 1009 87 10000 1.03 0 21:59 21.03.2021
2043 Clouds 8 1009 87 10000 1.03 0 21:40 21.03.2021
2044 Clouds 8 1009 87 10000 1.03 0 21:22 21.03.2021
2045 Clouds 8 1009 87 10000 1.54 80 20:42 21.03.2021
2046 Clouds 9 1009 87 10000 1.54 80 20:24 21.03.2021
2047 Clouds 9 1009 81 10000 1.03 0 19:52 21.03.2021
2048 Clouds 9 1009 81 10000 1.03 0 19:21 21.03.2021
2049 Clouds 10 1009 81 10000 1.54 110 18:47 21.03.2021
2050 Clouds 10 1009 81 10000 1.54 110 18:27 21.03.2021
2051 Clouds 10 1010 76 10000 0.51 0 17:46 21.03.2021
2052 Clouds 10 1010 76 10000 0.51 0 17:20 21.03.2021
2053 Rain 11 1010 76 10000 1.03 0 16:57 21.03.2021
2054 Clouds 11 1010 76 10000 1.03 0 16:32 21.03.2021
2055 Clouds 12 1010 66 10000 2.06 280 15:58 21.03.2021
2056 Clouds 12 1010 66 10000 2.06 280 15:38 21.03.2021
2057 Clouds 12 1010 66 10000 2.06 280 15:19 21.03.2021
2058 Clouds 12 1010 66 10000 2.06 280 15:19 21.03.2021
2059 Clouds 12 1010 71 10000 1.54 300 14:42 21.03.2021
2060 Clouds 12 1010 71 10000 1.54 300 14:24 21.03.2021
2061 Clouds 12 1010 71 10000 1.54 290 13:52 21.03.2021
2062 Clouds 12 1011 76 10000 2.57 270 12:46 21.03.2021
2063 Clouds 12 1011 76 10000 2.57 270 12:27 21.03.2021
2064 Clouds 12 1011 76 10000 2.57 270 12:27 21.03.2021
2065 Clouds 11 1012 76 10000 1.03 0 11:53 21.03.2021
2066 Clouds 11 1012 76 10000 1.03 0 11:28 21.03.2021
2067 Clouds 10 1012 76 10000 1.54 320 10:59 21.03.2021
2068 Clouds 10 1012 76 10000 1.54 320 10:41 21.03.2021
2069 Clouds 10 1012 76 10000 1.54 320 10:21 21.03.2021
2070 Clouds 9 1013 81 10000 2.06 280 09:44 21.03.2021
2071 Clouds 8 1013 81 10000 2.06 280 09:26 21.03.2021
2072 Clouds 7 1013 87 10000 1.54 290 08:39 21.03.2021
2073 Clouds 7 1013 87 10000 1.54 290 08:21 21.03.2021
2074 Clouds 6 1013 87 10000 1.03 0 07:38 21.03.2021
2075 Clouds 5 1013 93 10000 1.54 200 06:52 21.03.2021
2076 Clouds 4 1013 93 10000 1.54 30 05:25 21.03.2021
2077 Clouds 4 1013 87 10000 1.54 50 01:54 21.03.2021
2078 Clouds 4 1013 87 10000 2.06 110 00:41 21.03.2021
2079 Clouds 4 1013 87 10000 2.06 110 00:21 21.03.2021
2080 Clouds 4 1014 93 10000 1.03 0 23:47 20.03.2021
2081 Clouds 3 1014 93 10000 1.03 0 23:22 20.03.2021
2082 Clouds 4 1014 93 10000 1.54 150 22:55 20.03.2021
2083 Rain 3 1014 93 10000 1.54 150 22:22 20.03.2021
2084 Clouds 3 1014 93 10000 1.03 0 21:46 20.03.2021
2085 Rain 4 1014 93 10000 1.03 0 21:24 20.03.2021
2086 Rain 4 1014 81 10000 2.06 90 20:45 20.03.2021
2087 Rain 4 1014 81 10000 2.06 90 20:23 20.03.2021
2088 Rain 4 1015 87 10000 3.09 60 19:50 20.03.2021
2089 Rain 4 1015 87 10000 3.09 60 19:27 20.03.2021
2090 Clouds 4 1014 87 10000 2.06 70 18:50 20.03.2021
2091 Rain 5 1014 87 10000 2.06 70 18:27 20.03.2021
2092 Rain 5 1015 81 10000 3.09 80 17:55 20.03.2021
2093 Rain 5 1015 81 10000 3.09 80 17:33 20.03.2021
2094 Rain 5 1015 81 10000 2.06 40 16:56 20.03.2021
2095 Rain 5 1015 81 10000 2.06 40 16:37 20.03.2021
2096 Rain 6 1016 76 10000 2.06 360 16:18 20.03.2021
2097 Rain 6 1016 76 10000 2.06 360 15:39 20.03.2021
2098 Rain 7 1016 66 10000 2.06 300 14:49 20.03.2021
2099 Rain 7 1016 66 10000 2.06 300 14:49 20.03.2021
2100 Rain 7 1016 66 10000 2.06 300 14:28 20.03.2021
2101 Rain 8 1016 66 10000 2.57 300 13:43 20.03.2021
2102 Rain 8 1016 66 10000 2.57 300 13:18 20.03.2021
2103 Clouds 9 1016 61 10000 2.06 300 12:27 20.03.2021
2104 Clouds 9 1017 53 10000 2.57 280 11:50 20.03.2021
2105 Clouds 9 1017 53 10000 2.57 280 11:30 20.03.2021
2106 Clouds 8 1017 71 10000 2.57 280 10:56 20.03.2021
2107 Clouds 8 1017 71 10000 2.57 280 10:38 20.03.2021
2108 Clouds 8 1018 66 10000 2.57 230 10:19 20.03.2021
2109 Clouds 8 1018 66 10000 2.57 230 09:42 20.03.2021
2110 Clouds 8 1018 66 10000 2.57 230 09:21 20.03.2021
2111 Clouds 6 1018 87 10000 1.03 0 08:45 20.03.2021
2112 Clouds 5 1018 93 6000 2.23 228 07:55 20.03.2021
2113 Clouds 5 1018 93 6000 2.23 228 07:32 20.03.2021
2114 Clouds 5 1018 93 6000 2.23 228 07:32 20.03.2021
2115 Rain 4 1017 93 6000 2.14 211 06:56 20.03.2021
2116 Rain 4 1017 93 6000 1.96 229 06:27 20.03.2021
2117 Clouds 4 1016 100 7000 0.51 0 04:24 20.03.2021
2118 Clouds 4 1016 93 6000 0.51 290 03:42 20.03.2021
2119 Rain 4 1016 100 7000 2.06 240 00:42 20.03.2021
2120 Clouds 4 1015 93 7000 1.54 260 23:36 19.03.2021
2121 Clouds 4 1015 93 7000 0.51 260 22:59 19.03.2021
2122 Clouds 4 1015 93 7000 0.51 260 22:40 19.03.2021
2123 Clouds 4 1015 93 7000 0.51 260 22:22 19.03.2021
2124 Rain 4 1015 93 7000 1.54 80 21:36 19.03.2021
2125 Clouds 4 1015 93 7000 1.54 80 21:18 19.03.2021
2126 Clouds 3 1015 93 6000 4.87 252 20:41 19.03.2021
2127 Clouds 3 1015 93 6000 4.7 252 20:22 19.03.2021
2128 Rain 3 1014 87 10000 1.03 0 19:46 19.03.2021
2129 Rain 4 1014 87 10000 1.03 0 19:21 19.03.2021
2130 Rain 3 1014 87 10000 1.03 0 18:42 19.03.2021
2131 Clouds 3 1014 87 10000 1.03 0 18:20 19.03.2021
2132 Rain 3 1014 87 10000 2.06 70 17:55 19.03.2021
2133 Rain 3 1014 87 10000 2.06 70 17:33 19.03.2021
2134 Rain 3 1014 81 10000 2.06 80 16:56 19.03.2021
2135 Clouds 3 1014 81 10000 2.06 80 16:32 19.03.2021
2136 Rain 3 1014 87 10000 2.06 70 15:58 19.03.2021
2137 Rain 3 1014 87 10000 2.06 70 15:28 19.03.2021
2138 Rain 3 1014 87 8000 1.54 130 14:48 19.03.2021
2139 Rain 3 1014 87 8000 1.54 130 14:28 19.03.2021
2140 Rain 3 1015 87 8000 3.6 310 13:45 19.03.2021
2141 Rain 3 1015 87 8000 3.6 310 13:18 19.03.2021
2142 Rain 4 1015 60 10000 6.17 230 12:38 19.03.2021
2143 Rain 6 1015 52 10000 5.14 260 11:53 19.03.2021
2144 Clouds 7 1015 45 10000 4.12 220 10:59 19.03.2021
2145 Clouds 7 1015 45 10000 4.12 220 10:40 19.03.2021
2146 Clouds 7 1015 45 10000 4.12 220 10:19 19.03.2021
2147 Clouds 7 1015 49 10000 3.09 230 09:43 19.03.2021
2148 Clouds 6 1015 49 10000 3.09 230 09:22 19.03.2021
2149 Clouds 6 1015 52 10000 3.09 210 08:47 19.03.2021
2150 Clouds 5 1015 52 10000 3.09 210 08:25 19.03.2021
2151 Clouds 4 1016 70 10000 1.54 220 07:43 19.03.2021
2152 Clouds 2 1015 80 10000 1.54 0 06:58 19.03.2021
2153 Clouds 1 1015 80 10000 2.36 228 05:19 19.03.2021
2154 Clouds 1 1014 93 10000 2.06 280 00:58 19.03.2021
2155 Clouds 2 1013 80 10000 2.57 230 23:51 18.03.2021
2156 Clouds 2 1013 80 10000 2.57 230 23:26 18.03.2021
2157 Clouds 1 1013 86 10000 1.54 290 22:44 18.03.2021
2158 Clouds 1 1013 86 10000 1.54 290 22:25 18.03.2021
2159 Clouds 2 1012 80 10000 2.06 220 21:40 18.03.2021
2160 Clouds 2 1012 80 10000 2.06 220 21:20 18.03.2021
2161 Clouds 2 1012 81 10000 4.12 260 20:36 18.03.2021
2162 Rain 2 1011 75 10000 2.57 180 19:59 18.03.2021
2163 Rain 2 1011 75 10000 2.57 180 19:59 18.03.2021
2164 Clouds 2 1011 75 10000 2.57 180 19:41 18.03.2021
2165 Clouds 4 1011 65 10000 4.12 260 19:21 18.03.2021
2166 Clouds 4 1011 65 10000 4.12 260 18:39 18.03.2021
2167 Clouds 4 1010 65 10000 6.17 240 17:51 18.03.2021
2168 Clouds 4 1010 65 10000 6.17 240 17:26 18.03.2021
2169 Clouds 5 1010 61 10000 5.14 250 16:51 18.03.2021
2170 Clouds 5 1010 61 10000 5.14 250 16:32 18.03.2021
2171 Clouds 6 1010 49 10000 7.72 260 15:49 18.03.2021
2172 Clouds 6 1010 49 10000 7.72 260 15:31 18.03.2021
2173 Clouds 5 1009 65 10000 6.17 260 14:59 18.03.2021
2174 Clouds 6 1009 65 10000 6.17 260 14:40 18.03.2021
2175 Clouds 7 1009 53 10000 7.2 260 13:56 18.03.2021
2176 Clouds 6 1009 53 10000 7.2 260 13:27 18.03.2021
2177 Clouds 6 1010 61 10000 7.72 270 12:57 18.03.2021
2178 Rain 6 1010 61 10000 7.72 270 12:36 18.03.2021
2179 Rain 6 1010 61 10000 7.72 270 12:36 18.03.2021
2180 Rain 5 1010 61 10000 7.72 270 12:18 18.03.2021
2181 Clouds 6 1010 56 10000 6.17 240 11:40 18.03.2021
2182 Snow 6 1010 56 10000 6.17 240 10:57 18.03.2021
2183 Clouds 6 1010 56 10000 6.17 240 10:38 18.03.2021
2184 Clouds 6 1010 60 10000 6.17 270 10:20 18.03.2021
2185 Clouds 5 1010 60 10000 7.2 270 09:30 18.03.2021
2186 Clouds 5 1009 70 10000 6.17 240 08:59 18.03.2021
2187 Clouds 5 1009 70 10000 6.17 240 08:41 18.03.2021
2188 Clouds 4 1009 65 10000 3.6 290 08:23 18.03.2021
2189 Clouds 4 1009 65 10000 3.6 290 07:43 18.03.2021
2190 Clouds 2 1009 69 10000 3.09 270 06:40 18.03.2021
2191 Clouds 2 1009 69 10000 3.09 270 06:22 18.03.2021
2192 Clear 1 1008 75 10000 2.57 290 05:25 18.03.2021
2193 Clouds 2 1007 86 10000 2.06 290 00:40 18.03.2021
2194 Clouds 2 1007 87 10000 1.03 0 23:19 17.03.2021
2195 Clouds 2 1007 87 10000 1.03 0 22:38 17.03.2021
2196 Clouds 2 1007 87 10000 1.03 0 22:20 17.03.2021
2197 Clouds 3 1006 75 10000 6.17 250 21:49 17.03.2021
2198 Clouds 3 1006 75 10000 6.17 250 21:30 17.03.2021
2199 Clouds 3 1006 87 10000 0.51 0 20:48 17.03.2021
2200 Rain 3 1006 87 10000 0.51 0 20:26 17.03.2021
2201 Clouds 3 1005 93 10000 3.09 230 19:58 17.03.2021
2202 Clouds 3 1005 93 10000 3.09 230 19:58 17.03.2021
2203 Clouds 3 1005 93 10000 3.09 230 19:36 17.03.2021
2204 Clouds 2 1005 93 10000 3.09 230 19:18 17.03.2021
2205 Rain 3 1004 93 10000 3.6 250 18:43 17.03.2021
2206 Clouds 2 1004 93 10000 3.6 250 18:25 17.03.2021
2207 Clouds 3 1004 81 10000 11.32 260 17:32 17.03.2021
2208 Rain 5 1002 53 10000 5.14 250 16:57 17.03.2021
2209 Clouds 7 1002 53 10000 5.14 250 16:38 17.03.2021
2210 Clouds 7 1002 53 10000 5.14 250 16:19 17.03.2021
2211 Clouds 7 1002 57 10000 6.17 240 15:41 17.03.2021
2212 Clouds 7 1002 70 10000 6.17 240 14:57 17.03.2021
2213 Clouds 7 1002 70 10000 6.17 240 14:36 17.03.2021
2214 Clouds 5 1002 81 10000 7.2 260 14:18 17.03.2021
2215 Clouds 5 1002 81 10000 7.2 260 14:18 17.03.2021
2216 Rain 6 1002 81 10000 7.2 260 13:52 17.03.2021
2217 Rain 6 1002 81 10000 7.2 260 13:22 17.03.2021
2218 Clouds 6 1002 81 10000 4.63 240 12:36 17.03.2021
2219 Clouds 6 1002 81 10000 4.63 240 12:18 17.03.2021
2220 Rain 6 1002 70 10000 4.63 250 11:38 17.03.2021
2221 Clouds 6 1002 75 10000 4.12 250 11:20 17.03.2021
2222 Clouds 5 1002 81 10000 2.06 270 10:40 17.03.2021
2223 Clouds 5 1002 81 10000 2.06 270 10:19 17.03.2021
2224 Clouds 4 1002 87 7000 1.54 260 09:42 17.03.2021
2225 Clouds 3 1002 87 7000 1.54 260 09:20 17.03.2021
2226 Clouds 3 1002 93 6000 1.74 195 08:45 17.03.2021
2227 Clouds 3 1002 93 6000 1.86 159 08:25 17.03.2021
2228 Rain 2 1002 93 6000 0.51 0 07:38 17.03.2021
2229 Snow 1 1003 93 4000 1.66 126 06:52 17.03.2021
2230 Snow 1 1003 93 4000 2.05 152 06:27 17.03.2021
2231 Rain 2 1003 87 10000 2.06 110 03:32 17.03.2021
2232 Rain 2 1003 87 10000 2.06 110 03:32 17.03.2021
2233 Clouds 3 1005 93 10000 1.54 70 01:58 17.03.2021
2234 Clouds 2 1005 87 10000 1.03 0 00:33 17.03.2021
2235 Clouds 3 1006 87 10000 2.57 260 23:27 16.03.2021
2236 Clouds 4 1006 81 10000 2.57 230 22:45 16.03.2021
2237 Clouds 3 1006 81 10000 2.57 230 22:26 16.03.2021
2238 Clouds 3 1006 75 10000 1.54 180 21:44 16.03.2021
2239 Rain 3 1006 75 10000 1.54 180 21:26 16.03.2021
2240 Clouds 4 1005 81 10000 1.54 220 20:57 16.03.2021
2241 Clouds 3 1005 81 10000 1.54 220 20:20 16.03.2021
2242 Clouds 3 1006 81 10000 2.06 190 19:48 16.03.2021
2243 Clouds 4 1006 81 10000 2.06 190 19:29 16.03.2021
2244 Clouds 3 1005 87 10000 2.06 200 18:57 16.03.2021
2245 Rain 4 1005 87 10000 2.06 200 18:38 16.03.2021
2246 Clouds 4 1005 75 10000 3.09 200 17:59 16.03.2021
2247 Rain 4 1005 75 10000 3.09 200 17:40 16.03.2021
2248 Rain 5 1005 75 10000 3.09 200 17:20 16.03.2021
2249 Clouds 4 1005 81 10000 8.23 220 16:46 16.03.2021
2250 Clouds 5 1005 81 10000 8.23 220 16:25 16.03.2021
2251 Rain 7 1003 49 10000 10.8 240 15:45 16.03.2021
2252 Clouds 8 1003 49 10000 10.8 240 15:20 16.03.2021
2253 Clouds 8 1003 46 10000 10.29 240 14:56 16.03.2021
2254 Rain 8 1003 46 10000 10.29 240 14:38 16.03.2021
2255 Clouds 9 1003 40 10000 7.2 230 14:18 16.03.2021
2256 Clouds 8 1003 65 10000 4.63 290 13:42 16.03.2021
2257 Clouds 8 1003 65 10000 4.63 290 13:21 16.03.2021
2258 Clouds 7 1003 57 10000 6.17 230 12:43 16.03.2021
2259 Rain 7 1003 57 10000 6.17 230 12:23 16.03.2021
2260 Rain 7 1002 53 10000 8.75 240 11:36 16.03.2021
2261 Clouds 8 1002 53 10000 8.75 230 10:53 16.03.2021
2262 Clouds 8 1002 53 10000 8.75 230 10:22 16.03.2021
2263 Clouds 8 1002 57 10000 7.72 240 09:47 16.03.2021
2264 Clouds 8 1002 57 10000 7.72 240 09:24 16.03.2021
2265 Clouds 8 1001 61 10000 7.2 240 08:57 16.03.2021
2266 Clouds 8 1001 61 10000 7.2 240 08:39 16.03.2021
2267 Clouds 7 1001 75 10000 3.09 210 07:57 16.03.2021
2268 Clouds 6 1001 75 10000 3.09 210 07:30 16.03.2021
2269 Clouds 4 1001 87 10000 2.57 90 06:39 16.03.2021
2270 Clouds 4 1002 87 10000 6.69 230 05:37 16.03.2021
2271 Rain 4 1002 87 10000 6.69 230 05:18 16.03.2021
2272 Clouds 9 999 71 10000 4.63 170 02:44 16.03.2021
2273 Clouds 9 1000 71 10000 4.63 170 02:23 16.03.2021
2274 Clouds 10 1002 71 10000 3.6 160 23:56 15.03.2021
2275 Clouds 10 1002 71 10000 3.6 160 23:56 15.03.2021
2276 Rain 10 1002 66 10000 4.12 150 23:28 15.03.2021
2277 Clouds 10 1003 66 10000 2.57 110 22:50 15.03.2021
2278 Clouds 10 1003 66 10000 2.57 110 22:31 15.03.2021
2279 Clouds 10 1003 66 10000 4.12 160 21:54 15.03.2021
2280 Clouds 10 1003 66 10000 4.12 160 21:34 15.03.2021
2281 Clouds 11 1004 62 10000 5.14 160 20:57 15.03.2021
2282 Clouds 11 1004 62 10000 5.14 160 20:57 15.03.2021
2283 Clouds 11 1004 62 10000 5.14 160 20:39 15.03.2021
2284 Clouds 11 1004 62 10000 5.14 160 20:20 15.03.2021
2285 Clouds 11 1004 58 10000 4.63 160 19:49 15.03.2021
2286 Clouds 11 1004 58 10000 4.63 160 19:30 15.03.2021
2287 Clouds 11 1004 58 10000 4.12 150 18:49 15.03.2021
2288 Clouds 11 1004 58 10000 4.12 150 18:26 15.03.2021
2289 Clouds 12 1004 54 10000 3.6 150 17:55 15.03.2021
2290 Clouds 12 1004 54 10000 3.6 150 17:30 15.03.2021
2291 Clouds 13 1004 51 10000 4.12 160 16:50 15.03.2021
2292 Clouds 13 1004 51 10000 3.6 180 16:31 15.03.2021
2293 Clouds 14 1005 47 10000 4.63 160 15:45 15.03.2021
2294 Clouds 14 1005 47 10000 4.63 160 15:25 15.03.2021
2295 Clouds 14 1005 41 10000 4.12 190 14:44 15.03.2021
2296 Clouds 14 1005 41 10000 4.12 190 14:22 15.03.2021
2297 Clouds 15 1006 41 10000 3.6 240 13:47 15.03.2021
2298 Clouds 15 1006 41 10000 3.6 240 13:25 15.03.2021
2299 Clouds 13 1007 47 10000 2.57 180 12:48 15.03.2021
2300 Clouds 13 1007 47 10000 2.57 180 12:19 15.03.2021
2301 Clouds 14 1008 44 10000 2.57 260 11:52 15.03.2021
2302 Clouds 14 1008 44 10000 2.57 260 11:32 15.03.2021
2303 Clouds 13 1008 47 10000 2.06 0 10:54 15.03.2021
2304 Clouds 12 1008 47 10000 2.06 0 10:30 15.03.2021
2305 Clouds 12 1009 50 10000 1.03 0 09:52 15.03.2021
2306 Clouds 12 1009 50 10000 1.03 0 09:33 15.03.2021
2307 Clouds 11 1009 53 10000 1.03 0 08:52 15.03.2021
2308 Clouds 11 1009 53 10000 1.03 0 08:32 15.03.2021
2309 Clouds 7 1009 75 10000 1.46 169 07:53 15.03.2021
2310 Clouds 8 1009 75 10000 1.46 169 07:32 15.03.2021
2311 Clouds 5 1009 81 10000 1.36 132 06:40 15.03.2021
2312 Clouds 5 1010 81 10000 1.17 131 05:32 15.03.2021
2313 Clouds 5 1011 75 10000 1.3 150 01:36 15.03.2021
2314 Clouds 6 1011 75 10000 1.16 176 23:56 14.03.2021
2315 Clouds 6 1011 75 10000 1.22 182 23:20 14.03.2021
2316 Clouds 6 1012 65 10000 1.22 182 22:46 14.03.2021
2317 Clouds 6 1012 65 10000 1.09 165 22:23 14.03.2021
2318 Clouds 7 1012 65 10000 1.09 165 21:45 14.03.2021
2319 Clouds 7 1012 65 10000 1.1 155 21:19 14.03.2021
2320 Clouds 8 1012 53 10000 1.1 155 20:43 14.03.2021
2321 Clouds 8 1012 53 10000 0.64 128 20:25 14.03.2021
2322 Clouds 9 1012 46 10000 0.64 128 19:43 14.03.2021
2323 Clouds 9 1012 46 10000 0.24 125 19:23 14.03.2021
2324 Clouds 10 1013 46 10000 1.03 0 18:49 14.03.2021
2325 Clouds 10 1013 46 10000 1.03 0 18:27 14.03.2021
2326 Clouds 11 1012 40 10000 1.54 230 17:41 14.03.2021
2327 Clouds 12 1012 40 10000 1.54 230 17:22 14.03.2021
2328 Clouds 12 1012 35 10000 3.09 240 16:46 14.03.2021
2329 Clouds 12 1012 35 10000 3.09 240 16:46 14.03.2021
2330 Clouds 13 1012 35 10000 3.09 240 16:27 14.03.2021
2331 Clouds 13 1013 35 10000 3.09 280 15:53 14.03.2021
2332 Clouds 13 1013 35 10000 3.09 280 15:34 14.03.2021
2333 Clouds 14 1013 35 10000 3.09 290 14:41 14.03.2021
2334 Clouds 14 1013 35 10000 3.09 290 14:21 14.03.2021
2335 Clouds 14 1013 33 10000 3.6 270 13:49 14.03.2021
2336 Clouds 15 1013 33 10000 3.6 270 13:28 14.03.2021
2337 Clouds 13 1014 33 10000 1.54 350 12:46 14.03.2021
2338 Clouds 13 1014 33 10000 1.54 350 12:28 14.03.2021
2339 Clouds 13 1015 35 10000 1.54 320 11:51 14.03.2021
2340 Clouds 13 1015 35 10000 1.54 320 11:33 14.03.2021
2341 Clouds 11 1015 37 10000 1.03 0 10:56 14.03.2021
2342 Clouds 12 1015 37 10000 1.03 0 10:36 14.03.2021
2343 Clouds 12 1015 37 10000 1.03 0 10:18 14.03.2021
2344 Clouds 12 1015 37 10000 1.03 0 10:18 14.03.2021
2345 Clouds 10 1015 46 10000 1.54 250 09:43 14.03.2021
2346 Clouds 10 1015 46 10000 1.54 250 09:22 14.03.2021
2347 Clouds 10 1015 46 10000 1.54 250 09:22 14.03.2021
2348 Clear 9 1016 46 10000 0.51 0 08:41 14.03.2021
2349 Clear 9 1016 46 10000 0.51 0 08:18 14.03.2021
2350 Clear 6 1016 65 10000 0.71 155 07:37 14.03.2021
2351 Clear 4 1016 75 10000 0.68 106 06:41 14.03.2021
2352 Clear 1 1015 75 10000 0.4 107 03:54 14.03.2021
2353 Clear 6 1016 53 10000 0.29 342 00:51 14.03.2021
2354 Clear 7 1016 53 10000 0.55 293 00:19 14.03.2021
2355 Clear 7 1016 46 10000 0.51 0 23:47 13.03.2021
2356 Clear 7 1016 46 10000 0.51 0 23:24 13.03.2021
2357 Clear 7 1016 56 10000 0.47 260 22:52 13.03.2021
2358 Clear 7 1016 56 10000 0.46 248 22:26 13.03.2021
2359 Clear 7 1016 53 10000 0.51 0 21:43 13.03.2021
2360 Clear 7 1016 53 10000 0.51 0 21:25 13.03.2021
2361 Clear 8 1016 46 10000 0.51 0 20:49 13.03.2021
2362 Clear 8 1016 46 10000 0.51 0 20:30 13.03.2021
2363 Clear 8 1016 46 10000 0.51 0 20:30 13.03.2021
2364 Clear 8 1016 46 10000 2.06 290 19:47 13.03.2021
2365 Clear 8 1016 46 10000 2.06 290 19:29 13.03.2021
2366 Clear 9 1015 34 10000 3.09 220 18:43 13.03.2021
2367 Clear 9 1015 34 10000 3.09 220 18:22 13.03.2021
2368 Clear 10 1015 34 10000 3.09 290 17:58 13.03.2021
2369 Clear 10 1015 34 10000 3.09 290 17:35 13.03.2021
2370 Clear 13 1015 24 10000 5.14 260 16:59 13.03.2021
2371 Clear 13 1015 24 10000 5.14 260 16:39 13.03.2021
2372 Clear 13 1015 23 10000 4.12 260 15:58 13.03.2021
2373 Clear 14 1015 23 10000 4.12 260 15:23 13.03.2021
2374 Clear 13 1015 33 10000 2.57 300 14:46 13.03.2021
2375 Clear 13 1015 33 10000 2.57 300 14:25 13.03.2021
2376 Clear 13 1016 24 10000 2.57 250 13:46 13.03.2021
2377 Clear 13 1016 24 10000 2.57 250 13:23 13.03.2021
2378 Clear 11 1017 28 10000 2.57 0 12:43 13.03.2021
2379 Clear 11 1017 28 10000 2.57 0 12:18 13.03.2021
2380 Clear 10 1018 29 10000 2.06 0 11:43 13.03.2021
2381 Clear 10 1018 29 10000 2.06 0 11:24 13.03.2021
2382 Clear 8 1019 39 10000 2.06 10 10:49 13.03.2021
2383 Clear 8 1019 39 10000 2.06 10 10:25 13.03.2021
2384 Clear 7 1019 45 10000 1.54 0 09:42 13.03.2021
2385 Clear 5 1019 52 10000 1.03 0 08:58 13.03.2021
2386 Clear 5 1019 52 10000 1.03 0 08:39 13.03.2021
2387 Clear 4 1019 52 10000 1.03 0 08:19 13.03.2021
2388 Clear 2 1019 74 10000 1.03 0 07:39 13.03.2021
2389 Clear -2 1019 86 10000 0.98 115 05:50 13.03.2021
2390 Clear -1 1018 80 10000 0.51 220 02:43 13.03.2021
2391 Clear 0 1019 74 10000 0.37 242 00:50 13.03.2021
2392 Clear 0 1019 74 10000 1.03 0 23:51 12.03.2021
2393 Clear 0 1019 74 10000 1.03 0 23:32 12.03.2021
2394 Clear 1 1018 69 10000 0.74 202 22:42 12.03.2021
2395 Clear 1 1018 69 10000 0.79 190 22:23 12.03.2021
2396 Clear 1 1018 64 10000 1.03 100 21:43 12.03.2021
2397 Clear 2 1018 64 10000 1.03 100 21:24 12.03.2021
2398 Clear 2 1018 60 10000 0.79 190 20:55 12.03.2021
2399 Clear 2 1018 60 10000 0.79 190 20:32 12.03.2021
2400 Clear 2 1018 55 10000 2.06 240 19:56 12.03.2021
2401 Clear 2 1018 55 10000 2.06 240 19:37 12.03.2021
2402 Clear 4 1018 38 10000 1.03 0 18:59 12.03.2021
2403 Clear 4 1018 38 10000 1.03 0 18:35 12.03.2021
2404 Clear 4 1018 36 10000 2.57 270 17:49 12.03.2021
2405 Clear 5 1018 36 10000 2.57 270 17:30 12.03.2021
2406 Clear 6 1018 28 10000 3.09 270 16:55 12.03.2021
2407 Clear 6 1018 28 10000 3.09 270 16:36 12.03.2021
2408 Clear 7 1018 26 10000 4.12 270 15:52 12.03.2021
2409 Clear 6 1018 26 10000 4.12 270 15:27 12.03.2021
2410 Clear 7 1018 26 10000 2.06 300 14:48 12.03.2021
2411 Clear 7 1018 26 10000 2.06 300 14:20 12.03.2021
2412 Clear 6 1018 31 10000 3.6 260 13:43 12.03.2021
2413 Clear 6 1018 31 10000 3.6 260 13:21 12.03.2021
2414 Clear 6 1018 31 10000 1.03 0 12:56 12.03.2021
2415 Clear 6 1018 31 10000 1.03 0 12:37 12.03.2021
2416 Clear 5 1018 31 10000 1.03 0 12:19 12.03.2021
2417 Clear 4 1019 41 10000 3.09 260 11:48 12.03.2021
2418 Clear 4 1019 41 10000 3.09 260 11:20 12.03.2021
2419 Clouds 3 1020 41 10000 1.54 0 10:48 12.03.2021
2420 Clear 3 1019 41 10000 2.06 0 10:23 12.03.2021
2421 Clear 2 1019 41 10000 2.06 0 09:48 12.03.2021
2422 Clear 2 1019 41 10000 2.06 0 09:19 12.03.2021
2423 Clear 1 1019 47 10000 1.54 260 08:40 12.03.2021
2424 Clear 0 1019 51 10000 2.06 0 07:51 12.03.2021
2425 Clear -2 1019 64 10000 2.06 0 07:29 12.03.2021
2426 Clear -2 1019 64 10000 2.06 0 06:44 12.03.2021
2427 Clouds -3 1018 63 10000 2.06 350 05:56 12.03.2021
2428 Clouds -1 1015 59 10000 5.66 330 00:59 12.03.2021
2429 Snow 0 1013 55 10000 6.69 330 23:56 11.03.2021
2430 Clouds 1 1012 51 10000 7.72 350 22:59 11.03.2021
2431 Clouds 1 1012 51 10000 7.72 350 22:39 11.03.2021
2432 Clouds 1 1012 51 10000 7.72 350 22:20 11.03.2021
2433 Clouds 1 1011 60 10000 5.14 340 21:46 11.03.2021
2434 Clouds 1 1011 60 10000 5.14 340 21:25 11.03.2021
2435 Clouds 2 1010 56 10000 6.69 340 20:49 11.03.2021
2436 Clouds 2 1010 56 10000 6.69 340 20:23 11.03.2021
2437 Clouds 2 1009 60 10000 5.14 320 19:54 11.03.2021
2438 Clouds 3 1009 60 10000 5.14 320 19:36 11.03.2021
2439 Clouds 3 1007 56 10000 6.69 330 18:53 11.03.2021
2440 Clouds 3 1007 56 10000 6.69 330 18:35 11.03.2021
2441 Clouds 4 1006 60 10000 6.17 330 17:53 11.03.2021
2442 Clouds 5 1006 60 10000 6.17 330 17:35 11.03.2021
2443 Rain 4 1005 70 10000 4.12 350 16:37 11.03.2021
2444 Rain 4 1005 70 10000 4.12 350 16:19 11.03.2021
2445 Rain 4 1005 70 10000 5.14 330 15:39 11.03.2021
2446 Rain 4 1005 70 10000 5.14 330 15:20 11.03.2021
2447 Rain 4 1005 87 10000 4.63 310 14:44 11.03.2021
2448 Rain 5 1005 87 10000 4.63 310 14:18 11.03.2021
2449 Rain 6 1004 87 10000 4.63 300 13:45 11.03.2021
2450 Rain 6 1004 87 10000 4.63 300 13:22 11.03.2021
2451 Rain 6 1005 81 10000 5.66 320 12:54 11.03.2021
2452 Clouds 6 1005 81 10000 5.66 320 12:29 11.03.2021
2453 Rain 8 1005 66 10000 3.6 300 11:47 11.03.2021
2454 Rain 9 1005 66 10000 3.6 300 11:29 11.03.2021
2455 Rain 9 1005 66 10000 3.09 290 10:56 11.03.2021
2456 Rain 9 1005 66 10000 3.09 290 10:27 11.03.2021
2457 Clouds 8 1006 81 10000 2.57 310 09:52 11.03.2021
2458 Clouds 7 1006 81 10000 2.57 310 09:32 11.03.2021
2459 Clouds 8 1006 76 10000 2.57 240 08:50 11.03.2021
2460 Rain 8 1006 76 10000 2.57 240 08:32 11.03.2021
2461 Clouds 7 1005 87 10000 1.54 290 07:48 11.03.2021
2462 Clouds 7 1005 87 10000 1.54 290 07:21 11.03.2021
2463 Clouds 6 1005 87 10000 0.51 0 06:42 11.03.2021
2464 Rain 6 1005 87 10000 0.51 0 06:22 11.03.2021
2465 Clouds 5 1007 87 10000 0.51 0 02:26 11.03.2021
2466 Clouds 6 1008 87 10000 0.51 0 00:26 11.03.2021
2467 Clouds 7 1009 81 10000 0.51 0 23:23 10.03.2021
2468 Clouds 7 1010 81 10000 1.54 240 22:42 10.03.2021
2469 Clouds 7 1010 81 10000 1.54 240 22:41 10.03.2021
2470 Clouds 7 1010 81 10000 1.54 240 22:41 10.03.2021
2471 Clouds 7 1010 81 10000 1.54 240 22:41 10.03.2021
2472 Clouds 7 1010 81 10000 1.54 240 22:41 10.03.2021
2473 Clouds 7 1010 81 10000 1.54 240 22:41 10.03.2021
2474 Clouds 7 1010 81 10000 1.54 240 22:41 10.03.2021
2475 Clouds 7 1010 81 10000 1.54 240 22:41 10.03.2021
2476 Clouds 8 1009 81 10000 3.09 90 21:58 10.03.2021
2477 Clouds 8 1009 81 10000 3.09 90 21:39 10.03.2021
2478 Clouds 8 1010 81 10000 2.57 90 21:20 10.03.2021
2479 Clouds 7 1010 81 10000 3.09 320 20:42 10.03.2021
2480 Clouds 8 1010 76 10000 2.57 170 20:24 10.03.2021
2481 Clouds 8 1010 76 10000 2.57 170 20:24 10.03.2021
2482 Clouds 9 1010 66 10000 2.57 130 19:41 10.03.2021
2483 Rain 10 1010 43 10000 2.57 170 19:21 10.03.2021
2484 Clouds 10 1010 43 10000 2.06 140 18:44 10.03.2021
2485 Clouds 12 1010 43 10000 3.09 310 18:23 10.03.2021
2486 Clouds 11 1010 43 10000 3.09 310 17:43 10.03.2021
2487 Clouds 12 1010 43 10000 3.09 310 17:21 10.03.2021
2488 Clouds 13 1010 33 10000 1.54 300 16:55 10.03.2021
2489 Rain 13 1010 33 10000 1.54 300 16:37 10.03.2021
2490 Clouds 13 1010 33 10000 1.54 300 16:18 10.03.2021
2491 Clouds 13 1010 28 10000 2.06 360 15:40 10.03.2021
2492 Clouds 13 1011 30 10000 2.06 260 15:21 10.03.2021
2493 Clouds 13 1011 30 10000 2.06 260 14:41 10.03.2021
2494 Clouds 13 1011 30 10000 2.06 260 14:41 10.03.2021
2495 Clouds 13 1011 30 10000 2.06 260 14:41 10.03.2021
2496 Clouds 13 1011 30 10000 2.06 260 14:19 10.03.2021
2497 Clouds 13 1011 30 10000 2.57 210 13:46 10.03.2021
2498 Clouds 13 1011 30 10000 2.57 210 13:24 10.03.2021
2499 Clouds 13 1013 28 10000 2.06 190 12:44 10.03.2021
2500 Clouds 13 1013 28 10000 2.06 190 12:18 10.03.2021
2501 Clear 12 1013 26 10000 1.03 0 11:32 10.03.2021
2502 Clear 11 1014 28 10000 3.6 100 10:57 10.03.2021
2503 Clear 11 1014 28 10000 3.6 100 10:34 10.03.2021
2504 Clear 9 1016 31 10000 2.57 100 09:59 10.03.2021
2505 Clear 9 1016 31 10000 2.57 100 09:41 10.03.2021
2506 Clear 6 1016 45 10000 1.03 0 09:21 10.03.2021
2507 Clear 6 1016 45 10000 1.03 0 08:46 10.03.2021
2508 Clear 5 1016 45 10000 1.03 0 08:28 10.03.2021
2509 Clear 5 1016 45 10000 1.03 0 08:28 10.03.2021
2510 Clear 3 1016 60 10000 2.04 99 07:55 10.03.2021
2511 Clear 3 1016 60 10000 1.87 96 07:29 10.03.2021
2512 Clear 3 1016 60 10000 1.8 93 07:29 10.03.2021
2513 Clear 0 1016 74 10000 1.87 96 06:53 10.03.2021
2514 Clear -1 1017 69 10000 1.54 120 03:29 10.03.2021
2515 Clear 0 1017 64 10000 0.61 77 00:48 10.03.2021
2516 Clear 1 1017 64 10000 0.33 68 23:49 09.03.2021
2517 Clear 1 1018 59 10000 0.23 58 22:58 09.03.2021
2518 Clear 1 1018 59 10000 0.23 58 22:38 09.03.2021
2519 Clear -1 1018 59 10000 0.19 186 22:18 09.03.2021
2520 Clear 0 1017 47 10000 0.19 186 21:44 09.03.2021
2521 Clear 1 1017 47 10000 0.16 203 21:24 09.03.2021
2522 Clear 2 1017 44 10000 0.16 203 20:56 09.03.2021
2523 Clear 2 1017 44 10000 0.16 203 20:37 09.03.2021
2524 Clear 2 1017 44 10000 0.2 233 20:19 09.03.2021
2525 Clear 3 1017 41 10000 0.2 233 19:43 09.03.2021
2526 Clear 3 1017 41 10000 0.58 253 19:25 09.03.2021
2527 Clear 5 1017 36 10000 0.58 253 18:42 09.03.2021
2528 Clear 5 1017 36 10000 1.11 229 18:20 09.03.2021
2529 Clear 7 1016 27 10000 2.57 240 17:47 09.03.2021
2530 Clear 8 1016 27 10000 2.57 240 17:27 09.03.2021
2531 Clear 9 1016 18 10000 3.09 270 16:41 09.03.2021
2532 Clear 10 1016 18 10000 3.09 270 16:22 09.03.2021
2533 Clear 10 1016 17 10000 1.54 230 15:56 09.03.2021
2534 Clear 10 1016 17 10000 1.54 230 15:28 09.03.2021
2535 Clear 10 1016 20 10000 3.09 230 14:52 09.03.2021
2536 Clear 10 1016 20 10000 3.09 230 14:26 09.03.2021
2537 Clear 10 1016 22 10000 4.12 290 13:43 09.03.2021
2538 Clear 10 1016 22 10000 4.12 290 13:21 09.03.2021
2539 Clear 9 1017 23 10000 2.06 290 12:54 09.03.2021
2540 Clear 9 1017 23 10000 2.06 290 12:54 09.03.2021
2541 Clear 9 1017 23 10000 2.06 290 12:36 09.03.2021
2542 Clear 8 1017 25 10000 2.57 200 11:58 09.03.2021
2543 Clear 8 1017 25 10000 2.57 200 11:39 09.03.2021
2544 Clear 8 1017 25 10000 2.57 200 11:19 09.03.2021
2545 Clear 7 1018 29 10000 1.54 130 10:39 09.03.2021
2546 Clear 7 1018 29 10000 1.54 130 10:21 09.03.2021
2547 Clear 5 1018 33 10000 2.06 0 09:47 09.03.2021
2548 Clear 5 1018 33 10000 2.06 0 09:27 09.03.2021
2549 Clear 3 1018 51 10000 1.54 230 08:57 09.03.2021
2550 Clear 3 1018 51 10000 1.54 230 08:33 09.03.2021
2551 Clear 1 1018 69 10000 1.54 210 07:47 09.03.2021
2552 Clear 0 1018 69 10000 1.54 210 07:27 09.03.2021
2553 Clear -2 1017 80 10000 0.98 246 06:59 09.03.2021
2554 Clear -3 1016 86 10000 0.54 247 05:53 09.03.2021
2555 Clear -2 1015 74 10000 1.1 225 01:42 09.03.2021
2556 Clear -1 1015 74 10000 1.16 244 23:58 08.03.2021
2557 Clear 0 1015 74 10000 1.16 244 23:39 08.03.2021
2558 Clear 0 1015 74 10000 1.36 239 23:18 08.03.2021
2559 Clear 0 1015 69 10000 1.36 239 22:40 08.03.2021
2560 Clear 0 1015 69 10000 1.36 233 22:21 08.03.2021
2561 Clear 0 1015 74 10000 1.36 233 21:48 08.03.2021
2562 Clear 0 1015 74 10000 1.03 224 21:29 08.03.2021
2563 Clear 1 1015 64 10000 0.51 0 20:40 08.03.2021
2564 Clear 1 1015 64 10000 0.51 0 20:21 08.03.2021
2565 Clear 1 1014 55 10000 0.51 80 19:45 08.03.2021
2566 Clear 2 1014 55 10000 0.51 80 19:20 08.03.2021
2567 Clear 2 1014 44 10000 0.77 220 18:37 08.03.2021
2568 Clear 4 1014 44 10000 1.28 257 18:19 08.03.2021
2569 Clear 5 1014 33 10000 2.06 240 17:43 08.03.2021
2570 Clear 6 1014 33 10000 2.06 240 17:22 08.03.2021
2571 Clear 7 1014 29 10000 4.63 240 16:42 08.03.2021
2572 Clear 7 1014 29 10000 4.63 240 16:22 08.03.2021
2573 Clear 7 1014 29 10000 3.09 260 15:42 08.03.2021
2574 Clear 7 1014 29 10000 3.09 260 15:23 08.03.2021
2575 Clear 7 1014 33 10000 3.09 230 14:22 08.03.2021
2576 Clear 7 1014 33 10000 3.09 230 14:22 08.03.2021
2577 Clear 6 1015 39 10000 5.66 280 13:57 08.03.2021
2578 Clear 6 1015 39 10000 5.66 280 13:23 08.03.2021
2579 Clear 6 1015 42 10000 4.63 260 12:58 08.03.2021
2580 Clear 5 1015 42 10000 4.63 260 12:35 08.03.2021
2581 Clouds 4 1016 48 10000 4.12 270 11:50 08.03.2021
2582 Clouds 4 1016 48 10000 4.12 270 11:30 08.03.2021
2583 Clouds 3 1016 52 10000 4.12 290 10:57 08.03.2021
2584 Clouds 3 1016 52 10000 4.12 290 10:39 08.03.2021
2585 Clouds 3 1016 52 10000 4.12 290 10:18 08.03.2021
2586 Clouds 2 1017 55 10000 4.12 260 09:27 08.03.2021
2587 Clouds 1 1017 55 10000 3.09 260 08:52 08.03.2021
2588 Clouds 1 1017 55 10000 3.09 260 08:25 08.03.2021
2589 Clouds 1 1017 60 10000 0.51 0 07:21 08.03.2021
2590 Clouds -1 1016 74 10000 2.06 260 05:42 08.03.2021
2591 Clear 1 1016 75 10000 3.09 250 02:24 08.03.2021
2592 Clouds 0 1018 75 10000 3.09 270 00:42 08.03.2021
2593 Clouds 1 1017 86 10000 2.06 220 23:53 07.03.2021
2594 Clouds 1 1017 86 10000 2.06 220 23:22 07.03.2021
2595 Clouds 1 1018 80 10000 1.03 0 22:48 07.03.2021
2596 Clouds 1 1018 80 10000 1.03 0 22:28 07.03.2021
2597 Clouds 1 1018 75 10000 2.06 20 21:53 07.03.2021
2598 Clouds 1 1018 75 10000 2.06 20 21:53 07.03.2021
2599 Clouds 1 1018 75 10000 2.06 20 21:33 07.03.2021
2600 Clouds 1 1018 80 10000 2.06 10 20:59 07.03.2021
2601 Clouds 1 1018 80 10000 2.06 10 20:40 07.03.2021
2602 Clouds 1 1018 80 10000 2.06 10 20:19 07.03.2021
2603 Clouds 1 1018 80 10000 2.06 10 20:19 07.03.2021
2604 Clouds 2 1018 75 10000 2.57 360 19:41 07.03.2021
2605 Snow 2 1018 75 10000 2.57 360 19:22 07.03.2021
2606 Clouds 2 1018 70 10000 3.6 20 18:54 07.03.2021
2607 Clouds 2 1018 75 10000 4.63 50 18:21 07.03.2021
2608 Rain 2 1018 81 10000 2.57 0 17:59 07.03.2021
2609 Clouds 2 1018 81 10000 2.57 0 17:39 07.03.2021
2610 Snow 2 1018 93 10000 3.6 40 17:19 07.03.2021
2611 Rain 2 1018 87 10000 4.63 330 16:43 07.03.2021
2612 Rain 3 1018 87 10000 4.63 330 16:21 07.03.2021
2613 Rain 5 1017 65 10000 4.12 260 15:51 07.03.2021
2614 Rain 5 1017 65 10000 4.12 260 15:31 07.03.2021
2615 Clouds 6 1018 53 10000 2.57 280 14:56 07.03.2021
2616 Clouds 6 1018 53 10000 2.57 280 14:29 07.03.2021
2617 Clouds 6 1018 57 10000 1.54 0 13:51 07.03.2021
2618 Clouds 6 1018 57 10000 1.54 0 13:29 07.03.2021
2619 Clouds 6 1019 70 10000 2.06 130 12:50 07.03.2021
2620 Clouds 6 1019 70 10000 2.06 130 12:32 07.03.2021
2621 Clouds 5 1020 75 10000 1.54 120 11:58 07.03.2021
2622 Clouds 5 1020 75 10000 1.54 120 11:23 07.03.2021
2623 Clouds 5 1020 70 10000 1.03 0 10:54 07.03.2021
2624 Clouds 5 1020 70 10000 1.03 0 10:36 07.03.2021
2625 Clouds 4 1020 81 10000 2.57 10 09:53 07.03.2021
2626 Clouds 4 1020 81 10000 2.57 10 09:27 07.03.2021
2627 Clouds 3 1022 87 10000 5.66 330 08:57 07.03.2021
2628 Rain 3 1022 87 10000 5.66 330 08:38 07.03.2021
2629 Rain 3 1020 81 10000 2.06 250 08:20 07.03.2021
2630 Clouds 4 1020 87 10000 1.54 170 05:26 07.03.2021
2631 Clouds 6 1019 70 10000 2.57 260 02:33 07.03.2021
2632 Clouds 6 1020 65 10000 2.06 270 00:33 07.03.2021
2633 Clouds 5 1020 65 10000 1.03 0 23:40 06.03.2021
2634 Clouds 6 1020 65 10000 1.03 0 23:20 06.03.2021
2635 Clouds 5 1020 70 10000 0.33 270 22:45 06.03.2021
2636 Clouds 5 1020 70 10000 0.62 322 22:21 06.03.2021
2637 Clouds 6 1020 57 10000 2.06 220 21:41 06.03.2021
2638 Clouds 6 1020 57 10000 2.06 220 21:41 06.03.2021
2639 Clouds 7 1020 53 10000 3.09 300 21:20 06.03.2021
2640 Clouds 7 1020 53 10000 3.09 300 20:41 06.03.2021
2641 Clouds 8 1020 49 10000 5.14 320 19:55 06.03.2021
2642 Clouds 8 1020 49 10000 5.14 320 19:37 06.03.2021
2643 Clouds 8 1020 49 10000 5.14 320 19:18 06.03.2021
2644 Clouds 9 1020 43 10000 5.14 290 18:41 06.03.2021
2645 Clouds 9 1020 43 10000 5.14 290 18:20 06.03.2021
2646 Clouds 9 1019 37 10000 4.63 290 17:48 06.03.2021
2647 Rain 10 1019 37 10000 4.63 290 17:27 06.03.2021
2648 Clouds 10 1019 32 10000 4.63 300 16:53 06.03.2021
2649 Clouds 10 1019 32 10000 4.63 300 16:31 06.03.2021
2650 Clouds 12 1019 24 10000 4.63 280 15:55 06.03.2021
2651 Clouds 12 1019 24 10000 4.63 280 15:35 06.03.2021
2652 Clouds 12 1019 26 10000 5.14 250 14:57 06.03.2021
2653 Clouds 12 1019 26 10000 5.14 250 14:31 06.03.2021
2654 Clouds 12 1019 24 10000 5.14 250 13:50 06.03.2021
2655 Clouds 12 1019 24 10000 5.14 250 13:32 06.03.2021
2656 Clouds 12 1020 28 10000 7.2 250 12:58 06.03.2021
2657 Clouds 12 1020 28 10000 7.2 250 12:38 06.03.2021
2658 Clouds 12 1020 28 10000 7.2 250 12:18 06.03.2021
2659 Clouds 12 1020 28 10000 6.17 250 11:29 06.03.2021
2660 Clouds 12 1020 35 10000 3.6 290 10:59 06.03.2021
2661 Clouds 12 1020 35 10000 3.6 290 10:41 06.03.2021
2662 Clouds 10 1021 34 8000 1.03 0 09:56 06.03.2021
2663 Clouds 10 1021 34 8000 1.03 0 09:24 06.03.2021
2664 Clouds 8 1021 45 7000 0.51 0 08:54 06.03.2021
2665 Clouds 8 1021 45 7000 0.51 0 08:30 06.03.2021
2666 Clear 4 1021 69 10000 1.03 0 07:54 06.03.2021
2667 Clear 4 1021 69 10000 1.03 0 07:22 06.03.2021
2668 Clear 1 1021 74 10000 0.51 0 05:52 06.03.2021
2669 Clear -3 1020 74 10000 2.15 228 03:47 06.03.2021
2670 Clear -2 1020 59 10000 1.03 0 01:33 06.03.2021
2671 Clear -1 1020 55 10000 1.97 201 00:46 06.03.2021
2672 Clear -1 1020 64 10000 2.21 191 23:48 05.03.2021
2673 Clear -1 1020 64 10000 2.34 186 23:19 05.03.2021
2674 Clear -1 1020 64 10000 2.34 186 23:19 05.03.2021
2675 Clear 2 1020 41 10000 0.51 90 22:43 05.03.2021
2676 Clear 2 1020 41 10000 0.51 90 22:21 05.03.2021
2677 Clear 2 1020 45 10000 2.3 182 21:51 05.03.2021
2678 Clear 3 1020 45 10000 2 174 21:29 05.03.2021
2679 Clear 3 1019 38 10000 1.03 0 20:50 05.03.2021
2680 Clear 3 1019 38 10000 1.03 0 20:25 05.03.2021
2681 Clear 5 1019 38 10000 0.51 0 19:49 05.03.2021
2682 Clear 5 1019 38 10000 0.51 0 19:25 05.03.2021
2683 Clear 5 1019 38 10000 0.51 0 19:25 05.03.2021
2684 Clear 7 1019 31 10000 1.64 151 18:53 05.03.2021
2685 Clear 12 1018 18 10000 1.03 0 18:27 05.03.2021
2686 Clear 9 1019 23 10000 2.06 270 17:56 05.03.2021
2687 Clear 9 1019 23 10000 2.06 270 17:33 05.03.2021
2688 Clear 13 1018 13 10000 4.63 250 16:44 05.03.2021
2689 Clear 13 1018 13 10000 4.63 250 16:24 05.03.2021
2690 Clear 14 1018 14 10000 3.6 270 15:55 05.03.2021
2691 Clear 16 1018 14 10000 3.6 270 15:28 05.03.2021
2692 Clear 16 1018 16 10000 3.09 220 14:54 05.03.2021
2693 Clear 16 1018 16 10000 3.09 220 14:35 05.03.2021
2694 Clear 15 1019 15 10000 3.6 220 13:46 05.03.2021
2695 Clear 14 1019 15 10000 3.6 220 13:21 05.03.2021
2696 Clear 13 1020 26 10000 3.09 290 12:47 05.03.2021
2697 Clear 11 1020 30 10000 1.03 0 11:41 05.03.2021
2698 Clear 11 1020 30 10000 1.03 0 11:21 05.03.2021
2699 Clear 10 1021 37 10000 1.54 260 10:57 05.03.2021
2700 Clear 10 1021 37 10000 1.54 260 10:57 05.03.2021
2701 Clear 9 1021 37 10000 1.54 260 10:37 05.03.2021
2702 Clear 9 1021 37 10000 1.54 260 10:19 05.03.2021
2703 Clear 8 1021 42 10000 0.51 0 09:45 05.03.2021
2704 Clear 8 1021 42 10000 0.51 0 09:26 05.03.2021
2705 Clear 6 1021 56 10000 2.23 227 08:39 05.03.2021
2706 Clear 5 1021 56 10000 1.36 218 08:20 05.03.2021
2707 Clear 4 1021 69 10000 0.51 0 07:36 05.03.2021
2708 Clear -1 1020 86 10000 0.77 193 06:44 05.03.2021
2709 Clear -1 1020 86 10000 0.62 184 06:26 05.03.2021
2710 Clear 0 1020 74 10000 0.85 224 01:40 05.03.2021
2711 Clear 0 1020 74 10000 0.82 238 00:19 05.03.2021
2712 Clear 0 1020 74 10000 1.14 240 23:25 04.03.2021
2713 Clear -1 1020 69 10000 1.14 240 22:31 04.03.2021
2714 Clear 0 1020 64 10000 1.27 240 21:56 04.03.2021
2715 Clear 0 1020 64 10000 1.27 240 21:34 04.03.2021
2716 Clear 2 1020 55 10000 1.2 238 20:59 04.03.2021
2717 Clear 2 1020 55 10000 1.2 238 20:40 04.03.2021
2718 Clear 2 1020 55 10000 1.21 227 20:21 04.03.2021
2719 Clear 3 1020 48 10000 1.21 227 19:51 04.03.2021
2720 Clear 3 1020 48 10000 1.28 229 19:26 04.03.2021
2721 Clear 4 1020 45 10000 1.28 229 18:52 04.03.2021
2722 Clear 5 1020 45 10000 1.57 235 18:30 04.03.2021
2723 Clear 7 1019 36 10000 1.54 220 17:51 04.03.2021
2724 Clear 7 1019 36 10000 1.54 220 17:31 04.03.2021
2725 Clear 9 1019 32 10000 3.09 250 16:56 04.03.2021
2726 Clear 9 1019 32 10000 3.09 250 16:38 04.03.2021
2727 Clear 9 1019 32 10000 3.09 250 16:19 04.03.2021
2728 Clear 9 1019 32 10000 2.06 270 15:45 04.03.2021
2729 Clear 10 1019 32 10000 2.06 270 15:24 04.03.2021
2730 Clear 9 1020 34 10000 2.06 290 14:40 04.03.2021
2731 Clear 9 1020 34 10000 2.06 0 13:59 04.03.2021
2732 Clear 8 1020 34 10000 2.06 0 13:40 04.03.2021
2733 Clear 9 1020 34 10000 2.06 0 13:19 04.03.2021
2734 Clear 7 1021 36 10000 2.57 270 12:41 04.03.2021
2735 Clear 6 1022 45 10000 3.09 320 11:51 04.03.2021
2736 Clear 6 1022 45 10000 3.09 320 11:32 04.03.2021
2737 Clear 6 1023 49 10000 1.54 0 10:58 04.03.2021
2738 Clear 6 1023 49 10000 1.54 0 10:36 04.03.2021
2739 Clear 4 1024 52 10000 1.54 230 09:51 04.03.2021
2740 Clear 4 1024 52 10000 1.54 230 09:27 04.03.2021
2741 Clear 3 1024 60 10000 0.51 0 08:49 04.03.2021
2742 Clear 2 1024 60 10000 0.51 0 08:24 04.03.2021
2743 Clear 1 1024 74 10000 1.03 0 07:35 04.03.2021
2744 Clear -3 1024 86 10000 0.79 81 06:31 04.03.2021
2745 Clear -4 1024 79 10000 0.82 74 05:57 04.03.2021
2746 Clear -2 1024 80 10000 1.29 38 02:29 04.03.2021
2747 Clear -1 1024 69 10000 0.51 0 23:42 03.03.2021
2748 Clear 0 1024 69 10000 1.97 22 22:29 03.03.2021
2749 Clear 1 1024 69 10000 0.51 0 21:59 03.03.2021
2750 Clear 1 1024 69 10000 0.51 0 21:41 03.03.2021
2751 Clear 1 1024 69 10000 0.51 0 21:22 03.03.2021
2752 Clear 2 1023 52 10000 2.57 50 20:43 03.03.2021
2753 Clear 3 1023 52 10000 2.57 50 20:24 03.03.2021
2754 Clear 4 1023 45 10000 5.14 20 19:48 03.03.2021
2755 Clear 4 1023 45 10000 5.14 20 19:29 03.03.2021
2756 Clear 6 1023 39 10000 4.12 340 18:53 03.03.2021
2757 Clear 6 1023 39 10000 4.12 340 18:34 03.03.2021
2758 Clear 7 1021 36 10000 4.63 350 17:57 03.03.2021
2759 Clear 9 1021 32 10000 5.66 340 17:21 03.03.2021
2760 Clear 9 1021 32 10000 5.66 340 16:51 03.03.2021
2761 Clear 10 1021 32 10000 5.66 340 16:27 03.03.2021
2762 Clear 11 1021 30 10000 5.66 310 15:51 03.03.2021
2763 Clear 12 1021 30 10000 5.66 310 15:31 03.03.2021
2764 Clear 11 1022 24 10000 1.03 0 14:39 03.03.2021
2765 Clear 12 1021 30 10000 1.54 0 14:20 03.03.2021
2766 Clear 11 1021 30 10000 1.54 0 13:39 03.03.2021
2767 Clear 11 1021 30 10000 1.54 0 13:21 03.03.2021
2768 Clear 10 1022 32 10000 3.09 260 12:41 03.03.2021
2769 Clear 10 1022 32 10000 3.09 260 12:22 03.03.2021
2770 Clear 9 1022 34 10000 2.06 90 11:44 03.03.2021
2771 Clear 9 1022 34 10000 2.06 90 11:26 03.03.2021
2772 Clear 8 1023 39 10000 1.54 270 10:45 03.03.2021
2773 Clear 7 1023 39 10000 1.54 270 10:21 03.03.2021
2774 Clear 6 1023 45 10000 1.03 110 09:41 03.03.2021
2775 Clear 3 1024 56 10000 1.54 230 08:52 03.03.2021
2776 Clear 3 1024 56 10000 1.54 230 08:24 03.03.2021
2777 Clear 2 1024 74 10000 1.31 353 07:55 03.03.2021
2778 Clear 1 1024 74 10000 1.13 20 07:28 03.03.2021
2779 Clear -3 1023 80 10000 1.54 260 06:22 03.03.2021
2780 Clear -3 1023 86 10000 1.03 0 05:44 03.03.2021
2781 Clear -3 1022 80 10000 2.37 5 04:36 03.03.2021
2782 Clear -2 1022 80 10000 1.97 14 03:54 03.03.2021
2783 Clear 0 1023 60 10000 1.03 100 00:28 03.03.2021
2784 Clear 1 1023 55 10000 2.06 80 23:34 02.03.2021
2785 Clear 2 1023 52 10000 3.09 80 22:52 02.03.2021
2786 Clear 1 1023 52 10000 4.12 60 22:22 02.03.2021
2787 Clear 1 1023 52 10000 4.12 60 21:51 02.03.2021
2788 Clear 1 1023 52 10000 4.12 60 21:33 02.03.2021
2789 Clear 2 1022 48 10000 3.09 80 20:56 02.03.2021
2790 Clear 2 1022 48 10000 3.09 80 20:38 02.03.2021
2791 Clear 2 1022 48 10000 3.09 80 20:20 02.03.2021
2792 Clear 3 1022 42 10000 2.57 90 19:46 02.03.2021
2793 Clear 3 1022 42 10000 2.57 90 19:28 02.03.2021
2794 Clear 4 1022 38 10000 4.12 70 18:42 02.03.2021
2795 Clear 4 1022 38 10000 4.12 70 18:21 02.03.2021
2796 Clouds 5 1022 36 10000 6.17 60 17:57 02.03.2021
2797 Clouds 5 1022 36 10000 6.17 60 17:39 02.03.2021
2798 Clouds 5 1022 36 10000 6.17 60 17:19 02.03.2021
2799 Clouds 6 1022 33 10000 5.14 60 16:44 02.03.2021
2800 Clouds 6 1022 33 10000 4.63 90 15:54 02.03.2021
2801 Clouds 6 1022 33 10000 4.63 90 15:27 02.03.2021
2802 Clouds 7 1022 31 10000 4.63 60 14:44 02.03.2021
2803 Clouds 7 1022 31 10000 4.63 60 14:18 02.03.2021
2804 Clouds 7 1022 34 10000 4.12 90 13:44 02.03.2021
2805 Clouds 7 1022 34 10000 4.12 90 13:23 02.03.2021
2806 Clouds 6 1023 33 10000 5.14 100 12:45 02.03.2021
2807 Clouds 6 1023 33 10000 5.14 100 12:24 02.03.2021
2808 Clouds 5 1024 39 10000 4.63 50 11:44 02.03.2021
2809 Clouds 5 1024 39 10000 4.63 50 11:22 02.03.2021
2810 Clouds 5 1024 42 10000 4.63 90 10:43 02.03.2021
2811 Clouds 5 1024 42 10000 4.63 90 10:24 02.03.2021
2812 Clouds 4 1024 48 10000 3.6 70 09:41 02.03.2021
2813 Clouds 4 1024 48 10000 3.6 70 09:22 02.03.2021
2814 Clouds 3 1025 52 10000 4.63 90 08:40 02.03.2021
2815 Clouds 3 1025 52 10000 4.63 90 08:22 02.03.2021
2816 Clouds 2 1025 56 10000 3.09 90 07:40 02.03.2021
2817 Clouds 1 1024 55 10000 1.54 100 06:36 02.03.2021
2818 Clouds 1 1024 60 10000 2.57 50 05:46 02.03.2021
2819 Clouds 1 1024 60 10000 2.57 50 05:46 02.03.2021
2820 Clouds 1 1024 60 10000 2.57 50 05:28 02.03.2021
2821 Clouds 1 1024 48 10000 3.09 80 01:46 02.03.2021
2822 Clouds 2 1024 48 10000 3.09 80 01:28 02.03.2021
2823 Clouds 1 1024 52 10000 2.57 90 00:52 02.03.2021
2824 Clouds 1 1024 48 10000 2.57 110 23:29 01.03.2021
2825 Clouds 1 1023 48 10000 3.09 80 22:43 01.03.2021
2826 Clouds 1 1023 48 10000 3.09 80 22:23 01.03.2021
2827 Clouds 1 1023 59 10000 1.23 76 21:51 01.03.2021
2828 Clouds 1 1023 59 10000 1.25 82 21:24 01.03.2021
2829 Clouds 2 1023 48 10000 1.54 100 20:49 01.03.2021
2830 Clouds 2 1023 48 10000 1.54 100 20:28 01.03.2021
2831 Clouds 2 1022 41 10000 1.54 160 19:56 01.03.2021
2832 Clouds 3 1022 41 10000 1.54 160 19:34 01.03.2021
2833 Clouds 2 1022 44 10000 1.72 74 18:59 01.03.2021
2834 Clouds 2 1022 44 10000 1.72 74 18:36 01.03.2021
2835 Clouds 2 1022 44 10000 1.6 51 18:18 01.03.2021
2836 Clouds 4 1022 36 10000 1.6 51 17:41 01.03.2021
2837 Clouds 4 1022 36 10000 1.26 28 17:19 01.03.2021
2838 Clouds 6 1021 31 10000 1.03 0 16:44 01.03.2021
2839 Clouds 6 1021 31 10000 1.03 0 16:26 01.03.2021
2840 Clouds 6 1021 33 10000 2.06 0 15:42 01.03.2021
2841 Clouds 6 1021 33 10000 2.06 0 15:21 01.03.2021
2842 Clouds 6 1022 36 10000 2.57 120 14:48 01.03.2021
2843 Clouds 6 1022 36 10000 2.57 120 14:29 01.03.2021
2844 Clouds 6 1022 36 10000 2.06 0 13:43 01.03.2021
2845 Clouds 5 1022 36 10000 2.06 0 13:24 01.03.2021
2846 Clouds 5 1022 38 10000 1.03 0 12:55 01.03.2021
2847 Clouds 5 1022 38 10000 1.03 0 12:36 01.03.2021
2848 Clouds 5 1022 38 10000 1.03 0 12:18 01.03.2021
2849 Clouds 5 1023 38 10000 2.06 340 11:40 01.03.2021
2850 Clouds 4 1023 45 10000 3.09 60 10:45 01.03.2021
2851 Clouds 4 1023 45 10000 3.09 60 10:45 01.03.2021
2852 Clouds 4 1023 45 10000 3.09 60 10:23 01.03.2021
2853 Clouds 4 1023 44 10000 1.54 120 09:58 01.03.2021
2854 Clouds 3 1023 44 10000 1.54 120 09:40 01.03.2021
2855 Clouds 3 1023 44 10000 1.54 120 09:21 01.03.2021
2856 Clouds 1 1024 55 10000 0.86 28 08:48 01.03.2021
2857 Clouds 1 1024 55 10000 1.93 2 08:18 01.03.2021
2858 Clear -4 1024 86 10000 1.89 357 06:53 01.03.2021
2859 Clear -4 1024 80 10000 1.03 0 04:21 01.03.2021
2860 Clear -2 1024 69 10000 2.57 250 00:44 01.03.2021
2861 Clear -2 1024 69 10000 2.57 250 23:36 28.02.2021
2862 Clear -2 1023 69 10000 2.57 280 22:51 28.02.2021
2863 Clear -1 1023 69 10000 2.57 280 22:23 28.02.2021
2864 Clouds -1 1023 55 10000 2.06 0 21:51 28.02.2021
2865 Clouds 0 1023 55 10000 2.06 0 21:28 28.02.2021
2866 Clouds 0 1023 55 10000 2.06 0 21:28 28.02.2021
2867 Clouds 1 1023 48 10000 3.6 320 20:56 28.02.2021
2868 Clouds 1 1023 48 10000 3.6 320 20:36 28.02.2021
2869 Clouds 1 1022 51 10000 2.57 340 19:47 28.02.2021
2870 Clouds 1 1022 51 10000 2.57 340 19:28 28.02.2021
2871 Clouds 2 1022 48 10000 5.66 330 18:57 28.02.2021
2872 Clouds 2 1022 48 10000 5.66 330 18:57 28.02.2021
2873 Clouds 2 1022 48 10000 5.66 330 18:37 28.02.2021
2874 Clouds 2 1022 48 10000 5.66 330 18:18 28.02.2021
2875 Clouds 3 1020 45 10000 6.17 320 17:45 28.02.2021
2876 Clouds 4 1020 45 10000 6.17 320 17:27 28.02.2021
2877 Clouds 5 1020 42 10000 6.69 320 16:50 28.02.2021
2878 Clouds 5 1020 42 10000 6.69 320 16:30 28.02.2021
2879 Clouds 6 1020 42 10000 6.69 320 15:53 28.02.2021
2880 Clouds 7 1020 42 10000 6.69 320 15:31 28.02.2021
2881 Clouds 6 1019 52 10000 5.66 340 14:59 28.02.2021
2882 Clouds 6 1019 52 10000 5.66 340 14:39 28.02.2021
2883 Clouds 6 1019 52 10000 5.66 340 14:20 28.02.2021
2884 Clouds 7 1019 49 10000 7.2 320 13:42 28.02.2021
2885 Clouds 8 1019 49 10000 7.2 320 13:19 28.02.2021
2886 Clouds 9 1019 43 10000 8.23 320 12:55 28.02.2021
2887 Clouds 9 1019 43 10000 8.23 320 12:36 28.02.2021
2888 Clouds 10 1019 43 10000 8.23 320 12:18 28.02.2021
2889 Clouds 10 1019 43 10000 6.17 310 11:42 28.02.2021
2890 Clouds 11 1019 43 10000 6.17 310 11:22 28.02.2021
2891 Clouds 10 1019 46 10000 3.09 310 10:45 28.02.2021
2892 Clouds 10 1019 46 10000 3.09 310 10:25 28.02.2021
2893 Clouds 8 1020 53 10000 3.09 210 09:40 28.02.2021
2894 Clouds 8 1020 53 10000 3.09 210 09:22 28.02.2021
2895 Clear 7 1020 65 10000 1.54 250 08:46 28.02.2021
2896 Clear 6 1020 65 10000 1.54 250 08:28 28.02.2021
2897 Clear 3 1020 80 10000 1.03 0 07:50 28.02.2021
2898 Clear 3 1020 80 10000 1.03 0 07:28 28.02.2021
2899 Clear 0 1019 93 10000 1.03 0 06:25 28.02.2021
2900 Clear 0 1018 93 10000 0.51 0 05:23 28.02.2021
2901 Clear 1 1018 86 10000 1.03 70 03:24 28.02.2021
2902 Clear -1 1018 86 10000 0.59 283 01:36 28.02.2021
2903 Clear 0 1018 86 10000 0.53 289 00:43 28.02.2021
2904 Clear 0 1018 86 10000 0.33 250 00:23 28.02.2021
2905 Clear 1 1018 80 10000 0.33 250 23:44 27.02.2021
2906 Clear 1 1018 80 10000 0.12 228 23:19 27.02.2021
2907 Clear 1 1018 80 10000 0.12 228 22:43 27.02.2021
2908 Clear 1 1018 80 10000 0.17 76 22:19 27.02.2021
2909 Clear 2 1018 75 10000 0.17 76 21:40 27.02.2021
2910 Clear 2 1018 75 10000 0.15 90 21:22 27.02.2021
2911 Clear 3 1018 70 10000 0.15 90 20:47 27.02.2021
2912 Clear 4 1018 70 10000 0.31 123 20:27 27.02.2021
2913 Clear 5 1017 60 10000 0.51 0 19:45 27.02.2021
2914 Clear 5 1017 60 10000 0.51 0 19:26 27.02.2021
2915 Clear 7 1018 53 10000 0.32 105 18:44 27.02.2021
2916 Clear 7 1018 53 10000 0.34 87 18:21 27.02.2021
2917 Clear 10 1017 37 10000 1.54 240 17:54 27.02.2021
2918 Clear 10 1017 37 10000 1.54 240 17:36 27.02.2021
2919 Clear 10 1017 37 10000 1.54 240 17:18 27.02.2021
2920 Clear 12 1017 35 10000 2.57 270 16:44 27.02.2021
2921 Clear 13 1017 35 10000 2.57 270 16:25 27.02.2021
2922 Clear 14 1017 35 10000 1.54 260 15:41 27.02.2021
2923 Clear 13 1018 35 10000 2.57 310 14:56 27.02.2021
2924 Clear 13 1018 35 10000 2.57 310 14:37 27.02.2021
2925 Clear 12 1018 38 10000 2.06 0 13:56 27.02.2021
2926 Clear 12 1018 38 10000 2.06 0 13:37 27.02.2021
2927 Clear 12 1018 38 10000 2.06 0 13:18 27.02.2021
2928 Clear 12 1019 40 10000 2.06 0 12:38 27.02.2021
2929 Clear 12 1019 40 10000 2.06 0 12:19 27.02.2021
2930 Clear 11 1020 43 10000 2.06 0 11:42 27.02.2021
2931 Clear 11 1020 43 10000 2.06 0 11:24 27.02.2021
2932 Clear 9 1020 49 10000 0.51 0 10:46 27.02.2021
2933 Clear 9 1020 49 10000 0.51 0 10:28 27.02.2021
2934 Clear 8 1021 53 10000 0.71 220 09:50 27.02.2021
2935 Clear 8 1021 53 10000 0.64 189 09:26 27.02.2021
2936 Clear 4 1022 75 10000 0.64 189 08:42 27.02.2021
2937 Clear 4 1022 75 10000 0.53 144 08:21 27.02.2021
2938 Clear 2 1022 80 10000 0.53 144 07:42 27.02.2021
2939 Clear -1 1022 100 10000 0.64 122 04:47 27.02.2021
2940 Clear 1 1023 86 10000 0.82 82 00:56 27.02.2021
2941 Clear -1 1023 86 10000 0.81 89 23:54 26.02.2021
2942 Clear -1 1023 86 10000 0.81 89 23:30 26.02.2021
2943 Clear 1 1023 69 10000 1.54 100 22:59 26.02.2021
2944 Clear 1 1023 69 10000 1.54 100 22:30 26.02.2021
2945 Clear 2 1024 69 10000 1.13 93 21:47 26.02.2021
2946 Clear 2 1024 69 10000 1.18 89 21:28 26.02.2021
2947 Clear 2 1024 65 10000 1.03 0 20:44 26.02.2021
2948 Clear 2 1024 65 10000 1.03 0 20:22 26.02.2021
2949 Clear 4 1023 60 10000 1.54 100 19:50 26.02.2021
2950 Clear 4 1023 60 10000 1.54 100 19:25 26.02.2021
2951 Clear 4 1024 75 10000 3.09 20 18:42 26.02.2021
2952 Clear 8 1023 43 10000 1.54 240 18:23 26.02.2021
2953 Clear 8 1023 43 10000 1.54 240 17:42 26.02.2021
2954 Clear 9 1023 43 10000 1.54 240 17:24 26.02.2021
2955 Clear 11 1024 40 10000 2.06 250 16:52 26.02.2021
2956 Clear 11 1024 40 10000 2.06 250 16:32 26.02.2021
2957 Clouds 12 1024 37 10000 1.54 270 15:57 26.02.2021
2958 Clouds 12 1024 37 10000 1.54 270 15:38 26.02.2021
2959 Clouds 12 1024 37 10000 1.54 270 15:20 26.02.2021
2960 Clouds 12 1024 37 10000 1.03 0 14:45 26.02.2021
2961 Clouds 11 1024 37 10000 1.03 0 14:25 26.02.2021
2962 Clouds 11 1025 40 10000 2.57 270 13:44 26.02.2021
2963 Clouds 10 1025 40 10000 2.57 270 13:24 26.02.2021
2964 Clouds 10 1026 43 10000 3.09 270 12:39 26.02.2021
2965 Clouds 10 1027 43 10000 1.54 220 11:55 26.02.2021
2966 Clouds 9 1027 43 10000 1.54 220 11:37 26.02.2021
2967 Clouds 8 1027 53 10000 0.51 0 10:48 26.02.2021
2968 Clouds 7 1028 61 8000 1.03 0 09:58 26.02.2021
2969 Clouds 7 1028 61 8000 1.03 0 09:39 26.02.2021
2970 Clouds 6 1028 61 8000 1.03 0 09:20 26.02.2021
2971 Clear 4 1029 81 8000 1.03 0 08:26 26.02.2021
2972 Clear 1 1029 93 10000 1.03 0 07:49 26.02.2021
2973 Clear -1 1029 93 10000 0.25 58 06:43 26.02.2021
2974 Clear -2 1029 93 10000 0.39 2 05:31 26.02.2021
2975 Clear -1 1029 93 10000 0.22 25 03:48 26.02.2021
2976 Clear -1 1029 93 10000 1.03 320 02:35 26.02.2021
2977 Clear -1 1030 86 10000 0.51 0 00:18 26.02.2021
2978 Clear 0 1030 86 10000 0.51 270 23:28 25.02.2021
2979 Clear 0 1029 86 10000 1.03 0 22:50 25.02.2021
2980 Clear 0 1029 86 10000 1.03 0 22:27 25.02.2021
2981 Clear 0 1029 80 10000 1.03 0 21:44 25.02.2021
2982 Clear 0 1029 80 10000 1.03 0 21:26 25.02.2021
2983 Clear 1 1029 80 10000 1.03 0 20:41 25.02.2021
2984 Clear 1 1029 80 10000 1.03 0 20:22 25.02.2021
2985 Clear 3 1029 65 10000 1.03 0 19:52 25.02.2021
2986 Clear 3 1029 65 10000 1.03 0 19:22 25.02.2021
2987 Clear 4 1029 61 10000 2.06 90 18:57 25.02.2021
2988 Clear 5 1029 61 10000 2.06 90 18:25 25.02.2021
2989 Clear 6 1028 53 10000 4.12 70 17:49 25.02.2021
2990 Clear 6 1028 53 10000 4.12 70 17:26 25.02.2021
2991 Clear 8 1028 49 10000 4.12 90 16:46 25.02.2021
2992 Clear 8 1028 49 10000 4.12 90 16:25 25.02.2021
2993 Clear 8 1028 49 10000 5.14 80 15:30 25.02.2021
2994 Clouds 8 1029 49 10000 5.14 80 14:57 25.02.2021
2995 Clouds 8 1029 49 10000 5.14 80 14:24 25.02.2021
2996 Clouds 8 1029 49 10000 4.12 40 13:53 25.02.2021
2997 Clouds 7 1029 49 10000 4.12 40 13:26 25.02.2021
2998 Clouds 7 1029 53 10000 4.12 40 12:55 25.02.2021
2999 Clouds 7 1029 53 10000 4.12 40 12:22 25.02.2021
3000 Clouds 7 1030 53 10000 4.63 40 11:47 25.02.2021
3001 Clouds 7 1030 53 10000 4.63 40 11:20 25.02.2021
3002 Clouds 7 1030 53 10000 3.09 90 10:45 25.02.2021
3003 Clouds 6 1030 53 10000 3.09 90 10:26 25.02.2021
3004 Clouds 6 1030 56 10000 3.6 60 09:43 25.02.2021
3005 Clouds 5 1030 60 10000 2.06 170 08:56 25.02.2021
3006 Clouds 4 1030 60 10000 2.06 170 08:25 25.02.2021
3007 Clear 3 1030 75 10000 2.06 230 07:56 25.02.2021
3008 Clear 3 1030 75 10000 2.06 230 07:31 25.02.2021
3009 Clear 2 1030 80 10000 1.03 0 06:53 25.02.2021
3010 Clear 2 1028 69 10000 2.06 240 01:59 25.02.2021
3011 Clear 2 1028 69 10000 2.06 240 01:37 25.02.2021
3012 Clear 2 1028 75 10000 0.51 0 00:41 25.02.2021
3013 Clear 2 1028 75 10000 1.03 0 23:52 24.02.2021
3014 Clear 2 1028 75 10000 1.03 0 23:27 24.02.2021
3015 Clear 3 1027 60 10000 1.03 0 22:44 24.02.2021
3016 Clear 3 1027 60 10000 1.03 0 22:25 24.02.2021
3017 Clear 4 1027 52 10000 0.51 0 21:45 24.02.2021
3018 Clear 5 1026 45 10000 1.03 0 20:56 24.02.2021
3019 Clear 5 1026 45 10000 1.03 0 20:37 24.02.2021
3020 Clear 5 1026 45 10000 1.03 0 20:18 24.02.2021
3021 Clear 5 1025 52 10000 0.51 0 19:29 24.02.2021
3022 Clear 7 1025 37 10000 2.25 4 18:56 24.02.2021
3023 Clear 7 1025 37 10000 2.25 4 18:34 24.02.2021
3024 Clear 10 1024 32 10000 1.54 100 17:56 24.02.2021
3025 Clear 10 1024 32 10000 1.54 100 17:30 24.02.2021
3026 Clear 10 1024 32 10000 1.54 100 17:30 24.02.2021
3027 Clear 12 1024 28 10000 4.12 260 16:57 24.02.2021
3028 Clear 12 1024 28 10000 4.12 260 16:39 24.02.2021
3029 Clear 13 1024 28 10000 4.12 260 16:19 24.02.2021
3030 Clear 13 1025 24 10000 2.06 250 15:38 24.02.2021
3031 Clear 14 1025 20 10000 1.54 260 14:53 24.02.2021
3032 Clear 14 1025 20 10000 1.54 260 14:34 24.02.2021
3033 Clear 13 1025 23 10000 1.54 0 13:58 24.02.2021
3034 Clear 13 1025 23 10000 1.54 0 13:38 24.02.2021
3035 Clear 13 1025 23 10000 1.54 0 13:19 24.02.2021
3036 Clear 13 1026 28 10000 1.54 60 12:43 24.02.2021
3037 Clear 13 1026 28 10000 1.54 60 12:23 24.02.2021
3038 Clear 11 1027 32 10000 1.54 320 11:45 24.02.2021
3039 Clear 9 1027 34 8000 1.03 0 10:51 24.02.2021
3040 Clear 7 1028 57 10000 0.51 0 10:29 24.02.2021
3041 Clear 7 1028 57 10000 0.51 0 09:41 24.02.2021
3042 Clear 6 1028 57 10000 0.51 0 09:19 24.02.2021
3043 Clear 5 1028 75 10000 0.33 196 08:34 24.02.2021
3044 Clear 2 1028 93 6000 0.5 33 07:55 24.02.2021
3045 Clear 1 1028 93 6000 0.64 42 07:20 24.02.2021
3046 Clear -4 1028 86 6000 0.71 60 06:20 24.02.2021
3047 Clear 0 1028 86 10000 0.26 137 03:25 24.02.2021
3048 Clear -1 1029 86 10000 0.4 45 00:20 24.02.2021
3049 Clear 0 1029 86 10000 0.51 80 23:20 23.02.2021
3050 Clear 1 1029 80 10000 1.03 0 22:37 23.02.2021
3051 Clear 1 1029 80 10000 1.03 0 22:19 23.02.2021
3052 Clear 1 1029 75 10000 1.03 0 21:41 23.02.2021
3053 Clear 1 1029 75 10000 1.03 0 21:22 23.02.2021
3054 Clear 2 1029 75 10000 1.03 80 20:47 23.02.2021
3055 Clear 2 1029 75 10000 1.03 80 20:47 23.02.2021
3056 Clear 2 1029 75 10000 1.03 80 20:29 23.02.2021
3057 Clear 3 1029 65 10000 0.32 311 19:47 23.02.2021
3058 Clear 3 1029 65 10000 0.27 331 19:27 23.02.2021
3059 Clear 5 1029 56 10000 0.27 331 18:53 23.02.2021
3060 Clear 6 1029 56 10000 0.35 26 18:31 23.02.2021
3061 Clear 8 1028 46 10000 0.51 0 17:54 23.02.2021
3062 Clear 8 1028 46 10000 0.51 0 17:30 23.02.2021
3063 Clear 11 1028 40 10000 2.06 260 16:48 23.02.2021
3064 Clear 11 1028 40 10000 2.06 260 16:25 23.02.2021
3065 Clear 11 1028 37 10000 2.57 280 15:52 23.02.2021
3066 Clear 12 1028 37 10000 2.57 280 15:34 23.02.2021
3067 Clear 11 1028 35 10000 2.57 300 14:59 23.02.2021
3068 Clear 11 1028 35 10000 2.57 300 14:40 23.02.2021
3069 Clear 11 1028 35 10000 2.57 300 14:20 23.02.2021
3070 Clear 11 1029 43 10000 2.57 290 13:43 23.02.2021
3071 Clear 10 1029 43 10000 2.57 290 13:21 23.02.2021
3072 Clear 9 1029 46 10000 3.09 280 12:49 23.02.2021
3073 Clear 9 1029 46 10000 3.09 280 12:20 23.02.2021
3074 Clear 8 1030 39 10000 2.06 280 11:46 23.02.2021
3075 Clear 8 1030 39 10000 2.06 280 11:20 23.02.2021
3076 Clear 6 1030 49 10000 1.54 270 10:40 23.02.2021
3077 Clear 5 1030 49 10000 1.54 270 10:19 23.02.2021
3078 Clear 5 1031 56 10000 1.03 0 09:42 23.02.2021
3079 Clear 3 1031 56 10000 1.03 0 09:21 23.02.2021
3080 Clear 2 1031 69 10000 0.3 279 08:48 23.02.2021
3081 Clear 2 1031 69 10000 0.14 150 08:21 23.02.2021
3082 Clear 0 1031 86 10000 0.14 152 07:48 23.02.2021
3083 Clear -5 1030 86 10000 0.4 73 05:29 23.02.2021
3084 Clear -4 1030 86 10000 0.44 132 02:54 23.02.2021
3085 Clear -4 1030 86 10000 0.44 132 02:54 23.02.2021
3086 Clear -4 1030 86 10000 0.44 132 02:33 23.02.2021
3087 Clear -3 1030 86 10000 0.57 83 00:20 23.02.2021
3088 Clear -3 1030 86 10000 0.51 260 23:46 22.02.2021
3089 Clear -1 1030 86 10000 0.51 260 23:18 22.02.2021
3090 Clear -1 1030 80 10000 0.63 73 22:39 22.02.2021
3091 Clear -1 1030 80 10000 0.76 108 22:20 22.02.2021
3092 Clear -1 1029 74 10000 0.76 108 21:38 22.02.2021
3093 Clear -1 1029 74 10000 0.89 84 21:20 22.02.2021
3094 Clear 1 1029 64 10000 1.54 110 20:48 22.02.2021
3095 Clear 1 1029 64 10000 1.54 110 20:27 22.02.2021
3096 Clear 2 1029 60 10000 0.51 0 19:50 22.02.2021
3097 Clear 2 1029 60 10000 0.51 0 19:30 22.02.2021
3098 Clear 2 1029 60 10000 0.51 0 19:30 22.02.2021
3099 Clear 3 1029 48 10000 0.51 0 18:49 22.02.2021
3100 Clear 3 1029 48 10000 0.51 0 18:30 22.02.2021
3101 Clear 3 1029 48 10000 0.51 0 18:30 22.02.2021
3102 Clear 5 1029 39 10000 1.03 200 17:54 22.02.2021
3103 Clear 5 1029 39 10000 1.03 200 17:22 22.02.2021
3104 Clear 6 1029 42 10000 2.06 250 16:53 22.02.2021
3105 Clear 6 1029 42 10000 2.06 250 16:31 22.02.2021
3106 Clear 7 1029 36 10000 2.06 240 15:39 22.02.2021
3107 Clear 7 1029 36 10000 2.06 240 15:21 22.02.2021
3108 Clear 7 1028 36 10000 2.06 260 14:42 22.02.2021
3109 Clear 7 1028 36 10000 2.06 260 14:21 22.02.2021
3110 Clear 6 1028 36 10000 1.54 270 13:41 22.02.2021
3111 Clear 5 1029 39 10000 2.06 240 12:56 22.02.2021
3112 Clear 5 1029 39 10000 2.06 240 12:23 22.02.2021
3113 Clear 4 1030 38 10000 1.03 0 11:57 22.02.2021
3114 Clear 4 1030 38 10000 1.03 0 11:33 22.02.2021
3115 Clear 2 1030 48 10000 1.03 0 10:59 22.02.2021
3116 Clear 2 1030 48 10000 1.03 0 10:59 22.02.2021
3117 Clear 2 1030 48 10000 1.03 0 10:41 22.02.2021
3118 Clear -1 1030 64 6000 1.03 0 10:21 22.02.2021
3119 Clear 0 1029 64 6000 1.03 0 09:39 22.02.2021
3120 Clear -2 1031 74 6000 1.03 0 09:21 22.02.2021
3121 Clear -2 1031 74 6000 1.03 0 09:21 22.02.2021
3122 Clear -1 1031 74 6000 1.03 0 08:49 22.02.2021
3123 Clouds -3 1031 74 6000 1.03 0 08:21 22.02.2021
3124 Clouds -3 1030 86 6000 0.69 93 07:50 22.02.2021
3125 Clear -6 1030 86 6000 0.58 113 07:22 22.02.2021
3126 Clear -9 1030 93 7000 0.73 121 06:28 22.02.2021
3127 Clear -6 1030 86 10000 0.7 104 04:55 22.02.2021
3128 Clear -10 1029 85 10000 0.51 0 03:23 22.02.2021
3129 Clear -6 1029 85 10000 0.51 340 01:59 22.02.2021
3130 Clear -9 1029 86 10000 0.52 159 00:44 22.02.2021
3131 Clear -7 1029 79 10000 1.54 30 00:18 22.02.2021
3132 Clear -8 1029 92 10000 0.51 230 23:26 21.02.2021
3133 Clear -7 1029 79 10000 1.03 0 22:36 21.02.2021
3134 Clear -6 1029 86 10000 0.62 111 21:53 21.02.2021
3135 Clear -7 1029 86 10000 0.62 111 21:35 21.02.2021
3136 Clear -7 1029 86 10000 0.62 111 21:35 21.02.2021
3137 Clear -5 1029 79 10000 0.51 0 20:58 21.02.2021
3138 Clear -5 1029 79 10000 0.51 0 20:39 21.02.2021
3139 Clear -5 1029 79 10000 0.51 0 20:18 21.02.2021
3140 Clear -5 1028 74 10000 1.54 350 19:46 21.02.2021
3141 Clear -4 1028 74 10000 0.66 94 19:26 21.02.2021
3142 Clear -3 1028 68 10000 0.66 94 18:39 21.02.2021
3143 Clear -3 1028 59 10000 0.51 0 18:21 21.02.2021
3144 Clouds -1 1028 37 10000 1.54 60 17:29 21.02.2021
3145 Clouds -1 1028 37 10000 1.54 60 17:29 21.02.2021
3146 Clouds 1 1028 37 10000 1.54 50 16:55 21.02.2021
3147 Clouds 1 1028 40 10000 1.54 30 16:33 21.02.2021
3148 Clouds 1 1028 44 10000 1.54 30 15:54 21.02.2021
3149 Clouds 1 1028 44 10000 2.06 20 15:21 21.02.2021
3150 Clouds 1 1028 44 10000 1.03 0 14:42 21.02.2021
3151 Clouds 1 1028 44 10000 1.03 0 14:42 21.02.2021
3152 Clouds 1 1028 47 10000 1.54 310 14:22 21.02.2021
3153 Clouds 1 1028 51 10000 2.06 300 13:46 21.02.2021
3154 Clouds 2 1028 44 10000 1.03 0 13:23 21.02.2021
3155 Clouds -1 1028 55 10000 1.54 230 12:31 21.02.2021
3156 Clouds 1 1028 47 10000 1.03 0 11:45 21.02.2021
3157 Clear -2 1029 54 10000 0.51 0 10:59 21.02.2021
3158 Clear -1 1029 63 10000 0.51 0 10:24 21.02.2021
3159 Clear -3 1029 73 10000 1.54 260 09:55 21.02.2021
3160 Clear -7 1029 73 10000 1.54 230 09:31 21.02.2021
3161 Clear -4 1029 68 10000 0.51 0 08:58 21.02.2021
3162 Clear -5 1029 79 10000 1.03 0 08:23 21.02.2021
3163 Clear -10 1029 79 10000 0.51 0 07:35 21.02.2021
3164 Clear -9 1029 85 10000 1.03 0 06:55 21.02.2021
3165 Clear -13 1028 85 10000 0.51 360 03:39 21.02.2021
3166 Clear -11 1028 79 10000 1.03 40 02:30 21.02.2021
3167 Clear -9 1028 85 10000 1.53 86 00:44 21.02.2021
3168 Clear -8 1028 85 10000 1.59 83 00:19 21.02.2021
3169 Clear -8 1028 85 10000 0.51 170 23:25 20.02.2021
3170 Clear -8 1028 85 10000 1.69 86 22:44 20.02.2021
3171 Clear -8 1028 85 10000 0.51 0 22:25 20.02.2021
3172 Clear -8 1028 79 10000 1.03 0 21:45 20.02.2021
3173 Clear -8 1028 79 10000 1.03 320 21:24 20.02.2021
3174 Clear -7 1028 79 10000 0.51 0 20:46 20.02.2021
3175 Clear -7 1027 73 10000 1.03 0 20:22 20.02.2021
3176 Clear -7 1027 68 10000 2.57 40 19:52 20.02.2021
3177 Clear -7 1027 73 10000 3.09 20 19:29 20.02.2021
3178 Clear -5 1027 68 10000 2.57 20 18:41 20.02.2021
3179 Clear -5 1027 68 10000 2.06 10 18:21 20.02.2021
3180 Clear -4 1027 63 10000 2.06 50 17:38 20.02.2021
3181 Clear -3 1026 54 10000 2.06 30 16:56 20.02.2021
3182 Clear -3 1026 54 10000 2.06 30 16:32 20.02.2021
3183 Clear -3 1026 54 10000 2.06 30 16:32 20.02.2021
3184 Clear -2 1026 54 10000 2.06 40 15:53 20.02.2021
3185 Clear -2 1026 54 10000 2.06 20 15:31 20.02.2021
3186 Clouds -2 1026 54 10000 2.06 320 14:47 20.02.2021
3187 Clouds -1 1026 54 10000 2.57 300 14:23 20.02.2021
3188 Clouds -1 1026 54 10000 2.06 320 13:47 20.02.2021
3189 Clouds -1 1026 54 10000 2.06 320 13:47 20.02.2021
3190 Clouds -1 1026 54 10000 2.06 350 13:24 20.02.2021
3191 Clouds -2 1026 54 10000 1.54 330 12:50 20.02.2021
3192 Clouds -2 1027 54 10000 1.03 0 12:23 20.02.2021
3193 Clouds -3 1027 58 10000 1.54 320 11:44 20.02.2021
3194 Clouds -3 1027 58 10000 1.54 320 11:44 20.02.2021
3195 Clouds -3 1027 54 10000 1.54 340 11:24 20.02.2021
3196 Clouds -3 1027 54 10000 0.51 0 10:49 20.02.2021
3197 Clear -5 1027 63 10000 1.03 0 09:55 20.02.2021
3198 Clear -5 1027 67 10000 1.03 0 09:28 20.02.2021
3199 Clear -10 1027 73 10000 1.03 230 08:36 20.02.2021
3200 Clear -8 1027 79 10000 0.51 0 07:57 20.02.2021
3201 Clear -12 1025 79 10000 0.51 0 02:46 20.02.2021
3202 Clear -12 1025 79 10000 0.71 55 02:24 20.02.2021
3203 Clear -12 1025 79 10000 0.51 0 01:49 20.02.2021
3204 Clear -10 1025 78 10000 1.54 300 00:45 20.02.2021
3205 Clear -9 1025 79 10000 2.06 70 23:55 19.02.2021
3206 Clear -9 1025 73 10000 0.51 0 23:18 19.02.2021
3207 Clear -8 1025 67 10000 1.54 0 22:27 19.02.2021
3208 Clear -7 1025 58 10000 2.06 100 21:54 19.02.2021
3209 Clear -8 1025 67 10000 2.06 100 21:31 19.02.2021
3210 Clear -7 1025 68 10000 2.57 70 20:48 19.02.2021
3211 Clear -7 1025 63 10000 2.57 300 20:28 19.02.2021
3212 Clear -6 1025 63 10000 3.09 320 19:57 19.02.2021
3213 Clouds -5 1025 58 10000 3.09 310 19:27 19.02.2021
3214 Clouds -5 1025 58 10000 3.09 290 18:57 19.02.2021
3215 Clouds -5 1025 58 10000 3.09 290 18:34 19.02.2021
3216 Clouds -4 1024 58 10000 3.09 320 17:51 19.02.2021
3217 Clouds -4 1024 58 10000 4.12 340 17:22 19.02.2021
3218 Clouds -3 1024 54 10000 5.66 330 16:38 19.02.2021
3219 Clouds -1 1023 54 10000 5.66 320 16:18 19.02.2021
3220 Clouds -1 1023 51 10000 4.12 310 15:41 19.02.2021
3221 Clouds 0 1023 51 10000 4.63 320 15:20 19.02.2021
3222 Clouds 0 1023 55 10000 6.69 300 14:38 19.02.2021
3223 Clouds 1 1023 47 10000 6.69 320 14:20 19.02.2021
3224 Clouds 1 1023 47 10000 6.69 320 13:44 19.02.2021
3225 Snow 1 1023 47 10000 6.69 320 13:24 19.02.2021
3226 Clouds 1 1023 60 10000 4.63 320 12:42 19.02.2021
3227 Snow 1 1023 60 10000 4.63 320 12:23 19.02.2021
3228 Snow 0 1023 55 10000 4.63 300 11:51 19.02.2021
3229 Snow 0 1023 55 10000 6.69 270 11:23 19.02.2021
3230 Snow 1 1023 55 10000 5.66 240 10:50 19.02.2021
3231 Snow 1 1023 55 10000 5.66 240 10:22 19.02.2021
3232 Snow 0 1023 64 10000 2.57 280 09:47 19.02.2021
3233 Clouds 0 1023 64 10000 2.57 280 09:25 19.02.2021
3234 Clouds 0 1022 74 10000 2.57 270 08:50 19.02.2021
3235 Clouds 0 1022 74 10000 2.57 270 08:23 19.02.2021
3236 Clouds -1 1022 80 10000 2.57 270 07:48 19.02.2021
3237 Clouds -2 1022 80 10000 2.57 270 07:29 19.02.2021
3238 Clouds -2 1021 86 10000 3.6 280 06:53 19.02.2021
3239 Snow -2 1020 86 10000 4.12 250 05:27 19.02.2021
3240 Clouds -2 1020 80 10000 3.6 250 04:41 19.02.2021
3241 Clouds -2 1019 74 10000 3.09 270 01:47 19.02.2021
3242 Clouds -2 1019 80 10000 2.57 250 00:37 19.02.2021
3243 Clouds -2 1019 74 10000 2.06 240 23:54 18.02.2021
3244 Clouds -2 1019 74 10000 2.06 240 23:35 18.02.2021
3245 Clouds -2 1019 80 10000 2.06 260 22:47 18.02.2021
3246 Clouds -2 1019 80 10000 2.06 260 22:28 18.02.2021
3247 Clouds -3 1019 74 10000 1.54 240 21:48 18.02.2021
3248 Clouds -3 1019 74 10000 1.54 240 21:25 18.02.2021
3249 Clouds -3 1019 86 10000 2.06 280 20:43 18.02.2021
3250 Clouds -3 1019 86 10000 2.06 280 20:23 18.02.2021
3251 Snow -3 1018 86 10000 1.03 0 19:46 18.02.2021
3252 Snow -3 1018 86 10000 1.03 0 19:26 18.02.2021
3253 Snow -3 1018 80 10000 2.57 230 18:53 18.02.2021
3254 Snow -3 1018 80 10000 2.57 230 18:29 18.02.2021
3255 Snow -3 1018 69 10000 3.09 230 17:52 18.02.2021
3256 Snow -3 1018 69 10000 3.09 230 17:26 18.02.2021
3257 Snow -2 1017 64 10000 2.57 220 16:56 18.02.2021
3258 Snow -2 1017 64 10000 2.57 220 16:38 18.02.2021
3259 Snow -2 1017 64 10000 2.57 220 16:18 18.02.2021
3260 Clouds -2 1017 64 10000 3.6 230 15:38 18.02.2021
3261 Clouds -2 1017 64 10000 3.6 230 15:19 18.02.2021
3262 Clouds -2 1016 59 10000 4.12 250 14:46 18.02.2021
3263 Clouds -2 1016 54 10000 5.14 250 14:27 18.02.2021
3264 Clouds -2 1016 54 10000 4.12 250 13:45 18.02.2021
3265 Clouds -2 1016 59 10000 4.63 250 13:18 18.02.2021
3266 Clouds -3 1016 59 10000 4.63 250 12:44 18.02.2021
3267 Clouds -3 1016 63 10000 2.57 240 12:22 18.02.2021
3268 Clouds -3 1016 63 6000 1.54 230 11:46 18.02.2021
3269 Clouds -4 1017 63 6000 1.54 260 11:25 18.02.2021
3270 Clouds -4 1017 63 6000 1.03 0 10:45 18.02.2021
3271 Clouds -8 1017 67 10000 1.03 0 10:27 18.02.2021
3272 Clouds -6 1017 67 6000 0.51 0 09:46 18.02.2021
3273 Mist -11 1017 79 4000 1.03 0 09:24 18.02.2021
3274 Mist -8 1017 79 3100 1.03 0 08:41 18.02.2021
3275 Mist -12 1017 79 4000 0.51 0 08:23 18.02.2021
3276 Clouds -16 1017 78 10000 1.54 290 07:32 18.02.2021
3277 Clouds -15 1017 78 10000 0.51 0 06:50 18.02.2021
3278 Clouds -14 1015 78 10000 0.25 234 02:33 18.02.2021
3279 Clouds -15 1016 78 10000 1.03 340 23:55 17.02.2021
3280 Clouds -14 1016 78 10000 1.54 340 23:24 17.02.2021
3281 Clouds -15 1016 85 10000 1.03 0 22:52 17.02.2021
3282 Snow -12 1016 79 10000 0.51 0 22:26 17.02.2021
3283 Snow -11 1016 73 10000 0.51 0 21:54 17.02.2021
3284 Clouds -13 1015 78 10000 1.03 0 21:22 17.02.2021
3285 Clouds -11 1015 79 10000 1.03 350 20:48 17.02.2021
3286 Clouds -11 1015 79 10000 1.03 0 20:29 17.02.2021
3287 Clouds -10 1015 73 10000 1.03 0 19:50 17.02.2021
3288 Clouds -9 1015 67 10000 0.51 0 19:32 17.02.2021
3289 Clouds -9 1015 67 10000 2.06 300 18:45 17.02.2021
3290 Clouds -8 1014 67 10000 2.06 10 18:25 17.02.2021
3291 Clouds -8 1014 67 10000 3.6 20 17:42 17.02.2021
3292 Clouds -7 1013 63 10000 4.63 40 17:20 17.02.2021
3293 Clouds -6 1013 58 10000 5.14 40 16:46 17.02.2021
3294 Clouds -4 1013 54 10000 4.63 50 16:27 17.02.2021
3295 Clouds -4 1012 50 10000 5.66 40 15:44 17.02.2021
3296 Clouds -4 1012 54 10000 5.66 30 15:26 17.02.2021
3297 Clouds -4 1012 50 10000 7.2 40 14:49 17.02.2021
3298 Clouds -3 1012 50 10000 5.66 40 14:29 17.02.2021
3299 Clouds -3 1012 50 10000 6.69 40 13:48 17.02.2021
3300 Clouds -3 1012 50 10000 8.75 30 13:30 17.02.2021
3301 Clouds -4 1012 54 10000 5.66 30 12:49 17.02.2021
3302 Clouds -4 1012 50 10000 5.14 30 12:24 17.02.2021
3303 Clouds -4 1012 50 10000 4.12 10 11:45 17.02.2021
3304 Clouds -4 1012 50 10000 2.57 40 11:25 17.02.2021
3305 Clouds -4 1012 50 10000 0.51 0 10:49 17.02.2021
3306 Clouds -5 1012 54 10000 1.03 0 10:31 17.02.2021
3307 Clouds -5 1012 54 10000 1.03 0 09:56 17.02.2021
3308 Clouds -5 1012 54 10000 1.03 0 09:36 17.02.2021
3309 Clouds -6 1012 63 10000 1.03 0 08:45 17.02.2021
3310 Clouds -8 1012 67 10000 0.51 320 08:23 17.02.2021
3311 Clouds -9 1012 73 10000 2.71 347 07:37 17.02.2021
3312 Clouds -11 1011 67 10000 1.03 0 06:37 17.02.2021
3313 Clouds -9 1010 67 10000 5.14 30 03:52 17.02.2021
3314 Clouds -11 1010 73 10000 4.63 30 02:31 17.02.2021
3315 Clouds -10 1010 79 10000 3.6 30 01:34 17.02.2021
3316 Clouds -11 1011 79 10000 4.12 30 00:25 17.02.2021
3317 Clouds -10 1011 73 10000 4.63 30 23:39 16.02.2021
3318 Clouds -8 1011 67 10000 5.14 20 22:46 16.02.2021
3319 Clouds -8 1011 73 10000 5.14 30 22:26 16.02.2021
3320 Clouds -7 1012 73 10000 4.12 20 21:59 16.02.2021
3321 Clouds -7 1012 73 10000 4.12 20 21:39 16.02.2021
3322 Clouds -7 1012 68 10000 3.09 40 21:21 16.02.2021
3323 Clouds -7 1012 68 10000 4.63 360 20:47 16.02.2021
3324 Clouds -6 1012 73 10000 4.12 10 20:24 16.02.2021
3325 Clouds -6 1012 73 10000 4.12 10 20:24 16.02.2021
3326 Clouds -6 1011 79 10000 4.12 360 19:48 16.02.2021
3327 Clouds -5 1011 86 10000 5.14 30 19:28 16.02.2021
3328 Clouds -6 1012 86 10000 4.63 30 18:50 16.02.2021
3329 Clouds -5 1012 80 10000 4.63 30 18:26 16.02.2021
3330 Clouds -5 1012 80 10000 3.09 70 17:53 16.02.2021
3331 Clouds -5 1011 74 10000 4.63 40 17:27 16.02.2021
3332 Clouds -4 1011 63 10000 5.66 40 16:57 16.02.2021
3333 Clouds -4 1011 63 10000 5.66 40 16:38 16.02.2021
3334 Clouds -3 1011 63 10000 5.66 30 16:19 16.02.2021
3335 Clouds -3 1010 59 10000 7.72 10 15:36 16.02.2021
3336 Clouds -3 1010 59 10000 7.72 10 15:18 16.02.2021
3337 Clouds -3 1010 68 10000 5.66 50 14:40 16.02.2021
3338 Clouds -3 1011 68 10000 6.69 50 14:21 16.02.2021
3339 Snow -3 1010 68 10000 7.72 50 13:46 16.02.2021
3340 Clouds -3 1011 63 10000 8.23 50 12:59 16.02.2021
3341 Clouds -3 1011 63 10000 8.23 50 12:41 16.02.2021
3342 Clouds -3 1011 68 10000 7.2 40 12:19 16.02.2021
3343 Clouds -4 1011 74 10000 7.2 40 11:40 16.02.2021
3344 Clouds -4 1011 74 10000 7.2 40 11:20 16.02.2021
3345 Snow -4 1011 80 10000 7.72 20 10:46 16.02.2021
3346 Snow -4 1012 80 6000 8.23 30 10:27 16.02.2021
3347 Snow -4 1011 80 6000 7.2 40 09:53 16.02.2021
3348 Snow -4 1011 80 6000 6.69 40 09:28 16.02.2021
3349 Snow -4 1011 80 6000 6.69 40 09:28 16.02.2021
3350 Snow -6 1011 86 4000 5.66 30 08:52 16.02.2021
3351 Snow -6 1011 86 4000 6.17 20 08:29 16.02.2021
3352 Snow -6 1011 79 4200 5.14 30 07:54 16.02.2021
3353 Snow -6 1011 79 10000 4.63 20 06:55 16.02.2021
3354 Snow -6 1011 86 2000 8.75 20 02:47 16.02.2021
3355 Snow -5 1012 74 8000 7.2 30 00:23 16.02.2021
3356 Snow -5 1012 80 8000 6.17 30 23:30 15.02.2021
3357 Snow -5 1012 80 8000 6.17 30 23:30 15.02.2021
3358 Snow -5 1012 86 6000 6.17 30 22:51 15.02.2021
3359 Snow -5 1012 86 6000 7.2 40 22:29 15.02.2021
3360 Mist -5 1013 86 4500 6.17 30 21:48 15.02.2021
3361 Snow -5 1013 86 6000 7.72 30 21:25 15.02.2021
3362 Snow -5 1013 93 3800 6.69 20 20:57 15.02.2021
3363 Snow -5 1013 93 3800 6.69 20 20:39 15.02.2021
3364 Snow -5 1013 93 2000 6.69 20 19:51 15.02.2021
3365 Snow -4 1014 86 4300 5.14 20 19:30 15.02.2021
3366 Snow -4 1013 93 3400 5.66 20 18:58 15.02.2021
3367 Snow -4 1014 93 2200 5.14 30 18:29 15.02.2021
3368 Snow -4 1013 93 3500 3.6 10 17:58 15.02.2021
3369 Snow -4 1013 93 3500 3.6 10 17:40 15.02.2021
3370 Snow -4 1013 93 2300 4.63 360 17:21 15.02.2021
3371 Snow -4 1013 93 1200 5.66 10 16:46 15.02.2021
3372 Snow -4 1013 93 1000 5.66 10 16:22 15.02.2021
3373 Snow -3 1013 93 1200 5.66 10 15:44 15.02.2021
3374 Snow -3 1012 93 900 5.14 10 15:20 15.02.2021
3375 Snow -3 1012 93 800 4.63 20 14:49 15.02.2021
3376 Snow -2 1012 86 2200 5.14 10 14:21 15.02.2021
3377 Snow -2 1012 93 1100 6.17 20 13:49 15.02.2021
3378 Snow -2 1012 93 1200 6.17 10 13:27 15.02.2021
3379 Snow -2 1012 93 900 4.63 20 12:52 15.02.2021
3380 Snow -2 1012 93 1100 5.66 30 12:31 15.02.2021
3381 Mist -2 1012 93 1600 5.66 30 11:54 15.02.2021
3382 Snow -2 1012 93 1200 5.66 20 11:27 15.02.2021
3383 Snow -2 1012 93 1700 5.14 20 10:56 15.02.2021
3384 Snow -1 1012 93 1700 5.14 20 10:38 15.02.2021
3385 Snow -1 1013 100 1200 4.12 20 10:20 15.02.2021
3386 Snow -2 1013 93 1600 4.12 10 09:51 15.02.2021
3387 Snow -1 1013 93 3800 3.6 350 09:31 15.02.2021
3388 Snow -1 1013 93 2500 3.6 350 08:23 15.02.2021
3389 Snow -1 1012 100 2500 4.12 10 07:27 15.02.2021
3390 Snow -1 1012 93 1200 5.14 30 06:42 15.02.2021
3391 Snow 0 1012 74 10000 4.63 280 04:41 15.02.2021
3392 Clouds 2 1012 60 10000 6.17 280 02:21 15.02.2021
3393 Clouds 5 1011 56 10000 1.54 320 00:22 15.02.2021
3394 Clouds 5 1011 56 10000 4.12 10 23:29 14.02.2021
3395 Clouds 4 1011 56 10000 2.06 360 22:47 14.02.2021
3396 Clouds 4 1011 56 10000 2.06 360 22:29 14.02.2021
3397 Clouds 6 1011 56 10000 3.09 10 21:53 14.02.2021
3398 Clouds 6 1011 52 10000 3.6 10 21:31 14.02.2021
3399 Clouds 4 1012 52 10000 3.6 10 20:55 14.02.2021
3400 Clouds 6 1012 52 10000 3.09 10 20:31 14.02.2021
3401 Clouds 6 1011 52 10000 4.63 20 19:53 14.02.2021
3402 Clouds 6 1011 52 10000 3.6 10 19:35 14.02.2021
3403 Clouds 6 1012 48 10000 4.63 10 18:43 14.02.2021
3404 Clouds 6 1012 48 10000 4.12 10 18:24 14.02.2021
3405 Clouds 7 1012 48 10000 5.66 10 17:45 14.02.2021
3406 Clouds 7 1012 48 10000 5.14 30 17:25 14.02.2021
3407 Clouds 7 1012 48 10000 5.14 30 16:40 14.02.2021
3408 Clouds 7 1012 45 10000 4.63 20 16:20 14.02.2021
3409 Clouds 8 1012 39 10000 2.06 20 15:44 14.02.2021
3410 Clouds 8 1013 39 10000 2.06 50 14:59 14.02.2021
3411 Clouds 8 1013 39 10000 2.06 50 14:32 14.02.2021
3412 Clouds 8 1014 39 10000 1.03 0 13:57 14.02.2021
3413 Clouds 8 1014 36 10000 1.03 0 13:32 14.02.2021
3414 Clouds 7 1014 39 10000 2.06 30 12:49 14.02.2021
3415 Rain 7 1015 39 10000 2.57 30 12:22 14.02.2021
3416 Clouds 7 1015 39 10000 2.57 340 11:51 14.02.2021
3417 Clouds 6 1015 38 10000 3.09 20 11:25 14.02.2021
3418 Clouds 6 1016 38 10000 4.12 10 10:53 14.02.2021
3419 Clouds 4 1016 44 10000 3.6 20 09:58 14.02.2021
3420 Clouds 4 1016 44 10000 3.6 20 09:39 14.02.2021
3421 Clouds 4 1016 44 10000 4.63 20 09:21 14.02.2021
3422 Clouds 3 1016 44 10000 4.63 30 08:43 14.02.2021
3423 Clouds 2 1017 47 10000 4.12 20 07:58 14.02.2021
3424 Clouds 1 1017 47 10000 4.63 20 06:54 14.02.2021
3425 Clouds 1 1017 64 10000 0.51 0 05:43 14.02.2021
3426 Clouds 0 1017 64 10000 2.06 330 03:33 14.02.2021
3427 Clouds 0 1018 69 10000 1.03 0 02:29 14.02.2021
3428 Clouds 1 1019 59 10000 0.51 30 00:49 14.02.2021
3429 Clouds 1 1019 55 10000 1.54 40 00:31 14.02.2021
3430 Clouds 1 1020 51 10000 1.54 120 23:42 13.02.2021
3431 Clouds 1 1020 55 10000 1.54 40 23:21 13.02.2021
3432 Clouds 1 1020 55 10000 1.03 0 22:44 13.02.2021
3433 Clouds 1 1020 51 10000 1.03 0 22:20 13.02.2021
3434 Snow 1 1020 55 10000 2.06 10 21:43 13.02.2021
3435 Clouds 1 1020 64 10000 1.03 0 21:22 13.02.2021
3436 Clouds 1 1020 55 10000 1.03 0 20:30 13.02.2021
3437 Clouds 1 1020 43 10000 2.06 110 19:58 13.02.2021
3438 Clouds 1 1020 43 10000 2.06 110 19:39 13.02.2021
3439 Clouds 1 1020 43 10000 1.54 90 19:21 13.02.2021
3440 Clouds 2 1020 43 10000 1.03 0 18:44 13.02.2021
3441 Clouds 1 1020 43 10000 1.54 290 18:22 13.02.2021
3442 Clouds 2 1020 47 10000 2.57 310 17:42 13.02.2021
3443 Clouds 2 1020 41 10000 2.06 220 17:22 13.02.2021
3444 Clouds 2 1020 41 10000 2.57 220 16:44 13.02.2021
3445 Clouds 3 1019 33 10000 4.12 230 16:26 13.02.2021
3446 Clouds 4 1019 30 10000 4.12 240 15:40 13.02.2021
3447 Clouds 4 1019 24 10000 4.63 220 14:58 13.02.2021
3448 Clouds 4 1019 24 10000 4.63 220 14:32 13.02.2021
3449 Clouds 4 1020 33 10000 4.12 220 13:48 13.02.2021
3450 Clouds 4 1020 35 10000 4.12 230 13:25 13.02.2021
3451 Clouds 3 1020 38 10000 4.63 210 12:46 13.02.2021
3452 Clouds 3 1020 38 10000 4.63 210 12:19 13.02.2021
3453 Clouds 2 1021 44 10000 4.63 210 11:45 13.02.2021
3454 Clouds 2 1021 44 10000 4.12 220 11:20 13.02.2021
3455 Clouds 1 1021 47 10000 4.12 230 10:46 13.02.2021
3456 Clouds 1 1021 51 10000 1.03 130 10:26 13.02.2021
3457 Clouds 1 1021 64 10000 2.06 160 09:56 13.02.2021
3458 Clouds 0 1021 64 10000 2.06 0 09:30 13.02.2021
3459 Clouds -1 1021 64 10000 1.03 0 08:59 13.02.2021
3460 Clouds -1 1021 64 10000 1.03 0 08:39 13.02.2021
3461 Clouds -3 1021 63 10000 2.06 280 07:52 13.02.2021
3462 Clouds -4 1020 80 10000 1.54 210 06:41 13.02.2021
3463 Clouds -4 1020 80 10000 0.51 220 05:27 13.02.2021
3464 Clouds -3 1019 86 10000 0.51 0 03:58 13.02.2021
3465 Clouds -3 1018 80 10000 2.57 260 01:49 13.02.2021
3466 Clouds -2 1018 74 10000 1.03 0 00:42 13.02.2021
3467 Clouds -1 1018 80 10000 1.54 270 23:54 12.02.2021
3468 Clouds -1 1018 74 10000 1.03 0 23:26 12.02.2021
3469 Clouds -1 1017 74 10000 2.06 260 22:45 12.02.2021
3470 Clouds -1 1017 69 10000 3.09 280 22:26 12.02.2021
3471 Clouds 0 1017 59 10000 4.12 240 21:50 12.02.2021
3472 Clouds 0 1016 59 10000 2.57 220 21:29 12.02.2021
3473 Clouds 0 1016 69 10000 2.06 240 20:49 12.02.2021
3474 Clouds 1 1016 64 10000 1.54 250 20:30 12.02.2021
3475 Clouds 1 1015 64 10000 4.12 270 19:58 12.02.2021
3476 Clouds 1 1015 64 10000 4.12 270 19:38 12.02.2021
3477 Clouds 2 1015 69 10000 3.6 270 18:58 12.02.2021
3478 Clouds 2 1015 65 10000 4.12 260 18:30 12.02.2021
3479 Clouds 3 1014 65 10000 4.63 250 17:47 12.02.2021
3480 Clouds 4 1014 65 10000 6.17 240 17:22 12.02.2021
3481 Clouds 4 1013 60 10000 5.66 240 16:35 12.02.2021
3482 Clouds 5 1012 61 10000 6.17 270 15:47 12.02.2021
3483 Clouds 5 1012 61 10000 8.75 260 15:21 12.02.2021
3484 Clouds 6 1012 61 10000 7.2 260 14:43 12.02.2021
3485 Clouds 7 1011 57 10000 9.26 270 14:24 12.02.2021
3486 Clouds 8 1011 66 10000 8.23 260 13:41 12.02.2021
3487 Clouds 9 1010 61 10000 8.23 260 13:22 12.02.2021
3488 Clouds 10 1010 50 10000 9.77 220 12:49 12.02.2021
3489 Clouds 10 1010 53 10000 10.29 230 12:30 12.02.2021
3490 Clouds 9 1010 53 10000 10.8 220 11:42 12.02.2021
3491 Clouds 10 1010 50 10000 11.32 230 11:20 12.02.2021
3492 Clouds 10 1011 53 10000 10.8 230 10:44 12.02.2021
3493 Clouds 9 1011 57 10000 9.26 230 09:49 12.02.2021
3494 Clouds 9 1011 57 10000 9.77 210 09:29 12.02.2021
3495 Clouds 9 1011 53 10000 10.29 220 08:51 12.02.2021
3496 Clouds 9 1011 57 10000 4.63 200 08:29 12.02.2021
3497 Clouds 8 1011 61 10000 7.72 220 07:57 12.02.2021
3498 Clouds 8 1011 61 10000 7.72 220 07:35 12.02.2021
3499 Clouds 8 1010 57 10000 4.12 200 06:55 12.02.2021
3500 Clouds 7 1010 61 10000 4.12 190 05:48 12.02.2021
3501 Clouds 7 1010 61 10000 5.14 190 04:32 12.02.2021
3502 Clouds 8 1011 53 10000 3.09 200 01:35 12.02.2021
3503 Clouds 7 1011 61 10000 3.09 160 23:41 11.02.2021
3504 Clouds 5 1011 70 10000 0.51 0 23:22 11.02.2021
3505 Clouds 3 1011 81 10000 1.03 320 22:47 11.02.2021
3506 Clouds 5 1011 70 10000 1.03 0 22:25 11.02.2021
3507 Clouds 5 1011 70 10000 1.03 0 21:59 11.02.2021
3508 Clouds 5 1011 70 10000 1.03 0 21:38 11.02.2021
3509 Clouds 5 1012 70 10000 1.54 20 21:18 11.02.2021
3510 Clouds 7 1012 65 10000 2.06 40 20:42 11.02.2021
3511 Clouds 7 1012 61 10000 2.57 40 20:22 11.02.2021
3512 Clouds 8 1012 61 10000 2.57 30 19:48 11.02.2021
3513 Clouds 7 1012 61 10000 3.6 20 19:28 11.02.2021
3514 Clouds 8 1012 57 10000 1.54 250 18:53 11.02.2021
3515 Clouds 12 1012 40 10000 2.57 210 18:28 11.02.2021
3516 Clouds 12 1013 40 10000 2.06 190 17:53 11.02.2021
3517 Clouds 13 1013 38 10000 2.57 200 17:22 11.02.2021
3518 Clouds 14 1013 35 10000 3.6 200 16:57 11.02.2021
3519 Clouds 14 1013 35 10000 3.6 200 16:39 11.02.2021
3520 Clouds 16 1013 33 10000 2.57 180 16:20 11.02.2021
3521 Clouds 16 1013 31 10000 2.57 200 15:41 11.02.2021
3522 Clouds 16 1013 29 10000 4.63 200 15:23 11.02.2021
3523 Clouds 16 1013 29 10000 4.63 190 14:44 11.02.2021
3524 Clouds 17 1013 31 10000 4.63 190 14:25 11.02.2021
3525 Clouds 17 1014 31 10000 3.6 200 13:38 11.02.2021
3526 Clouds 16 1014 36 10000 1.54 0 13:19 11.02.2021
3527 Clouds 16 1015 36 10000 4.12 210 12:44 11.02.2021
3528 Clear 14 1016 44 10000 2.06 0 12:21 11.02.2021
3529 Clear 14 1016 44 10000 2.06 0 11:42 11.02.2021
3530 Clear 14 1016 44 10000 2.06 0 11:20 11.02.2021
3531 Clear 12 1017 50 10000 1.03 0 10:44 11.02.2021
3532 Clear 12 1017 50 10000 1.03 0 10:25 11.02.2021
3533 Clear 11 1018 62 10000 0.51 200 09:45 11.02.2021
3534 Clear 10 1018 62 10000 0.51 200 09:19 11.02.2021
3535 Clear 7 1018 81 10000 1.5 158 08:50 11.02.2021
3536 Clear 7 1018 81 10000 1.07 139 08:18 11.02.2021
3537 Clear 2 1018 93 10000 1.13 129 06:51 11.02.2021
3538 Clear -2 1018 93 10000 1.13 129 06:32 11.02.2021
3539 Clear -1 1018 93 10000 1.03 0 04:55 11.02.2021
3540 Clear 3 1018 93 10000 1.7 165 02:28 11.02.2021
3541 Clear 5 1018 81 10000 1.03 0 00:46 11.02.2021
3542 Clear 5 1018 81 10000 1.03 0 00:19 11.02.2021
3543 Clear 5 1018 87 10000 1.8 168 23:39 10.02.2021
3544 Clear 6 1018 75 10000 1.03 0 22:51 10.02.2021
3545 Clear 6 1018 75 10000 1.03 0 22:27 10.02.2021
3546 Clear 6 1018 75 10000 2.06 70 21:57 10.02.2021
3547 Clear 6 1018 75 10000 2.06 70 21:37 10.02.2021
3548 Clear 7 1018 75 10000 2.06 70 21:19 10.02.2021
3549 Clear 8 1018 70 10000 2.64 210 20:40 10.02.2021
3550 Clear 8 1018 70 10000 2.88 208 20:22 10.02.2021
3551 Clear 8 1018 66 10000 2.88 208 19:44 10.02.2021
3552 Clear 8 1018 66 10000 2.41 201 19:23 10.02.2021
3553 Clouds 9 1018 61 10000 2.45 203 18:40 10.02.2021
3554 Clouds 10 1018 61 10000 2.36 213 18:21 10.02.2021
3555 Clouds 10 1017 61 10000 2.57 270 17:50 10.02.2021
3556 Clouds 10 1017 61 10000 2.57 270 17:23 10.02.2021
3557 Clouds 11 1017 50 10000 6.17 250 16:52 10.02.2021
3558 Clouds 12 1017 50 10000 6.17 250 16:29 10.02.2021
3559 Clouds 13 1016 47 10000 7.2 260 15:47 10.02.2021
3560 Clouds 13 1016 47 10000 7.2 260 15:22 10.02.2021
3561 Clouds 13 1016 54 10000 6.69 260 14:42 10.02.2021
3562 Clouds 13 1016 54 10000 6.69 260 14:21 10.02.2021
3563 Clouds 12 1016 58 10000 7.2 250 13:50 10.02.2021
3564 Clouds 12 1016 58 10000 7.2 250 13:27 10.02.2021
3565 Clouds 11 1016 58 10000 8.23 250 12:48 10.02.2021
3566 Clouds 11 1016 58 10000 8.23 250 12:29 10.02.2021
3567 Clouds 10 1017 71 10000 7.72 240 11:47 10.02.2021
3568 Clouds 9 1017 71 10000 7.72 240 11:29 10.02.2021
3569 Rain 10 1017 66 10000 11.83 260 10:49 10.02.2021
3570 Rain 11 1016 50 10000 7.72 240 10:20 10.02.2021
3571 Clouds 12 1015 47 10000 6.69 240 09:43 10.02.2021
3572 Clouds 12 1015 47 10000 6.69 240 09:22 10.02.2021
3573 Clouds 7 1016 71 10000 1.03 240 08:50 10.02.2021
3574 Clouds 9 1016 71 10000 1.03 240 08:29 10.02.2021
3575 Rain 6 1016 81 10000 0.51 0 07:19 10.02.2021
3576 Clear 4 1015 81 10000 1.54 0 04:47 10.02.2021
3577 Clear 8 1016 65 10000 1.54 80 00:51 10.02.2021
3578 Clear 8 1016 61 10000 1.54 0 23:40 09.02.2021
3579 Clear 8 1016 61 10000 1.54 0 23:19 09.02.2021
3580 Clear 8 1016 57 10000 2.06 100 22:41 09.02.2021
3581 Clear 8 1016 57 10000 2.06 100 22:23 09.02.2021
3582 Clouds 10 1016 57 10000 1.54 190 21:40 09.02.2021
3583 Clouds 10 1016 61 10000 4.12 190 21:19 09.02.2021
3584 Clouds 8 1016 61 10000 4.12 190 20:41 09.02.2021
3585 Clear 11 1016 47 10000 2.07 181 20:23 09.02.2021
3586 Clear 11 1016 47 10000 2.07 181 19:40 09.02.2021
3587 Clear 12 1016 47 10000 2.64 181 19:21 09.02.2021
3588 Clear 10 1016 50 10000 1.54 270 18:42 09.02.2021
3589 Clear 11 1016 50 10000 1.54 270 18:21 09.02.2021
3590 Clear 13 1016 44 10000 1.03 0 17:45 09.02.2021
3591 Clear 12 1016 44 10000 1.03 0 17:25 09.02.2021
3592 Clouds 15 1016 36 10000 4.63 240 16:50 09.02.2021
3593 Clouds 15 1016 36 10000 4.63 240 16:19 09.02.2021
3594 Clouds 16 1016 34 10000 6.69 240 15:50 09.02.2021
3595 Clouds 16 1016 34 10000 6.69 240 15:28 09.02.2021
3596 Clouds 16 1016 36 10000 5.66 240 14:57 09.02.2021
3597 Clouds 16 1016 36 10000 5.66 240 14:29 09.02.2021
3598 Clouds 16 1017 36 10000 6.69 220 13:55 09.02.2021
3599 Clouds 16 1017 36 10000 6.69 220 13:29 09.02.2021
3600 Clouds 16 1017 38 10000 8.23 240 12:59 09.02.2021
3601 Clouds 16 1017 38 10000 8.23 240 12:40 09.02.2021
3602 Clouds 16 1017 38 10000 8.23 240 12:21 09.02.2021
3603 Clouds 15 1018 38 10000 7.72 240 11:43 09.02.2021
3604 Clouds 15 1018 38 10000 7.72 240 11:21 09.02.2021
3605 Clouds 15 1018 38 10000 7.72 240 11:21 09.02.2021
3606 Clouds 14 1018 44 10000 7.72 240 10:55 09.02.2021
3607 Clouds 14 1018 44 10000 7.72 240 10:20 09.02.2021
3608 Clouds 14 1018 47 10000 8.75 240 09:44 09.02.2021
3609 Clouds 13 1018 47 10000 8.75 240 09:26 09.02.2021
3610 Clouds 13 1018 47 10000 5.66 230 08:52 09.02.2021
3611 Clouds 13 1018 47 10000 5.66 230 08:27 09.02.2021
3612 Clouds 10 1017 66 10000 1.54 190 07:36 09.02.2021
3613 Clouds 9 1015 62 10000 4.63 220 04:59 09.02.2021
3614 Clouds 10 1015 57 10000 2.57 250 03:42 09.02.2021
3615 Clear 10 1015 50 10000 3.09 200 01:20 09.02.2021
3616 Clear 11 1015 50 10000 4.63 210 23:58 08.02.2021
3617 Clear 11 1015 50 10000 4.63 210 23:22 08.02.2021
3618 Clear 11 1014 40 10000 3.6 200 22:46 08.02.2021
3619 Clear 11 1014 40 10000 3.6 200 22:26 08.02.2021
3620 Clear 12 1014 35 10000 4.12 200 21:58 08.02.2021
3621 Clear 12 1014 35 10000 4.12 200 21:38 08.02.2021
3622 Clear 12 1014 35 10000 4.12 200 21:18 08.02.2021
3623 Clouds 12 1014 33 10000 5.66 240 20:42 08.02.2021
3624 Clouds 12 1014 33 10000 5.66 240 20:22 08.02.2021
3625 Clouds 12 1014 30 10000 2.06 0 19:49 08.02.2021
3626 Clouds 12 1014 30 10000 2.06 0 19:26 08.02.2021
3627 Clouds 12 1015 38 10000 1.03 0 18:49 08.02.2021
3628 Clouds 12 1015 38 10000 1.03 0 18:25 08.02.2021
3629 Clouds 9 1014 53 10000 2.06 310 17:47 08.02.2021
3630 Clouds 14 1014 23 10000 6.17 200 17:26 08.02.2021
3631 Clouds 15 1014 23 10000 6.17 200 16:57 08.02.2021
3632 Clouds 15 1014 23 10000 6.17 200 16:39 08.02.2021
3633 Clouds 15 1014 23 10000 6.17 200 16:18 08.02.2021
3634 Clouds 15 1014 31 10000 0.51 0 15:37 08.02.2021
3635 Clouds 15 1014 31 10000 0.51 0 15:18 08.02.2021
3636 Clouds 14 1015 41 10000 1.03 0 14:48 08.02.2021
3637 Clouds 15 1015 41 10000 1.03 0 14:28 08.02.2021
3638 Clouds 15 1015 44 10000 2.06 100 13:46 08.02.2021
3639 Clouds 15 1015 44 10000 2.06 100 13:27 08.02.2021
3640 Rain 14 1017 44 10000 2.06 250 12:39 08.02.2021
3641 Rain 13 1018 50 6000 2.06 250 11:58 08.02.2021
3642 Clouds 13 1018 50 6000 2.06 250 11:35 08.02.2021
3643 Clouds 12 1019 62 10000 2.06 260 10:46 08.02.2021
3644 Clouds 12 1019 66 10000 1.03 0 10:26 08.02.2021
3645 Clouds 11 1019 66 10000 1.03 0 09:56 08.02.2021
3646 Clouds 11 1019 66 10000 1.03 0 09:36 08.02.2021
3647 Clouds 11 1019 66 10000 1.03 0 09:36 08.02.2021
3648 Clouds 9 1018 65 10000 1.54 0 08:55 08.02.2021
3649 Clouds 9 1018 65 10000 1.54 0 08:26 08.02.2021
3650 Clear 7 1018 87 10000 0.51 0 07:42 08.02.2021
3651 Clear 2 1018 86 10000 1.03 0 06:38 08.02.2021
3652 Clear 1 1018 87 10000 0.51 0 05:18 08.02.2021
3653 Clear 3 1017 81 10000 1.54 100 02:26 08.02.2021
3654 Clear 3 1017 81 10000 2.22 215 00:25 08.02.2021
3655 Clear 3 1017 81 10000 0.51 0 23:54 07.02.2021
3656 Clear 4 1017 81 10000 0.51 0 23:28 07.02.2021
3657 Clear 4 1017 81 10000 0.51 0 22:57 07.02.2021
3658 Clear 4 1017 81 10000 0.51 0 22:38 07.02.2021
3659 Clear 4 1017 81 10000 0.51 0 22:20 07.02.2021
3660 Clear 5 1017 81 10000 2.41 199 21:49 07.02.2021
3661 Clear 4 1017 81 10000 2.79 204 21:24 07.02.2021
3662 Clear 4 1017 81 10000 2.79 204 21:24 07.02.2021
3663 Clear 7 1017 70 10000 1.03 0 20:50 07.02.2021
3664 Clear 8 1017 70 10000 1.03 0 20:29 07.02.2021
3665 Clear 8 1017 70 10000 0.51 0 19:49 07.02.2021
3666 Clear 8 1017 70 10000 0.51 0 19:29 07.02.2021
3667 Clear 8 1017 57 10000 1.03 0 18:48 07.02.2021
3668 Clear 8 1017 57 10000 1.03 0 18:27 07.02.2021
3669 Clear 10 1017 57 10000 1.54 110 17:58 07.02.2021
3670 Clear 10 1017 57 10000 1.54 110 17:39 07.02.2021
3671 Clear 11 1017 57 10000 1.54 110 17:18 07.02.2021
3672 Clear 14 1017 38 10000 1.03 250 16:42 07.02.2021
3673 Clear 15 1017 38 10000 1.03 250 16:21 07.02.2021
3674 Clear 15 1017 38 10000 2.57 280 15:44 07.02.2021
3675 Clear 15 1017 38 10000 2.57 280 15:22 07.02.2021
3676 Clear 15 1017 36 10000 2.57 270 14:46 07.02.2021
3677 Clear 15 1017 36 10000 2.57 270 14:26 07.02.2021
3678 Clear 15 1017 33 10000 4.63 260 13:50 07.02.2021
3679 Clear 15 1017 33 10000 4.63 260 13:30 07.02.2021
3680 Clear 15 1018 41 10000 1.54 10 12:42 07.02.2021
3681 Clear 15 1018 41 10000 1.54 10 12:22 07.02.2021
3682 Clear 14 1019 44 10000 2.06 260 11:46 07.02.2021
3683 Clear 14 1019 44 10000 2.06 260 11:46 07.02.2021
3684 Clear 14 1019 44 10000 2.06 260 11:26 07.02.2021
3685 Clear 12 1019 50 10000 1.03 0 10:44 07.02.2021
3686 Clear 12 1019 50 10000 1.03 0 10:23 07.02.2021
3687 Clear 10 1019 57 10000 2.95 248 09:44 07.02.2021
3688 Clear 10 1019 57 10000 1.95 239 09:21 07.02.2021
3689 Clear 6 1019 81 10000 1.37 206 08:22 07.02.2021
3690 Clear -2 1018 93 10000 0.51 0 06:34 07.02.2021
3691 Clear -2 1018 93 10000 1.25 219 05:57 07.02.2021
3692 Clear -1 1017 86 10000 1.25 211 03:50 07.02.2021
3693 Clear 0 1018 86 10000 1.73 211 01:24 07.02.2021
3694 Clear 4 1018 86 10000 1.67 211 00:32 07.02.2021
3695 Clear 2 1018 87 10000 1.48 227 23:44 06.02.2021
3696 Clear 3 1018 81 10000 1.58 219 22:40 06.02.2021
3697 Clear 3 1018 81 10000 1.66 207 21:39 06.02.2021
3698 Clear 4 1018 81 10000 1.38 215 21:21 06.02.2021
3699 Clear 4 1018 81 10000 1.38 215 20:50 06.02.2021
3700 Clear 6 1018 81 10000 1.34 212 20:25 06.02.2021
3701 Clear 7 1018 70 10000 1.03 0 19:56 06.02.2021
3702 Clear 6 1018 70 10000 1.03 0 19:30 06.02.2021
3703 Clear 7 1018 70 10000 1.34 202 18:47 06.02.2021
3704 Clear 7 1018 70 10000 1.21 216 18:28 06.02.2021
3705 Clear 10 1018 54 10000 1.03 0 17:46 06.02.2021
3706 Clear 10 1018 54 10000 1.03 0 17:22 06.02.2021
3707 Clear 13 1017 47 10000 3.09 260 16:59 06.02.2021
3708 Clear 13 1017 47 10000 3.09 260 16:37 06.02.2021
3709 Clear 13 1017 47 10000 3.09 260 16:19 06.02.2021
3710 Clear 14 1017 41 10000 4.12 260 15:41 06.02.2021
3711 Clear 15 1017 41 10000 4.12 260 15:20 06.02.2021
3712 Clear 15 1017 41 10000 4.63 270 14:45 06.02.2021
3713 Clear 15 1017 41 10000 4.63 270 14:24 06.02.2021
3714 Clear 15 1018 41 10000 3.6 270 13:48 06.02.2021
3715 Clear 14 1018 50 10000 3.09 280 12:57 06.02.2021
3716 Clear 13 1018 50 10000 3.09 280 12:21 06.02.2021
3717 Clear 12 1019 54 10000 2.06 280 11:47 06.02.2021
3718 Clear 12 1019 54 10000 2.06 280 11:22 06.02.2021
3719 Clear 11 1020 61 10000 1.54 270 10:57 06.02.2021
3720 Clear 10 1020 61 10000 1.54 270 10:30 06.02.2021
3721 Clear 8 1020 65 10000 0.51 0 09:58 06.02.2021
3722 Clear 8 1020 65 10000 0.51 0 09:37 06.02.2021
3723 Clear 8 1020 65 10000 0.51 0 09:18 06.02.2021
3724 Clear 5 1021 75 10000 1.7 225 08:33 06.02.2021
3725 Clouds 3 1020 93 7000 1.11 203 07:59 06.02.2021
3726 Clear -2 1020 93 10000 0.69 192 05:44 06.02.2021
3727 Clear -1 1020 93 10000 1.03 200 03:58 06.02.2021
3728 Clear -1 1021 93 10000 0.96 204 01:58 06.02.2021
3729 Clear 0 1021 86 10000 1.09 215 00:48 06.02.2021
3730 Clear 3 1021 86 10000 1.27 216 00:19 06.02.2021
3731 Clear 0 1021 86 10000 0.51 120 23:43 05.02.2021
3732 Clear 3 1021 86 10000 0.51 120 23:24 05.02.2021
3733 Clear 4 1021 75 10000 1.03 0 22:47 05.02.2021
3734 Clear 4 1021 75 10000 1.03 0 22:20 05.02.2021
3735 Clear 5 1021 70 10000 1.54 90 21:45 05.02.2021
3736 Clear 5 1021 70 10000 1.54 90 21:26 05.02.2021
3737 Clear 6 1021 75 10000 1.03 0 20:45 05.02.2021
3738 Clear 5 1021 70 10000 1.03 0 19:52 05.02.2021
3739 Clear 6 1021 70 10000 1.03 0 19:19 05.02.2021
3740 Clear 6 1021 70 10000 1.03 0 19:19 05.02.2021
3741 Clear 6 1021 65 10000 0.8 209 18:53 05.02.2021
3742 Clear 6 1021 65 10000 0.85 232 18:23 05.02.2021
3743 Clear 9 1020 53 10000 0.51 0 17:44 05.02.2021
3744 Clear 9 1020 53 10000 0.51 0 17:22 05.02.2021
3745 Clear 11 1020 43 10000 3.6 260 16:49 05.02.2021
3746 Clear 11 1020 43 10000 3.6 260 16:24 05.02.2021
3747 Clouds 12 1020 44 10000 3.6 250 15:54 05.02.2021
3748 Clouds 13 1020 44 10000 3.6 250 15:26 05.02.2021
3749 Clouds 13 1020 44 10000 4.12 260 14:41 05.02.2021
3750 Clouds 13 1020 44 10000 4.12 260 14:23 05.02.2021
3751 Clouds 13 1020 44 10000 4.12 260 14:23 05.02.2021
3752 Clouds 12 1020 47 10000 4.12 270 13:59 05.02.2021
3753 Clouds 12 1020 47 10000 4.12 270 13:36 05.02.2021
3754 Clouds 12 1020 44 10000 4.12 240 12:55 05.02.2021
3755 Clouds 12 1020 44 10000 4.12 240 12:36 05.02.2021
3756 Clouds 11 1021 50 10000 4.12 270 11:41 05.02.2021
3757 Clouds 11 1021 50 10000 4.12 270 11:21 05.02.2021
3758 Clouds 11 1022 57 10000 3.6 280 10:58 05.02.2021
3759 Clouds 10 1022 57 10000 3.6 280 10:27 05.02.2021
3760 Clouds 9 1021 66 10000 1.03 0 09:48 05.02.2021
3761 Clouds 9 1021 66 10000 1.03 0 09:28 05.02.2021
3762 Clouds 8 1022 81 6000 1.54 60 08:58 05.02.2021
3763 Clouds 6 1021 93 7000 0.51 0 08:23 05.02.2021
3764 Clouds 6 1020 87 8000 2.06 140 07:37 05.02.2021
3765 Mist 5 1020 86 4500 0.51 0 06:54 05.02.2021
3766 Clouds 1 1019 93 6000 1.03 0 05:38 05.02.2021
3767 Clouds 2 1018 87 8000 1.54 10 03:22 05.02.2021
3768 Clouds 5 1017 81 10000 1.54 180 02:24 05.02.2021
3769 Clouds 6 1017 81 10000 1.95 275 00:41 05.02.2021
3770 Clouds 6 1017 81 10000 1.95 275 00:41 05.02.2021
3771 Clouds 7 1017 81 10000 0.51 0 00:20 05.02.2021
3772 Clouds 6 1016 81 10000 1.54 280 23:58 04.02.2021
3773 Clouds 6 1016 81 10000 1.54 280 23:39 04.02.2021
3774 Clouds 7 1016 81 10000 1.54 240 23:20 04.02.2021
3775 Clouds 7 1016 81 10000 1.03 0 22:51 04.02.2021
3776 Clouds 7 1016 81 10000 2.06 270 22:27 04.02.2021
3777 Clouds 7 1016 81 10000 1.99 239 21:42 04.02.2021
3778 Clear 5 1016 87 10000 0.51 0 21:20 04.02.2021
3779 Clear 5 1016 87 10000 0.51 0 20:52 04.02.2021
3780 Clear 5 1016 87 10000 0.51 0 20:34 04.02.2021
3781 Clear 6 1016 75 10000 0.51 0 19:45 04.02.2021
3782 Clear 9 1016 71 10000 0.51 0 18:57 04.02.2021
3783 Clear 9 1016 71 10000 0.51 0 18:26 04.02.2021
3784 Clear 10 1016 58 10000 2.06 220 17:56 04.02.2021
3785 Clear 10 1016 58 10000 2.06 220 17:37 04.02.2021
3786 Clear 10 1016 58 10000 2.06 220 17:18 04.02.2021
3787 Clear 12 1015 54 10000 3.6 270 16:41 04.02.2021
3788 Clear 12 1015 54 10000 3.6 270 16:18 04.02.2021
3789 Clouds 14 1015 51 10000 4.12 270 15:40 04.02.2021
3790 Clouds 14 1015 51 10000 4.12 270 15:20 04.02.2021
3791 Clouds 14 1015 51 10000 4.12 270 15:20 04.02.2021
3792 Clouds 14 1015 41 10000 4.63 270 14:48 04.02.2021
3793 Clouds 15 1015 41 10000 4.63 270 14:21 04.02.2021
3794 Clouds 15 1016 54 10000 2.57 280 13:45 04.02.2021
3795 Clouds 14 1016 54 10000 2.57 280 13:26 04.02.2021
3796 Clouds 13 1017 54 10000 3.09 280 12:54 04.02.2021
3797 Clear 13 1017 58 10000 2.57 290 11:57 04.02.2021
3798 Clear 12 1017 58 10000 2.57 290 11:37 04.02.2021
3799 Clear 12 1017 58 10000 2.57 290 11:18 04.02.2021
3800 Clear 11 1018 54 10000 0.51 0 10:34 04.02.2021
3801 Clear 10 1019 66 10000 0.51 0 09:45 04.02.2021
3802 Clear 9 1019 66 10000 0.51 0 09:23 04.02.2021
3803 Clear 8 1019 87 10000 1.03 0 08:57 04.02.2021
3804 Clear 7 1019 87 10000 1.03 0 08:26 04.02.2021
3805 Clear 4 1019 93 10000 0.51 0 07:57 04.02.2021
3806 Clear 4 1019 93 10000 0.51 0 07:34 04.02.2021
3807 Clear 2 1018 93 10000 0.35 144 06:52 04.02.2021
3808 Clear 0 1018 93 10000 0.35 144 06:34 04.02.2021
3809 Clear 3 1018 86 10000 1.03 0 02:40 04.02.2021
3810 Clear 3 1018 86 10000 1.03 0 02:21 04.02.2021
3811 Clear 4 1018 87 10000 1.03 0 00:24 04.02.2021
3812 Clear 2 1018 87 10000 0.3 54 23:34 03.02.2021
3813 Clear 5 1018 81 10000 1.54 100 22:40 03.02.2021
3814 Clear 6 1018 81 10000 1.54 100 22:21 03.02.2021
3815 Clear 6 1018 81 10000 1.54 100 22:21 03.02.2021
3816 Clear 5 1018 87 10000 0.51 0 21:51 03.02.2021
3817 Clear 6 1018 87 10000 0.51 0 21:24 03.02.2021
3818 Clear 5 1018 81 10000 0.08 61 20:54 03.02.2021
3819 Clear 5 1018 81 10000 0.08 61 20:35 03.02.2021
3820 Clear 6 1018 71 10000 0.51 0 19:56 03.02.2021
3821 Clear 8 1018 71 10000 0.51 0 19:27 03.02.2021
3822 Clear 8 1018 66 10000 0.51 0 18:58 03.02.2021
3823 Clear 8 1018 66 10000 0.51 0 18:39 03.02.2021
3824 Clear 9 1018 66 10000 0.51 0 18:19 03.02.2021
3825 Clear 9 1018 62 10000 0.77 127 17:46 03.02.2021
3826 Clear 10 1018 62 10000 0.98 121 17:26 03.02.2021
3827 Clear 13 1017 47 10000 1.54 250 16:43 03.02.2021
3828 Clear 13 1017 47 10000 1.54 250 16:23 03.02.2021
3829 Clear 14 1017 41 10000 2.06 300 15:41 03.02.2021
3830 Clear 14 1017 41 10000 2.06 300 15:41 03.02.2021
3831 Clear 14 1017 41 10000 2.06 300 15:22 03.02.2021
3832 Clear 15 1017 41 10000 1.03 0 14:47 03.02.2021
3833 Clear 15 1017 41 10000 1.03 0 14:24 03.02.2021
3834 Clear 15 1017 41 10000 1.54 0 13:48 03.02.2021
3835 Clear 15 1017 41 10000 1.54 0 13:21 03.02.2021
3836 Clear 14 1018 47 10000 1.54 10 12:46 03.02.2021
3837 Clear 14 1018 47 10000 1.54 10 12:21 03.02.2021
3838 Clear 13 1019 47 10000 1.03 50 11:43 03.02.2021
3839 Clear 13 1019 47 10000 1.03 50 11:24 03.02.2021
3840 Clear 11 1019 54 10000 2.06 90 10:45 03.02.2021
3841 Clear 11 1019 54 10000 2.06 90 10:21 03.02.2021
3842 Clear 9 1020 61 10000 1.03 0 09:46 03.02.2021
3843 Clear 9 1020 61 10000 1.03 0 09:27 03.02.2021
3844 Clear 7 1020 70 10000 1.03 0 08:49 03.02.2021
3845 Clouds 3 1020 93 8000 2.57 120 07:59 03.02.2021
3846 Clouds 3 1020 93 8000 2.57 120 07:32 03.02.2021
3847 Clouds 2 1019 93 8000 0.51 0 06:38 03.02.2021
3848 Clear 3 1019 87 10000 1.54 290 04:51 03.02.2021
3849 Clear 3 1019 87 10000 1.54 290 04:27 03.02.2021
3850 Clear 4 1019 93 10000 0.51 0 02:43 03.02.2021
3851 Clear 5 1019 81 10000 1.03 0 01:58 03.02.2021
3852 Clear 6 1019 75 10000 1.03 40 00:27 03.02.2021
3853 Clear 4 1019 75 10000 1.03 40 23:47 02.02.2021
3854 Clear 6 1019 75 10000 1.03 40 23:28 02.02.2021
3855 Clear 7 1019 66 10000 3.09 100 22:54 02.02.2021
3856 Clear 7 1019 66 10000 3.09 100 22:22 02.02.2021
3857 Clear 8 1019 61 10000 3.09 90 21:54 02.02.2021
3858 Clear 8 1019 61 10000 3.09 90 21:29 02.02.2021
3859 Clear 8 1019 57 10000 3.09 110 20:52 02.02.2021
3860 Clear 9 1019 57 10000 3.09 110 20:27 02.02.2021
3861 Clear 9 1019 57 10000 2.06 100 19:59 02.02.2021
3862 Clear 9 1019 57 10000 2.06 100 19:40 02.02.2021
3863 Clear 9 1019 57 10000 2.06 100 19:22 02.02.2021
3864 Clear 7 1019 81 10000 1.03 0 18:43 02.02.2021
3865 Clouds 9 1019 81 10000 1.03 0 18:24 02.02.2021
3866 Clouds 10 1019 76 10000 1.03 0 17:48 02.02.2021
3867 Clouds 10 1019 66 10000 1.54 30 17:21 02.02.2021
3868 Clouds 11 1019 62 10000 2.06 150 16:55 02.02.2021
3869 Clouds 11 1019 62 10000 2.06 150 16:36 02.02.2021
3870 Clouds 12 1019 54 10000 2.57 130 15:57 02.02.2021
3871 Clouds 12 1019 54 10000 2.57 130 15:38 02.02.2021
3872 Clouds 13 1019 50 10000 2.06 120 15:18 02.02.2021
3873 Clouds 13 1019 47 10000 3.6 150 14:39 02.02.2021
3874 Clouds 14 1019 50 10000 4.12 150 14:18 02.02.2021
3875 Clouds 14 1019 50 10000 3.09 150 13:44 02.02.2021
3876 Clouds 14 1019 50 10000 2.06 150 13:25 02.02.2021
3877 Clouds 14 1019 50 10000 3.09 130 12:53 02.02.2021
3878 Clouds 13 1020 47 10000 3.09 170 12:23 02.02.2021
3879 Clouds 13 1020 47 10000 3.09 170 11:40 02.02.2021
3880 Clouds 13 1020 47 10000 3.09 170 11:19 02.02.2021
3881 Clouds 13 1020 47 10000 3.09 170 11:19 02.02.2021
3882 Clouds 13 1020 47 10000 2.57 150 10:45 02.02.2021
3883 Clouds 12 1020 47 10000 2.57 150 10:26 02.02.2021
3884 Clouds 11 1020 50 10000 2.57 160 09:45 02.02.2021
3885 Clouds 11 1020 50 10000 2.57 160 09:23 02.02.2021
3886 Clear 10 1020 53 10000 1.54 190 08:43 02.02.2021
3887 Clear 8 1020 61 10000 3.09 230 07:50 02.02.2021
3888 Clear 6 1020 61 10000 3.09 230 07:25 02.02.2021
3889 Clear 6 1019 70 10000 4.12 340 06:40 02.02.2021
3890 Clear 4 1019 70 10000 1.54 0 05:51 02.02.2021
3891 Clear 7 1019 61 10000 2.06 0 04:21 02.02.2021
3892 Clear 6 1019 57 10000 1.54 30 02:25 02.02.2021
3893 Clear 6 1018 61 10000 1.54 0 00:46 02.02.2021
3894 Clear 7 1018 61 10000 3.09 160 23:58 01.02.2021
3895 Clear 7 1018 61 10000 1.54 160 22:59 01.02.2021
3896 Clear 7 1018 61 10000 1.54 160 22:39 01.02.2021
3897 Clear 7 1018 61 10000 1.54 160 22:20 01.02.2021
3898 Clear 8 1017 57 10000 1.54 180 21:46 01.02.2021
3899 Clear 9 1017 57 10000 1.54 180 21:22 01.02.2021
3900 Clear 9 1017 62 10000 3.09 200 20:42 01.02.2021
3901 Clear 9 1017 62 10000 3.09 200 20:24 01.02.2021
3902 Clear 10 1017 62 10000 2.06 160 19:47 01.02.2021
3903 Clear 10 1017 62 10000 2.06 160 19:21 01.02.2021
3904 Clear 10 1017 62 10000 2.06 160 19:21 01.02.2021
3905 Clear 9 1017 58 10000 3.09 170 18:55 01.02.2021
3906 Clear 9 1017 58 10000 3.09 170 18:32 01.02.2021
3907 Clear 11 1017 58 10000 2.57 190 17:57 01.02.2021
3908 Clouds 8 1017 76 10000 1.03 0 17:39 01.02.2021
3909 Clear 12 1016 58 10000 2.06 120 17:18 01.02.2021
3910 Clear 12 1016 58 10000 2.06 120 16:33 01.02.2021
3911 Clear 13 1016 54 10000 3.6 140 15:50 01.02.2021
3912 Clear 13 1016 54 10000 3.6 140 15:21 01.02.2021
3913 Clear 13 1017 58 10000 3.09 120 14:57 01.02.2021
3914 Clear 13 1017 58 10000 3.09 120 14:39 01.02.2021
3915 Clear 13 1017 54 10000 4.12 150 13:56 01.02.2021
3916 Clear 13 1017 54 10000 4.12 150 13:38 01.02.2021
3917 Clear 12 1017 54 10000 2.57 190 13:20 01.02.2021
3918 Clear 12 1017 54 10000 2.57 190 12:44 01.02.2021
3919 Clear 11 1017 54 10000 2.57 190 12:23 01.02.2021
3920 Clouds 10 1017 57 8000 1.54 90 11:42 01.02.2021
3921 Clouds 10 1017 57 8000 1.54 90 11:20 01.02.2021
3922 Clouds 9 1018 61 7000 3.09 80 10:46 01.02.2021
3923 Clouds 8 1018 61 7000 3.09 80 10:20 01.02.2021
3924 Clouds 6 1018 70 6000 2.57 90 09:45 01.02.2021
3925 Clouds 5 1018 70 6000 2.57 90 09:24 01.02.2021
3926 Mist 2 1018 86 4000 0.51 0 08:54 01.02.2021
3927 Clouds 1 1018 93 7000 0.51 0 07:53 01.02.2021
3928 Mist 0 1017 100 5000 0.51 0 06:37 01.02.2021
3929 Clear 0 1016 93 10000 1.54 280 04:30 01.02.2021
3930 Clear 1 1016 100 10000 0.51 0 01:41 01.02.2021
3931 Clear 0 1016 93 10000 0.51 0 23:46 31.01.2021
3932 Clear 0 1016 93 10000 1.03 0 22:45 31.01.2021
3933 Clear 0 1016 93 10000 1.03 0 22:25 31.01.2021
3934 Clear 2 1015 93 10000 1.54 270 21:56 31.01.2021
3935 Clear 2 1015 93 10000 1.54 270 21:37 31.01.2021
3936 Clear 2 1015 93 10000 1.54 270 21:37 31.01.2021
3937 Clear 1 1015 93 10000 1.54 270 21:18 31.01.2021
3938 Clear 2 1016 87 10000 2.57 90 20:40 31.01.2021
3939 Clear 2 1016 87 10000 2.57 90 20:18 31.01.2021
3940 Clear 2 1016 87 10000 2.19 129 19:37 31.01.2021
3941 Clear 2 1016 87 10000 2.21 128 19:19 31.01.2021
3942 Clear 3 1015 87 10000 1.03 0 18:42 31.01.2021
3943 Clear 3 1015 87 10000 1.03 0 18:23 31.01.2021
3944 Clouds 4 1015 81 10000 1.54 80 17:49 31.01.2021
3945 Clouds 4 1015 81 10000 1.54 80 17:24 31.01.2021
3946 Clouds 5 1015 70 10000 2.06 80 16:58 31.01.2021
3947 Clouds 5 1015 70 10000 2.06 80 16:39 31.01.2021
3948 Clouds 5 1015 70 10000 2.06 80 16:19 31.01.2021
3949 Clouds 7 1015 61 10000 1.03 0 15:43 31.01.2021
3950 Clouds 6 1015 65 10000 1.54 210 14:55 31.01.2021
3951 Clouds 6 1015 65 10000 1.54 210 14:28 31.01.2021
3952 Clouds 6 1014 70 10000 2.57 230 13:59 31.01.2021
3953 Clouds 6 1014 70 10000 2.57 230 13:38 31.01.2021
3954 Clouds 6 1014 70 10000 1.54 90 12:57 31.01.2021
3955 Clouds 6 1014 70 10000 1.54 90 12:38 31.01.2021
3956 Clouds 6 1014 70 10000 1.54 90 12:20 31.01.2021
3957 Clouds 5 1014 75 10000 1.03 0 11:38 31.01.2021
3958 Clouds 5 1014 75 10000 1.03 0 11:19 31.01.2021
3959 Clouds 4 1014 81 10000 2.06 290 10:44 31.01.2021
3960 Clouds 4 1014 81 10000 2.06 290 10:25 31.01.2021
3961 Clouds 4 1013 87 10000 1.54 290 09:34 31.01.2021
3962 Clouds 4 1013 87 10000 1.54 280 08:34 31.01.2021
3963 Clouds 3 1011 93 10000 0.51 0 07:50 31.01.2021
3964 Clouds 3 1010 87 10000 2.57 270 06:25 31.01.2021
3965 Clouds 3 1006 93 6000 2.06 310 01:55 31.01.2021
3966 Clouds 2 1004 100 6000 2.06 230 00:28 31.01.2021
3967 Mist 2 1005 100 4000 1.03 270 23:42 30.01.2021
3968 Clouds 3 1003 93 6000 3.09 260 23:20 30.01.2021
3969 Clouds 3 1003 93 6000 3.09 260 22:37 30.01.2021
3970 Clouds 3 1002 93 10000 1.03 0 21:43 30.01.2021
3971 Clouds 3 1002 93 10000 1.03 0 21:24 30.01.2021
3972 Clouds 4 1002 87 10000 1.03 0 20:55 30.01.2021
3973 Clouds 4 1002 87 10000 1.03 0 20:35 30.01.2021
3974 Rain 4 1002 81 10000 1.54 230 19:58 30.01.2021
3975 Rain 4 1002 81 10000 1.54 230 19:39 30.01.2021
3976 Rain 4 1002 81 10000 1.54 230 19:19 30.01.2021
3977 Rain 4 1002 75 10000 2.06 0 18:40 30.01.2021
3978 Clouds 4 1002 81 10000 2.57 110 18:19 30.01.2021
3979 Clouds 4 1002 81 10000 2.57 110 17:45 30.01.2021
3980 Rain 3 1003 81 10000 1.54 0 17:18 30.01.2021
3981 Rain 4 1003 75 10000 2.06 0 16:39 30.01.2021
3982 Rain 4 1003 70 10000 2.06 0 16:21 30.01.2021
3983 Snow 4 1003 70 10000 2.06 0 15:47 30.01.2021
3984 Snow 4 1003 70 10000 2.06 0 15:23 30.01.2021
3985 Clouds 4 1004 75 10000 2.06 320 14:52 30.01.2021
3986 Clouds 2 1004 75 10000 2.06 320 14:27 30.01.2021
3987 Rain 2 1004 81 10000 3.09 0 13:48 30.01.2021
3988 Clouds 2 1005 80 10000 2.06 0 13:20 30.01.2021
3989 Snow 2 1006 52 10000 3.6 180 12:43 30.01.2021
3990 Snow 3 1006 52 10000 3.6 180 12:22 30.01.2021
3991 Rain 4 1007 45 10000 1.54 0 11:41 30.01.2021
3992 Clouds 4 1008 44 10000 4.12 120 10:55 30.01.2021
3993 Clouds 2 1009 51 10000 4.13 137 09:58 30.01.2021
3994 Clouds 2 1009 51 10000 4.13 137 09:39 30.01.2021
3995 Clouds 2 1009 51 10000 2.98 131 09:21 30.01.2021
3996 Clouds 1 1010 51 10000 2.98 131 08:41 30.01.2021
3997 Clouds -1 1010 64 10000 1.54 130 07:30 30.01.2021
3998 Clouds -1 1011 80 10000 0.51 0 06:21 30.01.2021
3999 Clouds -1 1012 74 10000 1.58 142 03:43 30.01.2021
4000 Clouds -2 1012 80 10000 0.51 90 02:40 30.01.2021
4001 Clouds -2 1012 80 10000 0.51 90 02:21 30.01.2021
4002 Clear -1 1012 69 10000 1.63 177 00:49 30.01.2021
4003 Clear -1 1012 69 10000 1.8 174 00:21 30.01.2021
4004 Clear -1 1012 69 10000 1.8 174 23:49 29.01.2021
4005 Clear -1 1012 69 10000 1.96 193 23:27 29.01.2021
4006 Clouds -2 1012 74 10000 1.03 0 22:45 29.01.2021
4007 Clouds -2 1012 74 10000 1.03 0 22:23 29.01.2021
4008 Clear -2 1012 74 10000 1.03 0 21:44 29.01.2021
4009 Clear -2 1012 74 10000 1.03 0 21:26 29.01.2021
4010 Clear -2 1012 74 10000 2.07 191 20:42 29.01.2021
4011 Clear -2 1012 74 10000 1.99 189 20:21 29.01.2021
4012 Clear -2 1012 69 10000 1.03 0 19:39 29.01.2021
4013 Clear -2 1012 69 10000 1.03 0 19:20 29.01.2021
4014 Clear -2 1012 74 10000 1.73 192 18:45 29.01.2021
4015 Clear -1 1012 69 10000 1.54 180 17:46 29.01.2021
4016 Clear -1 1012 69 10000 1.54 180 17:22 29.01.2021
4017 Clouds -1 1012 59 10000 3.6 250 16:47 29.01.2021
4018 Clouds 0 1012 51 10000 3.09 240 16:24 29.01.2021
4019 Clouds 1 1012 51 10000 3.09 240 15:54 29.01.2021
4020 Clouds 1 1012 51 10000 3.09 240 15:36 29.01.2021
4021 Clouds 1 1012 51 10000 4.63 240 14:57 29.01.2021
4022 Clouds 1 1012 51 10000 4.63 240 14:21 29.01.2021
4023 Clouds 1 1012 55 10000 5.14 250 13:45 29.01.2021
4024 Clouds 1 1012 55 10000 5.14 250 13:26 29.01.2021
4025 Clouds 0 1012 59 10000 5.14 240 12:30 29.01.2021
4026 Clouds 0 1012 64 10000 3.6 230 11:51 29.01.2021
4027 Clouds 0 1012 64 10000 3.6 230 11:21 29.01.2021
4028 Clouds -1 1013 74 10000 3.09 230 10:58 29.01.2021
4029 Clouds -1 1013 74 10000 3.09 230 10:39 29.01.2021
4030 Clouds -1 1013 74 10000 3.6 280 09:50 29.01.2021
4031 Clouds -1 1013 74 10000 3.6 280 09:50 29.01.2021
4032 Clouds -1 1013 74 10000 3.6 280 09:30 29.01.2021
4033 Clouds -2 1012 80 10000 3.09 240 08:48 29.01.2021
4034 Clouds -2 1012 80 10000 3.09 240 08:25 29.01.2021
4035 Clouds -2 1012 80 10000 1.54 230 07:43 29.01.2021
4036 Clouds -2 1012 80 10000 1.54 230 07:23 29.01.2021
4037 Clouds -3 1010 86 10000 2.06 140 06:34 29.01.2021
4038 Clouds -4 1010 93 10000 0.96 257 03:53 29.01.2021
4039 Clouds -3 1011 93 10000 0.87 254 00:51 29.01.2021
4040 Clouds -3 1011 93 10000 0.86 275 00:23 29.01.2021
4041 Clouds -2 1011 86 10000 0.86 275 23:47 28.01.2021
4042 Clouds -3 1011 86 10000 0.52 251 23:28 28.01.2021
4043 Clouds -2 1010 86 10000 0.52 251 22:59 28.01.2021
4044 Clouds -2 1010 86 10000 0.52 251 22:39 28.01.2021
4045 Clouds -2 1010 86 10000 0.46 197 22:21 28.01.2021
4046 Clouds -2 1010 86 10000 0.46 197 21:42 28.01.2021
4047 Clouds -2 1010 86 10000 0.93 194 21:22 28.01.2021
4048 Clouds -2 1010 80 10000 0.51 0 20:45 28.01.2021
4049 Clouds -2 1010 80 10000 0.51 0 20:19 28.01.2021
4050 Clouds -1 1010 74 10000 1.03 250 19:52 28.01.2021
4051 Clouds -1 1010 74 10000 1.03 250 19:28 28.01.2021
4052 Clouds 0 1010 69 10000 1.54 240 18:49 28.01.2021
4053 Clouds 0 1010 69 10000 1.54 240 18:30 28.01.2021
4054 Clouds 0 1010 69 10000 0.51 0 17:54 28.01.2021
4055 Clouds 0 1010 69 10000 0.51 0 17:34 28.01.2021
4056 Clouds 0 1009 60 10000 2.57 200 16:58 28.01.2021
4057 Clouds 0 1009 60 10000 2.57 200 16:39 28.01.2021
4058 Clouds 0 1009 60 10000 2.57 200 16:20 28.01.2021
4059 Clouds 0 1009 64 10000 3.09 230 15:25 28.01.2021
4060 Clouds 1 1009 64 10000 3.6 230 14:48 28.01.2021
4061 Clouds 1 1009 64 10000 3.6 230 14:26 28.01.2021
4062 Clouds 1 1008 69 10000 4.12 220 13:58 28.01.2021
4063 Clouds 1 1008 69 10000 4.12 220 13:25 28.01.2021
4064 Clouds 1 1008 69 10000 5.14 240 12:50 28.01.2021
4065 Clouds 0 1008 69 10000 5.14 240 12:32 28.01.2021
4066 Clouds 0 1008 75 10000 5.14 240 11:57 28.01.2021
4067 Clouds 0 1008 75 10000 5.14 240 11:39 28.01.2021
4068 Clouds 0 1008 75 10000 5.14 240 11:18 28.01.2021
4069 Snow 0 1008 86 10000 5.14 250 10:48 28.01.2021
4070 Snow 0 1008 86 10000 5.14 250 10:24 28.01.2021
4071 Snow -1 1007 93 8000 5.66 250 09:39 28.01.2021
4072 Snow -1 1007 93 8000 5.66 250 09:19 28.01.2021
4073 Snow 0 1007 86 7000 3.09 240 08:44 28.01.2021
4074 Clouds 0 1006 93 10000 2.06 250 07:50 28.01.2021
4075 Snow -1 1006 93 10000 2.06 250 07:21 28.01.2021
4076 Snow 0 1005 93 10000 2.06 270 06:48 28.01.2021
4077 Clouds 0 1003 93 10000 0.51 0 04:31 28.01.2021
4078 Snow 0 1002 86 10000 4.05 208 02:45 28.01.2021
4079 Snow 0 1002 86 4800 3.6 190 00:45 28.01.2021
4080 Snow 1 1001 93 7000 2.06 220 23:26 27.01.2021
4081 Snow 1 1001 93 4800 3.09 270 22:57 27.01.2021
4082 Snow 1 1001 93 4800 3.09 270 22:39 27.01.2021
4083 Snow 2 1001 93 6000 6.17 220 22:18 27.01.2021
4084 Snow 2 1001 93 10000 5.66 190 21:41 27.01.2021
4085 Clouds 3 1000 87 10000 6.69 200 21:22 27.01.2021
4086 Clouds 3 1000 87 10000 6.69 200 21:22 27.01.2021
4087 Clouds 3 1000 87 10000 8.23 220 20:41 27.01.2021
4088 Clouds 4 999 81 10000 10.8 200 20:18 27.01.2021
4089 Clouds 5 999 81 10000 6.69 200 19:41 27.01.2021
4090 Clouds 6 999 81 10000 9.26 190 19:21 27.01.2021
4091 Rain 5 999 87 10000 6.69 180 18:43 27.01.2021
4092 Clouds 6 1000 75 10000 10.8 190 18:23 27.01.2021
4093 Rain 6 999 81 10000 9.26 190 17:47 27.01.2021
4094 Rain 6 999 81 10000 6.17 190 17:28 27.01.2021
4095 Rain 7 1000 76 10000 6.17 200 16:49 27.01.2021
4096 Rain 7 1000 76 10000 5.66 170 16:28 27.01.2021
4097 Rain 7 1000 81 10000 4.63 150 15:51 27.01.2021
4098 Rain 7 1000 81 10000 7.2 180 15:32 27.01.2021
4099 Rain 6 1001 81 7000 8.23 190 14:45 27.01.2021
4100 Rain 7 1001 76 7000 8.23 190 14:22 27.01.2021
4101 Rain 7 1001 76 7000 8.75 200 13:48 27.01.2021
4102 Rain 8 1001 57 7000 11.83 180 13:19 27.01.2021
4103 Rain 10 1001 50 10000 8.75 180 12:40 27.01.2021
4104 Rain 10 1001 46 10000 9.77 170 12:21 27.01.2021
4105 Clouds 10 1001 50 10000 8.75 160 11:44 27.01.2021
4106 Clouds 10 1002 50 10000 9.26 170 11:22 27.01.2021
4107 Clouds 10 1002 50 10000 9.26 170 11:22 27.01.2021
4108 Clouds 10 1002 50 10000 9.26 170 11:22 27.01.2021
4109 Clouds 10 1003 53 10000 6.69 180 10:40 27.01.2021
4110 Clouds 9 1003 53 10000 8.23 170 10:21 27.01.2021
4111 Clouds 9 1004 61 10000 6.17 190 09:47 27.01.2021
4112 Clouds 7 1004 61 10000 6.17 160 08:59 27.01.2021
4113 Clouds 7 1005 65 10000 7.2 160 08:31 27.01.2021
4114 Clouds 7 1005 65 10000 5.66 180 07:43 27.01.2021
4115 Clouds 7 1005 65 10000 5.66 180 07:43 27.01.2021
4116 Clouds 7 1005 65 10000 2.57 0 07:19 27.01.2021
4117 Clouds 7 1006 75 10000 9.26 150 06:19 27.01.2021
4118 Rain 7 1006 75 10000 8.23 160 05:43 27.01.2021
4119 Rain 7 1008 70 10000 5.14 150 03:34 27.01.2021
4120 Rain 7 1009 70 10000 5.14 150 02:23 27.01.2021
4121 Clouds 7 1009 70 10000 5.66 170 01:49 27.01.2021
4122 Clouds 7 1010 93 10000 2.06 20 00:34 27.01.2021
4123 Clouds 7 1011 81 10000 2.06 150 23:49 26.01.2021
4124 Clouds 7 1011 87 10000 2.06 40 23:28 26.01.2021
4125 Clouds 7 1012 76 10000 2.06 150 22:50 26.01.2021
4126 Clouds 8 1012 71 10000 2.57 0 22:23 26.01.2021
4127 Clouds 8 1012 71 10000 2.57 0 21:54 26.01.2021
4128 Clouds 8 1012 71 10000 2.57 0 21:34 26.01.2021
4129 Clouds 8 1012 76 10000 5.14 210 20:58 26.01.2021
4130 Clouds 8 1012 76 10000 5.14 210 20:40 26.01.2021
4131 Rain 8 1012 71 10000 4.63 220 20:21 26.01.2021
4132 Clouds 8 1012 66 10000 7.2 200 19:45 26.01.2021
4133 Clouds 8 1012 66 10000 6.17 190 19:20 26.01.2021
4134 Clouds 9 1013 62 10000 4.12 180 18:47 26.01.2021
4135 Clouds 9 1013 62 10000 4.12 180 18:27 26.01.2021
4136 Clouds 9 1013 62 10000 4.12 180 17:52 26.01.2021
4137 Clouds 9 1013 62 10000 4.12 180 17:33 26.01.2021
4138 Clouds 10 1013 66 10000 3.6 200 16:56 26.01.2021
4139 Clouds 10 1013 66 10000 3.6 200 16:37 26.01.2021
4140 Clouds 9 1013 66 10000 4.63 190 16:19 26.01.2021
4141 Clouds 9 1013 66 10000 4.63 200 15:44 26.01.2021
4142 Clouds 10 1013 66 10000 5.66 200 15:24 26.01.2021
4143 Clouds 10 1013 62 10000 6.69 200 14:45 26.01.2021
4144 Clouds 10 1013 66 10000 7.72 200 14:25 26.01.2021
4145 Clouds 10 1013 66 10000 5.14 200 13:35 26.01.2021
4146 Clouds 10 1015 66 10000 6.17 170 12:59 26.01.2021
4147 Clouds 10 1015 66 10000 6.17 170 12:59 26.01.2021
4148 Clouds 10 1015 66 10000 6.17 170 12:40 26.01.2021
4149 Clouds 9 1015 66 10000 3.09 210 12:22 26.01.2021
4150 Clouds 9 1015 66 10000 3.09 210 11:51 26.01.2021
4151 Clouds 9 1015 66 10000 3.09 210 11:25 26.01.2021
4152 Clouds 9 1016 71 10000 2.06 130 10:42 26.01.2021
4153 Clouds 9 1016 71 10000 2.06 120 10:22 26.01.2021
4154 Clouds 8 1016 71 10000 2.06 120 09:40 26.01.2021
4155 Clouds 7 1016 71 10000 2.06 120 09:22 26.01.2021
4156 Clouds 7 1016 81 10000 3.09 240 08:49 26.01.2021
4157 Clouds 6 1016 75 10000 2.57 290 08:18 26.01.2021
4158 Clouds 5 1016 75 10000 2.57 290 07:19 26.01.2021
4159 Clouds 5 1015 75 10000 2.06 310 05:58 26.01.2021
4160 Clouds 5 1015 75 10000 2.06 310 05:38 26.01.2021
4161 Clouds 4 1016 100 10000 2.06 90 03:42 26.01.2021
4162 Clouds 5 1016 87 10000 3.09 210 01:35 26.01.2021
4163 Clouds 5 1015 93 10000 5.14 180 00:36 26.01.2021
4164 Clouds 5 1016 93 10000 1.03 0 23:33 25.01.2021
4165 Clouds 6 1015 76 10000 1.03 130 22:51 25.01.2021
4166 Rain 6 1015 76 10000 1.03 130 22:33 25.01.2021
4167 Rain 6 1015 76 10000 1.03 130 21:48 25.01.2021
4168 Rain 5 1014 81 10000 5.66 190 21:22 25.01.2021
4169 Rain 6 1014 81 10000 5.66 190 20:45 25.01.2021
4170 Rain 6 1014 75 10000 6.69 190 20:27 25.01.2021
4171 Rain 6 1014 81 10000 5.66 210 19:50 25.01.2021
4172 Clouds 6 1014 81 10000 3.09 240 19:27 25.01.2021
4173 Clouds 6 1013 81 10000 3.6 230 18:48 25.01.2021
4174 Clouds 7 1012 61 10000 5.14 170 18:27 25.01.2021
4175 Rain 6 1012 61 10000 5.14 170 17:50 25.01.2021
4176 Clouds 7 1012 61 10000 5.14 170 17:31 25.01.2021
4177 Clouds 7 1012 61 10000 6.17 170 16:59 25.01.2021
4178 Clouds 6 1012 93 10000 1.54 360 16:40 25.01.2021
4179 Rain 6 1012 93 10000 8.25 175 16:21 25.01.2021
4180 Rain 6 1013 65 10000 4.12 160 15:43 25.01.2021
4181 Clouds 6 1012 57 10000 4.63 160 15:23 25.01.2021
4182 Rain 6 1012 57 10000 4.63 160 14:40 25.01.2021
4183 Rain 6 1012 57 10000 4.63 160 14:19 25.01.2021
4184 Rain 6 1012 65 10000 3.09 160 13:47 25.01.2021
4185 Rain 6 1012 65 10000 2.57 170 13:25 25.01.2021
4186 Rain 6 1013 65 10000 3.09 180 12:45 25.01.2021
4187 Clouds 6 1013 61 10000 3.09 210 12:19 25.01.2021
4188 Clouds 6 1013 70 10000 3.09 210 11:47 25.01.2021
4189 Clouds 6 1014 70 10000 4.12 180 11:18 25.01.2021
4190 Clouds 5 1014 87 8000 1.03 0 10:39 25.01.2021
4191 Clouds 6 1016 65 10000 3.09 170 10:18 25.01.2021
4192 Clouds 6 1016 65 10000 3.09 170 09:42 25.01.2021
4193 Mist 4 1016 86 4000 1.54 270 09:23 25.01.2021
4194 Clouds 4 1016 75 10000 1.54 100 08:27 25.01.2021
4195 Clouds 1 1016 75 10000 1.54 100 07:31 25.01.2021
4196 Mist -2 1016 93 3200 1.54 90 06:53 25.01.2021
4197 Mist -1 1016 100 4900 2.06 40 03:39 25.01.2021
4198 Mist -1 1017 100 4600 2.11 119 01:30 25.01.2021
4199 Clouds 2 1018 80 10000 2.06 250 23:41 24.01.2021
4200 Mist 2 1018 93 4200 0.51 0 23:19 24.01.2021
4201 Clouds 2 1017 93 6000 0.51 0 22:42 24.01.2021
4202 Clouds 2 1017 93 7000 0.51 0 22:20 24.01.2021
4203 Clouds 3 1017 86 7000 2.06 30 21:48 24.01.2021
4204 Clouds 4 1017 87 7000 2.57 40 21:24 24.01.2021
4205 Clouds 4 1017 93 7000 2.57 40 20:44 24.01.2021
4206 Clouds 4 1017 87 7000 0.51 0 20:21 24.01.2021
4207 Clouds 2 1017 87 8000 0.51 0 19:52 24.01.2021
4208 Clouds 2 1017 87 6000 0.51 0 19:27 24.01.2021
4209 Clouds 1 1017 93 6000 2.06 320 18:58 24.01.2021
4210 Clouds 1 1017 93 6000 2.06 320 18:39 24.01.2021
4211 Clouds 1 1017 93 6000 2.06 320 18:39 24.01.2021
4212 Clouds 2 1017 87 8000 1.54 140 18:20 24.01.2021
4213 Clouds 2 1017 80 10000 1.03 0 17:50 24.01.2021
4214 Clouds 2 1017 80 10000 2.06 350 17:28 24.01.2021
4215 Rain 2 1017 80 10000 2.06 340 16:57 24.01.2021
4216 Clouds 2 1017 80 10000 2.06 340 16:37 24.01.2021
4217 Clouds 3 1016 75 10000 2.06 80 16:18 24.01.2021
4218 Clouds 3 1016 75 10000 2.57 310 15:43 24.01.2021
4219 Clouds 4 1016 65 10000 2.06 90 15:18 24.01.2021
4220 Clouds 6 1017 70 10000 2.06 330 14:38 24.01.2021
4221 Clouds 7 1016 65 10000 1.54 210 13:46 24.01.2021
4222 Clouds 6 1016 65 10000 1.03 0 13:26 24.01.2021
4223 Clouds 6 1016 65 10000 2.57 20 12:49 24.01.2021
4224 Clouds 6 1017 70 10000 2.06 20 12:20 24.01.2021
4225 Clouds 6 1017 65 8000 2.06 20 11:51 24.01.2021
4226 Clouds 2 1017 69 6000 2.06 280 11:24 24.01.2021
4227 Clouds 3 1017 75 7000 2.57 350 10:49 24.01.2021
4228 Clouds 1 1018 75 6000 1.54 350 10:26 24.01.2021
4229 Mist 3 1019 80 3300 1.54 320 09:23 24.01.2021
4230 Mist 1 1018 86 2700 0.51 0 08:59 24.01.2021
4231 Mist 0 1018 86 2500 1.03 0 08:24 24.01.2021
4232 Mist -2 1018 93 4400 1.03 0 03:25 24.01.2021
4233 Mist -2 1018 86 4900 2.06 60 02:18 24.01.2021
4234 Mist -2 1019 86 4800 1.3 90 00:27 24.01.2021
4235 Mist -2 1019 93 4800 1.3 90 23:53 23.01.2021
4236 Mist -2 1020 86 4800 1.43 90 23:27 23.01.2021
4237 Mist -2 1020 86 4100 1.43 90 22:57 23.01.2021
4238 Mist -1 1020 86 4100 1.43 90 22:37 23.01.2021
4239 Clouds -1 1020 93 6000 1.45 93 21:53 23.01.2021
4240 Clouds 0 1020 86 6000 1.38 94 21:22 23.01.2021
4241 Clouds -1 1020 93 6000 1.03 290 20:49 23.01.2021
4242 Clouds 0 1020 86 6000 1.31 93 20:28 23.01.2021
4243 Clouds 0 1020 86 6000 1.31 93 19:47 23.01.2021
4244 Clouds 0 1021 86 7000 1.28 97 19:24 23.01.2021
4245 Clouds 1 1021 86 7000 1.28 97 18:51 23.01.2021
4246 Clouds 1 1021 86 7000 1.03 330 18:28 23.01.2021
4247 Clear 1 1021 80 10000 1.03 0 17:55 23.01.2021
4248 Clear 1 1021 75 10000 1.03 0 17:28 23.01.2021
4249 Clear 2 1021 75 10000 0.51 0 16:51 23.01.2021
4250 Clear 2 1020 75 10000 1.03 0 16:31 23.01.2021
4251 Clear 2 1020 69 10000 2.06 360 15:48 23.01.2021
4252 Clouds 3 1020 65 9000 2.57 20 15:26 23.01.2021
4253 Clouds 3 1021 60 9000 3.09 20 14:37 23.01.2021
4254 Clouds 3 1021 60 9000 2.57 20 14:19 23.01.2021
4255 Clouds 4 1021 56 8000 1.54 20 13:40 23.01.2021
4256 Clouds 5 1022 65 6000 1.54 350 13:21 23.01.2021
4257 Clouds 5 1022 65 8000 2.06 10 12:42 23.01.2021
4258 Clouds 4 1022 64 7000 0.51 0 12:22 23.01.2021
4259 Clouds 3 1022 69 6000 1.03 0 11:34 23.01.2021
4260 Clouds 3 1023 69 6000 1.54 350 10:53 23.01.2021
4261 Mist 2 1024 74 4400 1.54 330 10:22 23.01.2021
4262 Mist 1 1024 74 4000 1.03 0 09:49 23.01.2021
4263 Mist 0 1024 80 4000 1.03 0 09:24 23.01.2021
4264 Mist 0 1024 80 2100 1.03 0 08:38 23.01.2021
4265 Mist -1 1024 86 2100 1.03 360 07:38 23.01.2021
4266 Mist -4 1025 86 2100 1.03 10 06:48 23.01.2021
4267 Mist -3 1025 86 4700 0.94 107 01:44 23.01.2021
4268 Mist -3 1025 86 4700 0.83 106 23:59 22.01.2021
4269 Mist -2 1025 86 4700 0.83 106 23:35 22.01.2021
4270 Mist -2 1026 86 4600 1.54 40 22:40 22.01.2021
4271 Clouds -1 1026 93 6000 1.03 0 21:56 22.01.2021
4272 Clouds -2 1026 93 6000 1.03 0 21:37 22.01.2021
4273 Clouds -2 1026 86 6000 1.03 220 21:19 22.01.2021
4274 Clouds -2 1026 80 6000 0.99 115 20:44 22.01.2021
4275 Clouds -2 1026 86 6000 1.03 0 20:25 22.01.2021
4276 Clouds -1 1026 86 6000 0.51 0 19:37 22.01.2021
4277 Clouds -1 1026 86 6000 0.51 0 19:18 22.01.2021
4278 Clear 0 1026 80 10000 1.03 0 18:43 22.01.2021
4279 Clear -2 1026 80 10000 1.03 0 18:23 22.01.2021
4280 Clouds -1 1026 74 8000 1.54 20 17:44 22.01.2021
4281 Clouds 0 1026 69 7000 1.03 0 17:25 22.01.2021
4282 Clouds 1 1026 64 9000 1.54 30 16:45 22.01.2021
4283 Clouds 1 1026 64 10000 1.54 40 16:24 22.01.2021
4284 Clouds 0 1026 64 10000 1.54 20 15:41 22.01.2021
4285 Clouds 0 1026 59 10000 1.54 330 15:18 22.01.2021
4286 Clouds 3 1026 60 10000 2.06 310 14:31 22.01.2021
4287 Clouds 3 1026 60 10000 1.54 330 13:51 22.01.2021
4288 Clouds 3 1026 55 10000 1.03 0 13:31 22.01.2021
4289 Clouds 3 1027 59 10000 1.54 310 12:52 22.01.2021
4290 Clouds 2 1027 59 10000 1.03 0 12:23 22.01.2021
4291 Clear 2 1027 64 10000 1.54 30 11:47 22.01.2021
4292 Clear 1 1028 64 10000 1.03 0 11:22 22.01.2021
4293 Clear 0 1028 68 10000 1.03 0 10:45 22.01.2021
4294 Clear -1 1029 74 10000 1.54 50 09:59 22.01.2021
4295 Clouds -3 1029 79 6000 1.54 330 09:31 22.01.2021
4296 Clouds -2 1029 79 6000 0.74 141 08:51 22.01.2021
4297 Clouds -3 1029 79 6000 0.51 0 08:30 22.01.2021
4298 Mist -5 1029 86 4000 0.51 0 07:36 22.01.2021
4299 Clouds -7 1028 85 6000 1.54 20 03:40 22.01.2021
4300 Clear -5 1029 86 10000 1.03 340 00:40 22.01.2021
4301 Clear -4 1029 86 10000 0.51 0 23:56 21.01.2021
4302 Clear -4 1029 86 10000 0.51 0 23:38 21.01.2021
4303 Clear -4 1029 86 10000 1.03 110 22:54 21.01.2021
4304 Clear -4 1029 86 10000 1.03 110 22:36 21.01.2021
4305 Clear -4 1029 86 10000 1.03 0 21:44 21.01.2021
4306 Clear -4 1029 86 10000 1.03 0 21:44 21.01.2021
4307 Clear -4 1029 86 10000 1.14 100 21:22 21.01.2021
4308 Clear -3 1029 86 10000 1.03 60 20:51 21.01.2021
4309 Clear -3 1029 79 10000 0.51 0 20:31 21.01.2021
4310 Clear -3 1029 80 10000 0.51 0 19:56 21.01.2021
4311 Clear -3 1029 80 10000 0.51 0 19:38 21.01.2021
4312 Clear -3 1029 80 10000 1.03 0 19:19 21.01.2021
4313 Clouds -2 1029 74 10000 0.51 0 18:40 21.01.2021
4314 Clouds -2 1029 80 10000 1.03 0 18:20 21.01.2021
4315 Clouds -2 1029 74 10000 2.06 10 17:53 21.01.2021
4316 Clouds -3 1029 80 10000 2.06 30 17:21 21.01.2021
4317 Clouds -2 1029 69 10000 2.06 20 16:50 21.01.2021
4318 Clouds -1 1029 69 10000 1.54 20 16:28 21.01.2021
4319 Clouds 0 1029 59 10000 2.06 60 15:59 21.01.2021
4320 Clouds 0 1029 59 10000 2.06 60 15:59 21.01.2021
4321 Clouds 0 1029 59 10000 2.06 60 15:35 21.01.2021
4322 Clouds 1 1029 59 10000 1.54 10 14:54 21.01.2021
4323 Clouds 1 1029 59 10000 1.54 10 14:35 21.01.2021
4324 Clouds 1 1028 59 10000 1.03 0 13:52 21.01.2021
4325 Clouds 1 1028 59 10000 1.03 0 13:52 21.01.2021
4326 Clouds 1 1028 59 10000 1.03 0 13:33 21.01.2021
4327 Clouds 1 1028 55 10000 0.51 0 12:58 21.01.2021
4328 Clouds 0 1028 55 10000 0.51 0 12:39 21.01.2021
4329 Clouds 0 1028 59 10000 1.03 0 12:20 21.01.2021
4330 Clouds 1 1029 59 10000 1.03 0 11:48 21.01.2021
4331 Clouds 0 1029 59 10000 1.03 0 11:25 21.01.2021
4332 Clouds -1 1029 64 10000 1.03 0 10:51 21.01.2021
4333 Clouds 0 1029 59 10000 0.88 197 10:30 21.01.2021
4334 Clouds -2 1030 68 6000 1.03 0 09:44 21.01.2021
4335 Clouds -2 1029 68 6000 1.03 0 09:25 21.01.2021
4336 Clouds -2 1029 68 6000 0.54 145 08:45 21.01.2021
4337 Clouds -3 1029 74 6000 0.58 132 08:24 21.01.2021
4338 Mist -5 1028 80 4800 0.6 146 07:28 21.01.2021
4339 Clouds -5 1028 74 6000 1.03 0 06:54 21.01.2021
4340 Clouds -6 1028 79 8000 0.45 121 05:21 21.01.2021
4341 Clouds -7 1027 79 8000 0.65 175 02:40 21.01.2021
4342 Clouds -7 1027 79 10000 0.51 0 00:54 21.01.2021
4343 Clouds -6 1027 79 10000 0.51 0 23:54 20.01.2021
4344 Clouds -6 1027 79 10000 0.51 0 23:32 20.01.2021
4345 Clouds -7 1026 79 10000 0.57 188 22:58 20.01.2021
4346 Clouds -7 1026 79 10000 0.57 188 22:37 20.01.2021
4347 Clouds -7 1026 79 10000 0.57 190 21:59 20.01.2021
4348 Clouds -7 1026 79 10000 0.57 190 21:41 20.01.2021
4349 Clouds -6 1026 79 10000 0.57 190 21:41 20.01.2021
4350 Clear -5 1027 74 10000 0.74 187 21:20 20.01.2021
4351 Clear -5 1027 74 10000 0.74 187 20:41 20.01.2021
4352 Clear -5 1027 74 10000 0.63 191 20:18 20.01.2021
4353 Clear -5 1026 68 10000 0.63 191 19:43 20.01.2021
4354 Clear -5 1026 68 10000 0.87 219 19:24 20.01.2021
4355 Clear -5 1027 68 10000 0.87 219 18:42 20.01.2021
4356 Clear -5 1026 68 10000 1.54 230 17:58 20.01.2021
4357 Clear -5 1026 68 10000 1.54 230 17:39 20.01.2021
4358 Clear -5 1025 68 10000 2.06 240 16:59 20.01.2021
4359 Clear -5 1025 68 10000 2.06 240 16:41 20.01.2021
4360 Clear -4 1025 63 10000 4.12 280 15:55 20.01.2021
4361 Clear -4 1025 63 10000 4.12 280 15:36 20.01.2021
4362 Clear -3 1025 63 10000 4.12 280 14:51 20.01.2021
4363 Clear -3 1025 63 10000 4.12 280 14:25 20.01.2021
4364 Clear -3 1024 59 10000 4.12 290 13:50 20.01.2021
4365 Clear -3 1024 59 10000 4.12 290 13:31 20.01.2021
4366 Clear -3 1024 63 10000 4.12 280 12:45 20.01.2021
4367 Clear -3 1024 63 10000 4.12 280 12:20 20.01.2021
4368 Clouds -4 1025 63 10000 2.06 290 11:39 20.01.2021
4369 Clouds -5 1025 73 10000 3.09 280 10:56 20.01.2021
4370 Clouds -6 1025 73 10000 3.09 280 10:34 20.01.2021
4371 Clouds -6 1025 73 10000 0.51 0 09:55 20.01.2021
4372 Clouds -7 1025 73 10000 0.51 0 09:30 20.01.2021
4373 Clear -8 1024 79 10000 1.03 250 08:59 20.01.2021
4374 Clear -8 1024 79 10000 1.03 250 08:34 20.01.2021
4375 Clear -10 1024 85 10000 0.51 0 07:59 20.01.2021
4376 Clear -9 1024 85 10000 0.51 0 07:37 20.01.2021
4377 Clear -11 1023 85 10000 1.13 281 06:56 20.01.2021
4378 Clear -11 1021 85 10000 1.01 309 03:30 20.01.2021
4379 Clear -10 1020 92 10000 1.11 313 01:50 20.01.2021
4380 Clear -10 1020 85 10000 0.99 317 00:47 20.01.2021
4381 Clear -9 1020 92 10000 1.16 331 23:50 19.01.2021
4382 Clear -9 1020 92 10000 1.31 339 23:27 19.01.2021
4383 Clear -10 1020 85 10000 1.31 339 22:57 19.01.2021
4384 Clear -10 1020 85 10000 1.31 339 22:37 19.01.2021
4385 Clear -9 1020 85 10000 1.37 336 22:19 19.01.2021
4386 Clear -9 1020 85 10000 1.37 336 21:51 19.01.2021
4387 Clear -9 1020 85 10000 1.36 340 21:27 19.01.2021
4388 Clear -8 1019 86 10000 0.51 0 20:47 19.01.2021
4389 Clear -8 1019 86 10000 0.51 0 20:24 19.01.2021
4390 Clear -7 1019 73 10000 1.33 350 19:54 19.01.2021
4391 Clear -8 1019 73 10000 1.25 354 19:29 19.01.2021
4392 Clear -7 1019 68 10000 1.54 260 18:49 19.01.2021
4393 Clear -6 1019 68 10000 1.54 260 18:30 19.01.2021
4394 Clear -6 1018 63 10000 2.06 0 17:47 19.01.2021
4395 Clear -6 1018 63 10000 2.06 0 17:29 19.01.2021
4396 Clear -5 1018 63 10000 3.09 230 16:50 19.01.2021
4397 Clear -5 1018 63 10000 3.09 230 16:31 19.01.2021
4398 Clear -4 1018 54 10000 3.6 270 15:59 19.01.2021
4399 Clear -4 1018 54 10000 3.6 270 15:40 19.01.2021
4400 Clear -4 1018 54 10000 3.6 270 15:19 19.01.2021
4401 Clouds -3 1018 54 6000 3.09 260 14:41 19.01.2021
4402 Clear -3 1018 54 6000 3.09 260 14:22 19.01.2021
4403 Clear -3 1018 54 6000 2.57 240 13:41 19.01.2021
4404 Clear -3 1018 54 6000 2.57 240 13:21 19.01.2021
4405 Clear -4 1018 58 6000 2.06 270 12:48 19.01.2021
4406 Clear -4 1018 58 6000 2.06 270 12:29 19.01.2021
4407 Clear -4 1019 46 7000 0.51 0 11:43 19.01.2021
4408 Clear -4 1019 46 7000 0.51 0 11:24 19.01.2021
4409 Clear -6 1020 58 6000 1.03 0 10:51 19.01.2021
4410 Clear -6 1020 58 6000 1.03 0 10:31 19.01.2021
4411 Clear -7 1021 67 6000 1.03 0 09:53 19.01.2021
4412 Clear -7 1021 67 6000 1.03 0 09:30 19.01.2021
4413 Clear -9 1020 85 6000 1.33 12 08:56 19.01.2021
4414 Clear -9 1020 85 6000 1.16 13 08:21 19.01.2021
4415 Clear -12 1020 85 10000 1.16 13 07:38 19.01.2021
4416 Clear -12 1020 92 10000 0.76 20 06:50 19.01.2021
4417 Clear -11 1019 85 10000 2.06 230 02:31 19.01.2021
4418 Clear -11 1018 85 10000 0.79 352 00:49 19.01.2021
4419 Clear -10 1018 85 10000 0.41 20 23:58 18.01.2021
4420 Clear -10 1018 85 10000 0.41 20 23:31 18.01.2021
4421 Clear -9 1018 85 10000 1.03 0 22:51 18.01.2021
4422 Clear -9 1018 85 10000 1.03 0 22:25 18.01.2021
4423 Clear -9 1018 79 10000 1.03 0 21:51 18.01.2021
4424 Clear -9 1018 79 10000 1.03 0 21:24 18.01.2021
4425 Clear -8 1018 86 10000 1.52 3 20:59 18.01.2021
4426 Clear -8 1018 86 10000 1.52 3 20:39 18.01.2021
4427 Clear -8 1018 86 10000 1.03 314 20:20 18.01.2021
4428 Clear -8 1018 73 10000 1.54 240 19:48 18.01.2021
4429 Clear -8 1018 73 10000 1.54 240 19:29 18.01.2021
4430 Clear -7 1018 68 10000 0.51 0 18:44 18.01.2021
4431 Clear -6 1017 68 10000 2.06 210 18:22 18.01.2021
4432 Clear -6 1017 68 10000 2.06 210 17:41 18.01.2021
4433 Clear -6 1017 68 10000 2.06 210 17:19 18.01.2021
4434 Clouds -6 1016 63 10000 3.09 250 16:46 18.01.2021
4435 Clouds -6 1016 63 10000 3.09 250 16:20 18.01.2021
4436 Clouds -5 1016 58 10000 4.63 240 15:42 18.01.2021
4437 Clouds -4 1016 58 10000 4.63 240 15:20 18.01.2021
4438 Clouds -5 1016 54 10000 5.14 240 14:43 18.01.2021
4439 Clouds -4 1016 54 10000 5.14 240 14:25 18.01.2021
4440 Clouds -4 1015 58 10000 7.72 250 13:46 18.01.2021
4441 Clouds -4 1015 58 10000 7.72 250 13:26 18.01.2021
4442 Clouds -5 1015 68 10000 6.69 240 12:52 18.01.2021
4443 Snow -5 1015 68 10000 6.69 240 12:20 18.01.2021
4444 Snow -5 1015 68 10000 6.69 240 12:20 18.01.2021
4445 Snow -5 1015 74 10000 6.17 240 11:56 18.01.2021
4446 Snow -5 1015 74 10000 6.17 240 11:37 18.01.2021
4447 Snow -5 1015 74 10000 6.17 240 11:18 18.01.2021
4448 Snow -5 1014 74 10000 6.69 260 10:39 18.01.2021
4449 Snow -5 1014 80 10000 5.66 250 09:43 18.01.2021
4450 Clouds -5 1014 80 10000 5.66 250 09:24 18.01.2021
4451 Clouds -6 1013 86 10000 5.14 260 08:50 18.01.2021
4452 Clouds -6 1013 86 10000 5.14 260 07:56 18.01.2021
4453 Snow -6 1013 86 6000 4.63 250 07:27 18.01.2021
4454 Clouds -6 1011 93 10000 2.57 230 04:59 18.01.2021
4455 Clouds -6 1011 93 10000 2.57 230 04:33 18.01.2021
4456 Clouds -5 1010 93 10000 3.09 260 03:59 18.01.2021
4457 Clouds -5 1010 93 10000 3.09 260 03:39 18.01.2021
4458 Clouds -5 1010 93 10000 3.09 260 03:19 18.01.2021
4459 Snow -4 1011 86 6000 3.09 250 02:37 18.01.2021
4460 Snow -4 1010 93 6000 3.6 240 00:43 18.01.2021
4461 Snow -4 1010 93 6000 3.6 240 00:23 18.01.2021
4462 Snow -4 1009 93 6000 3.09 250 23:44 17.01.2021
4463 Snow -4 1009 93 6000 3.09 250 23:20 17.01.2021
4464 Snow -3 1009 86 6000 4.63 290 22:28 17.01.2021
4465 Snow -3 1008 80 10000 4.63 270 21:59 17.01.2021
4466 Snow -3 1008 80 10000 4.63 270 21:39 17.01.2021
4467 Snow -3 1008 80 10000 4.63 270 21:21 17.01.2021
4468 Snow -2 1007 80 10000 4.12 280 20:47 17.01.2021
4469 Snow -2 1007 80 10000 4.12 280 20:47 17.01.2021
4470 Clouds -2 1007 80 10000 4.12 280 20:25 17.01.2021
4471 Clouds -2 1007 86 10000 2.57 250 19:42 17.01.2021
4472 Clouds -2 1007 86 10000 2.57 250 19:21 17.01.2021
4473 Snow -2 1006 80 10000 3.09 290 18:38 17.01.2021
4474 Clouds -1 1006 80 10000 3.09 290 18:19 17.01.2021
4475 Clouds -1 1006 86 10000 3.6 250 17:45 17.01.2021
4476 Clouds -1 1006 86 10000 3.6 250 17:24 17.01.2021
4477 Snow -1 1005 86 8000 3.6 250 16:43 17.01.2021
4478 Snow -1 1005 86 8000 3.6 250 16:20 17.01.2021
4479 Snow -1 1005 80 7000 5.66 250 15:42 17.01.2021
4480 Snow 0 1005 80 7000 5.66 250 15:21 17.01.2021
4481 Clouds 0 1004 75 10000 4.63 280 14:48 17.01.2021
4482 Clouds 0 1004 75 10000 4.63 280 14:26 17.01.2021
4483 Clouds 0 1003 80 10000 5.14 260 13:45 17.01.2021
4484 Clouds 0 1003 80 10000 5.14 260 13:27 17.01.2021
4485 Clouds 0 1003 80 10000 6.17 260 12:52 17.01.2021
4486 Clouds 0 1003 80 10000 6.17 260 12:31 17.01.2021
4487 Clouds 0 1003 86 10000 5.14 250 11:54 17.01.2021
4488 Clouds -1 1003 86 10000 5.14 250 11:22 17.01.2021
4489 Clouds 0 1003 80 10000 3.6 250 10:46 17.01.2021
4490 Clouds -1 1003 80 10000 3.6 250 10:21 17.01.2021
4491 Clouds -1 1003 86 10000 3.6 250 09:21 17.01.2021
4492 Snow -1 1003 86 10000 3.09 260 08:43 17.01.2021
4493 Clouds -1 1002 93 10000 4.12 260 06:52 17.01.2021
4494 Snow -1 1000 93 10000 4.12 270 04:28 17.01.2021
4495 Snow 0 999 100 3200 4.63 280 02:42 17.01.2021
4496 Snow 0 999 93 5000 1.54 250 00:47 17.01.2021
4497 Rain 1 999 93 5000 3.6 250 00:18 17.01.2021
4498 Mist 1 999 93 5000 3.6 250 23:48 16.01.2021
4499 Rain 1 999 93 5000 3.6 250 23:19 16.01.2021
4500 Snow 2 999 86 7000 5.99 197 22:36 16.01.2021
4501 Snow 1 1000 86 7000 2.06 90 21:58 16.01.2021
4502 Snow 1 1000 80 10000 3.6 90 21:24 16.01.2021
4503 Clouds 0 1002 80 10000 4.12 80 20:59 16.01.2021
4504 Clouds 0 1002 80 10000 4.12 80 20:40 16.01.2021
4505 Clouds 0 1002 80 10000 4.12 80 20:18 16.01.2021
4506 Clouds 0 1003 80 10000 3.09 80 19:41 16.01.2021
4507 Clouds 0 1003 80 10000 3.09 80 19:23 16.01.2021
4508 Clouds 0 1003 75 10000 4.12 80 18:42 16.01.2021
4509 Clouds 0 1003 75 10000 4.12 80 18:21 16.01.2021
4510 Clouds 0 1004 75 10000 3.6 90 17:41 16.01.2021
4511 Clouds 1 1004 75 10000 3.6 90 17:23 16.01.2021
4512 Clouds 1 1005 75 10000 4.12 80 16:45 16.01.2021
4513 Clouds 1 1005 75 10000 4.12 80 16:25 16.01.2021
4514 Clouds 1 1006 69 10000 3.6 90 15:48 16.01.2021
4515 Clouds 1 1006 69 10000 3.6 90 15:18 16.01.2021
4516 Clouds 1 1006 64 10000 1.54 90 14:19 16.01.2021
4517 Clouds 1 1006 64 10000 2.06 70 13:48 16.01.2021
4518 Clouds 2 1006 64 10000 2.06 70 13:21 16.01.2021
4519 Clouds 1 1007 64 10000 3.09 60 12:39 16.01.2021
4520 Clouds 2 1007 64 10000 3.09 60 12:20 16.01.2021
4521 Clouds 1 1008 64 10000 3.6 90 11:46 16.01.2021
4522 Clouds 1 1008 64 10000 3.6 90 11:24 16.01.2021
4523 Clouds 0 1009 69 10000 0.51 0 10:45 16.01.2021
4524 Clouds 0 1009 69 10000 0.51 0 10:19 16.01.2021
4525 Clouds -2 1010 74 10000 0.51 0 09:32 16.01.2021
4526 Clouds -3 1011 74 10000 1.03 0 08:35 16.01.2021
4527 Clouds -4 1011 86 10000 0.51 0 07:31 16.01.2021
4528 Clouds -4 1011 86 10000 2.27 73 06:43 16.01.2021
4529 Clouds -4 1012 86 10000 1.03 230 04:39 16.01.2021
4530 Clear -5 1013 86 10000 1.03 0 02:56 16.01.2021
4531 Clear -5 1013 93 10000 1.18 88 00:50 16.01.2021
4532 Clear -5 1013 93 10000 1.07 91 00:28 16.01.2021
4533 Clear -6 1013 93 10000 0.51 0 23:55 15.01.2021
4534 Clear -5 1014 93 10000 1.28 78 22:56 15.01.2021
4535 Clear -5 1014 93 10000 1.39 49 22:24 15.01.2021
4536 Clear -4 1013 93 10000 0.51 0 21:46 15.01.2021
4537 Clear -4 1013 93 10000 1.54 10 20:59 15.01.2021
4538 Clear -4 1013 93 10000 1.54 10 20:40 15.01.2021
4539 Clear -4 1013 93 10000 1.54 10 20:21 15.01.2021
4540 Clear -3 1013 86 10000 0.51 0 19:40 15.01.2021
4541 Clear -3 1013 86 10000 0.51 0 19:22 15.01.2021
4542 Clouds -2 1012 80 10000 1.54 220 18:43 15.01.2021
4543 Clouds -1 1012 86 10000 2.06 240 18:19 15.01.2021
4544 Clouds -1 1012 86 10000 2.06 240 17:51 15.01.2021
4545 Clouds -1 1012 86 10000 2.06 240 17:25 15.01.2021
4546 Clouds -1 1011 86 10000 3.6 240 16:52 15.01.2021
4547 Clouds -1 1011 86 10000 3.6 240 16:25 15.01.2021
4548 Clouds 0 1011 80 10000 5.66 280 15:42 15.01.2021
4549 Clouds 0 1011 80 10000 5.66 280 15:22 15.01.2021
4550 Clouds 0 1009 86 10000 4.63 260 14:51 15.01.2021
4551 Snow 0 1009 86 10000 4.63 260 14:27 15.01.2021
4552 Snow 0 1008 93 6000 2.06 0 13:44 15.01.2021
4553 Snow 0 1008 93 6000 2.06 0 13:24 15.01.2021
4554 Snow 0 1008 93 4000 3.6 290 12:59 15.01.2021
4555 Snow 0 1008 93 4000 3.6 290 12:36 15.01.2021
4556 Snow 0 1008 93 4000 3.6 290 12:18 15.01.2021
4557 Snow 1 1008 93 4000 5.85 282 11:41 15.01.2021
4558 Snow 1 1009 100 1200 0.51 0 10:58 15.01.2021
4559 Snow 1 1009 100 1200 0.51 0 10:39 15.01.2021
4560 Snow 0 1009 93 4000 1.45 173 10:19 15.01.2021
4561 Snow 0 1009 93 4000 1.45 173 09:46 15.01.2021
4562 Snow 0 1009 93 4000 0.96 119 09:27 15.01.2021
4563 Snow -1 1008 86 4000 1.14 173 08:27 15.01.2021
4564 Snow -1 1008 80 4000 1.14 173 07:41 15.01.2021
4565 Snow -1 1008 80 4000 2.12 167 07:21 15.01.2021
4566 Clouds -1 1008 80 10000 1.27 163 05:36 15.01.2021
4567 Clouds -2 1007 80 10000 2.12 226 02:26 15.01.2021
4568 Clouds -1 1008 74 10000 6.69 260 00:32 15.01.2021
4569 Clouds -1 1007 74 10000 3.6 230 23:29 14.01.2021
4570 Clouds -1 1007 74 10000 6.69 240 22:50 14.01.2021
4571 Clouds 0 1007 74 10000 6.69 240 22:27 14.01.2021
4572 Clouds 0 1006 86 10000 4.63 240 21:56 14.01.2021
4573 Clouds 0 1006 86 10000 4.63 240 21:38 14.01.2021
4574 Clouds 0 1006 86 10000 4.63 240 21:19 14.01.2021
4575 Clouds 1 1005 80 10000 6.17 240 20:42 14.01.2021
4576 Clouds 1 1004 80 10000 5.14 250 19:57 14.01.2021
4577 Clouds 1 1004 80 10000 5.14 250 19:36 14.01.2021
4578 Clouds 1 1004 80 10000 5.14 250 19:36 14.01.2021
4579 Clouds 2 1004 80 10000 3.6 250 18:57 14.01.2021
4580 Clouds 2 1004 80 10000 3.6 250 18:36 14.01.2021
4581 Clouds 2 1004 75 10000 4.12 280 17:55 14.01.2021
4582 Clouds 2 1004 75 10000 4.12 280 17:29 14.01.2021
4583 Clouds 3 1003 70 10000 6.17 250 16:54 14.01.2021
4584 Clouds 3 1003 70 10000 6.17 250 16:30 14.01.2021
4585 Clouds 3 1003 75 10000 6.17 250 15:54 14.01.2021
4586 Clouds 4 1003 75 10000 6.17 250 15:28 14.01.2021
4587 Clouds 4 1002 75 10000 6.69 240 14:44 14.01.2021
4588 Clouds 4 1002 75 10000 6.69 240 14:22 14.01.2021
4589 Clouds 4 1002 70 10000 6.17 240 13:55 14.01.2021
4590 Clouds 4 1002 70 10000 6.17 240 13:24 14.01.2021
4591 Clouds 4 1002 70 10000 3.6 230 12:56 14.01.2021
4592 Clouds 4 1002 70 10000 3.6 230 12:21 14.01.2021
4593 Clouds 4 1003 70 10000 4.12 250 11:55 14.01.2021
4594 Clouds 4 1003 70 10000 4.12 250 11:28 14.01.2021
4595 Clouds 5 1004 75 10000 3.09 210 10:58 14.01.2021
4596 Clouds 4 1004 75 10000 3.09 210 10:40 14.01.2021
4597 Clouds 4 1004 75 10000 3.09 210 10:18 14.01.2021
4598 Clouds 4 1004 81 10000 2.57 250 09:42 14.01.2021
4599 Clouds 4 1004 81 10000 2.57 250 09:20 14.01.2021
4600 Clouds 3 1004 87 10000 3.27 254 08:33 14.01.2021
4601 Clouds 2 1004 93 10000 3.39 240 07:57 14.01.2021
4602 Clouds 2 1004 93 10000 3.39 240 07:31 14.01.2021
4603 Rain 2 1004 93 10000 1.13 207 06:34 14.01.2021
4604 Snow 2 1004 93 10000 1.54 120 04:57 14.01.2021
4605 Clouds 2 1006 87 10000 1.03 230 00:27 14.01.2021
4606 Clouds 3 1007 93 10000 1.54 260 23:31 13.01.2021
4607 Clouds 3 1007 93 10000 2.06 240 22:49 13.01.2021
4608 Rain 3 1007 93 10000 2.06 240 22:22 13.01.2021
4609 Clouds 3 1006 93 10000 1.86 230 21:43 13.01.2021
4610 Clouds 2 1006 93 10000 2 238 21:22 13.01.2021
4611 Clouds 2 1006 93 10000 2 238 20:51 13.01.2021
4612 Clouds 3 1006 93 10000 1.87 228 20:25 13.01.2021
4613 Clouds 3 1006 93 10000 1.03 0 19:49 13.01.2021
4614 Clouds 3 1006 93 10000 1.03 0 19:27 13.01.2021
4615 Clouds 3 1005 87 10000 2.06 210 18:51 13.01.2021
4616 Clouds 3 1005 87 10000 2.06 210 18:32 13.01.2021
4617 Clouds 3 1005 87 10000 1.03 0 17:47 13.01.2021
4618 Clouds 3 1005 87 10000 1.03 0 17:18 13.01.2021
4619 Clouds 3 1005 93 10000 2.57 320 16:45 13.01.2021
4620 Clouds 3 1005 93 10000 2.57 320 16:21 13.01.2021
4621 Clouds 2 1005 87 10000 2.57 290 15:49 13.01.2021
4622 Clouds 3 1005 87 10000 2.57 290 15:29 13.01.2021
4623 Clouds 2 1005 93 10000 1.54 280 14:30 13.01.2021
4624 Clouds 2 1003 93 10000 1.03 0 13:48 13.01.2021
4625 Clouds 2 1003 93 10000 1.03 0 13:25 13.01.2021
4626 Snow 2 1004 93 10000 1.54 80 12:46 13.01.2021
4627 Snow 1 1004 93 10000 1.54 80 12:25 13.01.2021
4628 Snow 1 1004 93 10000 1.03 0 11:51 13.01.2021
4629 Snow 1 1005 93 6000 1.03 0 11:33 13.01.2021
4630 Snow 1 1005 87 4000 1.03 0 10:49 13.01.2021
4631 Snow 1 1005 87 10000 1.03 0 10:29 13.01.2021
4632 Snow 2 1006 87 10000 3.09 280 09:49 13.01.2021
4633 Snow 2 1006 87 10000 3.09 280 09:26 13.01.2021
4634 Rain 4 1005 93 10000 5.66 260 08:46 13.01.2021
4635 Rain 4 1005 93 10000 5.66 260 08:23 13.01.2021
4636 Rain 8 1004 93 10000 5.14 270 07:29 13.01.2021
4637 Rain 11 1003 66 10000 10.29 250 06:21 13.01.2021
4638 Clouds 12 1003 54 10000 6.69 160 04:19 13.01.2021
4639 Clouds 12 1004 47 10000 5.66 160 03:44 13.01.2021
4640 Clouds 12 1004 47 10000 5.66 160 03:22 13.01.2021
4641 Clouds 12 1007 43 10000 4.63 190 00:51 13.01.2021
4642 Clouds 12 1008 44 10000 4.12 190 23:44 12.01.2021
4643 Clouds 12 1009 50 10000 2.06 260 22:59 12.01.2021
4644 Clouds 12 1009 50 10000 2.06 260 22:39 12.01.2021
4645 Clouds 12 1009 50 10000 2.06 260 22:19 12.01.2021
4646 Clouds 13 1009 44 10000 3.09 180 21:44 12.01.2021
4647 Clouds 13 1009 44 10000 3.09 180 21:25 12.01.2021
4648 Clouds 14 1010 39 10000 5.66 200 20:47 12.01.2021
4649 Clouds 15 1010 39 10000 5.66 200 20:27 12.01.2021
4650 Clouds 15 1010 47 10000 4.12 190 19:44 12.01.2021
4651 Rain 15 1010 51 10000 4.12 180 18:59 12.01.2021
4652 Rain 15 1010 51 10000 4.12 180 18:41 12.01.2021
4653 Clouds 16 1010 51 10000 4.12 180 18:21 12.01.2021
4654 Clouds 15 1011 62 10000 3.09 120 17:34 12.01.2021
4655 Clouds 16 1011 45 10000 3.09 170 16:56 12.01.2021
4656 Clouds 17 1011 45 10000 3.09 170 16:38 12.01.2021
4657 Clouds 17 1011 45 10000 3.09 170 16:18 12.01.2021
4658 Clouds 17 1011 45 10000 3.09 170 16:18 12.01.2021
4659 Clouds 17 1012 42 10000 4.63 230 15:29 12.01.2021
4660 Clouds 18 1013 42 10000 5.14 230 14:58 12.01.2021
4661 Clouds 18 1013 42 10000 5.14 230 14:40 12.01.2021
4662 Clouds 18 1013 42 10000 5.14 230 14:19 12.01.2021
4663 Clouds 18 1014 42 10000 4.63 210 13:47 12.01.2021
4664 Clouds 17 1015 51 10000 3.6 310 12:40 12.01.2021
4665 Clouds 17 1015 51 10000 3.6 310 12:21 12.01.2021
4666 Clouds 16 1016 58 10000 4.12 330 11:40 12.01.2021
4667 Clouds 15 1018 62 10000 2.06 360 10:50 12.01.2021
4668 Clouds 15 1018 62 10000 2.06 360 10:20 12.01.2021
4669 Clouds 14 1018 71 10000 0.51 0 09:55 12.01.2021
4670 Clouds 14 1018 71 10000 0.51 0 09:26 12.01.2021
4671 Clouds 13 1019 76 10000 1.03 0 08:42 12.01.2021
4672 Clouds 13 1019 76 10000 1.03 0 08:23 12.01.2021
4673 Clouds 11 1019 87 10000 1.03 0 07:35 12.01.2021
4674 Clouds 7 1019 81 10000 2.06 90 06:22 12.01.2021
4675 Clouds 8 1019 76 10000 1.54 70 05:30 12.01.2021
4676 Clear 11 1019 66 10000 2.06 250 03:26 12.01.2021
4677 Clear 11 1020 71 10000 1.54 260 02:19 12.01.2021
4678 Clear 11 1020 71 10000 1.54 260 01:28 12.01.2021
4679 Clear 12 1020 81 10000 2.06 250 23:51 11.01.2021
4680 Clear 12 1020 81 10000 2.06 250 23:23 11.01.2021
4681 Clear 12 1020 67 10000 3.09 230 22:58 11.01.2021
4682 Clear 12 1020 67 10000 3.09 230 22:39 11.01.2021
4683 Clear 12 1020 67 10000 3.09 230 22:18 11.01.2021
4684 Clear 13 1020 62 10000 4.63 220 21:37 11.01.2021
4685 Clear 13 1020 62 10000 4.63 220 21:18 11.01.2021
4686 Clear 13 1020 67 10000 3.6 230 20:41 11.01.2021
4687 Clear 13 1020 67 10000 3.6 230 20:22 11.01.2021
4688 Clear 13 1020 67 10000 4.12 220 19:54 11.01.2021
4689 Clear 13 1020 67 10000 4.12 220 19:24 11.01.2021
4690 Clear 13 1020 67 10000 4.12 220 19:24 11.01.2021
4691 Clouds 11 1020 87 10000 1.03 0 18:45 11.01.2021
4692 Clouds 11 1020 87 10000 1.03 0 18:25 11.01.2021
4693 Clouds 12 1020 82 10000 1.54 80 17:44 11.01.2021
4694 Clouds 12 1020 82 10000 1.54 80 17:26 11.01.2021
4695 Clouds 13 1019 76 10000 1.03 0 16:57 11.01.2021
4696 Clouds 13 1019 76 10000 1.03 0 16:36 11.01.2021
4697 Clouds 13 1019 76 10000 1.03 0 16:18 11.01.2021
4698 Clouds 14 1020 76 10000 1.03 330 15:44 11.01.2021
4699 Clouds 14 1020 76 10000 1.03 330 15:25 11.01.2021
4700 Clouds 15 1020 67 10000 2.06 310 14:39 11.01.2021
4701 Clouds 14 1020 76 10000 1.54 280 13:50 11.01.2021
4702 Clouds 14 1020 76 10000 1.54 280 13:25 11.01.2021
4703 Clouds 13 1020 76 10000 2.06 270 12:49 11.01.2021
4704 Clouds 13 1020 76 10000 2.06 270 12:30 11.01.2021
4705 Clouds 13 1020 76 6000 1.03 0 11:56 11.01.2021
4706 Clouds 13 1020 76 6000 1.03 0 11:27 11.01.2021
4707 Clouds 12 1021 82 6000 1.03 0 10:47 11.01.2021
4708 Clouds 12 1021 82 6000 1.03 0 10:24 11.01.2021
4709 Clouds 12 1021 87 6000 1.54 110 09:42 11.01.2021
4710 Clouds 12 1021 87 6000 1.54 110 09:21 11.01.2021
4711 Clouds 9 1021 100 7000 1.03 0 08:44 11.01.2021
4712 Clouds 8 1020 93 7000 1.03 0 08:18 11.01.2021
4713 Clouds 7 1020 93 7000 1.03 0 07:27 11.01.2021
4714 Mist 7 1020 100 4000 2.63 202 06:58 11.01.2021
4715 Clouds 8 1019 93 10000 1.03 0 03:57 11.01.2021
4716 Clouds 8 1019 100 10000 1.03 0 01:33 11.01.2021
4717 Clouds 9 1019 93 10000 1.03 0 00:34 11.01.2021
4718 Clouds 10 1019 93 10000 1.54 100 23:35 10.01.2021
4719 Clouds 10 1020 93 10000 1.03 0 22:48 10.01.2021
4720 Clouds 10 1020 93 10000 1.03 0 22:24 10.01.2021
4721 Clouds 10 1020 93 10000 1.03 0 22:24 10.01.2021
4722 Clouds 11 1020 87 10000 0.51 0 21:46 10.01.2021
4723 Clouds 11 1020 87 10000 0.51 0 21:21 10.01.2021
4724 Clouds 11 1020 87 10000 0.51 0 21:21 10.01.2021
4725 Clouds 11 1019 87 10000 1.03 0 20:56 10.01.2021
4726 Clouds 11 1019 87 10000 1.03 0 20:33 10.01.2021
4727 Clouds 11 1019 87 10000 1.03 0 20:33 10.01.2021
4728 Clouds 11 1020 87 10000 1.03 0 19:44 10.01.2021
4729 Clouds 11 1020 87 10000 1.03 0 19:26 10.01.2021
4730 Clouds 11 1020 87 10000 0.51 0 18:56 10.01.2021
4731 Rain 11 1020 87 10000 0.51 0 18:37 10.01.2021
4732 Clouds 11 1020 87 10000 0.51 0 18:18 10.01.2021
4733 Clouds 12 1020 82 10000 1.54 110 17:21 10.01.2021
4734 Clouds 12 1020 82 10000 0.51 0 16:33 10.01.2021
4735 Clouds 12 1020 82 10000 0.51 0 16:33 10.01.2021
4736 Rain 13 1019 76 10000 1.03 0 15:57 10.01.2021
4737 Rain 13 1019 76 10000 2.06 250 15:25 10.01.2021
4738 Clouds 14 1019 72 10000 2.57 250 14:50 10.01.2021
4739 Rain 14 1019 72 10000 2.57 250 14:32 10.01.2021
4740 Clouds 14 1019 67 10000 4.12 240 13:55 10.01.2021
4741 Clouds 14 1019 67 10000 4.12 240 13:37 10.01.2021
4742 Clouds 14 1019 63 10000 5.66 250 13:18 10.01.2021
4743 Clouds 14 1019 63 10000 5.66 250 12:50 10.01.2021
4744 Clouds 14 1019 63 10000 5.66 250 12:31 10.01.2021
4745 Clouds 14 1020 62 10000 2.06 300 11:40 10.01.2021
4746 Clouds 13 1020 62 10000 2.06 300 11:19 10.01.2021
4747 Clouds 12 1020 71 10000 1.03 0 10:38 10.01.2021
4748 Clouds 12 1020 71 10000 1.03 0 10:20 10.01.2021
4749 Clouds 11 1020 87 10000 1.54 100 09:27 10.01.2021
4750 Clouds 9 1020 93 10000 0.51 0 08:22 10.01.2021
4751 Clouds 9 1019 93 10000 2.27 190 07:31 10.01.2021
4752 Clouds 9 1019 93 10000 1.03 0 06:20 10.01.2021
4753 Clouds 9 1019 87 10000 1.7 174 05:37 10.01.2021
4754 Clouds 9 1018 87 10000 0.51 0 03:26 10.01.2021
4755 Clouds 9 1019 87 10000 0.51 0 01:28 10.01.2021
4756 Clouds 10 1019 81 10000 1.03 0 23:51 09.01.2021
4757 Clouds 10 1019 81 10000 1.03 0 23:33 09.01.2021
4758 Clouds 10 1019 81 10000 1.03 0 22:48 09.01.2021
4759 Clouds 10 1019 81 10000 1.03 0 22:19 09.01.2021
4760 Clouds 10 1019 76 10000 2.06 220 21:57 09.01.2021
4761 Clouds 10 1019 76 10000 2.06 220 21:39 09.01.2021
4762 Clouds 10 1019 76 10000 2.06 220 21:19 09.01.2021
4763 Clouds 10 1019 76 10000 1.03 170 20:44 09.01.2021
4764 Clouds 10 1019 81 10000 1.54 50 19:45 09.01.2021
4765 Clouds 10 1019 81 10000 1.54 50 19:24 09.01.2021
4766 Clouds 10 1019 76 10000 1.54 180 18:59 09.01.2021
4767 Clouds 10 1019 76 10000 1.54 180 18:35 09.01.2021
4768 Clouds 11 1019 81 10000 1.03 0 17:50 09.01.2021
4769 Clouds 11 1018 76 10000 1.54 230 17:32 09.01.2021
4770 Clouds 11 1017 66 10000 1.03 0 16:36 09.01.2021
4771 Clouds 12 1017 66 10000 1.54 270 15:53 09.01.2021
4772 Clouds 12 1017 66 10000 1.54 270 15:34 09.01.2021
4773 Clouds 13 1017 62 10000 3.09 270 14:42 09.01.2021
4774 Clouds 13 1017 62 10000 3.09 270 14:21 09.01.2021
4775 Clouds 14 1017 54 10000 1.54 320 13:50 09.01.2021
4776 Clouds 13 1017 54 10000 1.54 320 13:31 09.01.2021
4777 Clouds 13 1017 54 10000 2.06 240 12:59 09.01.2021
4778 Clouds 13 1017 54 10000 2.06 240 12:27 09.01.2021
4779 Clouds 12 1018 62 8000 0.51 0 11:57 09.01.2021
4780 Clouds 12 1018 62 8000 0.51 0 11:36 09.01.2021
4781 Clouds 12 1019 66 8000 1.54 50 10:56 09.01.2021
4782 Clouds 11 1019 66 8000 1.54 50 10:37 09.01.2021
4783 Clouds 9 1020 76 7000 2.06 90 09:59 09.01.2021
4784 Clouds 9 1020 76 7000 2.06 90 09:40 09.01.2021
4785 Clouds 8 1020 76 7000 2.06 90 09:18 09.01.2021
4786 Clouds 6 1019 87 6000 1.03 0 07:43 09.01.2021
4787 Clouds 5 1018 87 8000 2.06 110 06:41 09.01.2021
4788 Clouds 2 1018 87 8000 2.06 110 06:22 09.01.2021
4789 Clouds 4 1018 93 6000 2.06 120 03:47 09.01.2021
4790 Clouds 4 1019 93 6000 1.03 90 02:39 09.01.2021
4791 Clouds 4 1019 93 6000 1.03 90 02:19 09.01.2021
4792 Clouds 7 1017 73 10000 0.45 171 00:46 09.01.2021
4793 Clouds 7 1017 73 10000 0.89 158 00:22 09.01.2021
4794 Clouds 7 1017 73 10000 0.45 215 23:30 08.01.2021
4795 Clouds 8 1017 73 10000 0.89 164 22:38 08.01.2021
4796 Mist 7 1019 93 4800 1.03 0 21:46 08.01.2021
4797 Clouds 7 1019 93 6000 1.54 340 20:58 08.01.2021
4798 Clouds 7 1019 93 6000 1.54 340 20:33 08.01.2021
4799 Clouds 9 1018 87 6000 2.06 60 19:57 08.01.2021
4800 Clouds 9 1018 93 6000 1.54 10 19:23 08.01.2021
4801 Clouds 8 1018 93 6000 2.06 360 18:50 08.01.2021
4802 Clouds 9 1018 87 6000 2.57 20 18:30 08.01.2021
4803 Clouds 9 1018 87 6000 1.54 350 17:50 08.01.2021
4804 Clouds 10 1018 81 7000 2.06 130 17:22 08.01.2021
4805 Clouds 10 1018 81 7000 2.06 180 16:44 08.01.2021
4806 Clouds 11 1018 71 7000 1.54 200 15:44 08.01.2021
4807 Clouds 12 1018 66 6000 3.09 210 15:18 08.01.2021
4808 Clouds 13 1018 62 6000 3.6 200 14:35 08.01.2021
4809 Clouds 13 1018 66 6000 2.57 190 13:47 08.01.2021
4810 Clouds 12 1018 66 6000 2.57 180 13:18 08.01.2021
4811 Clouds 12 1018 66 6000 1.54 190 12:49 08.01.2021
4812 Clouds 11 1019 81 6000 1.03 0 12:20 08.01.2021
4813 Mist 10 1019 87 4000 1.54 20 11:45 08.01.2021
4814 Mist 10 1019 81 3400 1.03 0 11:27 08.01.2021
4815 Mist 8 1020 87 2800 1.03 0 10:52 08.01.2021
4816 Fog 7 1021 93 1300 1.03 0 10:32 08.01.2021
4817 Fog 6 1021 100 800 0.51 0 09:45 08.01.2021
4818 Fog 6 1021 93 600 0.51 0 09:27 08.01.2021
4819 Fog 3 1021 93 350 0.51 0 08:33 08.01.2021
4820 Clouds 4 1020 87 7000 2.06 100 07:26 08.01.2021
4821 Clouds 5 1020 87 7000 2.06 90 05:51 08.01.2021
4822 Clouds 4 1022 93 7000 1.03 0 23:47 07.01.2021
4823 Clouds 4 1022 93 7000 1.03 0 23:29 07.01.2021
4824 Clouds 4 1021 93 10000 1.43 172 22:46 07.01.2021
4825 Clouds 4 1021 93 10000 1.37 179 22:25 07.01.2021
4826 Clouds 4 1022 93 10000 1.37 179 21:44 07.01.2021
4827 Clouds 4 1022 93 10000 1.36 186 21:26 07.01.2021
4828 Rain 4 1022 93 10000 0.51 0 20:47 07.01.2021
4829 Rain 4 1022 93 10000 0.51 0 20:47 07.01.2021
4830 Clouds 4 1022 93 10000 0.51 0 20:28 07.01.2021
4831 Clouds 5 1022 93 10000 1.47 186 19:44 07.01.2021
4832 Clouds 5 1022 93 10000 1.33 186 19:21 07.01.2021
4833 Clouds 5 1021 87 10000 1.33 197 18:30 07.01.2021
4834 Clouds 6 1021 81 10000 1.03 0 17:56 07.01.2021
4835 Clouds 6 1021 81 10000 1.03 0 17:28 07.01.2021
4836 Clouds 7 1021 81 10000 1.03 100 16:53 07.01.2021
4837 Clouds 7 1021 81 10000 1.03 100 16:28 07.01.2021
4838 Clouds 8 1021 71 8000 1.03 80 15:41 07.01.2021
4839 Clouds 8 1021 71 8000 1.03 80 15:22 07.01.2021
4840 Clouds 8 1021 71 10000 2.26 206 14:27 07.01.2021
4841 Clouds 8 1021 71 8000 2.57 70 13:46 07.01.2021
4842 Clouds 7 1021 76 6000 1.03 0 13:18 07.01.2021
4843 Clouds 6 1021 81 6000 2.06 350 12:43 07.01.2021
4844 Clouds 6 1022 75 10000 2.6 90 11:57 07.01.2021
4845 Clouds 6 1022 75 10000 2.6 90 11:57 07.01.2021
4846 Clouds 6 1022 75 10000 2.6 90 11:36 07.01.2021
4847 Clouds 6 1023 81 10000 3.1 80 10:51 07.01.2021
4848 Clouds 5 1023 81 10000 3.1 80 10:31 07.01.2021
4849 Clouds 5 1024 86 10000 2.1 100 09:48 07.01.2021
4850 Clouds 5 1024 86 10000 2.1 100 09:20 07.01.2021
4851 Clouds 4 1024 80 8000 2.1 120 08:29 07.01.2021
4852 Clouds 4 1024 80 7000 1.5 140 07:53 07.01.2021
4853 Clouds 4 1024 80 7000 1.5 140 07:30 07.01.2021
4854 Clouds 4 1023 86 7000 2.1 90 05:26 07.01.2021
4855 Clouds 4 1024 86 7000 0.5 0 00:31 07.01.2021
4856 Clouds 4 1024 86 7000 2.6 110 23:49 06.01.2021
4857 Clouds 4 1024 86 7000 2.6 100 22:44 06.01.2021
4858 Clouds 4 1025 87 7000 2.1 90 21:44 06.01.2021
4859 Clouds 4 1025 87 7000 2.1 90 21:23 06.01.2021
4860 Clouds 4 1025 87 7000 2.6 80 20:58 06.01.2021
4861 Clouds 4 1025 87 7000 2.6 80 20:36 06.01.2021
4862 Clouds 4 1025 93 7000 2.6 100 20:18 06.01.2021
4863 Clouds 4 1025 93 7000 2.6 100 19:38 06.01.2021
4864 Clouds 5 1025 87 7000 1 0 19:19 06.01.2021
4865 Clouds 5 1025 87 7000 1 0 18:41 06.01.2021
4866 Clouds 6 1025 87 7000 1.51 117 18:23 06.01.2021
4867 Clouds 6 1025 87 7000 1.51 117 17:42 06.01.2021
4868 Clouds 6 1025 87 7000 1.6 120 17:24 06.01.2021
4869 Clouds 6 1024 81 7000 2.6 80 16:42 06.01.2021
4870 Clouds 7 1024 87 7000 4.1 70 16:19 06.01.2021
4871 Clouds 7 1024 87 7000 4.1 70 15:52 06.01.2021
4872 Clouds 7 1024 87 7000 4.1 70 15:31 06.01.2021
4873 Clouds 8 1024 81 7000 4.1 70 14:48 06.01.2021
4874 Clouds 8 1024 81 7000 4.1 70 14:21 06.01.2021
4875 Clouds 8 1024 76 6000 1.5 100 13:45 06.01.2021
4876 Clouds 8 1024 75 6000 2.1 80 13:23 06.01.2021
4877 Clouds 8 1024 75 6000 2.1 80 12:48 06.01.2021
4878 Clouds 8 1025 81 6000 2.6 90 12:20 06.01.2021
4879 Clouds 6 1025 81 6000 2.6 90 11:36 06.01.2021
4880 Clouds 5 1025 87 6000 1.5 110 11:18 06.01.2021
4881 Clouds 4 1025 100 6000 0.5 0 10:20 06.01.2021
4882 Clouds 4 1025 100 6000 0.5 0 09:50 06.01.2021
4883 Clouds 3 1025 93 6000 0.5 0 08:58 06.01.2021
4884 Fog 2 1025 93 1000 0.95 87 08:30 06.01.2021
4885 Fog 3 1025 100 1000 0.5 0 07:54 06.01.2021
4886 Fog 3 1024 100 1000 1 0 06:48 06.01.2021
4887 Fog 3 1024 86 800 0.81 106 05:33 06.01.2021
4888 Fog 2 1023 86 800 0.87 111 04:34 06.01.2021
4889 Fog 3 1023 100 800 0.5 0 02:47 06.01.2021
4890 Fog 3 1023 100 800 0.5 0 02:23 06.01.2021
4891 Fog 2 1022 88 800 0.43 120 00:51 06.01.2021
4892 Mist 3 1022 93 3500 0.31 139 23:31 05.01.2021
4893 Clouds 4 1021 93 6000 0.32 165 22:44 05.01.2021
4894 Clouds 5 1021 93 10000 0.45 136 22:21 05.01.2021
4895 Clouds 5 1021 93 10000 0.45 136 21:56 05.01.2021
4896 Clouds 6 1021 93 10000 1 0 20:56 05.01.2021
4897 Clouds 6 1021 93 10000 1 0 20:25 05.01.2021
4898 Fog 6 1021 100 1300 1.11 132 19:44 05.01.2021
4899 Rain 6 1020 100 1300 0.63 227 19:21 05.01.2021
4900 Rain 6 1020 100 1300 0.64 226 18:44 05.01.2021
4901 Rain 6 1020 100 2000 2.1 300 18:25 05.01.2021
4902 Rain 6 1020 100 2000 2.1 300 17:50 05.01.2021
4903 Mist 6 1020 100 2000 2.1 300 17:29 05.01.2021
4904 Rain 6 1019 87 2000 2.6 70 16:53 05.01.2021
4905 Rain 6 1019 87 2000 2.6 70 16:22 05.01.2021
4906 Rain 7 1019 93 2000 3.76 358 15:50 05.01.2021
4907 Rain 7 1019 93 2000 0.84 329 15:25 05.01.2021
4908 Rain 6 1019 93 3200 3.6 70 14:41 05.01.2021
4909 Rain 6 1019 93 3200 2.1 90 13:51 05.01.2021
4910 Rain 6 1019 87 4000 3.1 280 13:30 05.01.2021
4911 Rain 6 1019 87 7000 3.1 290 12:50 05.01.2021
4912 Rain 6 1019 87 7000 3.1 290 12:28 05.01.2021
4913 Rain 8 1018 61 6000 1.5 100 11:40 05.01.2021
4914 Clouds 7 1018 61 10000 2.6 70 11:21 05.01.2021
4915 Clouds 7 1018 61 10000 2.6 70 11:19 05.01.2021
4916 Clouds 7 1018 61 10000 2.6 70 10:43 05.01.2021
4917 Clouds 7 1019 65 10000 3.1 80 09:51 05.01.2021
4918 Clouds 6 1019 60 8000 4.1 70 09:30 05.01.2021
4919 Clouds 4 1019 60 8000 4.1 70 08:41 05.01.2021
4920 Clouds 4 1019 63 6000 1 0 08:18 05.01.2021
4921 Clear 2 1018 86 10000 1.58 105 05:29 05.01.2021
4922 Clear 2 1018 92 10000 0.5 220 02:36 05.01.2021
4923 Clear 2 1018 80 10000 0.5 0 00:22 05.01.2021
4924 Clear 3 1018 80 10000 0.5 0 23:39 04.01.2021
4925 Clear 3 1019 73 10000 2.1 10 23:19 04.01.2021
4926 Clear 4 1019 73 10000 2.1 10 22:42 04.01.2021
4927 Clear 4 1019 69 10000 1 0 21:57 04.01.2021
4928 Clear 4 1019 69 10000 1 0 21:38 04.01.2021
4929 Clear 4 1019 70 10000 0.5 0 20:56 04.01.2021
4930 Clear 4 1019 69 10000 0.5 0 20:34 04.01.2021
4931 Clear 5 1019 69 10000 1.5 50 19:55 04.01.2021
4932 Clear 5 1019 69 10000 1.5 50 19:29 04.01.2021
4933 Clear 5 1019 69 10000 1 0 18:58 04.01.2021
4934 Clear 6 1019 69 10000 1 0 18:31 04.01.2021
4935 Clear 6 1019 69 10000 1 240 17:46 04.01.2021
4936 Clear 7 1019 70 10000 1 240 17:27 04.01.2021
4937 Clear 9 1019 70 10000 1.9 102 16:48 04.01.2021
4938 Clear 9 1019 68 10000 1.97 116 16:28 04.01.2021
4939 Clear 11 1019 68 10000 2.1 150 15:52 04.01.2021
4940 Clear 11 1020 60 10000 3.6 170 15:34 04.01.2021
4941 Clear 12 1020 60 10000 3.6 170 14:50 04.01.2021
4942 Clear 12 1020 46 10000 0.5 0 13:53 04.01.2021
4943 Clear 11 1020 46 10000 0.5 0 13:34 04.01.2021
4944 Clouds 10 1020 53 6000 0.5 0 12:50 04.01.2021
4945 Clouds 10 1020 53 6000 0.5 0 12:25 04.01.2021
4946 Clouds 9 1021 57 6000 1 0 11:31 04.01.2021
4947 Clouds 8 1022 50 6000 0.5 0 10:56 04.01.2021
4948 Clouds 8 1022 51 6000 0.5 0 10:37 04.01.2021
4949 Clouds 6 1023 80 6000 1.25 125 10:18 04.01.2021
4950 Clouds 5 1023 80 6000 1.32 105 09:23 04.01.2021
4951 Mist 3 1023 54 4800 0.5 0 08:50 04.01.2021
4952 Mist 1 1023 92 4500 1.5 270 08:21 04.01.2021
4953 Mist 1 1023 92 4500 1.5 270 07:45 04.01.2021
4954 Clouds 0 1023 92 7000 0.7 123 05:35 04.01.2021
4955 Clear 1 1023 92 10000 0.73 107 04:44 04.01.2021
4956 Clear 2 1023 76 10000 0.26 112 01:26 04.01.2021
4957 Clear 3 1023 75 10000 0.19 71 23:55 03.01.2021
4958 Clear 2 1023 75 10000 0.27 72 23:26 03.01.2021
4959 Clear 2 1023 75 10000 0.27 72 22:57 03.01.2021
4960 Clear 3 1023 75 10000 0.27 72 22:38 03.01.2021
4961 Clear 4 1023 86 10000 0.84 99 22:18 03.01.2021
4962 Clear 4 1023 86 10000 0.84 99 21:34 03.01.2021
4963 Clear 4 1023 86 10000 0.5 0 20:53 03.01.2021
4964 Clear 5 1023 86 10000 0.5 0 20:34 03.01.2021
4965 Clear 4 1024 86 10000 1.15 77 19:58 03.01.2021
4966 Clear 4 1024 86 10000 1.15 77 19:37 03.01.2021
4967 Clear 5 1023 75 10000 1.09 92 19:18 03.01.2021
4968 Clear 5 1023 75 10000 1.16 87 18:41 03.01.2021
4969 Clear 6 1023 70 10000 1.39 90 18:21 03.01.2021
4970 Clear 6 1023 70 10000 1.39 90 17:49 03.01.2021
4971 Clear 6 1023 70 10000 1.19 92 17:26 03.01.2021
4972 Clear 7 1023 65 10000 1.19 92 16:44 03.01.2021
4973 Clouds 9 1023 53 10000 1 0 16:20 03.01.2021
4974 Clouds 10 1023 53 10000 1 0 15:48 03.01.2021
4975 Clouds 10 1023 53 10000 1 0 15:29 03.01.2021
4976 Clouds 10 1023 53 10000 2.1 280 14:57 03.01.2021
4977 Clouds 10 1023 53 10000 2.1 280 14:30 03.01.2021
4978 Clouds 11 1023 50 10000 1.5 280 13:45 03.01.2021
4979 Clouds 11 1023 46 10000 0.5 0 13:23 03.01.2021
4980 Clouds 11 1023 46 10000 0.5 0 12:36 03.01.2021
4981 Clouds 9 1024 61 10000 0.5 0 11:42 03.01.2021
4982 Clouds 9 1024 61 10000 0.5 0 11:24 03.01.2021
4983 Clouds 7 1025 75 10000 1.67 93 10:45 03.01.2021
4984 Clouds 6 1026 80 7000 1.65 85 10:18 03.01.2021
4985 Clouds 6 1026 80 7000 1.71 78 09:41 03.01.2021
4986 Clouds 6 1026 86 7000 1.71 78 09:22 03.01.2021
4987 Fog 2 1026 92 2100 1 0 07:42 03.01.2021
4988 Clear -4 1026 100 10000 1 110 05:58 03.01.2021
4989 Clear 1 1025 76 8000 1.91 67 02:27 03.01.2021
4990 Clear 1 1026 92 10000 1.91 67 01:45 03.01.2021
4991 Clear 2 1025 74 10000 1.76 69 00:19 03.01.2021
4992 Clear 2 1025 74 10000 1.36 73 23:28 02.01.2021
4993 Clear 2 1026 74 10000 1.36 73 22:55 02.01.2021
4994 Clear 2 1026 72 10000 1.37 72 22:32 02.01.2021
4995 Clear 3 1025 86 10000 1.37 72 21:51 02.01.2021
4996 Clear 3 1025 86 10000 1.37 72 21:31 02.01.2021
4997 Clear 4 1025 80 10000 1.51 72 20:50 02.01.2021
4998 Clear 4 1025 80 10000 1.51 74 20:29 02.01.2021
4999 Clear 4 1025 80 10000 1 220 19:59 02.01.2021
5000 Clear 5 1025 65 10000 1.75 80 19:20 02.01.2021
5001 Clear 5 1025 65 10000 1.87 72 18:56 02.01.2021
5002 Clear 5 1025 65 10000 1.87 72 18:38 02.01.2021
5003 Clear 7 1025 63 10000 1.93 79 18:19 02.01.2021
5004 Clear 6 1025 63 10000 1.93 79 17:38 02.01.2021
5005 Clouds 8 1024 61 10000 1.5 220 16:53 02.01.2021
5006 Clouds 9 1024 60 10000 1.5 220 16:23 02.01.2021
5007 Clouds 12 1024 46 10000 1 0 15:54 02.01.2021
5008 Clouds 12 1024 46 10000 1 0 15:31 02.01.2021
5009 Clouds 12 1024 55 10000 1.5 0 14:55 02.01.2021
5010 Clouds 12 1024 55 10000 1.5 0 14:34 02.01.2021
5011 Clouds 12 1024 48 10000 0.5 0 13:44 02.01.2021
5012 Clouds 12 1024 50 10000 1 0 12:59 02.01.2021
5013 Clouds 12 1024 50 10000 1 0 12:41 02.01.2021
5014 Clouds 12 1025 50 10000 0.5 0 12:22 02.01.2021
5015 Clouds 11 1025 50 10000 0.5 0 11:42 02.01.2021
5016 Clouds 10 1025 57 10000 1 0 11:20 02.01.2021
5017 Clouds 9 1025 57 10000 1 0 10:42 02.01.2021
5018 Clouds 8 1026 65 10000 0.5 0 10:23 02.01.2021
5019 Clouds 8 1026 65 10000 0.5 0 09:43 02.01.2021
5020 Clouds 5 1025 86 8000 0.75 102 09:21 02.01.2021
5021 Clouds 6 1025 86 8000 0.75 102 08:48 02.01.2021
5022 Clouds 3 1025 65 7000 1 110 08:19 02.01.2021
5023 Clouds 3 1025 80 7000 1 110 07:25 02.01.2021
5024 Clouds 2 1024 80 8000 1 0 06:58 02.01.2021
5025 Clouds 1 1023 82 8000 0.5 90 06:18 02.01.2021
5026 Clear 2 1023 80 10000 0.5 0 04:26 02.01.2021
5027 Clear 4 1022 75 10000 0.84 111 00:49 02.01.2021
5028 Clear 4 1022 75 10000 0.37 123 00:28 02.01.2021
5029 Clear 6 1021 70 10000 1.5 40 23:39 01.01.2021
5030 Clear 6 1021 75 10000 0.8 266 23:19 01.01.2021
5031 Clear 6 1021 75 10000 0.8 266 22:46 01.01.2021
5032 Clear 4 1021 75 10000 1.16 248 22:21 01.01.2021
5033 Clear 5 1021 70 10000 0.5 0 21:43 01.01.2021
5034 Clear 5 1020 70 10000 0.5 80 21:20 01.01.2021
5035 Clear 5 1020 70 10000 0.5 80 20:51 01.01.2021
5036 Clear 5 1020 70 10000 1.5 30 20:19 01.01.2021
5037 Clear 6 1020 70 10000 1.5 30 19:42 01.01.2021
5038 Clear 6 1020 70 10000 1.5 30 19:22 01.01.2021
5039 Clear 6 1020 70 10000 0.5 0 18:48 01.01.2021
5040 Clear 6 1020 70 10000 0.5 0 18:29 01.01.2021
5041 Clouds 7 1019 70 10000 0.5 0 17:50 01.01.2021
5042 Clouds 7 1019 70 10000 0.5 0 17:24 01.01.2021
5043 Clouds 9 1019 61 10000 1.71 138 16:53 01.01.2021
5044 Clouds 9 1019 61 10000 2 138 16:29 01.01.2021
5045 Clouds 12 1019 50 10000 2.1 250 15:43 01.01.2021
5046 Clouds 12 1018 47 10000 2.6 280 14:51 01.01.2021
5047 Clouds 12 1018 47 10000 2.6 280 14:32 01.01.2021
5048 Clouds 12 1018 46 10000 3.6 180 13:42 01.01.2021
5049 Clouds 12 1019 46 10000 3.6 200 13:23 01.01.2021
5050 Clouds 12 1019 45 10000 3.6 200 12:39 01.01.2021
5051 Clouds 12 1019 46 10000 2.1 190 12:18 01.01.2021
5052 Clouds 12 1019 46 10000 2.1 190 11:39 01.01.2021
5053 Clouds 10 1019 53 10000 1 0 11:18 01.01.2021
5054 Clouds 10 1019 53 10000 1 0 10:35 01.01.2021
5055 Clouds 7 1020 75 10000 1 0 09:47 01.01.2021
5056 Clear 5 1020 86 10000 2.1 60 09:20 01.01.2021
5057 Clear 4 1020 86 10000 2.1 60 08:25 01.01.2021
5058 Clear 1 1018 93 10000 1.36 126 04:53 01.01.2021
5059 Clear 3 1018 75 10000 1.02 135 02:39 01.01.2021
5060 Clear 3 1018 80 10000 0.5 0 01:35 01.01.2021
5061 Clear 3 1018 86 10000 1.09 129 00:28 01.01.2021
5062 Clear 6 1017 65 10000 0.5 40 23:22 31.12.2020
5063 Clear 6 1017 65 10000 0.5 40 22:58 31.12.2020
5064 Clear 6 1017 65 10000 0.5 40 22:38 31.12.2020
5065 Clear 8 1017 66 10000 1.34 138 22:19 31.12.2020
5066 Clear 8 1017 66 10000 1.34 138 21:47 31.12.2020
5067 Clear 8 1017 66 10000 1.34 138 21:47 31.12.2020
5068 Clear 8 1017 66 10000 1.42 148 21:23 31.12.2020
5069 Clear 8 1017 66 10000 1.42 148 20:49 31.12.2020
5070 Clear 8 1017 70 10000 1.4 143 20:18 31.12.2020
5071 Clear 8 1017 70 10000 1.4 143 19:46 31.12.2020
5072 Clear 8 1017 70 10000 1.35 151 19:24 31.12.2020
5073 Clear 8 1017 70 10000 1.3 140 18:44 31.12.2020
5074 Clear 8 1017 70 10000 1.44 140 18:24 31.12.2020
5075 Clear 9 1017 66 10000 1.44 140 17:44 31.12.2020
5076 Clear 9 1017 66 10000 1.44 140 17:44 31.12.2020
5077 Clear 10 1017 57 10000 2.1 280 17:23 31.12.2020
5078 Clear 10 1017 57 10000 2.1 280 16:43 31.12.2020
5079 Clear 10 1017 57 10000 2.1 280 16:43 31.12.2020
5080 Clear 10 1017 57 10000 2.1 280 16:43 31.12.2020
5081 Clouds 11 1017 50 10000 1.5 260 16:23 31.12.2020
5082 Clouds 12 1017 50 10000 1.5 260 15:46 31.12.2020
5083 Clouds 12 1017 54 10000 1.5 0 15:22 31.12.2020
5084 Clouds 11 1017 50 10000 1.5 260 15:22 31.12.2020
5085 Clouds 12 1017 54 10000 1.5 0 14:56 31.12.2020
5086 Clouds 12 1017 54 10000 1.5 0 14:38 31.12.2020
5087 Clouds 12 1017 54 10000 1 0 14:20 31.12.2020
5088 Clouds 12 1017 54 10000 1 0 13:39 31.12.2020
5089 Clouds 12 1018 50 10000 2.1 190 13:20 31.12.2020
5090 Clouds 12 1018 50 10000 2.1 190 12:53 31.12.2020
5091 Clouds 12 1018 50 10000 2.1 190 12:35 31.12.2020
5092 Clouds 12 1019 50 10000 2.1 210 11:52 31.12.2020
5093 Clouds 12 1019 50 10000 2.1 210 11:32 31.12.2020
5094 Clouds 12 1019 50 10000 2.1 210 11:32 31.12.2020
5095 Clouds 11 1019 54 10000 0.5 0 10:50 31.12.2020
5096 Clouds 11 1019 54 10000 0.5 0 10:29 31.12.2020
5097 Clouds 9 1020 61 10000 0.5 0 09:58 31.12.2020
5098 Clouds 9 1020 61 10000 0.5 0 09:36 31.12.2020
5099 Clouds 8 1020 65 10000 1 0 08:51 31.12.2020
5100 Clouds 8 1020 65 10000 1 0 08:33 31.12.2020
5101 Clouds 6 1020 80 10000 0.5 0 07:59 31.12.2020
5102 Clouds 4 1020 80 10000 0.5 0 07:32 31.12.2020
5103 Clouds 3 1020 86 8000 1.22 87 05:56 31.12.2020
5104 Clouds 3 1020 86 8000 1.15 87 05:28 31.12.2020
5105 Clear 2 1020 86 10000 1.19 89 02:56 31.12.2020
5106 Clear 4 1020 86 10000 1.1 92 02:25 31.12.2020
5107 Clear 3 1020 93 10000 1.1 92 01:46 31.12.2020
5108 Clear 1 1020 76 10000 1.17 95 01:27 31.12.2020
5109 Clear 1 1020 93 10000 1.17 95 01:27 31.12.2020
5110 Clear 1 1020 76 10000 1.28 91 00:48 31.12.2020
5111 Clear 0 1021 76 10000 0.5 220 23:52 30.12.2020
5112 Clear 3 1021 76 10000 1 101 23:20 30.12.2020
5113 Clear 3 1021 76 10000 1 101 22:49 30.12.2020
5114 Clear 3 1021 76 10000 0.94 105 22:30 30.12.2020
5115 Clear 4 1021 76 10000 1.5 230 21:46 30.12.2020
5116 Clear 4 1021 75 10000 1.5 230 21:24 30.12.2020
5117 Clear 2 1021 86 10000 1.03 101 20:51 30.12.2020
5118 Clear 4 1021 80 10000 0.89 105 20:22 30.12.2020
5119 Clear 4 1021 80 10000 0.89 105 19:41 30.12.2020
5120 Clear 4 1021 86 10000 0.5 0 19:23 30.12.2020
5121 Clear 5 1021 86 10000 0.5 0 18:47 30.12.2020
5122 Clear 5 1021 86 10000 0.5 0 18:29 30.12.2020
5123 Clear 6 1020 81 10000 1.01 105 17:52 30.12.2020
5124 Clear 7 1020 65 10000 1.01 105 17:33 30.12.2020
5125 Clear 8 1020 75 10000 1.36 120 16:58 30.12.2020
5126 Clear 8 1020 75 10000 1.36 120 16:33 30.12.2020
5127 Clear 13 1020 50 10000 2.13 130 15:48 30.12.2020
5128 Clear 13 1020 50 10000 1.83 137 15:25 30.12.2020
5129 Clouds 13 1021 54 10000 1 0 14:44 30.12.2020
5130 Clouds 13 1021 50 10000 1 0 14:24 30.12.2020
5131 Clouds 13 1021 50 10000 1 0 13:42 30.12.2020
5132 Clear 13 1021 47 10000 2.1 200 12:43 30.12.2020
5133 Clear 12 1022 54 10000 1.16 152 12:21 30.12.2020
5134 Clear 12 1022 54 10000 1.16 152 11:36 30.12.2020
5135 Clear 11 1023 57 10000 1 0 11:18 30.12.2020
5136 Clear 11 1023 57 10000 1 0 10:49 30.12.2020
5137 Clear 11 1023 57 10000 1 0 10:27 30.12.2020
5138 Clear 8 1023 70 10000 1.21 111 09:50 30.12.2020
5139 Clear 8 1023 70 10000 1.25 100 09:29 30.12.2020
5140 Clear 6 1024 93 7000 1.25 100 08:34 30.12.2020
5141 Clouds 1 1023 100 7000 1.45 91 07:30 30.12.2020
5142 Clouds 1 1023 100 7000 1.45 91 07:30 30.12.2020
5143 Clouds 4 1023 93 7000 1 0 06:52 30.12.2020
5144 Clouds 2 1023 93 7000 1 0 06:31 30.12.2020
5145 Clear 2 1023 93 7000 0.5 0 05:44 30.12.2020
5146 Clear 2 1023 93 7000 0.5 0 05:25 30.12.2020
5147 Clear 1 1023 100 7000 1 220 03:28 30.12.2020
5148 Mist 1 1023 76 4000 1.57 81 03:28 30.12.2020
5149 Mist 3 1023 76 4000 1.57 81 02:42 30.12.2020
5150 Mist 2 1023 76 4000 1.48 74 01:58 30.12.2020
5151 Mist 2 1023 76 4000 1.48 74 01:33 30.12.2020
5152 Mist 2 1023 100 4000 0.5 220 00:50 30.12.2020
5153 Mist 2 1023 100 4000 0.5 220 00:30 30.12.2020
5154 Clear 2 1023 76 6000 1.48 87 23:56 29.12.2020
5155 Clear 2 1023 76 6000 1.48 87 23:37 29.12.2020
5156 Clear 3 1023 75 8000 1.52 96 23:18 29.12.2020
5157 Clear 3 1023 75 8000 1.52 96 22:40 29.12.2020
5158 Clear 3 1023 93 8000 0.5 0 22:20 29.12.2020
5159 Clear 4 1023 93 8000 0.5 0 21:46 29.12.2020
5160 Clear 4 1023 93 10000 1.7 102 21:25 29.12.2020
5161 Clear 4 1023 93 10000 1.7 102 20:46 29.12.2020
5162 Clear 4 1023 93 10000 1.76 111 20:25 29.12.2020
5163 Clear 4 1023 93 10000 1.76 111 20:25 29.12.2020
5164 Clear 5 1022 93 10000 1.5 230 19:49 29.12.2020
5165 Clear 5 1022 93 10000 1.5 230 19:24 29.12.2020
5166 Clear 5 1022 86 10000 1.58 117 18:54 29.12.2020
5167 Clear 6 1022 86 10000 2.04 110 18:32 29.12.2020
5168 Clear 6 1022 87 10000 1 230 17:57 29.12.2020
5169 Clear 6 1022 87 10000 1 230 17:37 29.12.2020
5170 Clear 9 1021 66 10000 1.5 280 17:18 29.12.2020
5171 Clear 9 1021 66 10000 1.5 280 16:35 29.12.2020
5172 Clouds 10 1022 66 10000 1.5 270 15:53 29.12.2020
5173 Clouds 11 1022 66 10000 1.5 270 15:34 29.12.2020
5174 Clouds 12 1021 58 10000 1 0 14:56 29.12.2020
5175 Clear 11 1021 57 10000 3.6 220 14:36 29.12.2020
5176 Clear 13 1020 54 10000 3.6 200 14:18 29.12.2020
5177 Clear 11 1020 57 10000 3.6 210 13:37 29.12.2020
5178 Clear 11 1020 57 10000 1.5 0 13:18 29.12.2020
5179 Clear 12 1021 61 10000 2.1 200 12:37 29.12.2020
5180 Clear 10 1021 66 10000 1 0 12:19 29.12.2020
5181 Clear 10 1021 70 10000 0.5 0 11:50 29.12.2020
5182 Clear 10 1021 70 10000 0.5 0 11:31 29.12.2020
5183 Mist 8 1022 100 1600 1 0 10:22 29.12.2020
5184 Fog 7 1022 93 700 2.1 260 09:42 29.12.2020
5185 Fog 5 1022 93 900 0.5 0 09:19 29.12.2020
5186 Fog 6 1022 93 900 0.5 0 08:49 29.12.2020
5187 Fog 3 1021 100 400 0.5 0 07:44 29.12.2020
5188 Fog 2 1021 100 400 0.5 0 07:26 29.12.2020
5189 Fog 3 1021 86 1000 1 60 06:19 29.12.2020
5190 Mist 3 1020 93 4000 1 250 03:18 29.12.2020
5191 Clouds 4 1020 93 6000 1.5 20 00:44 29.12.2020
5192 Clouds 4 1020 93 6000 1.5 20 00:44 29.12.2020
5193 Clouds 4 1020 86 8000 2.1 80 23:41 28.12.2020
5194 Clouds 4 1021 86 8000 1 0 22:58 28.12.2020
5195 Rain 5 1021 80 8000 1 0 22:23 28.12.2020
5196 Rain 5 1020 80 10000 1.35 126 21:44 28.12.2020
5197 Rain 5 1020 80 10000 1.14 196 21:23 28.12.2020
5198 Rain 6 1020 80 10000 1 0 20:40 28.12.2020
5199 Rain 6 1020 80 10000 0.5 0 20:22 28.12.2020
5200 Rain 7 1019 75 10000 0.99 203 19:42 28.12.2020
5201 Clouds 7 1019 75 10000 1.39 102 19:23 28.12.2020
5202 Clouds 7 1019 75 10000 1.39 102 19:23 28.12.2020
5203 Clouds 6 1019 80 10000 2.6 20 18:50 28.12.2020
5204 Clouds 7 1019 80 10000 2.6 20 18:28 28.12.2020
5205 Clouds 7 1019 64 10000 1.5 10 17:42 28.12.2020
5206 Clouds 7 1019 63 10000 1.5 10 17:23 28.12.2020
5207 Clouds 7 1018 70 10000 1.5 40 16:38 28.12.2020
5208 Clouds 8 1018 60 10000 1.5 50 16:20 28.12.2020
5209 Clouds 8 1018 61 10000 2.1 40 15:45 28.12.2020
5210 Clouds 10 1018 54 10000 2.6 90 14:56 28.12.2020
5211 Clouds 10 1018 57 10000 2.1 350 13:55 28.12.2020
5212 Clouds 10 1018 57 10000 2.1 350 13:31 28.12.2020
5213 Clouds 10 1018 61 8000 3.04 152 12:41 28.12.2020
5214 Clouds 10 1018 61 8000 3.06 137 12:22 28.12.2020
5215 Clouds 9 1019 70 6000 0.5 0 11:45 28.12.2020
5216 Clouds 9 1019 70 6000 0.5 0 11:24 28.12.2020
5217 Clouds 8 1020 75 6000 2.55 129 10:45 28.12.2020
5218 Clouds 8 1020 75 6000 2.1 113 10:27 28.12.2020
5219 Mist 6 1020 93 4000 1 0 09:46 28.12.2020
5220 Mist 4 1020 56 3100 1.84 98 09:19 28.12.2020
5221 Mist 2 1020 92 3300 0.5 20 07:35 28.12.2020
5222 Mist 2 1020 92 4700 1.61 96 06:50 28.12.2020
5223 Clouds 2 1020 100 6000 1.7 91 04:31 28.12.2020
5224 Clouds 2 1021 92 6000 1.52 81 02:22 28.12.2020
5225 Clouds 3 1021 73 6000 1.59 81 00:53 28.12.2020
5226 Clouds 3 1021 73 6000 1.58 80 23:46 27.12.2020
5227 Clouds 3 1021 73 6000 1.47 82 23:19 27.12.2020
5228 Clouds 4 1021 86 6000 1.49 81 21:57 27.12.2020
5229 Clouds 4 1021 86 6000 1.49 81 21:57 27.12.2020
5230 Clouds 4 1021 93 6000 1.48 82 21:26 27.12.2020
5231 Clear 5 1021 72 10000 1.48 82 20:47 27.12.2020
5232 Clear 5 1021 86 10000 1.5 330 19:46 27.12.2020
5233 Clear 5 1021 86 10000 1.5 330 19:21 27.12.2020
5234 Clear 5 1021 80 10000 3.6 20 18:41 27.12.2020
5235 Clouds 5 1022 80 10000 2.6 20 18:19 27.12.2020
5236 Clouds 6 1021 80 10000 1.5 30 17:43 27.12.2020
5237 Clouds 7 1021 80 10000 2.1 30 17:24 27.12.2020
5238 Clouds 8 1022 70 10000 1 0 16:35 27.12.2020
5239 Clouds 8 1022 70 10000 2.6 360 15:54 27.12.2020
5240 Clouds 10 1022 66 10000 4.1 10 14:59 27.12.2020
5241 Clouds 10 1022 66 10000 4.1 10 14:59 27.12.2020
5242 Clouds 10 1022 61 10000 4.1 20 14:40 27.12.2020
5243 Clouds 11 1021 57 10000 3.1 30 14:18 27.12.2020
5244 Clouds 12 1022 53 10000 2.23 103 13:22 27.12.2020
5245 Clouds 11 1022 61 10000 2.32 105 12:43 27.12.2020
5246 Clouds 12 1023 66 10000 2.01 108 11:56 27.12.2020
5247 Clouds 10 1023 61 10000 2.01 108 11:36 27.12.2020
5248 Clouds 10 1024 75 8000 1.5 340 10:52 27.12.2020
5249 Clouds 8 1024 75 8000 1.5 340 10:24 27.12.2020
5250 Clouds 6 1025 59 6000 1.55 105 09:47 27.12.2020
5251 Mist 4 1025 86 3500 1.13 90 08:39 27.12.2020
5252 Mist 4 1024 92 3200 1.38 100 08:20 27.12.2020
5253 Mist 2 1024 92 3500 1 0 07:26 27.12.2020
5254 Mist -1 1024 92 4000 2.1 30 05:44 27.12.2020
5255 Clouds 3 1023 81 6000 0.93 96 03:59 27.12.2020
5256 Clouds 3 1023 81 6000 0.75 92 03:19 27.12.2020
5257 Clouds 0 1023 80 6000 0.81 96 01:34 27.12.2020
5258 Clouds 4 1023 81 6000 0.5 0 00:20 27.12.2020
5259 Clouds 4 1024 81 7000 1 0 23:27 26.12.2020
5260 Clouds 4 1024 93 7000 1 0 22:50 26.12.2020
5261 Clouds 2 1023 80 6000 1.5 30 22:21 26.12.2020
5262 Clouds 2 1023 80 6000 1.5 30 21:59 26.12.2020
5263 Clouds 4 1023 80 10000 1.5 20 21:40 26.12.2020
5264 Clouds 4 1023 80 10000 1.5 20 21:22 26.12.2020
5265 Clouds 5 1023 75 10000 0.5 0 20:41 26.12.2020
5266 Clouds 5 1023 75 10000 1 0 20:19 26.12.2020
5267 Clouds 6 1022 70 10000 2.6 60 19:27 26.12.2020
5268 Clouds 7 1022 70 10000 2.1 120 18:52 26.12.2020
5269 Clouds 7 1022 70 10000 1 0 18:28 26.12.2020
5270 Clouds 8 1022 65 10000 2.1 150 17:41 26.12.2020
5271 Clouds 9 1022 61 10000 2.1 130 17:21 26.12.2020
5272 Clouds 9 1022 61 10000 1.5 140 16:36 26.12.2020
5273 Clouds 10 1021 57 10000 1 0 15:27 26.12.2020
5274 Clouds 11 1021 53 10000 0.5 0 14:54 26.12.2020
5275 Clouds 11 1021 53 10000 1 0 14:28 26.12.2020
5276 Clouds 12 1021 53 10000 2.1 210 13:51 26.12.2020
5277 Clouds 12 1021 53 10000 3.1 200 13:31 26.12.2020
5278 Clouds 12 1021 57 10000 3.1 220 12:49 26.12.2020
5279 Clouds 11 1021 57 10000 3.1 220 12:30 26.12.2020
5280 Clouds 11 1022 61 10000 2.6 170 11:51 26.12.2020
5281 Clouds 10 1022 61 10000 1.5 120 11:22 26.12.2020
5282 Clouds 9 1022 70 8000 1 0 10:55 26.12.2020
5283 Clouds 8 1022 75 8000 1.51 174 10:28 26.12.2020
5284 Clouds 7 1023 56 6000 1.51 174 09:52 26.12.2020
5285 Mist 5 1023 58 3500 1 0 09:31 26.12.2020
5286 Mist 4 1023 58 3300 1.27 161 08:39 26.12.2020
5287 Mist 3 1022 92 3300 1 0 07:55 26.12.2020
5288 Mist 1 1022 92 4300 1.5 320 06:47 26.12.2020
5289 Mist -3 1020 92 4900 1.07 153 03:52 26.12.2020
5290 Clouds -1 1020 92 6000 1.11 141 01:49 26.12.2020
5291 Clouds 0 1021 92 6000 0.99 142 00:27 26.12.2020
5292 Clouds 0 1021 92 6000 0.99 142 23:41 25.12.2020
5293 Clouds 0 1021 92 6000 0.99 142 23:41 25.12.2020
5294 Clouds 1 1021 92 6000 1.03 146 23:23 25.12.2020
5295 Clouds 2 1021 80 6000 1.03 146 22:48 25.12.2020
5296 Clear 2 1021 79 6000 1.27 152 22:23 25.12.2020
5297 Clear 2 1020 79 6000 1.27 152 21:35 25.12.2020
5298 Clear 1 1020 86 7000 1.35 145 20:59 25.12.2020
5299 Clear 1 1020 86 7000 1.35 145 20:37 25.12.2020
5300 Clouds 4 1020 80 10000 1 10 19:50 25.12.2020
5301 Clouds 4 1020 80 10000 1 10 19:30 25.12.2020
5302 Clouds 5 1020 76 9000 1.5 10 18:39 25.12.2020
5303 Clouds 5 1020 76 10000 1.5 40 17:54 25.12.2020
5304 Clouds 5 1020 76 10000 1.5 40 17:34 25.12.2020
5305 Clouds 7 1019 65 10000 1.5 50 16:38 25.12.2020
5306 Clouds 7 1019 61 10000 1.5 70 16:19 25.12.2020
5307 Clouds 9 1019 57 10000 1.33 155 15:36 25.12.2020
5308 Clouds 10 1019 53 10000 0.5 260 14:58 25.12.2020
5309 Clouds 11 1019 53 10000 1.5 160 14:30 25.12.2020
5310 Clouds 10 1019 53 10000 2.1 190 13:45 25.12.2020
5311 Clouds 10 1019 53 10000 2.1 190 13:26 25.12.2020
5312 Clouds 10 1019 51 10000 3.6 200 12:47 25.12.2020
5313 Clear 9 1019 61 7000 1.5 210 12:24 25.12.2020
5314 Clear 9 1020 65 7000 1 0 11:45 25.12.2020
5315 Clear 8 1020 70 6000 1.5 280 11:20 25.12.2020
5316 Mist 6 1020 75 4500 1 0 10:30 25.12.2020
5317 Mist 5 1021 62 3200 0.5 0 09:47 25.12.2020
5318 Fog 3 1021 67 1400 2.1 110 08:49 25.12.2020
5319 Fog 2 1021 73 1400 2.1 110 08:27 25.12.2020
5320 Fog 1 1020 87 1000 2.1 0 06:48 25.12.2020
5321 Mist 1 1020 86 4400 2.1 120 04:44 25.12.2020
5322 Mist 2 1021 86 4200 0.49 137 01:50 25.12.2020
5323 Mist 1 1021 83 4200 0.79 144 00:19 25.12.2020
5324 Mist 1 1021 83 4400 0.92 169 23:28 24.12.2020
5325 Mist 1 1021 83 4400 0.92 169 22:53 24.12.2020
5326 Mist 1 1021 83 4100 0.5 157 22:22 24.12.2020
5327 Mist 1 1021 83 4800 1 30 21:41 24.12.2020
5328 Clouds 1 1021 85 6000 1.5 340 20:48 24.12.2020
5329 Clouds 1 1021 86 6000 0.5 143 19:20 24.12.2020
5330 Clouds 1 1021 86 6000 0.36 230 18:21 24.12.2020
5331 Clouds 1 1021 86 6000 0.36 230 17:37 24.12.2020
5332 Clouds 1 1021 86 6000 0.36 230 17:37 24.12.2020
5333 Clouds 1 1021 80 6000 1 150 16:59 24.12.2020
5334 Mist 1 1021 80 4200 1.5 230 16:23 24.12.2020
5335 Clouds 1 1021 80 6000 1.5 220 15:43 24.12.2020
5336 Clouds 1 1021 80 6000 2.1 220 15:20 24.12.2020
5337 Clouds 2 1021 80 6000 3.1 230 14:51 24.12.2020
5338 Clouds 1 1021 80 6000 3.1 230 14:24 24.12.2020
5339 Clouds 1 1021 80 6000 3.1 210 13:48 24.12.2020
5340 Clouds 1 1021 80 6000 3.1 210 13:30 24.12.2020
5341 Clouds 1 1021 74 6000 2.1 180 12:45 24.12.2020
5342 Mist 1 1021 72 3300 2.1 220 12:21 24.12.2020
5343 Mist 1 1021 72 2900 1 0 11:47 24.12.2020
5344 Clouds 0 1022 86 6000 1 0 11:23 24.12.2020
5345 Clouds 0 1022 86 6000 1 0 10:56 24.12.2020
5346 Clouds 0 1022 86 6000 0.5 0 10:38 24.12.2020
5347 Mist 0 1022 86 4000 1.3 255 09:53 24.12.2020
5348 Mist 0 1022 86 3300 1.3 255 09:32 24.12.2020
5349 Snow -1 1023 92 3900 1.14 251 08:44 24.12.2020
5350 Snow -3 1022 92 2700 0.5 0 07:43 24.12.2020
5351 Snow -3 1022 92 2700 0.5 0 07:21 24.12.2020
5352 Snow -3 1022 85 6000 0.5 0 05:56 24.12.2020
5353 Clouds -4 1022 85 10000 0.13 286 02:33 24.12.2020
5354 Clouds -4 1022 85 10000 0.39 298 01:45 24.12.2020
5355 Clouds -4 1022 85 10000 0.83 277 01:18 24.12.2020
5356 Clouds -4 1021 85 10000 1 0 00:22 24.12.2020
5357 Clouds -4 1022 79 10000 1 40 23:49 23.12.2020
5358 Clouds -4 1022 79 10000 1 40 23:31 23.12.2020
5359 Clouds -4 1022 79 10000 1.5 40 22:59 23.12.2020
5360 Clouds -4 1022 85 10000 0.5 360 22:39 23.12.2020
5361 Clouds -4 1022 73 10000 0.88 259 22:18 23.12.2020
5362 Clouds -3 1022 79 10000 1.5 50 21:31 23.12.2020
5363 Clouds -3 1021 79 10000 0.5 0 20:56 23.12.2020
5364 Clouds -2 1021 73 10000 1 0 20:37 23.12.2020
5365 Clouds -2 1022 74 10000 1 0 20:19 23.12.2020
5366 Clouds -2 1022 74 10000 1 0 19:40 23.12.2020
5367 Clouds -2 1021 74 10000 1 0 19:21 23.12.2020
5368 Clouds -2 1021 74 10000 0.6 290 18:49 23.12.2020
5369 Clouds -1 1021 74 10000 0.62 285 18:30 23.12.2020
5370 Clouds -1 1021 68 10000 1 0 17:42 23.12.2020
5371 Clouds -2 1021 68 10000 1.5 230 17:22 23.12.2020
5372 Clouds -1 1021 92 10000 2.1 220 16:52 23.12.2020
5373 Clouds -1 1021 92 10000 2.1 220 16:30 23.12.2020
5374 Clouds 0 1021 47 10000 1 220 15:59 23.12.2020
5375 Clouds 1 1021 43 10000 2.1 220 15:39 23.12.2020
5376 Clouds 2 1020 47 10000 2.1 230 15:20 23.12.2020
5377 Clouds 1 1020 43 10000 1.5 230 14:42 23.12.2020
5378 Clouds 2 1020 44 10000 1.5 0 14:22 23.12.2020
5379 Clouds 2 1021 47 10000 3.1 250 13:46 23.12.2020
5380 Clouds 3 1020 44 10000 1 0 13:20 23.12.2020
5381 Clouds 3 1020 44 10000 1 0 12:55 23.12.2020
5382 Clouds 3 1021 47 10000 1.5 0 12:31 23.12.2020
5383 Clouds 1 1021 43 10000 0.5 0 11:56 23.12.2020
5384 Clouds 2 1021 43 10000 0.5 0 11:36 23.12.2020
5385 Clouds 1 1021 47 10000 1.5 0 10:56 23.12.2020
5386 Clouds 1 1022 50 10000 1 0 10:38 23.12.2020
5387 Clouds 0 1022 87 10000 1.07 295 09:38 23.12.2020
5388 Clouds 0 1022 81 10000 1.39 282 09:38 23.12.2020
5389 Clouds 0 1022 68 10000 1.07 295 08:57 23.12.2020
5390 Clouds -1 1022 73 10000 1 0 08:33 23.12.2020
5391 Clouds -3 1022 79 10000 1 20 07:49 23.12.2020
5392 Clouds -3 1021 85 10000 1 40 06:42 23.12.2020
5393 Clouds -3 1021 85 10000 2.1 10 05:58 23.12.2020
5394 Clouds -3 1021 85 10000 2.1 330 05:23 23.12.2020
5395 Clouds -2 1021 85 10000 0.75 302 01:59 23.12.2020
5396 Clouds -2 1021 73 10000 1 0 00:32 23.12.2020
5397 Clouds -1 1021 63 10000 1.5 230 23:43 22.12.2020
5398 Clouds -1 1022 68 10000 1 280 23:22 22.12.2020
5399 Clouds 0 1022 68 10000 1.5 250 22:42 22.12.2020
5400 Clouds 0 1022 68 10000 1.5 250 22:24 22.12.2020
5401 Clouds 0 1022 91 10000 1.05 316 21:50 22.12.2020
5402 Clouds 0 1022 91 10000 1 320 21:20 22.12.2020
5403 Clouds 0 1022 91 10000 1 320 20:54 22.12.2020
5404 Clouds 0 1022 68 10000 1.5 340 20:35 22.12.2020
5405 Clouds 1 1022 91 10000 2.6 310 19:56 22.12.2020
5406 Clouds 1 1021 91 10000 4.1 310 19:38 22.12.2020
5407 Clouds 2 1021 59 10000 3.6 290 19:19 22.12.2020
5408 Clouds 2 1021 55 10000 4.1 290 18:43 22.12.2020
5409 Clouds 3 1022 51 10000 1.5 0 18:24 22.12.2020
5410 Clouds 4 1022 51 10000 1.5 0 17:41 22.12.2020
5411 Clouds 4 1021 52 10000 2.1 230 17:18 22.12.2020
5412 Clouds 3 1021 55 10000 3.6 280 16:47 22.12.2020
5413 Clouds 4 1021 48 10000 2.6 10 16:21 22.12.2020
5414 Clouds 4 1021 48 10000 2.6 10 15:47 22.12.2020
5415 Clouds 4 1021 48 10000 2.6 10 15:29 22.12.2020
5416 Clouds 5 1021 45 10000 3.1 260 14:58 22.12.2020
5417 Clouds 5 1021 45 10000 3.1 260 14:39 22.12.2020
5418 Clouds 5 1021 45 10000 1 0 14:20 22.12.2020
5419 Clouds 5 1021 45 10000 1 0 13:44 22.12.2020
5420 Clouds 5 1021 48 10000 1.5 0 13:19 22.12.2020
5421 Clouds 5 1021 48 10000 1.5 0 12:52 22.12.2020
5422 Clouds 5 1021 48 10000 1.5 0 12:33 22.12.2020
5423 Clouds 4 1022 48 10000 1.5 100 11:57 22.12.2020
5424 Clouds 4 1022 48 10000 1.5 100 11:39 22.12.2020
5425 Clouds 4 1023 64 10000 1.5 220 11:20 22.12.2020
5426 Clouds 4 1023 64 10000 1.5 220 10:51 22.12.2020
5427 Clouds 4 1023 69 6000 1.74 319 10:24 22.12.2020
5428 Clouds 4 1023 69 6000 1.74 319 09:56 22.12.2020
5429 Clouds 3 1024 86 6000 1 0 09:23 22.12.2020
5430 Clouds 3 1024 86 6000 1 0 08:53 22.12.2020
5431 Clouds 2 1023 76 7000 0.5 0 08:30 22.12.2020
5432 Clouds 2 1023 76 7000 0.5 0 07:48 22.12.2020
5433 Clouds 2 1023 82 7000 0.66 285 06:48 22.12.2020
5434 Clouds 2 1023 89 10000 0.44 286 05:47 22.12.2020
5435 Clouds 2 1023 80 10000 1 230 03:40 22.12.2020
5436 Clouds 2 1023 86 10000 0.44 308 01:35 22.12.2020
5437 Clouds 2 1023 80 10000 0.82 328 23:55 21.12.2020
5438 Clouds 2 1023 80 10000 0.82 328 23:37 21.12.2020
5439 Clouds 3 1023 91 10000 1.5 270 22:39 21.12.2020
5440 Clouds 2 1023 80 10000 2.6 260 22:20 21.12.2020
5441 Clouds 3 1023 80 10000 2.6 260 21:59 21.12.2020
5442 Clouds 3 1023 80 10000 2.6 260 21:40 21.12.2020
5443 Clouds 2 1023 82 6000 1.5 220 21:22 21.12.2020
5444 Clouds 2 1023 82 6000 0.5 0 20:40 21.12.2020
5445 Clouds 2 1023 80 10000 0.95 251 20:19 21.12.2020
5446 Clouds 2 1023 80 10000 0.95 251 19:45 21.12.2020
5447 Clouds 3 1023 69 10000 1.5 240 19:20 21.12.2020
5448 Clouds 3 1023 69 10000 1.5 240 18:53 21.12.2020
5449 Clouds 3 1023 69 10000 1.5 240 18:34 21.12.2020
5450 Clouds 3 1023 74 10000 0.5 0 17:56 21.12.2020
5451 Clouds 3 1023 74 10000 0.5 0 17:37 21.12.2020
5452 Clouds 4 1023 69 10000 0.8 269 17:19 21.12.2020
5453 Clouds 4 1023 69 10000 0.8 269 16:38 21.12.2020
5454 Clouds 5 1023 65 10000 1 0 16:18 21.12.2020
5455 Clouds 5 1023 65 10000 1 0 15:40 21.12.2020
5456 Clouds 5 1023 60 10000 0.5 0 14:57 21.12.2020
5457 Clouds 6 1023 56 10000 1 0 14:22 21.12.2020
5458 Clouds 6 1023 56 10000 1 0 13:45 21.12.2020
5459 Clouds 6 1023 56 10000 1 0 13:27 21.12.2020
5460 Clear 6 1023 60 10000 1 0 12:47 21.12.2020
5461 Clouds 6 1023 60 6000 0.69 246 12:25 21.12.2020
5462 Clouds 5 1023 60 6000 0.69 246 11:58 21.12.2020
5463 Clouds 5 1023 60 6000 0.69 246 11:40 21.12.2020
5464 Clouds 4 1024 64 6000 0.28 207 11:22 21.12.2020
5465 Clouds 4 1024 64 6000 0.28 207 10:49 21.12.2020
5466 Clouds 4 1024 64 6000 0.17 169 10:30 21.12.2020
5467 Clouds 2 1025 86 6000 0.17 169 09:49 21.12.2020
5468 Clouds 2 1025 86 6000 0.53 133 09:26 21.12.2020
5469 Clouds 0 1025 92 6000 0.53 133 08:54 21.12.2020
5470 Clouds -1 1026 92 6000 0.5 100 07:56 21.12.2020
5471 Clouds -2 1026 92 6000 0.25 47 06:47 21.12.2020
5472 Clouds -3 1025 92 8000 0.15 58 04:58 21.12.2020
5473 Clouds -2 1025 100 8000 0.31 308 01:28 21.12.2020
5474 Clouds -2 1025 92 8000 0.3 316 00:33 21.12.2020
5475 Clear -1 1025 92 10000 0.29 314 23:36 20.12.2020
5476 Clear -1 1025 92 10000 0.5 230 23:18 20.12.2020
5477 Clear -1 1025 92 10000 0.5 230 22:42 20.12.2020
5478 Clear 0 1025 92 10000 0.43 269 22:22 20.12.2020
5479 Clear -2 1025 92 10000 0.43 269 21:40 20.12.2020
5480 Clear 0 1025 86 10000 0.25 256 21:21 20.12.2020
5481 Clear 0 1025 86 10000 0.25 256 20:51 20.12.2020
5482 Clear 0 1025 86 10000 0.3 236 20:25 20.12.2020
5483 Clear -1 1025 86 10000 1.5 230 19:49 20.12.2020
5484 Clear 0 1025 86 10000 1.5 230 19:31 20.12.2020
5485 Clear 1 1025 80 10000 1 220 18:58 20.12.2020
5486 Clear 0 1025 80 10000 1 220 18:38 20.12.2020
5487 Clear 1 1025 74 10000 0.22 312 18:20 20.12.2020
5488 Clear 1 1025 74 10000 0.22 312 17:44 20.12.2020
5489 Clear 4 1024 60 10000 1.5 220 17:23 20.12.2020
5490 Clear 4 1024 60 10000 1.5 220 16:45 20.12.2020
5491 Clear 6 1024 52 10000 1 0 16:27 20.12.2020
5492 Clear 7 1024 52 10000 1 0 15:48 20.12.2020
5493 Clear 6 1024 52 10000 1 0 15:25 20.12.2020
5494 Clear 7 1024 49 10000 2.1 260 14:54 20.12.2020
5495 Clear 7 1024 49 10000 2.1 260 14:33 20.12.2020
5496 Clear 8 1024 49 10000 0.5 0 13:47 20.12.2020
5497 Clear 8 1024 49 10000 1 0 13:25 20.12.2020
5498 Clear 8 1024 49 10000 1 0 12:58 20.12.2020
5499 Clear 8 1024 49 10000 1 0 12:39 20.12.2020
5500 Clear 7 1025 56 8000 2.1 270 12:19 20.12.2020
5501 Clear 6 1025 56 8000 2.1 270 11:42 20.12.2020
5502 Clear 5 1026 65 8000 1 0 10:59 20.12.2020
5503 Clear 5 1026 65 8000 1 0 10:41 20.12.2020
5504 Clear 3 1026 80 7000 0.37 213 10:20 20.12.2020
5505 Clear 3 1026 80 7000 0.37 213 09:45 20.12.2020
5506 Clear 3 1026 80 7000 0.5 172 09:27 20.12.2020
5507 Clear 2 1027 66 7000 0.5 172 08:55 20.12.2020
5508 Clear 2 1027 66 7000 0.5 172 08:36 20.12.2020
5509 Clear -1 1027 92 7000 0.52 119 07:24 20.12.2020
5510 Clear -3 1026 100 6000 0.47 121 05:44 20.12.2020
5511 Clear -1 1026 92 10000 0.29 125 01:35 20.12.2020
5512 Clear -1 1026 92 10000 0.32 172 00:37 20.12.2020
5513 Clear 0 1027 86 10000 0.54 160 23:20 19.12.2020
5514 Clear 0 1027 86 10000 0.54 160 22:56 19.12.2020
5515 Clear 0 1027 86 10000 0.54 160 22:37 19.12.2020
5516 Clear -1 1027 92 10000 0.46 166 22:19 19.12.2020
5517 Clear 0 1027 92 10000 0.46 166 21:42 19.12.2020
5518 Clear 0 1027 92 10000 0.28 151 21:23 19.12.2020
5519 Clear 2 1026 88 10000 0.28 151 20:44 19.12.2020
5520 Clear 0 1026 86 10000 0.08 146 20:21 19.12.2020
5521 Clear 0 1026 86 10000 0.08 146 19:51 19.12.2020
5522 Clear 0 1026 85 10000 0.11 188 19:33 19.12.2020
5523 Clear 2 1026 74 10000 0.5 210 18:41 19.12.2020
5524 Clear 2 1026 74 10000 0.5 210 18:23 19.12.2020
5525 Clouds 3 1027 69 10000 0.33 137 17:48 19.12.2020
5526 Clouds 4 1026 56 10000 1 0 17:25 19.12.2020
5527 Clouds 5 1026 56 10000 1 0 16:55 19.12.2020
5528 Clouds 5 1026 56 10000 1 0 16:36 19.12.2020
5529 Clouds 7 1026 45 10000 1.5 260 16:18 19.12.2020
5530 Clouds 8 1026 45 10000 1.5 260 15:47 19.12.2020
5531 Clouds 8 1026 42 10000 1.5 140 14:44 19.12.2020
5532 Clouds 8 1026 42 10000 1.5 140 14:23 19.12.2020
5533 Clouds 8 1025 45 10000 0.5 0 13:42 19.12.2020
5534 Clouds 8 1025 49 10000 0.9 277 13:21 19.12.2020
5535 Clouds 7 1025 49 10000 0.69 266 12:54 19.12.2020
5536 Clouds 7 1025 49 10000 0.69 266 12:36 19.12.2020
5537 Clouds 7 1026 62 10000 1.5 250 12:18 19.12.2020
5538 Clouds 7 1026 62 10000 1.5 250 11:40 19.12.2020
5539 Clouds 6 1027 63 10000 2.1 0 10:47 19.12.2020
5540 Clouds 6 1027 66 10000 2.1 0 10:27 19.12.2020
5541 Clouds 5 1027 66 10000 1.5 280 09:59 19.12.2020
5542 Clouds 5 1027 66 10000 1.5 280 09:39 19.12.2020
5543 Clouds 3 1027 71 10000 0.56 268 08:56 19.12.2020
5544 Clouds 2 1027 76 10000 1.5 230 07:56 19.12.2020
5545 Clouds 2 1026 86 10000 0.11 178 07:19 19.12.2020
5546 Clouds 1 1026 86 10000 0.25 300 06:39 19.12.2020
5547 Clouds 3 1025 96 10000 0.43 280 05:19 19.12.2020
5548 Clouds 4 1025 69 10000 1.5 270 03:29 19.12.2020
5549 Clouds 4 1025 69 10000 0.5 0 00:41 19.12.2020
5550 Clouds 4 1025 69 10000 1 230 00:20 19.12.2020
5551 Clouds 4 1025 69 10000 1 230 23:49 18.12.2020
5552 Clouds 4 1025 69 10000 1 230 23:25 18.12.2020
5553 Clouds 4 1025 60 10000 0.46 302 22:49 18.12.2020
5554 Clouds 4 1025 60 10000 0.57 310 22:25 18.12.2020
5555 Clouds 5 1025 60 10000 1 0 21:59 18.12.2020
5556 Clouds 5 1025 60 10000 1 0 21:38 18.12.2020
5557 Clouds 5 1025 56 10000 1.5 0 21:20 18.12.2020
5558 Clouds 5 1025 56 10000 1 0 20:24 18.12.2020
5559 Clouds 5 1025 56 10000 1 0 19:47 18.12.2020
5560 Clouds 5 1025 56 10000 1 0 19:23 18.12.2020
5561 Clouds 5 1025 60 10000 1.5 290 18:45 18.12.2020
5562 Clouds 5 1025 60 10000 1.5 20 18:26 18.12.2020
5563 Clouds 5 1025 60 10000 3.6 310 17:36 18.12.2020
5564 Clouds 5 1025 60 10000 2.6 310 16:59 18.12.2020
5565 Clouds 5 1024 60 10000 2.6 300 16:40 18.12.2020
5566 Clouds 5 1024 65 10000 2.6 300 16:20 18.12.2020
5567 Clouds 5 1024 60 10000 3.1 310 15:51 18.12.2020
5568 Clouds 5 1024 60 10000 3.1 310 15:33 18.12.2020
5569 Clouds 5 1024 60 10000 1 0 14:57 18.12.2020
5570 Clouds 6 1024 60 10000 1 0 14:24 18.12.2020
5571 Clouds 5 1024 60 10000 1 0 13:53 18.12.2020
5572 Clouds 6 1024 60 10000 1.5 130 13:32 18.12.2020
5573 Clouds 6 1024 60 10000 1.5 140 12:57 18.12.2020
5574 Clouds 7 1024 60 10000 1.5 130 12:34 18.12.2020
5575 Clouds 6 1024 65 10000 2.6 160 11:28 18.12.2020
5576 Clouds 6 1025 65 10000 3.1 210 10:41 18.12.2020
5577 Clouds 6 1025 65 10000 3.1 210 10:41 18.12.2020
5578 Clouds 6 1025 65 10000 2.6 180 10:21 18.12.2020
5579 Clouds 6 1025 65 10000 2.6 180 09:58 18.12.2020
5580 Clouds 5 1025 63 8000 1.5 190 09:37 18.12.2020
5581 Clouds 4 1025 80 6000 1 0 09:18 18.12.2020
5582 Mist 4 1025 86 4800 1 0 08:46 18.12.2020
5583 Clouds 4 1025 86 6000 0.5 0 07:58 18.12.2020
5584 Clouds 3 1025 86 10000 0.6 110 07:20 18.12.2020
5585 Clouds 4 1025 86 10000 0.53 119 06:59 18.12.2020
5586 Clouds 3 1025 93 10000 0.46 111 05:44 18.12.2020
5587 Clouds 3 1025 93 10000 0.43 106 04:52 18.12.2020
5588 Clouds 2 1025 93 10000 0.6 117 03:35 18.12.2020
5589 Clouds 1 1025 88 10000 0.52 123 01:45 18.12.2020
5590 Clouds 2 1025 85 10000 0.44 98 00:29 18.12.2020
5591 Clouds 2 1025 85 10000 1 230 23:52 17.12.2020
5592 Clouds 2 1025 84 10000 0.48 107 23:23 17.12.2020
5593 Clouds 2 1025 84 10000 0.48 107 22:48 17.12.2020
5594 Clouds 2 1025 84 10000 0.76 119 22:28 17.12.2020
5595 Clear 2 1025 84 10000 0.76 119 21:46 17.12.2020
5596 Clear 3 1025 83 10000 0.5 230 21:22 17.12.2020
5597 Clear 3 1025 83 10000 0.5 230 20:55 17.12.2020
5598 Clouds 3 1025 83 10000 0.71 110 20:36 17.12.2020
5599 Clear 3 1025 83 10000 0.74 111 20:18 17.12.2020
5600 Clear 3 1025 83 10000 0.74 111 19:39 17.12.2020
5601 Clouds 5 1025 80 10000 0.5 220 19:21 17.12.2020
5602 Clouds 5 1025 80 10000 0.5 220 18:40 17.12.2020
5603 Clouds 6 1025 70 10000 0.5 240 18:19 17.12.2020
5604 Clouds 6 1025 70 10000 0.5 240 17:46 17.12.2020
5605 Clouds 6 1025 70 10000 0.5 240 17:27 17.12.2020
5606 Clouds 8 1024 61 10000 1.5 160 16:41 17.12.2020
5607 Clouds 8 1024 57 10000 1 0 16:22 17.12.2020
5608 Clouds 8 1024 57 10000 1 0 15:50 17.12.2020
5609 Clouds 8 1024 57 10000 1 0 15:28 17.12.2020
5610 Clouds 9 1024 57 10000 1 240 14:50 17.12.2020
5611 Clouds 9 1024 66 10000 2.1 250 14:29 17.12.2020
5612 Clouds 9 1024 66 10000 2.1 250 13:51 17.12.2020
5613 Clouds 9 1024 66 10000 2.1 250 13:27 17.12.2020
5614 Clouds 9 1024 66 10000 1 0 12:44 17.12.2020
5615 Clouds 8 1024 75 7000 1.5 0 12:24 17.12.2020
5616 Clouds 8 1024 75 7000 1.5 0 11:44 17.12.2020
5617 Clouds 7 1025 81 6000 0.5 0 11:23 17.12.2020
5618 Clouds 7 1025 81 6000 0.5 0 10:49 17.12.2020
5619 Clouds 6 1025 86 7000 1 0 09:43 17.12.2020
5620 Clouds 6 1025 86 7000 1 0 09:24 17.12.2020
5621 Clouds 4 1025 100 8000 0.66 121 07:50 17.12.2020
5622 Clouds 4 1025 100 8000 0.6 99 07:31 17.12.2020
5623 Clouds 3 1025 88 7000 0.7 97 06:53 17.12.2020
5624 Clouds 2 1025 88 7000 0.68 79 06:32 17.12.2020
5625 Clouds 2 1025 88 7000 0.7 97 06:32 17.12.2020
5626 Clouds 1 1024 88 6000 0.82 67 04:45 17.12.2020
5627 Clear 4 1024 93 10000 1 0 00:33 17.12.2020
5628 Clear 5 1023 93 10000 1.34 32 23:51 16.12.2020
5629 Clear 5 1023 86 10000 1 0 23:19 16.12.2020
5630 Clear 5 1023 86 10000 1 0 22:52 16.12.2020
5631 Clear 5 1023 86 10000 1 0 22:32 16.12.2020
5632 Clear 6 1023 81 10000 0.5 0 21:47 16.12.2020
5633 Clear 6 1023 81 10000 0.5 0 21:27 16.12.2020
5634 Clouds 7 1023 81 10000 2.1 230 20:54 16.12.2020
5635 Clouds 8 1022 76 10000 1.5 220 20:21 16.12.2020
5636 Clouds 8 1022 76 10000 1.5 220 19:50 16.12.2020
5637 Clouds 10 1022 62 10000 2.1 20 19:19 16.12.2020
5638 Clouds 10 1022 62 10000 2.1 20 18:52 16.12.2020
5639 Clouds 10 1022 62 10000 2.1 20 18:27 16.12.2020
5640 Clouds 10 1022 66 10000 2.1 40 17:43 16.12.2020
5641 Clouds 11 1021 71 10000 2.6 30 16:58 16.12.2020
5642 Clouds 11 1021 71 10000 2.6 30 16:39 16.12.2020
5643 Clouds 11 1021 66 10000 2.1 70 16:20 16.12.2020
5644 Clouds 11 1021 66 10000 2.1 70 15:49 16.12.2020
5645 Clouds 11 1020 62 10000 1.5 50 15:24 16.12.2020
5646 Clouds 11 1020 66 10000 3.6 40 14:46 16.12.2020
5647 Clouds 12 1020 62 10000 1.5 350 14:28 16.12.2020
5648 Clouds 11 1020 66 10000 5.1 50 13:45 16.12.2020
5649 Clouds 11 1020 66 10000 5.1 50 13:27 16.12.2020
5650 Clouds 11 1020 71 10000 5.1 30 12:48 16.12.2020
5651 Clouds 11 1020 62 10000 3.1 20 12:25 16.12.2020
5652 Clouds 11 1020 62 10000 3.1 20 11:38 16.12.2020
5653 Clouds 11 1020 66 10000 2.1 80 11:19 16.12.2020
5654 Clouds 11 1020 66 10000 2.1 80 10:43 16.12.2020
5655 Clouds 10 1020 81 10000 1 200 10:18 16.12.2020
5656 Clouds 10 1020 81 10000 1 200 10:18 16.12.2020
5657 Clouds 10 1020 81 10000 1 200 09:39 16.12.2020
5658 Clouds 8 1020 81 10000 1.5 210 08:24 16.12.2020
5659 Clouds 7 1020 87 10000 1 0 07:48 16.12.2020
5660 Clouds 7 1020 87 10000 1 0 07:48 16.12.2020
5661 Clouds 7 1020 87 10000 1 0 07:30 16.12.2020
5662 Clouds 8 1019 81 10000 2.1 240 05:48 16.12.2020
5663 Clouds 9 1017 81 10000 1.5 40 02:24 16.12.2020
5664 Clouds 8 1016 93 10000 2.1 359 00:20 16.12.2020
5665 Clouds 8 1016 93 10000 2.1 359 23:42 15.12.2020
5666 Clouds 8 1016 93 10000 1.5 230 22:44 15.12.2020
5667 Clouds 8 1015 87 10000 1 0 22:23 15.12.2020
5668 Clouds 9 1015 87 10000 1 0 21:50 15.12.2020
5669 Clouds 9 1015 93 10000 0.5 0 21:24 15.12.2020
5670 Clouds 9 1015 93 10000 0.5 0 20:57 15.12.2020
5671 Rain 9 1015 93 10000 0.5 0 20:37 15.12.2020
5672 Rain 9 1015 93 10000 0.5 0 20:37 15.12.2020
5673 Rain 8 1015 100 10000 2.26 6 20:18 15.12.2020
5674 Clouds 9 1015 93 10000 2.26 6 19:35 15.12.2020
5675 Clouds 8 1014 100 10000 0.5 0 18:59 15.12.2020
5676 Clouds 9 1014 93 10000 1 230 18:39 15.12.2020
5677 Rain 9 1014 93 10000 2.1 270 18:20 15.12.2020
5678 Rain 9 1014 93 10000 2.1 270 17:42 15.12.2020
5679 Rain 9 1013 93 10000 2.1 250 17:22 15.12.2020
5680 Clouds 9 1013 93 10000 2.1 250 16:37 15.12.2020
5681 Rain 9 1013 87 10000 2.04 41 16:19 15.12.2020
5682 Clouds 9 1013 87 10000 2.04 41 15:37 15.12.2020
5683 Rain 9 1012 81 10000 0.5 200 14:56 15.12.2020
5684 Rain 9 1012 81 10000 0.5 200 14:37 15.12.2020
5685 Rain 10 1012 71 10000 2.1 70 14:19 15.12.2020
5686 Rain 10 1012 71 10000 2.1 70 13:47 15.12.2020
5687 Rain 10 1012 71 10000 2.6 50 13:22 15.12.2020
5688 Clouds 11 1012 71 10000 2.6 50 12:44 15.12.2020
5689 Clouds 11 1012 71 10000 1 0 12:18 15.12.2020
5690 Clouds 11 1012 71 10000 1 0 11:49 15.12.2020
5691 Clouds 11 1012 71 10000 0.5 0 11:20 15.12.2020
5692 Clouds 11 1012 71 10000 0.5 0 10:44 15.12.2020
5693 Clouds 10 1012 76 10000 2.44 30 10:19 15.12.2020
5694 Clouds 10 1012 76 10000 2.44 30 09:39 15.12.2020
5695 Clouds 8 1012 87 10000 1.73 24 09:21 15.12.2020
5696 Clouds 8 1012 87 10000 1.73 24 08:37 15.12.2020
5697 Clouds 7 1011 87 10000 1.5 220 08:19 15.12.2020
5698 Clouds 7 1011 87 10000 1.5 220 07:40 15.12.2020
5699 Clouds 7 1011 87 10000 1.61 53 06:40 15.12.2020
5700 Clouds 8 1010 87 10000 1.5 50 04:55 15.12.2020
5701 Clouds 8 1010 81 10000 3.6 100 00:38 15.12.2020
5702 Clouds 9 1009 81 10000 2.6 80 23:47 14.12.2020
5703 Clouds 9 1009 81 10000 2.6 80 23:19 14.12.2020
5704 Clouds 9 1009 81 10000 2.1 90 22:39 14.12.2020
5705 Rain 10 1009 76 10000 6.2 70 21:55 14.12.2020
5706 Rain 10 1009 76 10000 6.2 70 21:36 14.12.2020
5707 Clouds 10 1008 76 10000 4.1 50 20:56 14.12.2020
5708 Clouds 9 1008 76 10000 4.1 50 20:38 14.12.2020
5709 Clouds 9 1009 81 10000 5.1 80 20:18 14.12.2020
5710 Rain 9 1009 81 10000 5.1 80 19:32 14.12.2020
5711 Clouds 9 1008 81 10000 4.6 80 18:57 14.12.2020
5712 Clouds 9 1008 81 10000 4.6 80 18:38 14.12.2020
5713 Clouds 9 1008 87 10000 5.7 80 17:58 14.12.2020
5714 Clouds 9 1008 87 10000 5.7 80 17:33 14.12.2020
5715 Clouds 9 1009 87 10000 4.1 70 16:56 14.12.2020
5716 Clouds 9 1009 87 10000 4.1 70 16:36 14.12.2020
5717 Rain 9 1008 76 10000 5.1 80 16:18 14.12.2020
5718 Rain 9 1008 76 10000 5.1 80 15:32 14.12.2020
5719 Rain 9 1008 76 10000 4.1 70 14:46 14.12.2020
5720 Rain 10 1008 76 10000 4.1 70 14:27 14.12.2020
5721 Clouds 10 1008 76 10000 5.1 70 13:55 14.12.2020
5722 Clouds 10 1008 76 10000 5.1 70 13:33 14.12.2020
5723 Clouds 9 1009 81 10000 3.1 80 12:55 14.12.2020
5724 Rain 9 1009 81 10000 3.1 80 12:31 14.12.2020
5725 Rain 10 1009 62 10000 4.6 90 11:39 14.12.2020
5726 Rain 10 1009 62 10000 4.6 90 11:20 14.12.2020
5727 Clouds 10 1009 62 10000 6.7 80 10:27 14.12.2020
5728 Clouds 11 1009 62 10000 6.7 80 09:51 14.12.2020
5729 Clouds 10 1009 71 10000 4.6 80 08:52 14.12.2020
5730 Clouds 10 1009 71 10000 4.6 80 08:33 14.12.2020
5731 Clouds 9 1009 70 10000 5.1 60 07:53 14.12.2020
5732 Rain 9 1009 76 10000 5.1 80 07:19 14.12.2020
5733 Clouds 8 1009 76 10000 5.1 80 06:33 14.12.2020
5734 Clouds 9 1010 62 10000 2.1 90 03:55 14.12.2020
5735 Clouds 9 1010 81 10000 2.1 90 00:57 14.12.2020
5736 Clouds 8 1010 81 10000 2.1 90 00:37 14.12.2020
5737 Clouds 10 1011 76 10000 2.6 60 00:18 14.12.2020
5738 Clouds 10 1011 76 10000 2.6 60 23:42 13.12.2020
5739 Clouds 10 1011 62 10000 3.1 120 22:52 13.12.2020
5740 Clouds 10 1011 62 10000 3.1 120 22:21 13.12.2020
5741 Clouds 11 1011 66 10000 2.1 90 21:56 13.12.2020
5742 Clouds 11 1011 66 10000 2.1 90 21:36 13.12.2020
5743 Clouds 10 1011 66 10000 1.5 120 20:50 13.12.2020
5744 Clouds 11 1011 66 10000 1.5 120 20:25 13.12.2020
5745 Clouds 11 1011 62 10000 1.5 0 19:46 13.12.2020
5746 Clouds 11 1011 62 10000 3.1 90 19:23 13.12.2020
5747 Clouds 11 1011 62 10000 3.1 90 18:54 13.12.2020
5748 Clouds 11 1011 62 10000 3.1 90 18:36 13.12.2020
5749 Clouds 11 1011 71 10000 2.1 0 18:18 13.12.2020
5750 Clouds 11 1011 71 10000 2.1 0 17:43 13.12.2020
5751 Clouds 11 1011 71 10000 2.6 30 17:18 13.12.2020
5752 Clouds 10 1011 71 10000 2.6 30 16:44 13.12.2020
5753 Clouds 11 1011 71 10000 3.1 200 16:21 13.12.2020
5754 Clouds 11 1011 71 10000 3.1 200 15:45 13.12.2020
5755 Clouds 11 1011 71 10000 3.1 200 15:25 13.12.2020
5756 Clouds 11 1011 66 10000 3.1 160 14:46 13.12.2020
5757 Clouds 11 1011 66 10000 3.1 160 14:28 13.12.2020
5758 Clouds 11 1010 71 10000 4.1 170 13:46 13.12.2020
5759 Clouds 11 1010 71 10000 4.1 170 13:27 13.12.2020
5760 Rain 11 1011 71 10000 4.1 160 12:55 13.12.2020
5761 Rain 10 1011 71 10000 4.1 160 12:24 13.12.2020
5762 Rain 10 1011 71 10000 4.1 160 12:24 13.12.2020
5763 Rain 11 1011 71 10000 4.6 170 11:53 13.12.2020
5764 Clouds 10 1011 71 10000 3.6 150 11:28 13.12.2020
5765 Rain 10 1011 71 10000 4.6 160 10:42 13.12.2020
5766 Rain 11 1012 66 10000 4.6 150 10:18 13.12.2020
5767 Clouds 10 1012 66 10000 4.6 150 09:37 13.12.2020
5768 Clouds 10 1012 66 10000 3.6 160 08:47 13.12.2020
5769 Clouds 10 1012 66 10000 3.6 160 08:23 13.12.2020
5770 Clouds 10 1011 71 10000 3.1 160 05:50 13.12.2020
5771 Clouds 10 1011 66 10000 6.2 170 02:43 13.12.2020
5772 Clouds 10 1011 62 10000 7.2 170 01:59 13.12.2020
5773 Clouds 10 1011 62 10000 7.2 170 01:33 13.12.2020
5774 Rain 10 1011 62 10000 7.2 180 00:33 13.12.2020
5775 Clouds 10 1012 62 10000 5.7 190 23:33 12.12.2020
5776 Rain 10 1012 71 10000 4.1 190 22:58 12.12.2020
5777 Clouds 10 1012 71 10000 4.1 190 22:28 12.12.2020
5778 Rain 10 1011 66 10000 5.7 180 21:46 12.12.2020
5779 Rain 10 1011 66 10000 3.6 190 21:19 12.12.2020
5780 Clouds 10 1011 66 10000 3.6 190 20:43 12.12.2020
5781 Clouds 9 1011 76 10000 4.6 160 20:19 12.12.2020
5782 Rain 9 1011 76 10000 4.6 160 19:51 12.12.2020
5783 Rain 9 1011 76 10000 4.6 160 19:33 12.12.2020
5784 Clouds 9 1011 76 10000 4.6 160 19:33 12.12.2020
5785 Rain 10 1011 71 10000 5.7 170 18:52 12.12.2020
5786 Rain 10 1011 71 10000 5.7 170 18:33 12.12.2020
5787 Rain 10 1011 71 10000 2.6 170 17:59 12.12.2020
5788 Rain 10 1011 71 10000 2.6 170 17:40 12.12.2020
5789 Rain 10 1010 76 10000 2.1 80 16:28 12.12.2020
5790 Rain 11 1010 71 10000 4.6 150 15:53 12.12.2020
5791 Rain 11 1010 71 10000 4.6 150 15:35 12.12.2020
5792 Rain 11 1010 71 10000 3.6 170 14:53 12.12.2020
5793 Clouds 11 1010 66 10000 5.1 160 13:58 12.12.2020
5794 Rain 11 1010 66 10000 5.1 160 13:38 12.12.2020
5795 Clouds 11 1010 66 10000 5.1 190 13:19 12.12.2020
5796 Clouds 12 1010 66 10000 5.1 190 12:31 12.12.2020
5797 Clouds 9 1011 71 10000 1 0 10:56 12.12.2020
5798 Clouds 8 1011 81 10000 1 0 09:50 12.12.2020
5799 Clouds 6 1012 86 10000 3.03 119 09:20 12.12.2020
5800 Clouds 4 1012 80 10000 1.5 40 03:39 12.12.2020
5801 Clouds 3 1013 93 10000 1 0 00:48 12.12.2020
5802 Clouds 4 1014 86 10000 1.87 93 22:50 11.12.2020
5803 Clouds 5 1014 86 10000 0.5 0 20:55 11.12.2020
5804 Clouds 6 1014 86 10000 1.63 119 19:31 11.12.2020
5805 Clouds 9 1013 57 10000 1.29 118 16:45 11.12.2020
5806 Clouds 11 1013 53 10000 4.1 230 14:29 11.12.2020
5807 Clouds 11 1013 54 10000 5.7 230 13:26 11.12.2020
5808 Clouds 11 1013 66 10000 4.6 220 12:22 11.12.2020
5809 Clouds 11 1013 66 10000 4.6 220 11:52 11.12.2020
5810 Clouds 10 1013 66 10000 4.6 220 11:24 11.12.2020
5811 Clouds 8 1014 81 10000 1 0 09:58 11.12.2020
5812 Rain 7 1014 81 10000 1.5 0 07:28 11.12.2020
5813 Rain 5 1014 81 10000 3.6 60 05:20 11.12.2020
5814 Clouds 3 1015 93 10000 0.5 0 02:58 11.12.2020
5815 Clouds 4 1015 93 10000 1.5 250 00:40 11.12.2020
5816 Clouds 4 1016 86 10000 1 10 23:25 10.12.2020
5817 Clear 5 1016 75 10000 1.5 60 21:37 10.12.2020
5818 Clear 5 1017 75 10000 2.1 80 20:50 10.12.2020
5819 Clear 5 1017 75 10000 2.6 80 19:52 10.12.2020
5820 Clear 6 1018 75 10000 2.81 97 19:21 10.12.2020
5821 Clear 6 1018 75 10000 2.88 97 18:44 10.12.2020
5822 Clear 8 1018 66 10000 2.6 80 17:23 10.12.2020
5823 Clear 9 1018 61 10000 2.6 70 15:52 10.12.2020
5824 Clear 10 1018 66 10000 2.6 90 14:58 10.12.2020
5825 Clear 10 1018 66 10000 2.6 90 14:39 10.12.2020
5826 Clear 10 1018 57 10000 2.1 70 13:25 10.12.2020
5827 Clear 8 1020 70 10000 0.5 0 11:51 10.12.2020
5828 Clear 7 1021 75 10000 1 0 10:29 10.12.2020
5829 Mist 3 1022 86 4600 2.1 100 08:19 10.12.2020
5830 Mist 4 1022 86 4200 3.1 80 06:57 10.12.2020
5831 Clouds 2 1022 80 7000 2.1 60 04:45 10.12.2020
5832 Clear 2 1023 86 6000 3.1 90 02:27 10.12.2020
5833 Mist 2 1023 93 4800 3.1 90 01:18 10.12.2020
5834 Clear 2 1023 93 6000 2.6 80 23:35 09.12.2020
5835 Clear 3 1023 86 10000 2.1 80 20:37 09.12.2020
5836 Clear 4 1022 80 10000 1.5 70 19:38 09.12.2020
5837 Clear 6 1022 80 10000 1.72 135 17:55 09.12.2020
5838 Clear 7 1021 75 10000 2.1 240 16:54 09.12.2020
5839 Clear 7 1021 75 10000 2.1 240 16:25 09.12.2020
5840 Clear 10 1021 57 10000 2.07 158 15:38 09.12.2020
5841 Clear 11 1021 53 10000 2.2 173 14:49 09.12.2020
5842 Clear 11 1021 53 10000 2.62 193 14:24 09.12.2020
5843 Clear 11 1021 57 10000 1 0 13:19 09.12.2020
5844 Clear 11 1021 57 10000 1 0 12:47 09.12.2020
5845 Clear 10 1022 61 10000 1 0 11:55 09.12.2020
5846 Clear 9 1022 61 10000 1 0 11:27 09.12.2020
5847 Clouds 5 1023 93 6000 2 223 09:50 09.12.2020
5848 Clear 3 1022 60 6000 0.94 171 08:27 09.12.2020
5849 Fog -4 1021 100 1200 0.97 174 06:18 09.12.2020
5850 Mist -3 1020 92 3300 1.08 198 04:46 09.12.2020
5851 Mist 1 1020 92 4500 0.5 0 02:30 09.12.2020
5852 Clear 2 1019 77 8000 1.32 202 23:49 08.12.2020
5853 Clear 2 1019 76 7000 1.33 201 23:23 08.12.2020
5854 Clear 4 1018 93 10000 1.51 206 21:36 08.12.2020
5855 Clouds 4 1017 93 10000 1.62 216 19:46 08.12.2020
5856 Clouds 6 1017 81 10000 1.43 217 19:25 08.12.2020
5857 Clouds 6 1017 81 10000 1.08 218 18:31 08.12.2020
5858 Clouds 9 1015 70 10000 1.5 230 16:28 08.12.2020
5859 Clouds 10 1014 81 6000 0.5 0 14:35 08.12.2020
5860 Clouds 11 1014 66 10000 4.6 250 13:40 08.12.2020
5861 Clouds 11 1014 76 7000 0.5 0 12:35 08.12.2020
5862 Clouds 10 1015 76 6000 1.48 205 11:52 08.12.2020
5863 Clouds 9 1015 81 6000 1 0 10:52 08.12.2020
5864 Clouds 9 1015 81 6000 1 0 10:31 08.12.2020
5865 Mist 8 1015 86 3900 2.04 115 09:34 08.12.2020
5866 Mist 6 1015 93 2100 1.29 96 07:34 08.12.2020
5867 Mist 6 1015 93 5000 0.81 173 04:22 08.12.2020
5868 Rain 6 1014 74 6000 1 210 01:38 08.12.2020
5869 Clouds 3 1015 74 10000 1.71 131 00:44 08.12.2020
5870 Clouds 3 1015 74 10000 1.58 128 22:50 07.12.2020
5871 Clouds 4 1015 69 10000 1.5 340 22:18 07.12.2020
5872 Clouds 4 1015 69 10000 3.1 30 20:47 07.12.2020
5873 Clear 5 1015 65 10000 1.5 220 18:58 07.12.2020
5874 Clear 6 1015 60 10000 0.82 139 17:31 07.12.2020
5875 Clear 9 1015 64 10000 0.59 202 16:59 07.12.2020
5876 Clear 10 1015 61 10000 1 0 16:19 07.12.2020
5877 Clouds 11 1014 54 8000 1.5 280 15:24 07.12.2020
5878 Clear 10 1014 46 7000 1.5 10 14:26 07.12.2020
5879 Clear 10 1014 46 7000 1.5 10 13:34 07.12.2020
5880 Clear 9 1016 45 7000 1 0 11:46 07.12.2020
5881 Clear 9 1016 45 7000 1 0 11:27 07.12.2020
5882 Clear 7 1017 52 6000 1 0 10:22 07.12.2020
5883 Clear 2 1018 53 6000 1 0 08:32 07.12.2020
5884 Clear -2 1017 92 6000 0.5 220 06:51 07.12.2020
5885 Clear -5 1017 92 8000 1 220 05:21 07.12.2020
5886 Clear -3 1017 86 8000 0.72 197 02:18 07.12.2020
5887 Clear 0 1017 92 8000 0.78 194 00:31 07.12.2020
5888 Clear 1 1017 86 10000 0.87 199 22:46 06.12.2020
5889 Clear -1 1017 79 10000 0.93 206 21:44 06.12.2020
5890 Clear 0 1017 78 10000 0.76 213 20:35 06.12.2020
5891 Clear 0 1017 78 10000 0.76 213 20:35 06.12.2020
5892 Clear 2 1017 74 10000 0.75 226 19:57 06.12.2020
5893 Clear 2 1017 74 10000 1.5 230 18:53 06.12.2020
5894 Clear 5 1017 65 10000 1.01 231 17:24 06.12.2020
5895 Clear 8 1017 62 10000 1 0 16:27 06.12.2020
5896 Clear 12 1017 46 10000 1 0 14:21 06.12.2020
5897 Clear 11 1018 45 10000 0.5 0 12:53 06.12.2020
5898 Clear 11 1018 45 10000 0.5 0 12:27 06.12.2020
5899 Clear 10 1019 49 10000 1.5 240 11:40 06.12.2020
5900 Clear 9 1019 49 10000 1.5 240 11:21 06.12.2020
5901 Clear 8 1019 49 10000 1.22 258 10:31 06.12.2020
5902 Clear 3 1020 80 7000 0.56 240 08:49 06.12.2020
5903 Mist 0 1020 92 4000 0.35 271 06:53 06.12.2020
5904 Clear 1 1020 92 10000 0.31 295 02:40 06.12.2020
5905 Clear -1 1019 86 10000 0.53 312 00:42 06.12.2020
5906 Clear 1 1019 86 10000 0.61 296 00:24 06.12.2020
5907 Clear 2 1020 92 10000 0.54 284 22:52 05.12.2020
5908 Clear -1 1019 73 10000 0.5 220 22:21 05.12.2020
5909 Clear 0 1019 73 10000 0.5 220 21:51 05.12.2020
5910 Clear 0 1019 71 10000 0.5 220 21:26 05.12.2020
5911 Clear 3 1019 74 10000 0.41 306 19:49 05.12.2020
5912 Clear 4 1019 60 10000 0.57 295 18:45 05.12.2020
5913 Clear 5 1018 60 10000 0.5 278 17:35 05.12.2020
5914 Clear 8 1018 49 10000 1.5 220 16:43 05.12.2020
5915 Clear 9 1018 49 10000 1.5 220 16:20 05.12.2020
5916 Clear 14 1018 33 10000 1 0 14:30 05.12.2020
5917 Clear 13 1018 40 10000 0.5 0 12:32 05.12.2020
5918 Clear 12 1019 40 10000 1.5 0 11:48 05.12.2020
5919 Clear 10 1019 41 10000 0.56 98 10:33 05.12.2020
5920 Clear 2 1020 92 10000 1.23 65 07:49 05.12.2020
5921 Clear 2 1020 92 10000 1.08 72 07:25 05.12.2020
5922 Clear -1 1020 92 10000 1.1 78 04:46 05.12.2020
5923 Clear 3 1020 80 10000 1.25 70 23:56 04.12.2020
5924 Clear 3 1020 80 10000 1.52 76 22:39 04.12.2020
5925 Clear 5 1020 65 10000 1.83 74 20:29 04.12.2020
5926 Clear 7 1019 63 10000 1 0 18:53 04.12.2020
5927 Clear 8 1019 61 10000 1 0 18:20 04.12.2020
5928 Clear 8 1019 61 10000 1 0 17:41 04.12.2020
5929 Clear 12 1019 58 10000 2.1 150 15:54 04.12.2020
5930 Clear 14 1019 41 10000 3.1 150 13:58 04.12.2020
5931 Clear 14 1019 41 10000 3.1 150 13:31 04.12.2020
5932 Clear 14 1019 41 10000 2.1 90 12:54 04.12.2020
5933 Clear 12 1019 46 10000 3.1 80 11:33 04.12.2020
5934 Clear 11 1020 49 10000 4.1 80 10:28 04.12.2020
5935 Clear 3 1021 86 10000 1.81 90 07:43 04.12.2020
5936 Clear 4 1021 80 10000 1.68 94 06:39 04.12.2020
5937 Clear 2 1020 77 10000 1.82 87 04:38 04.12.2020
5938 Clear 5 1020 77 10000 0.5 0 23:49 03.12.2020
5939 Clear 7 1020 77 10000 1.77 80 22:45 03.12.2020
5940 Clear 8 1020 57 10000 2.6 90 21:20 03.12.2020
5941 Clear 8 1020 61 10000 3.1 90 19:49 03.12.2020
5942 Clear 8 1020 61 10000 3.1 90 19:20 03.12.2020
5943 Clouds 8 1021 61 10000 2.1 50 18:39 03.12.2020
5944 Clouds 10 1020 53 10000 2.6 110 17:20 03.12.2020
5945 Clouds 12 1020 47 10000 1 0 15:58 03.12.2020
5946 Clouds 12 1020 47 10000 1 0 15:31 03.12.2020
5947 Clouds 13 1020 44 10000 3.1 160 14:48 03.12.2020
5948 Clouds 14 1020 44 10000 3.6 160 13:49 03.12.2020
5949 Clouds 13 1021 47 8000 1 0 12:33 03.12.2020
5950 Clouds 11 1021 50 8000 1 0 11:49 03.12.2020
5951 Clouds 9 1022 57 6000 0.5 0 10:36 03.12.2020
5952 Clouds 2 1023 92 6000 0.5 210 08:21 03.12.2020
5953 Clear 1 1022 92 10000 0.5 210 03:41 03.12.2020
5954 Clear 1 1022 92 10000 0.5 0 01:39 03.12.2020
5955 Clear 1 1022 92 10000 1.32 88 23:41 02.12.2020
5956 Clear 2 1022 76 10000 1 0 22:29 02.12.2020
5957 Clear 3 1021 86 10000 1.35 99 21:29 02.12.2020
5958 Clear 4 1021 75 10000 1.35 99 20:48 02.12.2020
5959 Clear 4 1021 75 10000 1.19 106 20:29 02.12.2020
5960 Clear 5 1020 73 10000 1.13 114 19:22 02.12.2020
5961 Clouds 7 1020 80 10000 1 330 17:48 02.12.2020
5962 Clouds 9 1019 57 10000 1.64 109 17:29 02.12.2020
5963 Clouds 11 1019 46 10000 1 60 15:43 02.12.2020
5964 Clouds 12 1019 43 10000 1.03 185 13:20 02.12.2020
5965 Clouds 9 1020 51 10000 2.1 80 11:20 02.12.2020
5966 Clouds 9 1020 52 10000 2.1 80 10:24 02.12.2020
5967 Clouds 4 1020 86 7000 1.04 81 07:42 02.12.2020
5968 Clouds 4 1018 86 10000 0.11 164 23:22 01.12.2020
5969 Clouds 5 1018 80 10000 0.5 0 22:20 01.12.2020
5970 Clouds 5 1018 87 10000 0.68 166 19:36 01.12.2020
5971 Clouds 5 1017 75 10000 3.1 80 18:55 01.12.2020
5972 Rain 6 1017 56 10000 1.5 60 16:47 01.12.2020
5973 Clouds 7 1016 45 10000 0.33 255 14:34 01.12.2020
5974 Rain 7 1016 45 10000 1 0 12:31 01.12.2020
5975 Clouds 6 1017 52 10000 1 0 11:29 01.12.2020
5976 Clouds 4 1017 55 8000 1.5 240 10:52 01.12.2020
5977 Clouds 5 1017 55 8000 1.5 240 10:26 01.12.2020
5978 Clouds 3 1017 69 10000 1 220 07:40 01.12.2020
5979 Clear -3 1017 79 10000 0.5 0 02:57 01.12.2020
5980 Clear -3 1017 79 10000 0.5 0 02:57 01.12.2020
5981 Clear 0 1017 86 10000 0.45 67 00:57 01.12.2020
5982 Clear 1 1017 80 10000 0.5 0 23:49 30.11.2020
5983 Clear 2 1017 69 10000 0.71 58 23:18 30.11.2020
5984 Clear 2 1017 69 10000 0.71 58 22:36 30.11.2020
5985 Clear 1 1017 80 10000 0.5 230 22:18 30.11.2020
5986 Clear 2 1017 70 10000 1 230 19:46 30.11.2020
5987 Clear 3 1017 69 10000 1 220 18:44 30.11.2020
5988 Clear 4 1016 55 10000 1 0 18:21 30.11.2020
5989 Clear 4 1016 55 10000 1 0 17:45 30.11.2020
5990 Clear 5 1016 55 10000 2.1 240 16:52 30.11.2020
5991 Clear 11 1016 32 10000 0.5 0 14:47 30.11.2020
5992 Clouds 11 1016 34 8000 1 0 13:55 30.11.2020
5993 Clouds 10 1017 37 7000 1 0 12:57 30.11.2020
5994 Clouds 8 1018 42 6000 1.5 320 12:25 30.11.2020
5995 Clouds 7 1019 42 7000 0.5 0 10:59 30.11.2020
5996 Clouds 7 1019 42 7000 0.5 0 10:21 30.11.2020
5997 Clouds -1 1020 85 6000 1 0 07:59 30.11.2020
5998 Clear -1 1020 85 10000 1.24 77 01:23 30.11.2020
5999 Clear 0 1021 86 10000 1.3 76 23:25 29.11.2020
6000 Clear 0 1021 86 10000 1.3 76 23:25 29.11.2020
6001 Clear 0 1021 74 10000 1.18 85 21:44 29.11.2020
6002 Clear 0 1021 74 10000 1.02 92 21:25 29.11.2020
6003 Clear 3 1021 64 10000 0.5 0 18:46 29.11.2020
6004 Clear 3 1021 55 10000 0.99 92 17:34 29.11.2020
6005 Clear 11 1021 29 10000 0.5 0 13:37 29.11.2020
6006 Clear 10 1021 34 10000 1 0 12:44 29.11.2020
6007 Clear 7 1023 41 10000 1.5 0 11:25 29.11.2020
6008 Clear 1 1024 79 8000 0.43 119 08:53 29.11.2020
6009 Clear 1 1024 79 8000 0.43 119 08:34 29.11.2020
6010 Clear -3 1024 85 10000 0.35 101 02:31 29.11.2020
6011 Clear -5 1024 79 10000 0.32 210 22:59 28.11.2020
6012 Clear -4 1023 86 10000 0.36 166 22:18 28.11.2020
6013 Clear -2 1023 68 10000 0.68 136 19:56 28.11.2020
6014 Clear -1 1023 68 10000 0.5 129 19:27 28.11.2020
6015 Clear -1 1022 74 10000 0.5 220 18:55 28.11.2020
6016 Clear 2 1022 59 10000 1 230 17:57 28.11.2020
6017 Clear 4 1022 51 10000 2.1 240 16:56 28.11.2020
6018 Clear 10 1021 34 10000 1 0 14:58 28.11.2020
6019 Clear 10 1022 37 10000 1.5 240 13:47 28.11.2020
6020 Clear 7 1023 42 10000 1.5 60 11:25 28.11.2020
6021 Clear 1 1025 74 6000 0.96 131 08:47 28.11.2020
6022 Clear -3 1024 92 10000 1 0 03:38 28.11.2020
6023 Clear -3 1023 85 10000 1 0 01:52 28.11.2020
6024 Clear -3 1023 85 10000 1 0 01:52 28.11.2020
6025 Clear -1 1024 86 10000 0.47 119 23:19 27.11.2020
6026 Clear 0 1024 86 10000 0.67 137 22:23 27.11.2020
6027 Clear 0 1023 86 10000 0.5 230 20:39 27.11.2020
6028 Clear 1 1023 80 10000 0.92 105 19:33 27.11.2020
6029 Clear 2 1023 64 10000 0.5 0 18:57 27.11.2020
6030 Clear 9 1022 42 10000 1.5 290 15:50 27.11.2020
6031 Clear 10 1022 40 10000 1 0 14:22 27.11.2020
6032 Clear 9 1023 42 10000 1 0 12:48 27.11.2020
6033 Clear 7 1024 48 10000 1 0 12:20 27.11.2020
6034 Clear 6 1025 56 10000 1.5 0 10:51 27.11.2020
6035 Clear 6 1025 56 10000 1.5 0 10:28 27.11.2020
6036 Clear 2 1025 79 10000 1.3 72 07:39 27.11.2020
6037 Clear 2 1025 69 10000 1.32 66 22:59 26.11.2020
6038 Clear 2 1024 68 10000 0.45 24 22:22 26.11.2020
6039 Clear 2 1024 80 10000 1 0 21:39 26.11.2020
6040 Clear 2 1024 59 10000 1.41 62 20:39 26.11.2020
6041 Clear 5 1023 41 10000 1 0 18:36 26.11.2020
6042 Clear 7 1021 36 10000 0.5 0 16:38 26.11.2020
6043 Clear 11 1020 27 10000 4.1 70 13:44 26.11.2020
6044 Clear 10 1021 27 10000 5.7 60 12:52 26.11.2020
6045 Clear 10 1021 27 10000 5.7 60 12:29 26.11.2020
6046 Clear 7 1022 42 10000 2.43 42 10:39 26.11.2020
6047 Clear 5 1022 52 10000 2.19 42 10:18 26.11.2020
6048 Clear 4 1022 52 10000 2 33 09:34 26.11.2020
6049 Clear 2 1022 69 10000 2 33 08:44 26.11.2020
6050 Clear -1 1022 86 10000 1.78 23 07:49 26.11.2020
6051 Clear -1 1021 86 10000 0.5 0 02:18 26.11.2020
6052 Clear 3 1021 74 10000 2.41 29 21:54 25.11.2020
6053 Clear 3 1021 69 10000 1 30 20:31 25.11.2020
6054 Clear 4 1020 60 10000 2.77 44 18:59 25.11.2020
6055 Clear 5 1020 56 10000 4.1 70 17:27 25.11.2020
6056 Clouds 8 1019 45 10000 4.1 70 15:43 25.11.2020
6057 Clouds 8 1019 49 10000 5.7 60 14:46 25.11.2020
6058 Clouds 8 1019 49 10000 5.7 40 13:45 25.11.2020
6059 Clouds 8 1020 49 10000 6.7 40 12:47 25.11.2020
6060 Clouds 8 1021 52 10000 6.2 60 11:22 25.11.2020
6061 Clouds 6 1022 56 10000 3.6 60 09:20 25.11.2020
6062 Clear 4 1022 64 10000 3.96 37 08:50 25.11.2020
6063 Clear 0 1022 86 10000 0.5 0 07:20 25.11.2020
6064 Clear -1 1020 79 10000 2.5 38 03:49 25.11.2020
6065 Clear 1 1021 80 10000 2.67 23 01:48 25.11.2020
6066 Clear 1 1021 80 10000 0.5 0 00:18 25.11.2020
6067 Clear 1 1021 80 10000 0.5 0 23:35 24.11.2020
6068 Clear 1 1021 74 10000 1 0 22:39 24.11.2020
6069 Clear 1 1021 74 10000 1 0 22:39 24.11.2020
6070 Clear 1 1021 72 10000 1.5 220 21:35 24.11.2020
6071 Clear 2 1020 64 10000 1.5 230 20:58 24.11.2020
6072 Clear 4 1020 55 10000 1 0 19:48 24.11.2020
6073 Clouds 6 1020 48 10000 2.6 50 17:32 24.11.2020
6074 Clear 6 1020 48 10000 2.6 290 16:58 24.11.2020
6075 Clear 6 1020 48 10000 2.6 290 16:37 24.11.2020
6076 Clear 8 1019 36 10000 2.6 250 15:56 24.11.2020
6077 Clear 10 1019 32 10000 2.1 240 15:19 24.11.2020
6078 Clear 10 1019 32 10000 2.1 240 14:44 24.11.2020
6079 Clear 10 1019 31 10000 2.1 270 13:34 24.11.2020
6080 Clouds 9 1020 36 9000 1.5 0 12:38 24.11.2020
6081 Clouds 8 1020 39 9000 1.5 0 11:59 24.11.2020
6082 Clouds 7 1020 45 10000 1.07 285 11:23 24.11.2020
6083 Clouds 5 1022 55 7000 0.5 0 10:25 24.11.2020
6084 Clouds 4 1022 55 7000 0.5 0 09:38 24.11.2020
6085 Clouds 1 1023 80 6000 0.5 0 08:57 24.11.2020
6086 Clear -3 1023 92 10000 0.51 98 04:51 24.11.2020
6087 Clear -2 1025 85 10000 0.76 92 00:41 24.11.2020
6088 Clear 0 1025 79 10000 0.5 0 21:56 23.11.2020
6089 Clear 0 1025 79 10000 0.5 0 21:25 23.11.2020
6090 Clear 0 1025 80 10000 0.93 103 20:29 23.11.2020
6091 Clear 1 1025 77 10000 0.93 103 19:56 23.11.2020
6092 Clear 4 1026 64 10000 1.5 210 17:53 23.11.2020
6093 Clear 5 1026 52 10000 0.47 123 16:56 23.11.2020
6094 Clear 9 1026 42 10000 1 0 14:50 23.11.2020
6095 Clear 9 1026 42 10000 1 0 13:58 23.11.2020
6096 Clear 8 1027 45 10000 1 0 12:41 23.11.2020
6097 Clear 7 1028 48 10000 1 0 11:59 23.11.2020
6098 Clear 7 1028 48 10000 1 0 11:40 23.11.2020
6099 Clear 4 1029 59 10000 0.5 0 09:59 23.11.2020
6100 Clear 2 1029 68 10000 0.5 0 08:59 23.11.2020
6101 Clear 0 1029 73 10000 0.5 0 08:18 23.11.2020
6102 Clear -2 1028 85 10000 1.5 40 05:22 23.11.2020
6103 Clear -1 1029 79 10000 0.87 52 23:54 22.11.2020
6104 Clear 0 1029 79 10000 1.24 40 22:32 22.11.2020
6105 Clear 1 1029 74 10000 1.49 36 21:25 22.11.2020
6106 Clear 2 1029 74 10000 1.57 29 20:27 22.11.2020
6107 Clear 2 1029 59 10000 1 20 19:36 22.11.2020
6108 Clear 3 1029 55 10000 0.5 0 18:25 22.11.2020
6109 Clouds 5 1028 52 10000 5.7 40 16:29 22.11.2020
6110 Clouds 7 1027 42 10000 5.1 50 15:28 22.11.2020
6111 Clouds 8 1027 45 10000 2.6 60 13:44 22.11.2020
6112 Clouds 8 1027 45 10000 2.1 340 12:43 22.11.2020
6113 Clouds 7 1027 48 10000 2.1 0 11:54 22.11.2020
6114 Clouds 7 1027 45 10000 2.5 343 10:51 22.11.2020
6115 Clear 4 1029 64 10000 0.5 0 10:33 22.11.2020
6116 Clouds 6 1028 56 10000 2.5 343 10:33 22.11.2020
6117 Clear -2 1026 85 10000 1.18 37 04:43 22.11.2020
6118 Clear -1 1025 73 10000 1.24 27 01:47 22.11.2020
6119 Clear 1 1025 68 10000 1.27 65 22:42 21.11.2020
6120 Clear 0 1025 74 10000 1.5 230 21:32 21.11.2020
6121 Clear 0 1025 74 10000 1.5 230 21:32 21.11.2020
6122 Clear 1 1025 74 10000 1.5 230 20:53 21.11.2020
6123 Clear 1 1025 74 10000 1.5 230 20:21 21.11.2020
6124 Clear 1 1024 74 10000 3.1 10 19:49 21.11.2020
6125 Clear 3 1024 64 10000 1 140 19:18 21.11.2020
6126 Clear 7 1023 45 10000 2.6 20 17:32 21.11.2020
6127 Clear 7 1023 45 10000 2.6 20 16:45 21.11.2020
6128 Clear 8 1022 42 10000 4.6 70 15:43 21.11.2020
6129 Clear 8 1022 42 10000 4.6 70 15:20 21.11.2020
6130 Clouds 9 1021 39 10000 5.7 20 14:42 21.11.2020
6131 Clouds 9 1021 42 10000 5.1 40 12:59 21.11.2020
6132 Clouds 9 1021 39 10000 4.1 60 12:23 21.11.2020
6133 Clouds 8 1021 45 10000 4.1 50 11:50 21.11.2020
6134 Clear 7 1022 48 10000 1.5 210 10:28 21.11.2020
6135 Clear 4 1022 60 10000 2.1 250 09:19 21.11.2020
6136 Clear 3 1021 53 10000 2.1 190 08:44 21.11.2020
6137 Clear -1 1019 85 10000 1 0 05:42 21.11.2020
6138 Clear -1 1018 79 10000 1 0 03:28 21.11.2020
6139 Clear 0 1017 79 10000 0.5 0 00:22 21.11.2020
6140 Clear 0 1016 79 10000 2.1 10 22:59 20.11.2020
6141 Clear 1 1016 79 10000 0.5 0 21:45 20.11.2020
6142 Clear 1 1016 79 10000 0.5 0 21:22 20.11.2020
6143 Clear 1 1015 74 10000 3.6 10 20:41 20.11.2020
6144 Clear 3 1015 74 10000 1 0 19:28 20.11.2020
6145 Clear 4 1014 60 10000 1.45 80 18:27 20.11.2020
6146 Clouds 6 1014 52 10000 1 310 17:31 20.11.2020
6147 Clouds 6 1013 48 10000 2.1 80 16:47 20.11.2020
6148 Clouds 6 1013 48 10000 3.1 90 15:59 20.11.2020
6149 Clouds 6 1013 48 10000 3.1 90 15:39 20.11.2020
6150 Clouds 6 1013 48 10000 2.6 100 13:54 20.11.2020
6151 Clouds 6 1013 52 10000 3.6 80 13:19 20.11.2020
6152 Clouds 6 1013 52 10000 3.6 80 12:41 20.11.2020
6153 Clouds 5 1013 52 10000 3.1 70 11:52 20.11.2020
6154 Clouds 5 1014 56 10000 2.6 100 11:21 20.11.2020
6155 Clouds 4 1014 60 10000 2.6 120 09:47 20.11.2020
6156 Rain 2 1015 64 10000 3.6 90 08:29 20.11.2020
6157 Rain 2 1015 64 10000 3.6 90 07:47 20.11.2020
6158 Clear 3 1014 64 10000 1 0 03:45 20.11.2020
6159 Clear 4 1016 60 10000 2.6 50 23:36 19.11.2020
6160 Clear 4 1017 60 10000 3.6 40 22:29 19.11.2020
6161 Clear 4 1017 60 10000 5.1 70 21:50 19.11.2020
6162 Clear 5 1017 56 10000 5.1 50 20:42 19.11.2020
6163 Clear 5 1018 52 10000 4.1 60 20:19 19.11.2020
6164 Clear 6 1018 52 10000 4.1 60 19:26 19.11.2020
6165 Clear 6 1018 45 10000 1.5 30 18:35 19.11.2020
6166 Clear 7 1019 42 10000 5.7 60 17:18 19.11.2020
6167 Clear 7 1019 42 10000 5.7 60 16:25 19.11.2020
6168 Clear 7 1019 42 10000 5.1 50 15:28 19.11.2020
6169 Clear 8 1019 45 10000 4.6 60 13:47 19.11.2020
6170 Clear 8 1019 45 10000 4.6 60 13:27 19.11.2020
6171 Clear 8 1020 49 10000 4.6 100 12:51 19.11.2020
6172 Clear 8 1020 49 10000 4.6 100 12:25 19.11.2020
6173 Clouds 8 1021 45 10000 5.1 60 11:40 19.11.2020
6174 Clouds 8 1021 45 10000 5.1 60 11:40 19.11.2020
6175 Clouds 7 1021 49 10000 4.6 60 11:20 19.11.2020
6176 Clouds 7 1021 49 10000 4.6 60 10:29 19.11.2020
6177 Clouds 7 1022 52 10000 4.6 50 09:45 19.11.2020
6178 Clouds 7 1022 52 10000 4.6 50 09:26 19.11.2020
6179 Clouds 6 1023 64 10000 5.7 70 08:20 19.11.2020
6180 Clouds 5 1023 73 10000 5.1 70 06:54 19.11.2020
6181 Clouds 6 1024 75 10000 1 0 01:46 19.11.2020
6182 Clouds 6 1024 70 10000 3.01 52 00:31 19.11.2020
6183 Clouds 7 1024 65 10000 2.1 80 23:31 18.11.2020
6184 Clouds 7 1024 70 10000 2.79 58 22:57 18.11.2020
6185 Clouds 7 1024 70 10000 2.69 63 22:27 18.11.2020
6186 Clouds 6 1024 75 10000 2.1 10 21:41 18.11.2020
6187 Clouds 6 1024 75 10000 2.6 10 21:21 18.11.2020
6188 Clouds 7 1024 70 10000 4.1 20 19:54 18.11.2020
6189 Clouds 7 1024 70 10000 4.1 20 19:35 18.11.2020
6190 Clouds 7 1024 65 10000 4.1 30 18:57 18.11.2020
6191 Clouds 7 1024 65 10000 4.1 30 18:38 18.11.2020
6192 Clouds 8 1024 61 10000 3.6 20 17:38 18.11.2020
6193 Clouds 9 1024 61 10000 3.1 30 16:25 18.11.2020
6194 Clouds 9 1024 57 10000 4.6 30 15:57 18.11.2020
6195 Clouds 11 1024 50 10000 5.1 70 14:41 18.11.2020
6196 Clouds 11 1023 53 10000 5.7 30 13:46 18.11.2020
6197 Clouds 11 1024 53 10000 6.2 30 13:21 18.11.2020
6198 Clouds 11 1024 53 10000 6.2 20 12:42 18.11.2020
6199 Clouds 11 1024 53 10000 5.1 20 11:41 18.11.2020
6200 Clear 9 1026 65 7000 1.38 76 10:36 18.11.2020
6201 Clear 8 1026 65 7000 1.38 76 10:18 18.11.2020
6202 Clear 2 1026 92 7000 1.54 69 08:23 18.11.2020
6203 Clear 0 1026 92 6000 1.23 66 06:35 18.11.2020
6204 Clear 2 1026 71 10000 0.78 63 00:58 18.11.2020
6205 Clear 3 1025 86 10000 0.66 81 23:47 17.11.2020
6206 Clear 3 1025 67 10000 0.6 95 22:53 17.11.2020
6207 Clear 4 1025 66 10000 0.61 87 22:29 17.11.2020
6208 Clear 4 1025 66 10000 0.61 87 21:52 17.11.2020
6209 Clear 4 1025 64 10000 0.58 76 21:30 17.11.2020
6210 Clear 2 1025 64 10000 0.58 76 20:50 17.11.2020
6211 Clear 5 1025 62 10000 0.59 58 20:26 17.11.2020
6212 Clear 5 1025 62 10000 0.59 58 19:54 17.11.2020
6213 Clear 6 1025 59 10000 1 240 18:30 17.11.2020
6214 Clear 7 1025 59 10000 1.5 230 17:44 17.11.2020
6215 Clear 10 1024 50 10000 1 220 16:54 17.11.2020
6216 Clear 12 1024 46 10000 1.5 260 16:20 17.11.2020
6217 Clear 12 1024 46 10000 1.5 260 15:41 17.11.2020
6218 Clear 13 1024 41 10000 1.5 0 15:22 17.11.2020
6219 Clear 13 1024 41 10000 1.5 0 14:54 17.11.2020
6220 Clear 14 1024 41 10000 1.5 0 14:22 17.11.2020
6221 Clear 13 1024 41 10000 2.1 240 13:35 17.11.2020
6222 Clear 13 1024 40 10000 2.6 290 12:48 17.11.2020
6223 Clear 13 1024 41 10000 2.6 290 12:24 17.11.2020
6224 Clear 12 1024 46 7000 1.5 0 11:42 17.11.2020
6225 Clear 10 1025 53 6000 1.5 0 10:46 17.11.2020
6226 Clear 9 1025 61 6000 1 0 10:23 17.11.2020
6227 Clear 9 1025 61 6000 1 0 09:49 17.11.2020
6228 Clear 8 1025 61 6000 1 0 09:24 17.11.2020
6229 Clear 4 1025 53 10000 0.51 131 08:22 17.11.2020
6230 Clear 4 1025 53 10000 0.51 131 07:43 17.11.2020
6231 Clear 1 1024 92 10000 0.27 66 05:18 17.11.2020
6232 Clear 1 1024 86 10000 0.06 224 03:31 17.11.2020
6233 Clear 1 1024 92 10000 0.36 265 02:31 17.11.2020
6234 Clear 2 1023 76 10000 0.37 247 00:57 17.11.2020
6235 Clear 3 1023 73 10000 0.32 220 00:19 17.11.2020
6236 Clear 3 1023 73 10000 0.32 220 23:41 16.11.2020
6237 Clear 4 1023 71 10000 0.29 190 23:19 16.11.2020
6238 Clear 4 1023 69 10000 0.31 188 22:29 16.11.2020
6239 Clear 4 1022 80 10000 0.5 240 21:59 16.11.2020
6240 Clear 4 1022 80 10000 0.5 240 21:40 16.11.2020
6241 Clear 3 1022 67 10000 0.24 207 21:20 16.11.2020
6242 Clear 4 1022 65 10000 0.36 234 20:26 16.11.2020
6243 Clouds 4 1022 65 10000 0.36 234 19:55 16.11.2020
6244 Clouds 6 1022 63 10000 0.45 245 19:30 16.11.2020
6245 Clouds 7 1022 70 10000 2.1 220 18:52 16.11.2020
6246 Clouds 7 1021 65 10000 2.1 230 18:21 16.11.2020
6247 Clouds 7 1021 65 10000 2.1 230 17:36 16.11.2020
6248 Clouds 10 1021 50 10000 1.5 280 17:18 16.11.2020
6249 Clouds 10 1021 50 10000 1.5 280 16:49 16.11.2020
6250 Clouds 10 1021 50 10000 1.5 280 16:26 16.11.2020
6251 Clouds 12 1020 46 10000 1.5 260 15:45 16.11.2020
6252 Clouds 13 1020 47 10000 2.1 230 15:27 16.11.2020
6253 Clouds 13 1020 47 10000 2.1 230 14:48 16.11.2020
6254 Clouds 13 1020 41 10000 2.6 230 13:46 16.11.2020
6255 Clouds 13 1020 43 10000 1 0 12:59 16.11.2020
6256 Clouds 13 1020 43 10000 1 0 12:29 16.11.2020
6257 Clouds 12 1021 43 10000 1.5 0 11:40 16.11.2020
6258 Clouds 11 1022 50 10000 2.1 0 11:21 16.11.2020
6259 Clouds 11 1022 50 10000 2.1 0 10:44 16.11.2020
6260 Clouds 11 1022 50 10000 2.1 0 10:25 16.11.2020
6261 Clouds 9 1022 57 10000 1.15 217 09:49 16.11.2020
6262 Clouds 9 1022 57 10000 0.67 197 09:23 16.11.2020
6263 Clouds 8 1022 70 10000 0.67 197 08:41 16.11.2020
6264 Clouds 5 1022 86 10000 0.22 143 07:48 16.11.2020
6265 Clouds 3 1022 66 10000 0.2 67 06:54 16.11.2020
6266 Clouds 2 1022 66 10000 0.45 53 06:35 16.11.2020
6267 Clear 2 1022 86 10000 0.69 49 04:53 16.11.2020
6268 Clear 3 1021 80 10000 0.7 31 03:45 16.11.2020
6269 Clear 5 1022 80 10000 0.74 6 01:44 16.11.2020
6270 Clear 3 1022 76 10000 0.91 3 23:58 15.11.2020
6271 Clear 3 1022 74 10000 0.97 359 23:28 15.11.2020
6272 Clear 4 1022 74 10000 0.5 0 22:54 15.11.2020
6273 Clear 4 1022 71 10000 0.5 0 22:22 15.11.2020
6274 Clear 4 1022 71 10000 1 230 21:47 15.11.2020
6275 Clear 4 1022 68 10000 1 230 21:27 15.11.2020
6276 Clear 6 1022 68 10000 2.1 230 20:48 15.11.2020
6277 Clear 6 1022 66 10000 2.1 230 20:28 15.11.2020
6278 Clear 8 1021 65 10000 1 230 19:49 15.11.2020
6279 Clear 8 1021 65 10000 1 230 19:24 15.11.2020
6280 Clouds 9 1021 53 10000 1 0 18:59 15.11.2020
6281 Clouds 9 1021 53 10000 1 0 18:41 15.11.2020
6282 Clouds 10 1021 50 10000 3.1 270 18:21 15.11.2020
6283 Clouds 10 1021 50 10000 3.1 270 17:46 15.11.2020
6284 Clouds 10 1021 50 10000 3.1 270 17:25 15.11.2020
6285 Clouds 11 1020 55 10000 1.5 0 16:51 15.11.2020
6286 Clouds 12 1020 43 10000 1.5 0 16:22 15.11.2020
6287 Clouds 12 1020 43 10000 1.5 0 15:56 15.11.2020
6288 Clouds 12 1020 43 10000 1.5 0 15:37 15.11.2020
6289 Clouds 13 1020 41 10000 1 0 15:19 15.11.2020
6290 Clouds 13 1020 41 10000 1 0 14:36 15.11.2020
6291 Clouds 12 1020 47 10000 2.6 230 14:18 15.11.2020
6292 Clouds 12 1020 47 10000 2.6 230 13:39 15.11.2020
6293 Clouds 12 1020 47 10000 1 0 12:52 15.11.2020
6294 Clouds 13 1020 47 10000 1 0 12:26 15.11.2020
6295 Clouds 12 1021 50 10000 1.5 170 11:55 15.11.2020
6296 Clouds 12 1021 50 10000 1.5 170 11:37 15.11.2020
6297 Clouds 11 1021 53 10000 1 0 11:18 15.11.2020
6298 Clouds 11 1021 53 10000 1 0 10:43 15.11.2020
6299 Clouds 11 1021 53 10000 1 0 10:24 15.11.2020
6300 Clouds 9 1022 65 10000 1 0 09:41 15.11.2020
6301 Clouds 7 1022 75 8000 1.91 351 09:20 15.11.2020
6302 Clouds 7 1022 75 8000 1.91 351 08:53 15.11.2020
6303 Clouds 7 1022 75 8000 1.94 349 08:28 15.11.2020
6304 Clouds 5 1022 86 8000 1.94 349 07:43 15.11.2020
6305 Clear 2 1021 81 10000 1.66 349 04:59 15.11.2020
6306 Clear 2 1021 80 10000 1.54 354 03:40 15.11.2020
6307 Clear 4 1021 74 10000 1.55 358 00:49 15.11.2020
6308 Clear 4 1021 69 10000 1.86 1 00:27 15.11.2020
6309 Clear 4 1021 86 10000 1.86 1 23:37 14.11.2020
6310 Clear 4 1021 68 10000 1 0 22:50 14.11.2020
6311 Clear 4 1021 65 10000 1 0 22:30 14.11.2020
6312 Clear 5 1021 86 10000 0.5 0 21:43 14.11.2020
6313 Clear 6 1020 80 10000 1.89 0 21:22 14.11.2020
6314 Clear 6 1020 80 10000 1.89 0 20:56 14.11.2020
6315 Clear 6 1020 80 10000 1.66 351 20:28 14.11.2020
6316 Clouds 7 1020 70 10000 1.5 230 19:51 14.11.2020
6317 Clouds 7 1020 70 10000 1.5 230 19:31 14.11.2020
6318 Clouds 9 1020 61 10000 1 0 18:43 14.11.2020
6319 Clouds 9 1020 61 10000 1 0 18:24 14.11.2020
6320 Clouds 9 1020 57 10000 1 0 17:51 14.11.2020
6321 Clouds 9 1020 57 10000 1 0 17:33 14.11.2020
6322 Clouds 10 1020 50 10000 2.1 270 16:57 14.11.2020
6323 Clouds 10 1020 50 10000 2.1 270 16:37 14.11.2020
6324 Clouds 11 1020 50 10000 1 0 16:18 14.11.2020
6325 Clouds 11 1020 50 10000 1 0 15:51 14.11.2020
6326 Clouds 11 1020 50 10000 1 0 15:25 14.11.2020
6327 Clouds 12 1020 46 10000 1 0 14:41 14.11.2020
6328 Clouds 12 1020 50 10000 2.1 310 14:23 14.11.2020
6329 Clouds 12 1020 50 10000 2.1 310 13:41 14.11.2020
6330 Clouds 12 1020 50 10000 2.1 310 13:22 14.11.2020
6331 Clouds 12 1020 50 10000 2.1 280 12:46 14.11.2020
6332 Clouds 12 1020 50 10000 2.1 280 12:27 14.11.2020
6333 Clouds 11 1021 50 10000 1.5 60 11:43 14.11.2020
6334 Clouds 11 1021 50 10000 1.5 60 11:24 14.11.2020
6335 Clouds 10 1022 57 10000 2.1 70 10:43 14.11.2020
6336 Clouds 9 1022 57 10000 2.1 70 10:25 14.11.2020
6337 Clouds 8 1022 65 10000 1 0 09:47 14.11.2020
6338 Clouds 8 1022 65 10000 1 0 09:28 14.11.2020
6339 Clouds 7 1022 75 10000 1 0 08:49 14.11.2020
6340 Clouds 6 1022 75 10000 1 0 08:27 14.11.2020
6341 Clouds 5 1022 46 10000 0.83 26 07:44 14.11.2020
6342 Clouds 5 1022 53 10000 1.02 68 07:25 14.11.2020
6343 Clouds 3 1022 65 10000 1.5 210 06:31 14.11.2020
6344 Clouds 3 1022 69 10000 0.54 59 05:29 14.11.2020
6345 Clear 2 1023 68 10000 1.5 210 03:52 14.11.2020
6346 Clear 4 1023 86 10000 2.1 240 00:56 14.11.2020
6347 Clear 3 1023 62 10000 1.5 230 23:46 13.11.2020
6348 Clear 3 1023 60 10000 1.5 230 23:23 13.11.2020
6349 Clear 3 1023 60 10000 1.09 85 22:44 13.11.2020
6350 Clear 3 1023 59 10000 1.04 87 22:25 13.11.2020
6351 Clear 4 1024 59 10000 1 0 21:51 13.11.2020
6352 Clear 5 1024 59 10000 1 0 21:33 13.11.2020
6353 Clear 4 1024 57 10000 1.08 97 20:59 13.11.2020
6354 Clear 5 1024 57 10000 1.08 97 20:40 13.11.2020
6355 Clear 6 1024 56 10000 1 0 20:20 13.11.2020
6356 Clear 6 1024 56 10000 1 0 19:45 13.11.2020
6357 Clear 6 1024 56 10000 1 0 19:23 13.11.2020
6358 Clear 7 1024 56 10000 1 0 18:53 13.11.2020
6359 Clear 8 1024 65 10000 1.5 240 18:00 13.11.2020
6360 Clear 8 1024 65 10000 1.5 240 17:39 13.11.2020
6361 Clear 10 1023 50 10000 1.2 128 17:18 13.11.2020
6362 Clear 10 1023 50 10000 1.2 128 16:47 13.11.2020
6363 Clear 13 1023 41 10000 0.5 0 16:21 13.11.2020
6364 Clear 13 1023 41 10000 0.5 0 15:42 13.11.2020
6365 Clear 14 1024 38 10000 0.69 141 15:23 13.11.2020
6366 Clear 14 1024 38 10000 0.69 141 14:41 13.11.2020
6367 Clear 13 1024 44 10000 1 0 14:20 13.11.2020
6368 Clear 14 1024 44 10000 1 0 13:45 13.11.2020
6369 Clear 13 1024 47 10000 1 0 13:21 13.11.2020
6370 Clear 13 1024 47 10000 1 0 12:45 13.11.2020
6371 Clear 13 1024 47 10000 1 0 12:24 13.11.2020
6372 Clear 12 1025 46 10000 0.5 0 11:48 13.11.2020
6373 Clear 12 1025 46 10000 0.5 0 11:25 13.11.2020
6374 Clear 11 1026 53 8000 1.5 0 10:55 13.11.2020
6375 Clear 10 1026 53 8000 1.5 0 10:34 13.11.2020
6376 Clear 8 1026 61 6000 0.5 0 09:56 13.11.2020
6377 Clear 8 1026 61 6000 0.5 0 09:34 13.11.2020
6378 Clear 5 1027 80 6000 0.86 119 08:59 13.11.2020
6379 Clear 5 1027 80 6000 0.86 119 08:34 13.11.2020
6380 Clear 2 1027 48 10000 0.77 113 07:57 13.11.2020
6381 Clear -1 1027 48 10000 0.77 113 07:38 13.11.2020
6382 Clear 2 1027 56 10000 0.72 110 07:20 13.11.2020
6383 Clear 0 1027 92 10000 0.78 105 06:45 13.11.2020
6384 Clear 0 1026 92 10000 0.5 230 05:42 13.11.2020
6385 Clear 0 1026 100 10000 0.6 126 04:57 13.11.2020
6386 Clear 1 1026 92 10000 0.5 0 01:45 13.11.2020
6387 Clear 2 1026 70 10000 0.65 99 00:37 13.11.2020
6388 Clear 2 1026 68 10000 1 210 00:18 13.11.2020
6389 Clear 2 1026 68 10000 1 210 23:37 12.11.2020
6390 Clear 3 1026 66 10000 0.5 0 23:18 12.11.2020
6391 Clear 3 1026 66 10000 0.5 0 22:42 12.11.2020
6392 Clear 3 1026 64 10000 0.5 0 22:22 12.11.2020
6393 Clear 3 1026 64 10000 0.5 0 21:42 12.11.2020
6394 Clear 3 1026 62 10000 0.5 0 21:24 12.11.2020
6395 Clear 4 1026 86 10000 1 230 20:57 12.11.2020
6396 Clear 4 1026 86 10000 1 230 20:38 12.11.2020
6397 Clear 5 1026 80 10000 0.5 220 20:18 12.11.2020
6398 Clear 5 1026 80 10000 0.5 220 19:43 12.11.2020
6399 Clear 5 1026 80 10000 0.5 220 19:24 12.11.2020
6400 Clear 6 1026 75 10000 0.94 117 18:48 12.11.2020
6401 Clear 7 1026 75 10000 0.95 116 18:23 12.11.2020
6402 Clear 7 1025 70 10000 2.1 240 17:45 12.11.2020
6403 Clear 7 1025 70 10000 2.1 240 17:26 12.11.2020
6404 Clear 10 1025 57 10000 0.88 120 16:46 12.11.2020
6405 Clear 10 1025 57 10000 0.8 116 16:25 12.11.2020
6406 Clear 12 1025 43 10000 0.8 116 15:56 12.11.2020
6407 Clear 12 1025 43 10000 0.82 114 15:32 12.11.2020
6408 Clear 12 1025 43 10000 0.5 0 14:59 12.11.2020
6409 Clear 12 1025 43 10000 0.5 0 14:41 12.11.2020
6410 Clear 12 1025 50 10000 1.5 0 14:21 12.11.2020
6411 Clear 12 1025 50 10000 1.5 0 13:46 12.11.2020
6412 Clear 11 1025 53 10000 1 0 13:21 12.11.2020
6413 Clear 11 1025 53 10000 1 0 12:50 12.11.2020
6414 Clear 11 1025 53 10000 1 0 12:28 12.11.2020
6415 Clear 11 1026 53 10000 2.6 90 11:59 12.11.2020
6416 Clear 11 1026 53 10000 2.6 90 11:40 12.11.2020
6417 Clear 10 1027 57 10000 3.1 80 11:22 12.11.2020
6418 Clear 10 1027 57 10000 3.1 80 10:41 12.11.2020
6419 Clear 10 1027 57 10000 3.1 80 10:22 12.11.2020
6420 Clear 8 1027 65 10000 0.5 0 09:40 12.11.2020
6421 Clear 6 1027 80 7000 0.97 100 09:20 12.11.2020
6422 Clear 6 1027 80 7000 0.97 100 08:41 12.11.2020
6423 Clear 6 1027 80 7000 1.17 84 08:21 12.11.2020
6424 Clear 6 1027 80 7000 1.17 84 08:21 12.11.2020
6425 Clear 4 1027 59 7000 1.17 84 07:59 12.11.2020
6426 Clear 4 1027 59 7000 1.17 84 07:40 12.11.2020
6427 Mist 1 1027 92 4600 1.36 77 06:58 12.11.2020
6428 Mist 1 1027 92 4600 1.36 77 06:40 12.11.2020
6429 Clear 1 1027 81 10000 1.42 66 04:39 12.11.2020
6430 Clear 2 1027 81 10000 0.5 210 03:20 12.11.2020
6431 Clear 3 1027 79 10000 0.5 230 00:54 12.11.2020
6432 Clear 4 1026 86 10000 1.3 68 23:47 11.11.2020
6433 Clear 4 1026 86 10000 1.58 63 23:25 11.11.2020
6434 Clear 5 1026 80 10000 1 0 22:57 11.11.2020
6435 Clear 5 1026 80 10000 1 0 22:39 11.11.2020
6436 Clear 6 1026 70 10000 1.5 20 22:19 11.11.2020
6437 Clear 6 1026 70 10000 1.5 20 21:41 11.11.2020
6438 Clear 6 1026 70 10000 1.5 20 21:23 11.11.2020
6439 Clear 5 1026 80 10000 1.81 57 20:55 11.11.2020
6440 Clear 6 1026 80 10000 1.81 57 20:37 11.11.2020
6441 Clear 7 1025 70 10000 1.81 62 20:19 11.11.2020
6442 Clear 7 1025 70 10000 1.81 62 19:48 11.11.2020
6443 Clear 7 1025 70 10000 1.98 73 19:30 11.11.2020
6444 Clear 7 1025 70 10000 1.98 73 19:30 11.11.2020
6445 Clear 8 1025 65 10000 1.98 73 18:49 11.11.2020
6446 Clear 8 1025 65 10000 1.9 79 18:28 11.11.2020
6447 Clear 10 1025 50 10000 1.9 79 17:41 11.11.2020
6448 Clear 10 1025 50 10000 2.52 81 17:22 11.11.2020
6449 Clear 11 1024 46 10000 1.5 100 16:49 11.11.2020
6450 Clear 11 1024 46 10000 1.5 100 16:31 11.11.2020
6451 Clouds 12 1024 43 10000 3.1 100 15:50 11.11.2020
6452 Clouds 13 1024 43 10000 3.1 100 15:27 11.11.2020
6453 Clouds 13 1024 41 10000 3.1 110 14:55 11.11.2020
6454 Clouds 13 1024 41 10000 3.1 110 14:35 11.11.2020
6455 Clouds 13 1024 41 10000 3.1 80 13:57 11.11.2020
6456 Clouds 13 1024 41 10000 3.1 80 13:33 11.11.2020
6457 Clouds 13 1025 43 10000 2.6 80 12:44 11.11.2020
6458 Clouds 13 1025 43 10000 4.1 70 12:20 11.11.2020
6459 Clouds 13 1025 43 10000 4.1 70 11:49 11.11.2020
6460 Clouds 13 1025 43 10000 4.1 70 11:30 11.11.2020
6461 Clouds 13 1025 54 10000 4.1 60 10:42 11.11.2020
6462 Clouds 13 1025 54 10000 4.1 60 10:24 11.11.2020
6463 Clouds 11 1026 66 10000 1 0 09:48 11.11.2020
6464 Clouds 11 1026 66 10000 1 0 09:28 11.11.2020
6465 Clear 9 1026 81 8000 1.5 230 08:47 11.11.2020
6466 Clouds 8 1026 81 8000 1.5 230 08:28 11.11.2020
6467 Clouds 6 1026 86 8000 3.05 60 07:52 11.11.2020
6468 Clear 6 1026 86 8000 2.36 48 07:32 11.11.2020
6469 Clear 4 1026 93 7000 1.98 52 06:28 11.11.2020
6470 Clear 4 1025 93 10000 1.96 51 04:32 11.11.2020
6471 Clear 5 1025 86 10000 2.05 54 01:32 11.11.2020
6472 Clear 5 1024 86 10000 2.1 230 00:36 11.11.2020
6473 Clear 6 1024 86 10000 2.23 55 23:55 10.11.2020
6474 Clear 6 1024 86 10000 2.31 53 23:24 10.11.2020
6475 Clear 7 1024 81 10000 0.5 0 22:57 10.11.2020
6476 Clear 7 1024 81 10000 0.5 0 22:28 10.11.2020
6477 Clear 8 1024 75 10000 1 0 21:56 10.11.2020
6478 Clear 8 1024 75 10000 1 0 21:38 10.11.2020
6479 Clear 9 1024 61 10000 0.5 0 21:18 10.11.2020
6480 Clear 9 1024 61 10000 0.5 0 20:42 10.11.2020
6481 Clear 10 1024 62 10000 2.53 52 20:23 10.11.2020
6482 Clear 10 1024 62 10000 2.53 52 19:53 10.11.2020
6483 Clear 11 1024 62 10000 2.59 51 19:35 10.11.2020
6484 Clear 11 1023 54 10000 1 0 18:59 10.11.2020
6485 Clear 11 1023 54 10000 1 0 18:41 10.11.2020
6486 Clear 12 1022 47 10000 4.6 70 18:20 10.11.2020
6487 Clear 12 1022 47 10000 4.6 70 17:44 10.11.2020
6488 Clear 12 1022 47 10000 4.6 70 17:26 10.11.2020
6489 Clear 14 1022 47 10000 4.1 60 16:57 10.11.2020
6490 Clear 14 1022 47 10000 4.1 60 16:38 10.11.2020
6491 Clear 15 1021 39 10000 3.6 60 16:19 10.11.2020
6492 Clear 16 1021 39 10000 3.6 60 15:45 10.11.2020
6493 Clear 16 1021 39 10000 3.6 60 15:24 10.11.2020
6494 Clear 17 1021 36 10000 3.1 60 14:42 10.11.2020
6495 Clear 17 1021 36 10000 1 0 14:23 10.11.2020
6496 Clear 17 1021 36 10000 1 0 13:57 10.11.2020
6497 Clear 17 1021 36 10000 1 0 13:36 10.11.2020
6498 Clear 17 1022 36 10000 0.5 240 13:18 10.11.2020
6499 Clear 17 1022 36 10000 0.5 240 12:44 10.11.2020
6500 Clear 17 1022 36 10000 0.5 240 12:44 10.11.2020
6501 Clear 15 1022 44 10000 1 0 12:24 10.11.2020
6502 Clear 15 1022 44 10000 1 0 11:39 10.11.2020
6503 Clear 15 1022 44 10000 1 0 11:20 10.11.2020
6504 Clear 13 1023 50 8000 1 0 10:45 10.11.2020
6505 Clear 13 1023 50 8000 1 0 10:27 10.11.2020
6506 Clear 13 1023 50 8000 1 0 10:27 10.11.2020
6507 Clear 11 1023 57 8000 1 0 09:51 10.11.2020
6508 Clear 11 1023 57 8000 1 0 09:51 10.11.2020
6509 Clear 11 1023 57 8000 1 0 09:29 10.11.2020
6510 Clear 9 1024 75 8000 1.13 47 08:59 10.11.2020
6511 Clear 8 1024 75 8000 1.13 47 08:40 10.11.2020
6512 Clear 8 1024 75 8000 1.21 45 08:22 10.11.2020
6513 Mist 5 1024 86 4800 1.21 45 07:39 10.11.2020
6514 Mist 5 1024 86 4800 1.35 42 07:19 10.11.2020
6515 Mist 4 1023 49 3500 1 220 06:38 10.11.2020
6516 Clear 3 1023 65 8000 1.07 38 05:33 10.11.2020
6517 Clear 4 1023 64 7000 1 44 03:36 10.11.2020
6518 Clear 5 1023 93 10000 0.76 23 01:41 10.11.2020
6519 Clear 5 1023 93 10000 0.56 16 00:55 10.11.2020
6520 Clear 6 1023 86 10000 0.4 49 23:47 09.11.2020
6521 Clear 6 1023 86 10000 0.5 0 23:23 09.11.2020
6522 Clear 6 1023 86 10000 0.5 0 22:42 09.11.2020
6523 Clear 6 1023 86 10000 0.5 0 22:22 09.11.2020
6524 Clear 7 1023 93 10000 0.83 45 21:45 09.11.2020
6525 Clear 7 1023 93 10000 0.76 51 21:27 09.11.2020
6526 Clear 7 1023 86 10000 0.76 51 20:44 09.11.2020
6527 Clear 7 1023 86 10000 0.71 56 20:22 09.11.2020
6528 Clear 8 1022 75 10000 0.71 56 19:49 09.11.2020
6529 Clear 9 1022 75 10000 0.65 68 19:24 09.11.2020
6530 Clear 8 1022 75 10000 1 0 18:59 09.11.2020
6531 Clear 10 1022 75 10000 1 0 18:40 09.11.2020
6532 Clear 11 1022 66 10000 1 260 18:19 09.11.2020
6533 Clear 11 1022 66 10000 1 260 17:44 09.11.2020
6534 Clear 14 1022 44 10000 2.1 210 17:26 09.11.2020
6535 Clear 14 1022 44 10000 2.1 210 16:44 09.11.2020
6536 Clear 14 1022 44 10000 2.1 210 16:24 09.11.2020
6537 Clear 16 1022 44 10000 1.5 250 15:48 09.11.2020
6538 Clear 16 1022 44 10000 1.5 250 15:29 09.11.2020
6539 Clear 17 1022 36 10000 0.5 0 14:53 09.11.2020
6540 Clear 17 1022 36 10000 0.5 0 14:29 09.11.2020
6541 Clear 17 1022 36 10000 1.5 190 13:59 09.11.2020
6542 Clear 17 1022 36 10000 1.5 190 13:38 09.11.2020
6543 Clear 16 1023 44 10000 1 0 13:18 09.11.2020
6544 Clear 16 1023 44 10000 1 0 12:41 09.11.2020
6545 Clear 15 1024 47 10000 1.5 110 12:21 09.11.2020
6546 Clear 15 1024 47 10000 1.5 110 11:43 09.11.2020
6547 Clear 13 1024 54 10000 1.5 90 11:24 09.11.2020
6548 Clear 13 1024 54 10000 1.5 90 10:58 09.11.2020
6549 Clear 13 1024 54 10000 1.5 90 10:40 09.11.2020
6550 Clear 13 1024 54 10000 1.5 90 10:21 09.11.2020
6551 Clear 11 1025 61 10000 1 0 09:30 09.11.2020
6552 Clear 9 1025 75 10000 0.87 98 08:54 09.11.2020
6553 Clear 9 1025 75 10000 1.01 91 08:28 09.11.2020
6554 Clear 7 1025 86 10000 1.01 91 07:55 09.11.2020
6555 Clear 6 1025 86 10000 1.19 88 07:23 09.11.2020
6556 Clear 4 1024 58 10000 1.06 97 06:52 09.11.2020
6557 Clear 3 1024 76 10000 1.09 82 04:55 09.11.2020
6558 Clear 4 1024 86 10000 0.5 0 01:59 09.11.2020
6559 Clear 4 1024 86 10000 0.5 0 01:40 09.11.2020
6560 Clear 4 1025 86 10000 1 0 00:55 09.11.2020
6561 Clear 5 1024 86 10000 2.1 250 23:46 08.11.2020
6562 Clear 5 1024 86 10000 2.1 250 23:24 08.11.2020
6563 Clear 6 1024 80 10000 0.5 0 22:43 08.11.2020
6564 Clear 6 1024 80 10000 0.5 0 22:22 08.11.2020
6565 Clear 7 1025 75 10000 0.5 0 21:47 08.11.2020
6566 Clear 7 1025 75 10000 0.5 0 21:22 08.11.2020
6567 Clear 8 1024 65 10000 1.67 49 20:57 08.11.2020
6568 Clear 8 1024 65 10000 1.67 49 20:38 08.11.2020
6569 Clear 9 1024 61 10000 1 0 20:20 08.11.2020
6570 Clear 10 1024 61 10000 1 0 19:45 08.11.2020
6571 Clear 10 1024 61 10000 1 0 19:22 08.11.2020
6572 Clear 11 1024 53 10000 2.6 100 18:57 08.11.2020
6573 Clear 11 1024 53 10000 2.6 100 18:39 08.11.2020
6574 Clear 12 1024 50 10000 2.6 150 18:20 08.11.2020
6575 Clear 11 1024 50 10000 2.6 150 17:42 08.11.2020
6576 Clear 12 1024 43 10000 4.6 60 17:20 08.11.2020
6577 Clear 13 1024 43 10000 4.6 60 16:57 08.11.2020
6578 Clear 13 1024 43 10000 4.6 60 16:57 08.11.2020
6579 Clear 13 1024 43 10000 4.6 60 16:38 08.11.2020
6580 Clear 14 1024 38 10000 5.7 70 16:19 08.11.2020
6581 Clear 14 1024 38 10000 5.7 70 15:45 08.11.2020
6582 Clear 14 1024 38 10000 5.7 70 15:26 08.11.2020
6583 Clear 15 1024 38 10000 4.6 60 14:43 08.11.2020
6584 Clear 15 1024 38 10000 4.6 60 14:24 08.11.2020
6585 Clear 15 1024 41 10000 4.6 40 13:56 08.11.2020
6586 Clear 15 1024 41 10000 4.6 40 13:25 08.11.2020
6587 Clear 15 1025 44 10000 3.6 70 12:55 08.11.2020
6588 Clear 15 1025 44 10000 3.6 70 12:37 08.11.2020
6589 Clear 14 1026 47 10000 6.2 40 12:18 08.11.2020
6590 Clear 14 1026 47 10000 6.2 40 11:42 08.11.2020
6591 Clear 14 1026 47 10000 6.2 40 11:24 08.11.2020
6592 Clear 13 1026 50 10000 5.1 60 10:53 08.11.2020
6593 Clear 12 1026 50 10000 5.1 60 10:21 08.11.2020
6594 Clear 11 1027 57 10000 7.2 50 09:59 08.11.2020
6595 Clear 11 1027 57 10000 7.2 50 09:41 08.11.2020
6596 Clear 9 1028 61 10000 3.66 61 09:18 08.11.2020
6597 Clear 9 1028 61 10000 3.66 61 08:44 08.11.2020
6598 Clear 9 1028 61 10000 3.56 55 08:22 08.11.2020
6599 Clear 7 1028 65 10000 3.56 55 07:53 08.11.2020
6600 Clear 7 1028 65 10000 3.41 47 07:31 08.11.2020
6601 Clear 4 1028 71 10000 2.87 41 06:27 08.11.2020
6602 Clear 4 1028 71 10000 1 0 05:54 08.11.2020
6603 Clear 4 1028 86 10000 1 0 04:50 08.11.2020
6604 Clear 4 1029 67 10000 1 0 02:20 08.11.2020
6605 Clear 5 1029 86 10000 2.64 47 01:19 08.11.2020
6606 Clear 5 1029 86 10000 2.64 47 01:19 08.11.2020
6607 Clear 5 1029 86 10000 2.64 47 01:19 08.11.2020
6608 Clear 4 1029 86 10000 2.41 51 00:31 08.11.2020
6609 Clear 4 1029 86 10000 2.41 51 00:31 08.11.2020
6610 Clear 5 1028 80 10000 0.5 0 23:51 07.11.2020
6611 Clear 5 1028 80 10000 0.5 0 23:31 07.11.2020
6612 Clear 6 1028 75 10000 1 230 22:48 07.11.2020
6613 Clear 6 1028 75 10000 1 230 22:28 07.11.2020
6614 Clear 6 1028 75 10000 0.5 0 21:58 07.11.2020
6615 Clear 6 1028 75 10000 0.5 0 21:40 07.11.2020
6616 Clear 7 1028 70 10000 2.22 40 21:19 07.11.2020
6617 Clear 7 1028 70 10000 2.22 40 20:45 07.11.2020
6618 Clear 7 1028 70 10000 2.39 36 20:27 07.11.2020
6619 Clear 8 1027 61 10000 1.5 220 19:48 07.11.2020
6620 Clear 8 1027 61 10000 1.5 220 19:27 07.11.2020
6621 Clear 9 1027 54 10000 1.5 240 18:45 07.11.2020
6622 Clear 9 1027 52 10000 1.5 240 18:26 07.11.2020
6623 Clear 9 1026 53 10000 0.5 0 17:53 07.11.2020
6624 Clear 9 1026 53 10000 0.5 0 17:34 07.11.2020
6625 Clear 11 1026 37 10000 1.92 66 16:47 07.11.2020
6626 Clear 11 1026 37 10000 2.22 75 16:26 07.11.2020
6627 Clear 13 1025 33 10000 0.5 0 15:58 07.11.2020
6628 Clear 13 1025 33 10000 0.5 0 15:40 07.11.2020
6629 Clouds 14 1025 33 10000 2.6 60 15:20 07.11.2020
6630 Clouds 14 1025 33 10000 2.6 60 14:43 07.11.2020
6631 Clouds 14 1025 33 10000 2.6 60 14:24 07.11.2020
6632 Clouds 14 1025 39 10000 2.6 0 13:55 07.11.2020
6633 Clouds 14 1025 39 10000 2.6 0 13:30 07.11.2020
6634 Clouds 13 1026 39 10000 2.1 0 12:47 07.11.2020
6635 Clouds 13 1026 41 10000 2.1 0 12:25 07.11.2020
6636 Clouds 12 1027 46 10000 2.1 0 11:43 07.11.2020
6637 Clouds 12 1027 46 10000 2.1 0 11:22 07.11.2020
6638 Clouds 11 1027 46 10000 3.1 20 10:45 07.11.2020
6639 Clouds 11 1027 46 10000 3.1 20 10:27 07.11.2020
6640 Clouds 10 1027 50 10000 3.1 30 09:53 07.11.2020
6641 Clouds 10 1027 50 10000 3.1 30 09:34 07.11.2020
6642 Clouds 9 1027 61 10000 2.6 20 08:53 07.11.2020
6643 Clouds 9 1027 61 10000 2.1 360 08:35 07.11.2020
6644 Clouds 9 1027 70 10000 2.87 20 07:51 07.11.2020
6645 Clouds 9 1027 70 10000 1.78 15 07:29 07.11.2020
6646 Clouds 8 1026 75 10000 1.78 15 06:47 07.11.2020
6647 Clouds 7 1026 75 10000 1.89 17 05:24 07.11.2020
6648 Clear 8 1025 75 10000 1 240 03:24 07.11.2020
6649 Clouds 7 1025 75 10000 1 0 01:29 07.11.2020
6650 Clear 6 1025 86 10000 1.5 230 00:59 07.11.2020
6651 Clear 7 1025 81 10000 0.5 0 23:56 06.11.2020
6652 Clear 7 1025 81 10000 1.5 220 23:22 06.11.2020
6653 Clear 7 1025 81 10000 1.5 220 22:42 06.11.2020
6654 Clear 8 1024 75 10000 1.5 230 22:19 06.11.2020
6655 Clear 8 1024 75 10000 1.5 230 21:46 06.11.2020
6656 Clear 9 1025 57 10000 2.6 20 21:22 06.11.2020
6657 Clear 9 1025 57 10000 2.6 20 20:56 06.11.2020
6658 Clear 9 1025 57 10000 2.6 20 20:38 06.11.2020
6659 Clear 10 1024 53 10000 3.1 40 20:18 06.11.2020
6660 Clear 10 1024 53 10000 3.1 40 19:44 06.11.2020
6661 Clear 10 1024 53 10000 3.1 40 19:26 06.11.2020
6662 Clouds 11 1024 57 10000 2.6 40 18:45 06.11.2020
6663 Clouds 11 1024 57 10000 2.6 40 18:23 06.11.2020
6664 Clouds 11 1023 58 10000 2.6 50 17:51 06.11.2020
6665 Clouds 11 1023 58 10000 2.6 50 17:27 06.11.2020
6666 Clouds 12 1023 54 10000 3.1 360 16:50 06.11.2020
6667 Clouds 12 1023 54 10000 3.1 360 16:31 06.11.2020
6668 Clouds 14 1022 50 10000 3.6 360 15:53 06.11.2020
6669 Clouds 14 1022 50 10000 3.6 360 15:33 06.11.2020
6670 Clouds 16 1021 42 10000 4.1 360 14:54 06.11.2020
6671 Clouds 16 1021 42 10000 4.1 360 14:27 06.11.2020
6672 Clouds 17 1021 36 10000 3.6 40 13:49 06.11.2020
6673 Clouds 16 1021 36 10000 3.6 40 13:25 06.11.2020
6674 Clouds 16 1021 36 10000 4.1 50 12:47 06.11.2020
6675 Clouds 16 1021 36 10000 4.1 50 12:25 06.11.2020
6676 Clouds 15 1022 44 10000 2.6 90 11:58 06.11.2020
6677 Clouds 15 1022 44 10000 2.6 90 11:36 06.11.2020
6678 Clouds 15 1022 54 10000 1 0 10:51 06.11.2020
6679 Clouds 14 1022 54 10000 1 0 10:30 06.11.2020
6680 Clouds 13 1022 62 10000 2.1 170 09:50 06.11.2020
6681 Clouds 12 1022 76 10000 0.5 0 09:27 06.11.2020
6682 Clouds 11 1022 76 10000 0.5 0 08:53 06.11.2020
6683 Clouds 11 1022 76 10000 0.5 0 08:31 06.11.2020
6684 Clouds 9 1022 87 10000 3.14 7 07:56 06.11.2020
6685 Clouds 9 1022 87 10000 2.81 3 07:37 06.11.2020
6686 Clouds 8 1021